<<back to data home page
Ready for summer? Stay in touch!! - DONATE ANY AMOUNT BY CLICKING THIS LINK!!!


    Month/Day/Year       Maximum   Minimum    Rel    Dew       Rainfall  Seasonal  Soil     Soil      Baro       Wind    Wind        Peak    Peak Gust  Evap     Leaf     Net
    and                  Air Temp  Air Temp   Hum    Point     Inches    Rainfall  Temp     Moisture  Pressure   Speed   Direction   Gust    Direction  Pan      Wetness  Radiation
    Local Time           Deg F     Deg F      %      Deg F               Inches    Deg F    dS/m      mbar       knots   comp deg    knots   comp deg   Inches   mV       W_m2
----------------------------------------------------------------------------------------------------------------------------------------------------------------------------------
   06/24/2017 01:30      66.6      66.2       75     58.3      0.00     18.28      84.1     0.36      1012.0     2       326         2       337        7.60     270      -42.6
   06/24/2017 01:20      66.3      65.7       76     58.4      0.00     18.28      84.2     0.36      1012.0     2       277         2       324        7.60     270      -45.8
   06/24/2017 01:10      65.8      65.7       76     58.0      0.00     18.28      84.4     0.36      1013.0     1       204         2       227        7.60     270      -50.3
   06/24/2017 01:00      66.0      65.8       76     58.1      0.00     18.28      84.3     0.36      1013.0     1        94         2        78        7.60     270      -52.9
   06/24/2017 00:50      66.1      65.8       76     58.1      0.00     18.28      84.4     0.36      1013.0     2        87         4        84        7.60     270      -54.3
   06/24/2017 00:40      66.1      66.0       76     58.1      0.00     18.28      84.3     0.36      1012.0     2        82         3        71        7.60     270      -56.6
   06/24/2017 00:30      66.3      66.1       75     58.0      0.00     18.28      84.5     0.36      1012.0     2       107         3        86        7.60     270      -56.7
   06/24/2017 00:20      66.6      66.2       74     57.8      0.00     18.28      84.6     0.36      1012.0     2        98         3        76        7.60     270      -57.0
   06/24/2017 00:10      66.9      66.6       73     57.9      0.00     18.28      84.6     0.36      1012.0     2        47         3        79        7.60     270      -60.1
   06/24/2017 00:00      67.0      66.6       73     58.0      0.00     18.28      84.3     0.36      1013.0     2        25         2        27        7.60     269      -62.1
   06/23/2017 23:50      66.8      66.4       74     58.2      0.00     18.28      84.4     0.36      1013.0     1        30         2        32        7.60     269      -61.0
   06/23/2017 23:40      66.8      66.5       74     58.3      0.00     18.28      84.6     0.36      1013.0     1        47         1        72        7.60     269      -59.8
   06/23/2017 23:30      66.8      66.3       75     58.5      0.00     18.28      84.5     0.36      1013.0     1        43         2        12        7.60     269      -58.8
   06/23/2017 23:20      66.4      66.2       76     58.5      0.00     18.28      84.3     0.36      1013.0     1        58         1        68        7.60     269      -56.3
   06/23/2017 23:10      66.4      66.2       76     58.4      0.00     18.28      84.5     0.36      1013.0     1        87         2       115        7.60     269      -57.9
   06/23/2017 23:00      66.7      66.3       75     58.4      0.00     18.28      84.3     0.36      1013.0     1        73         2       106        7.60     269      -62.7
   06/23/2017 22:50      66.5      66.3       75     58.5      0.00     18.28      84.6     0.36      1013.0     2        66         3        64        7.61     269      -64.2
   06/23/2017 22:40      66.8      66.4       75     58.5      0.00     18.28      84.4     0.36      1013.0     2       101         3        88        7.61     269      -66.3
   06/23/2017 22:30      67.0      66.7       74     58.4      0.00     18.28      84.7     0.36      1013.0     3        80         5        72        7.61     269      -66.8
   06/23/2017 22:20      67.6      67.2       73     58.4      0.00     18.28      84.6     0.36      1013.0     3        88         5        93        7.61     269      -67.5
   06/23/2017 22:10      68.3      67.6       72     58.5      0.00     18.28      84.7     0.36      1013.0     2        94         4        78        7.61     269      -69.2
   06/23/2017 22:00      68.8      68.4       70     58.5      0.00     18.28      84.6     0.36      1013.0     1        47         2        51        7.61     269      -71.8
   06/23/2017 21:50      69.2      68.8       70     58.7      0.00     18.28      84.5     0.36      1013.0     2        38         4        80        7.62     269      -73.2
   06/23/2017 21:40      69.2      69.1       69     58.7      0.00     18.28      84.6     0.36      1013.0     1        37         2        67        7.62     269      -74.2
   06/23/2017 21:30      69.4      69.1       69     58.7      0.00     18.28      84.3     0.36      1013.0     1        50         3        51        7.62     269      -75.6
   06/23/2017 21:20      69.8      69.4       68     58.6      0.00     18.28      84.5     0.36      1013.0     2        65         4        72        7.62     269      -76.3
   06/23/2017 21:10      70.0      69.7       68     58.6      0.00     18.28      84.6     0.36      1012.0     2        36         3        23        7.62     269      -76.8
   06/23/2017 21:00      70.6      70.0       66     58.5      0.00     18.28      84.2     0.36      1012.0     3        76         4        82        7.62     269      -77.8
   06/23/2017 20:50      71.1      70.8       65     58.5      0.00     18.28      84.4     0.36      1012.0     3        68         4        64        7.62     269      -79.3
   06/23/2017 20:40      72.0      71.1       65     58.9      0.00     18.28      84.6     0.36      1012.0     3        88         5        97        7.63     268      -80.4
   06/23/2017 20:30      73.0      72.0       62     59.0      0.00     18.28      84.5     0.36      1012.0     4        94         6        74        7.63     268      -82.2
   06/23/2017 20:20      74.6      73.3       60     59.2      0.00     18.28      84.3     0.36      1012.0     3        90         4        97        7.63     268      -82.5
   06/23/2017 20:10      76.4      75.0       57     59.2      0.00     18.28      84.4     0.36      1012.0     3        57         4        67        7.64     268      -82.3
   06/23/2017 20:00      77.8      76.6       54     59.3      0.00     18.28      84.4     0.36      1012.0     2        35         3        17        7.64     268      -79.2
   06/23/2017 19:50      79.4      77.9       53     59.6      0.00     18.28      84.4     0.36      1012.0     2        22         5       356        7.64     268      -75.3
   06/23/2017 19:40      81.0      79.6       50     60.0      0.00     18.28      84.4     0.36      1012.0     2        10         4        12        7.64     268      -64.8
   06/23/2017 19:30      81.9      81.2       49     60.4      0.00     18.28      84.4     0.36      1012.0     2        32         4       348        7.65     268      -49.3
   06/23/2017 19:20      82.9      81.9       48     60.6      0.00     18.28      84.3     0.36      1011.0     2        55         3        15        7.65     268      -32.4
   06/23/2017 19:10      83.2      82.5       46     60.3      0.00     18.28      84.3     0.36      1011.0     2        74         4       121        7.65     268      -11.2
   06/23/2017 19:00      82.6      82.4       47     60.3      0.00     18.28      84.2     0.36      1011.0     3       154         4       171        7.66     268       10.2
   06/23/2017 18:50      83.7      82.5       46     60.2      0.00     18.28      84.1     0.36      1011.0     4       169         6       180        7.66     268       32.9
   06/23/2017 18:40      85.6      83.6       44     60.5      0.00     18.28      84.1     0.36      1011.0     3       130         4       162        7.66     268       52.5
   06/23/2017 18:30      86.6      85.5       43     60.7      0.00     18.28      84.3     0.36      1011.0     3        56         6        63        7.67     268       73.2
   06/23/2017 18:20      87.1      86.8       42     60.9      0.00     18.28      84.0     0.36      1011.0     3        47         5        70        7.67     268       96.1
   06/23/2017 18:10      87.7      86.9       41     61.0      0.00     18.28      84.2     0.36      1011.0     4        66         7        80        7.68     268      119.8
   06/23/2017 18:00      88.6      87.5       40     60.9      0.00     18.28      83.9     0.36      1011.0     4        58         5        67        7.71     268      143.8
   06/23/2017 17:50      89.0      88.0       40     60.9      0.00     18.28      84.1     0.36      1010.0     3        41         5        27        7.71     268      163.4
   06/23/2017 17:40      90.3      89.6       38     61.3      0.00     18.28      83.8     0.36      1010.0     4        54         5        77        7.71     268      185.5
   06/23/2017 17:30      90.8      90.3       38     61.4      0.00     18.28      83.9     0.36      1010.0     4        43         5        82        7.72     268      208.2
   06/23/2017 17:20      90.9      90.3       38     61.6      0.00     18.28      83.7     0.36      1011.0     3        29         5        18        7.72     268      231.9
   06/23/2017 17:10      90.9      90.6       38     61.6      0.00     18.28      83.7     0.36      1011.0     3        24         4        26        7.72     268      253.4
   06/23/2017 17:00      90.6      90.2       38     61.5      0.00     18.28      83.6     0.36      1011.0     2        56         3        79        7.72     268      274.4
   06/23/2017 16:50      90.2      89.8       38     61.5      0.00     18.28      83.6     0.36      1011.0     3        36         5        31        7.72     268      293.3
   06/23/2017 16:40      90.2      89.2       39     61.4      0.00     18.28      83.4     0.36      1011.0     3        46         5        74        7.73     268      314.8
   06/23/2017 16:30      89.5      88.9       39     61.4      0.00     18.28      83.6     0.36      1011.0     4        54         5        28        7.77     268      334.7
   06/23/2017 16:20      90.1      89.5       39     61.4      0.00     18.28      83.4     0.36      1011.0     4        51         6        62        7.78     268      353.3
   06/23/2017 16:10      90.6      89.8       38     61.5      0.00     18.28      83.5     0.36      1011.0     3        31         6         1        7.78     268      371.7
   06/23/2017 16:00      90.3      89.6       39     61.5      0.00     18.28      83.2     0.36      1011.0     3        51         6        14        7.78     268      390.8
   06/23/2017 15:50      89.7      89.0       39     61.2      0.00     18.28      83.2     0.36      1011.0     4        31         5        31        7.79     268      408.5
   06/23/2017 15:40      90.3      88.9       39     61.6      0.00     18.28      83.1     0.36      1011.0     3        34         4        42        7.79     268      424.3
   06/23/2017 15:30      90.5      89.4       39     61.6      0.00     18.28      83.2     0.36      1011.0     3        34         4        50        7.79     268      440.3
   06/23/2017 15:20      89.7      89.0       39     61.4      0.00     18.28      83.1     0.36      1011.0     3        43         5        55        7.80     268      455.8
   06/23/2017 15:10      89.8      89.0       40     61.6      0.00     18.28      83.0     0.35      1011.0     5        62         8       113        7.80     268      471.4
   06/23/2017 15:00      89.5      88.9       40     61.7      0.00     18.28      82.9     0.35      1011.0     3        43         5        84        7.80     268      481.3
   06/23/2017 14:50      90.3      89.4       39     61.7      0.00     18.28      82.8     0.35      1011.0     5        39         8       100        7.81     268      494.2
   06/23/2017 14:40      90.2      89.4       39     61.8      0.00     18.28      82.8     0.35      1011.0     5        22         7       348        7.81     268      504.2
   06/23/2017 14:30      90.2      88.7       39     61.7      0.00     18.28      82.8     0.35      1011.0     4        29         6        73        7.81     268      514.4
   06/23/2017 14:20      89.0      88.0       41     61.5      0.00     18.28      82.5     0.35      1011.0     4        23         6        11        7.81     268      522.4
   06/23/2017 14:10      88.9      88.2       40     61.5      0.00     18.28      82.7     0.35      1011.0     3        33         5        21        7.82     268      531.1
   06/23/2017 14:00      88.8      87.8       41     61.5      0.00     18.28      82.6     0.35      1011.0     3        41         6        23        7.82     268      537.1
   06/23/2017 13:50      88.2      86.7       41     61.3      0.00     18.28      82.5     0.35      1011.0     4        32         5        31        7.83     268      544.7
   06/23/2017 13:40      88.5      87.1       41     61.1      0.00     18.28      82.4     0.35      1011.0     4        36         7        67        7.83     268      551.2
   06/23/2017 13:30      87.7      85.9       42     61.3      0.00     18.28      82.5     0.35      1011.0     4        28         5        33        7.83     269      556.0
   06/23/2017 13:20      86.6      85.9       43     61.2      0.00     18.28      82.5     0.35      1011.0     3        35         5        29        7.83     269      561.6
   06/23/2017 13:10      87.3      86.3       43     61.4      0.00     18.28      82.4     0.35      1011.0     4        32         8        37        7.83     269      564.8
   06/23/2017 13:00      87.2      85.9       43     61.5      0.00     18.28      82.3     0.35      1012.0     4        64         7        68        7.83     269      569.9
   06/23/2017 12:50      86.2      85.9       44     61.5      0.00     18.28      82.3     0.35      1012.0     4        51         6        81        7.83     269      570.0
   06/23/2017 12:40      86.8      85.8       44     61.6      0.00     18.28      82.4     0.35      1012.0     4        50         5        27        7.84     269      570.2
   06/23/2017 12:30      85.8      85.4       45     61.7      0.00     18.28      82.4     0.35      1012.0     5        50         7        95        7.84     269      565.4
   06/23/2017 12:20      87.1      86.2       43     61.8      0.00     18.28      82.2     0.35      1012.0     4        35         7         7        7.84     269      559.2
   06/23/2017 12:10      87.1      86.5       43     61.5      0.00     18.28      82.3     0.35      1012.0     3        30         5        11        7.84     270      556.7
   06/23/2017 12:00      86.8      84.8       44     61.1      0.00     18.28      82.4     0.35      1012.0     3        20         6       349        7.84     270      554.3
   06/23/2017 11:50      85.2      84.6       45     60.9      0.00     18.28      82.2     0.35      1012.0     3        80         6        76        7.84     270      550.8
   06/23/2017 11:40      84.8      84.3       45     60.8      0.00     18.28      82.3     0.35      1012.0     3        45         5        38        7.84     270      542.9
   06/23/2017 11:30      84.0      82.9       47     61.0      0.00     18.28      82.3     0.35      1012.0     3        51         4        19        7.84     270      536.5
   06/23/2017 11:20      83.4      82.2       48     61.0      0.00     18.28      82.4     0.35      1012.0     3        13         5        44        7.84     270      529.4
   06/23/2017 11:10      82.6      81.6       49     60.9      0.00     18.28      82.3     0.35      1012.0     4        30         5        98        7.84     270      521.4
   06/23/2017 11:00      81.4      80.7       50     60.5      0.00     18.28      82.2     0.35      1012.0     2         3         4        28        7.85     271      514.1
   06/23/2017 10:50      81.4      79.5       51     60.3      0.00     18.28      82.4     0.35      1012.0     2        56         3        88        7.85     271      508.7
   06/23/2017 10:40      79.5      78.4       52     60.0      0.00     18.28      82.3     0.35      1012.0     2        50         4        63        7.85     271      480.8
   06/23/2017 10:30      78.8      78.2       53     59.8      0.00     18.28      82.5     0.35      1012.0     3       355         5       354        7.85     271      236.0
   06/23/2017 10:20      78.6      77.3       53     59.6      0.00     18.28      82.4     0.36      1012.0     3         5         4        22        7.85     271      470.9
   06/23/2017 10:10      77.6      76.4       55     59.9      0.00     18.28      82.4     0.36      1012.0     2        37         4        66        7.85     271      429.5
   06/23/2017 10:00      76.3      75.8       57     59.7      0.00     18.28      82.6     0.36      1012.0     3         8         5       351        7.85     271      431.0
   06/23/2017 09:50      76.0      74.8       58     59.7      0.00     18.28      82.7     0.36      1012.0     3         4         4       338        7.85     271      413.8
   06/23/2017 09:40      76.0      74.8       58     59.6      0.00     18.28      82.6     0.36      1012.0     2       326         3       328        7.85     271      394.4
   06/23/2017 09:30      76.2      74.7       58     59.8      0.00     18.28      82.3     0.36      1012.0     1       330         2       329        7.85     271      376.0
   06/23/2017 09:20      74.4      72.6       61     59.5      0.00     18.28      82.5     0.36      1012.0     2        49         4        88        7.85     271      358.4
   06/23/2017 09:10      72.5      71.2       65     59.4      0.00     18.28      82.4     0.36      1012.0     1       171         2        23        7.86     271      344.0
   06/23/2017 09:00      71.6      70.2       67     59.3      0.00     18.28      82.6     0.36      1012.0     2        81         3       115        7.86     271      335.0
   06/23/2017 08:50      70.2      68.6       70     59.1      0.00     18.28      82.7     0.36      1013.0     2        48         4        79        7.86     271      328.7
   06/23/2017 08:40      68.7      68.1       72     59.1      0.00     18.28      83.0     0.36      1013.0     2        32         3        29        7.86     271       47.7
   06/23/2017 08:30      68.0      67.5       74     59.0      0.00     18.28      82.9     0.36      1013.0     2        60         3        31        7.86     271       20.2
   06/23/2017 08:20      67.6      66.8       75     59.0      0.00     18.28      82.7     0.36      1013.0     2        53         3        36        7.86     271       12.0
   06/23/2017 08:10      66.8      65.9       77     59.0      0.00     18.28      82.8     0.36      1012.0     2       358         3       348        7.86     271       14.1
   06/23/2017 08:00      66.2      65.8       78     58.8      0.00     18.28      83.1     0.36      1013.0     2       347         3       325        7.86     271       20.5
   06/23/2017 07:50      66.4      65.8       78     58.9      0.00     18.28      82.6     0.36      1013.0     2        55         3        14        7.86     271       26.7
   06/23/2017 07:40      65.8      65.3       79     58.8      0.00     18.28      82.6     0.36      1013.0     2        52         3        72        7.86     271       57.7
   06/23/2017 07:30      65.5      65.2       79     58.8      0.00     18.28      82.5     0.36      1012.0     2        43         3        51        7.86     271       54.8
   06/23/2017 07:20      65.5      65.0       80     58.8      0.00     18.28      82.8     0.36      1012.0     2        54         3        70        7.86     271       46.9
   06/23/2017 07:10      65.4      64.7       81     58.8      0.00     18.28      82.4     0.36      1012.0     2        50         3        65        7.86     271       38.8
   06/23/2017 07:00      64.9      64.4       81     58.8      0.00     18.28      83.0     0.36      1012.0     2        62         2        46        7.86     271       29.7
   06/23/2017 06:50      64.5      64.3       82     58.6      0.00     18.28      82.8     0.36      1012.0     1       115         2       128        7.86     271       19.9
   06/23/2017 06:40      64.7      64.4       81     58.7      0.00     18.28      82.9     0.36      1012.0     2        43         3        85        7.87     271        5.5
   06/23/2017 06:30      64.6      64.3       82     58.7      0.00     18.28      83.1     0.36      1012.0     2       349         3       350        7.87     271       -3.8
   06/23/2017 06:20      64.4      63.9       83     58.7      0.00     18.28      83.2     0.36      1012.0     1        44         3       358        7.88     271       -2.2
   06/23/2017 06:10      64.0      63.8       83     58.6      0.00     18.28      83.1     0.36      1012.0     1         2         2       329        7.87     271       -8.3
   06/23/2017 06:00      63.8      63.5       83     58.5      0.00     18.28      83.0     0.36      1012.0     2       336         2        49        7.88     271      -13.1
   06/23/2017 05:50      63.8      63.3       84     58.6      0.00     18.28      83.0     0.36      1012.0     1        66         3        99        7.88     271      -15.3
   06/23/2017 05:40      63.5      63.2       84     58.5      0.00     18.28      83.2     0.36      1011.0     1        83         3       106        7.88     271      -15.5
   06/23/2017 05:30      63.5      63.3       84     58.6      0.00     18.28      83.3     0.36      1011.0     2       199         3       317        7.88     271      -17.1
   06/23/2017 05:20      63.4      63.1       85     58.5      0.00     18.28      82.7     0.36      1011.0     1       351         2       320        7.88     271      -17.5
   06/23/2017 05:10      63.3      63.1       85     58.5      0.00     18.28      83.4     0.36      1011.0     2       336         3       324        7.88     271      -18.0
   06/23/2017 05:00      63.4      63.0       85     58.4      0.00     18.28      83.7     0.36      1011.0     2       236         4       245        7.88     271      -16.5
   06/23/2017 04:50      63.2      62.9       85     58.4      0.00     18.28      83.5     0.36      1011.0     1       231         2       231        7.88     271      -16.1
   06/23/2017 04:40      63.0      62.8       85     58.4      0.00     18.28      83.2     0.36      1011.0     1       193         2       208        7.88     271      -15.5
   06/23/2017 04:30      63.1      62.9       85     58.5      0.00     18.28      83.5     0.36      1011.0     1       155         1       164        7.88     271      -15.4
   06/23/2017 04:20      63.1      62.9       85     58.5      0.00     18.28      83.5     0.36      1011.0     1        51         2        52        7.88     271      -15.1
   06/23/2017 04:10      62.9      62.8       86     58.5      0.00     18.28      83.6     0.36      1011.0     2        69         4        76        7.88     271      -15.1
   06/23/2017 04:00      63.0      62.6       86     58.6      0.00     18.28      83.7     0.36      1011.0     1        35         2        88        7.88     271      -15.2
   06/23/2017 03:50      62.8      62.5       86     58.5      0.00     18.28      83.5     0.36      1011.0     2        51         3        79        7.88     271      -15.0
   06/23/2017 03:40      62.8      62.4       86     58.4      0.00     18.28      83.6     0.36      1011.0     1        50         2        72        7.88     271      -15.2
   06/23/2017 03:30      62.7      62.5       87     58.5      0.00     18.28      83.4     0.36      1011.0     1        64         2        38        7.88     271      -15.3
   06/23/2017 03:20      62.6      62.3       87     58.5      0.00     18.28      83.7     0.36      1011.0     2       100         3       109        7.88     271      -14.7
   06/23/2017 03:10      63.0      62.7       86     58.5      0.00     18.28      83.3     0.36      1011.0     2        99         3        65        7.88     271      -15.0
   06/23/2017 03:00      63.2      62.8       86     58.6      0.00     18.28      83.7     0.36      1011.0     2        22         4         9        7.88     270      -15.3
   06/23/2017 02:50      63.0      62.7       86     58.5      0.00     18.28      83.8     0.36      1011.0     2       351         3        23        7.88     271      -17.1
   06/23/2017 02:40      62.9      62.8       85     58.5      0.00     18.28      83.9     0.36      1012.0     1        71         2        61        7.88     271      -20.7
   06/23/2017 02:30      63.1      62.9       85     58.5      0.00     18.28      83.6     0.36      1012.0     1        31         3        28        7.88     270      -28.3
   06/23/2017 02:20      63.0      62.8       86     58.5      0.00     18.28      83.9     0.36      1012.0     1        35         2        38        7.88     270      -32.8
   06/23/2017 02:10      62.9      62.4       87     58.6      0.00     18.28      83.7     0.36      1012.0     2        14         3        40        7.88     270      -34.1
   06/23/2017 02:00      62.6      62.3       87     58.4      0.00     18.28      83.8     0.36      1012.0     2        32         4        83        7.88     270      -30.6
   06/23/2017 01:50      62.6      62.4       86     58.4      0.00     18.28      84.0     0.36      1012.0     2        49         2        30        7.88     270      -30.3
   06/23/2017 01:40      62.6      62.2       87     58.4      0.00     18.28      83.9     0.36      1012.0     2        44         3        73        7.88     270      -34.2
   06/23/2017 01:30      62.6      62.3       86     58.2      0.00     18.28      84.0     0.36      1012.0     3        81         4        62        7.89     270      -44.5
   06/23/2017 01:20      63.0      62.6       85     58.2      0.00     18.28      84.0     0.36      1012.0     3        62         4        69        7.89     270      -62.2
   06/23/2017 01:10      63.5      63.0       84     58.2      0.00     18.28      83.9     0.36      1012.0     3        44         4        61        7.89     270      -65.4
   06/23/2017 01:00      63.7      63.4       83     58.2      0.00     18.28      84.3     0.36      1011.0     2        21         3         9        7.89     270      -65.9
   06/23/2017 00:50      63.9      63.7       82     58.1      0.00     18.28      84.3     0.36      1011.0     2        48         3        35        7.89     270      -66.3
   06/23/2017 00:40      64.1      63.8       81     58.0      0.00     18.28      84.2     0.36      1012.0     2        45         4        66        7.89     269      -66.9
   06/23/2017 00:30      64.3      64.1       81     58.2      0.00     18.28      84.0     0.36      1012.0     2        48         3        91        7.89     269      -67.3
   06/23/2017 00:20      64.7      64.4       80     58.1      0.00     18.28      84.1     0.36      1012.0     2        67         3        34        7.89     269      -67.4
   06/23/2017 00:10      65.2      64.9       78     58.2      0.00     18.28      84.2     0.36      1012.0     2        50         2        30        7.89     269      -68.7
   06/23/2017 00:00      65.8      65.3       77     58.2      0.00     18.28      84.3     0.36      1012.0     3        57         4        80        7.89     269      -68.8
   06/22/2017 23:50      66.3      65.8       76     58.3      0.00     18.28      84.1     0.36      1012.0     2        41         4        16        7.89     269      -69.7
   06/22/2017 23:40      66.4      66.1       75     58.2      0.00     18.28      84.2     0.36      1012.0     2        47         2        51        7.89     269      -70.6
   06/22/2017 23:30      66.8      66.4       74     58.2      0.00     18.28      84.3     0.36      1012.0     3        44         5        78        7.89     269      -71.2
   06/22/2017 23:20      67.3      67.1       73     58.3      0.00     18.28      84.1     0.36      1012.0     3        56         5        85        7.89     269      -71.9
   06/22/2017 23:10      67.9      67.4       72     58.3      0.00     18.28      84.5     0.36      1011.0     2        62         3        77        7.89     269      -72.4
   06/22/2017 23:00      68.2      67.8       71     58.3      0.00     18.28      84.3     0.36      1011.0     2        59         4        57        7.89     269      -72.9
   06/22/2017 22:50      68.3      68.1       71     58.3      0.00     18.28      84.3     0.36      1011.0     2        58         3        96        7.89     269      -73.6
   06/22/2017 22:40      68.4      68.2       70     58.3      0.00     18.28      84.4     0.36      1011.0     2        52         3        74        7.89     269      -74.5
   06/22/2017 22:30      68.6      68.3       70     58.2      0.00     18.28      84.3     0.36      1011.0     1        68         2        64        7.89     269      -76.0
   06/22/2017 22:20      68.9      68.6       69     58.3      0.00     18.28      84.3     0.36      1011.0     1        79         2        79        7.89     269      -77.2
   06/22/2017 22:10      69.3      69.0       68     58.4      0.00     18.28      84.2     0.36      1011.0     2        65         3        64        7.90     269      -78.7
   06/22/2017 22:00      69.8      69.5       67     58.4      0.00     18.28      84.2     0.36      1011.0     2        45         3        65        7.90     269      -79.3
   06/22/2017 21:50      70.0      69.7       66     58.2      0.00     18.28      84.4     0.36      1011.0     2        52         3        77        7.90     269      -79.9
   06/22/2017 21:40      71.0      70.1       65     58.2      0.00     18.28      84.4     0.36      1011.0     2        81         5        69        7.90     269      -80.9
   06/22/2017 21:30      71.7      71.1       63     58.3      0.00     18.28      84.4     0.36      1010.0     2        53         2        70        7.92     269      -81.6
   06/22/2017 21:20      72.3      71.6       62     58.4      0.00     18.28      84.4     0.36      1010.0     2        55         3        38        7.93     268      -82.6
   06/22/2017 21:10      72.6      72.4       61     58.5      0.00     18.28      84.3     0.36      1010.0     2        15         3         5        7.93     268      -83.2
   06/22/2017 21:00      73.0      72.6       61     58.5      0.00     18.28      84.2     0.36      1010.0     2        48         4        31        7.94     268      -83.8
   06/22/2017 20:50      73.5      73.1       60     58.5      0.00     18.28      84.2     0.36      1010.0     2        36         2        35        7.94     268      -85.1
   06/22/2017 20:40      74.6      73.8       58     58.4      0.00     18.28      84.3     0.36      1010.0     2        38         3        93        7.94     268      -85.8
   06/22/2017 20:30      75.4      74.8       56     58.2      0.00     18.28      84.1     0.36      1010.0     1        26         2         8        7.94     268      -86.4
   06/22/2017 20:20      75.6      75.2       55     58.1      0.00     18.28      84.1     0.36      1009.0     1        28         2        63        7.94     268      -86.0
   06/22/2017 20:10      76.8      75.8       53     57.9      0.00     18.28      84.2     0.36      1009.0     2        59         3        72        7.95     268      -85.0
   06/22/2017 20:00      77.9      76.9       51     57.7      0.00     18.28      84.3     0.36      1009.0     2        34         4        36        7.95     267      -81.9
   06/22/2017 19:50      78.8      78.1       48     57.4      0.00     18.28      84.1     0.36      1009.0     2        32         4        16        7.95     267      -79.2
   06/22/2017 19:40      79.4      78.8       47     57.2      0.00     18.28      84.1     0.36      1009.0     3        31         3        29        7.95     267      -68.2
   06/22/2017 19:30      80.7      79.6       45     57.1      0.00     18.28      84.2     0.36      1009.0     3        48         4        14        7.95     267      -52.3
   06/22/2017 19:20      81.9      80.7       44     57.4      0.00     18.28      84.2     0.36      1009.0     3        36         5        75        7.95     267      -35.5
   06/22/2017 19:10      82.5      81.9       42     56.8      0.00     18.28      84.1     0.36      1009.0     3        57         4        71        7.96     267      -16.5
   06/22/2017 19:00      83.7      82.5       41     57.0      0.00     18.28      83.9     0.36      1009.0     3        50         6        73        7.95     267        5.2
   06/22/2017 18:50      84.2      83.7       40     57.3      0.00     18.28      83.9     0.36      1008.0     3        53         4        81        7.95     267       26.7
   06/22/2017 18:40      84.9      83.9       40     57.4      0.00     18.28      84.0     0.36      1008.0     3        38         5        24        7.96     267       49.9
   06/22/2017 18:30      85.0      84.3       39     56.8      0.00     18.28      84.1     0.36      1008.0     3        46         5        67        7.96     267       72.8
   06/22/2017 18:20      86.0      84.6       37     56.4      0.00     18.28      83.9     0.36      1008.0     4        31         6        32        7.96     267       95.0
   06/22/2017 18:10      86.2      86.0       36     55.9      0.00     18.28      83.9     0.36      1008.0     3        52         5        65        7.97     267      117.2
   06/22/2017 18:00      86.6      86.1       35     55.8      0.00     18.28      83.9     0.36      1008.0     4        39         6        69        7.98     267      139.9
   06/22/2017 17:50      87.4      86.8       35     56.2      0.00     18.28      83.8     0.36      1008.0     3        36         4        34        7.98     267      161.5
   06/22/2017 17:40      87.4      86.8       35     56.6      0.00     18.28      83.8     0.36      1008.0     3        41         4        36        7.99     267      184.1
   06/22/2017 17:30      88.2      87.6       35     57.1      0.00     18.28      83.7     0.36      1008.0     4        32         6        44        7.99     267      207.2
   06/22/2017 17:20      88.2      87.9       35     57.3      0.00     18.28      83.7     0.36      1008.0     3        39         5        68        7.99     268      226.7
   06/22/2017 17:10      88.3      87.9       35     57.3      0.00     18.28      83.5     0.36      1008.0     4        38         6        31        8.00     267      249.4
   06/22/2017 17:00      88.8      88.4       35     57.5      0.00     18.28      83.5     0.36      1008.0     4        42         5        33        8.00     267      270.5
   06/22/2017 16:50      89.1      88.6       35     57.6      0.00     18.28      83.4     0.36      1008.0     4        47         5        12        8.00     268      291.1
   06/22/2017 16:40      89.2      88.8       36     58.3      0.00     18.28      83.4     0.36      1008.0     3        45         6        74        8.01     268      313.3
   06/22/2017 16:30      89.7      88.7       36     58.6      0.00     18.28      83.4     0.36      1008.0     4        42         7        24        8.01     268      332.1
   06/22/2017 16:20      89.6      88.8       36     58.9      0.00     18.28      83.2     0.36      1008.0     4        33         6        21        8.01     268      351.8
   06/22/2017 16:10      89.6      89.0       36     59.0      0.00     18.28      83.2     0.36      1008.0     4        38         5         3        8.02     268      371.2
   06/22/2017 16:00      89.3      88.6       36     59.0      0.00     18.28      83.2     0.36      1008.0     4        44         5        70        8.03     268      390.5
   06/22/2017 15:50      89.5      88.3       37     59.1      0.00     18.28      83.1     0.36      1008.0     5        27         6        62        8.03     268      408.0
   06/22/2017 15:40      89.4      88.5       37     59.2      0.00     18.28      83.0     0.36      1008.0     4        42         7        71        8.04     268      423.3
   06/22/2017 15:30      90.1      89.1       37     59.7      0.00     18.28      83.0     0.36      1008.0     4        31         6        79        8.04     268      437.3
   06/22/2017 15:20      89.5      88.8       37     59.8      0.00     18.28      82.9     0.35      1009.0     5        31         7        64        8.05     268      452.5
   06/22/2017 15:10      89.9      88.8       37     59.9      0.00     18.28      82.9     0.35      1009.0     4        21         7        71        8.05     268      465.5
   06/22/2017 15:00      89.7      88.5       38     60.0      0.00     18.28      82.8     0.35      1009.0     4        36         6        33        8.05     268      478.0
   06/22/2017 14:50      88.6      87.8       38     59.6      0.00     18.28      82.8     0.35      1009.0     4        54         6        86        8.06     268      491.6
   06/22/2017 14:40      88.5      88.0       39     59.8      0.00     18.28      82.7     0.35      1009.0     4        36         6        61        8.06     268      503.3
   06/22/2017 14:30      89.0      87.7       39     60.2      0.00     18.28      82.7     0.35      1009.0     3        38         5        17        8.06     268      514.3
   06/22/2017 14:20      88.2      87.4       39     60.1      0.00     18.28      82.5     0.35      1009.0     4        50         5         9        8.07     268      526.3
   06/22/2017 14:10      87.7      87.1       39     59.7      0.00     18.28      82.6     0.35      1009.0     4        64         8        92        8.07     268      535.2
   06/22/2017 14:00      87.9      87.3       39     59.7      0.00     18.28      82.4     0.35      1009.0     3        57         6        72        8.08     268      542.9
   06/22/2017 13:50      87.9      87.3       39     59.5      0.00     18.28      82.3     0.35      1009.0     4        43         6         9        8.08     268      549.8
   06/22/2017 13:40      87.4      86.0       40     59.1      0.00     18.28      82.4     0.35      1009.0     4        61         7        73        8.08     268      556.3
   06/22/2017 13:30      86.5      86.1       40     58.9      0.00     18.28      82.3     0.35      1009.0     3        50         5       100        8.09     268      559.3
   06/22/2017 13:20      86.3      85.6       40     58.6      0.00     18.28      82.5     0.35      1009.0     4        33         9        67        8.09     268      563.4
   06/22/2017 13:10      85.7      85.1       40     58.5      0.00     18.28      82.5     0.35      1009.0     4        58         7       104        8.09     268      569.6
   06/22/2017 13:00      85.7      85.0       41     59.3      0.00     18.28      82.3     0.35      1009.0     4        51         6        66        8.10     268      569.1
   06/22/2017 12:50      86.1      84.8       42     60.1      0.00     18.28      82.3     0.35      1009.0     4        49         5        75        8.10     269      566.6
   06/22/2017 12:40      85.5      84.8       43     60.2      0.00     18.28      82.2     0.35      1009.0     4        22         6        23        8.10     269      566.3
   06/22/2017 12:30      85.7      84.1       42     59.8      0.00     18.28      82.4     0.35      1009.0     3        33         4        14        8.11     269      562.4
   06/22/2017 12:20      84.9      84.2       44     60.0      0.00     18.28      82.4     0.35      1009.0     3        48         4        36        8.11     269      560.9
   06/22/2017 12:10      85.2      84.2       44     60.5      0.00     18.28      82.2     0.35      1009.0     4        28         7         9        8.11     270      555.8
   06/22/2017 12:00      84.4      82.7       45     60.1      0.00     18.28      82.2     0.35      1010.0     3        41         5        38        8.11     269      553.8
   06/22/2017 11:50      83.4      82.0       45     59.7      0.00     18.28      82.3     0.35      1010.0     3        40         5        79        8.11     270      547.4
   06/22/2017 11:40      82.6      81.6       46     59.6      0.00     18.28      82.4     0.35      1010.0     4        32         6        36        8.11     270      543.9
   06/22/2017 11:30      82.1      81.2       47     59.5      0.00     18.28      82.2     0.35      1010.0     4        50         6        69        8.11     270      537.3
   06/22/2017 11:20      81.1      80.2       49     59.7      0.00     18.28      82.3     0.35      1010.0     4        22         6         1        8.11     270      528.7
   06/22/2017 11:10      80.4      79.6       50     60.0      0.00     18.28      82.4     0.35      1010.0     4        37         5        76        8.12     270      520.4
   06/22/2017 11:00      80.0      79.5       50     59.7      0.00     18.28      82.3     0.35      1010.0     3        28         5        34        8.13     270      510.7
   06/22/2017 10:50      79.9      79.2       51     59.7      0.00     18.28      82.5     0.35      1010.0     3        18         5         2        8.13     270      500.3
   06/22/2017 10:40      80.2      78.6       50     59.6      0.00     18.28      82.3     0.35      1009.0     3        30         6        28        8.13     270      489.3
   06/22/2017 10:30      78.6      77.6       52     59.1      0.00     18.28      82.2     0.36      1009.0     4        56         7        84        8.13     270      477.6
   06/22/2017 10:20      78.4      77.3       54     59.5      0.00     18.28      82.6     0.36      1009.0     3        37         4        57        8.13     271      462.3
   06/22/2017 10:10      77.7      76.6       55     59.8      0.00     18.28      82.4     0.36      1009.0     4        31         6        12        8.13     271      446.4
   06/22/2017 10:00      76.7      75.9       56     59.5      0.00     18.28      82.2     0.36      1009.0     3        27         5        22        8.13     271      430.6
   06/22/2017 09:50      76.4      75.8       56     59.3      0.00     18.28      82.4     0.36      1009.0     3        39         6        28        8.13     270      414.3
   06/22/2017 09:40      76.0      75.3       57     59.3      0.00     18.28      82.4     0.36      1009.0     3        35         5        24        8.13     270      396.9
   06/22/2017 09:30      75.5      74.5       58     59.2      0.00     18.28      82.4     0.36      1009.0     3        27         5         7        8.13     271      381.3
   06/22/2017 09:20      74.7      73.6       59     59.1      0.00     18.28      82.9     0.36      1009.0     3        53         4        73        8.13     271      365.3
   06/22/2017 09:10      73.8      72.6       62     59.1      0.00     18.28      82.5     0.36      1009.0     3        40         5         8        8.14     271      349.9
   06/22/2017 09:00      72.6      71.4       64     58.9      0.00     18.28      82.9     0.36      1009.0     3        19         5        10        8.14     271      345.1
   06/22/2017 08:50      71.3      70.2       65     58.6      0.00     18.28      82.6     0.36      1009.0     3        16         4        11        8.14     271      348.4
   06/22/2017 08:40      70.3      69.3       68     58.6      0.00     18.28      82.8     0.36      1009.0     3        26         5         2        8.16     271       35.6
   06/22/2017 08:30      69.4      68.6       69     58.3      0.00     18.28      82.6     0.36      1009.0     1        42         2        22        8.16     271       -1.1
   06/22/2017 08:20      68.9      68.3       70     58.4      0.00     18.28      82.8     0.36      1009.0     2        24         3         6        8.16     271      -16.3
   06/22/2017 08:10      68.5      67.5       71     58.2      0.00     18.28      82.9     0.36      1009.0     2        21         4         6        8.16     271      -16.0
   06/22/2017 08:00      67.8      67.5       71     58.1      0.00     18.28      83.1     0.36      1009.0     3        18         4       342        8.17     271       -9.9
   06/22/2017 07:50      67.7      67.3       72     58.2      0.00     18.28      83.1     0.36      1009.0     2        30         3        30        8.17     271      -15.8
   06/22/2017 07:40      67.3      66.7       73     58.2      0.00     18.28      83.2     0.36      1009.0     2        38         3        36        8.17     271        7.4
   06/22/2017 07:30      66.8      66.2       74     58.1      0.00     18.28      82.8     0.36      1008.0     2        20         3       359        8.17     271      -11.1
   06/22/2017 07:20      66.3      65.7       75     58.0      0.00     18.28      83.3     0.36      1008.0     1        52         2        35        8.17     271      -30.8
   06/22/2017 07:10      65.7      65.4       76     57.8      0.00     18.28      83.2     0.36      1008.0     2        57         3        75        8.17     270      -32.0
   06/22/2017 07:00      65.4      65.1       77     57.8      0.00     18.28      83.0     0.36      1008.0     2        82         3        65        8.17     270      -36.0
   06/22/2017 06:50      65.3      64.9       77     57.8      0.00     18.28      83.0     0.36      1008.0     2        79         2       102        8.18     270      -39.0
   06/22/2017 06:40      65.0      64.2       79     57.8      0.00     18.28      83.3     0.36      1008.0     1        89         3        86        8.18     270      -41.6
   06/22/2017 06:30      64.0      63.4       80     57.5      0.00     18.28      83.2     0.36      1008.0     1        84         3        76        8.18     270      -47.3
   06/22/2017 06:20      63.4      63.1       81     57.5      0.00     18.28      83.3     0.36      1008.0     1        95         2        65        8.18     270      -48.3
   06/22/2017 06:10      63.1      62.6       83     57.4      0.00     18.28      83.3     0.36      1008.0     2        82         2        65        8.18     270      -50.8
   06/22/2017 06:00      62.6      62.3       82     57.0      0.00     18.28      83.6     0.36      1008.0     1       109         2        98        8.18     270      -54.3
   06/22/2017 05:50      63.0      62.7       81     57.0      0.00     18.28      83.5     0.36      1008.0     0       102         1        81        8.18     269      -57.4
   06/22/2017 05:40      63.3      63.0       80     57.0      0.00     18.28      83.4     0.36      1008.0     1        89         2        71        8.19     269      -61.3
   06/22/2017 05:30      63.8      63.4       79     57.0      0.00     18.28      83.5     0.36      1008.0     1        91         2        80        8.19     269      -63.0
   06/22/2017 05:20      64.0      63.8       79     57.3      0.00     18.28      83.3     0.36      1007.0     2        86         3        71        8.19     269      -65.4
   06/22/2017 05:10      64.0      63.8       79     57.2      0.00     18.28      83.6     0.36      1007.0     2        86         3        90        8.19     269      -65.9
   06/22/2017 05:00      64.0      63.8       78     56.8      0.00     18.28      83.6     0.36      1007.0     2        86         2       110        8.19     269      -64.9
   06/22/2017 04:50      64.9      64.5       77     57.1      0.00     18.28      83.5     0.36      1007.0     1        81         2        68        8.19     269      -65.2
   06/22/2017 04:40      65.1      64.8       76     57.3      0.00     18.28      83.6     0.36      1007.0     1        90         2        91        8.19     269      -66.3
   06/22/2017 04:30      65.2      65.0       76     57.4      0.00     18.28      83.8     0.36      1007.0     2        91         3       107        8.19     269      -67.1
   06/22/2017 04:20      65.4      65.1       76     57.4      0.00     18.28      83.8     0.36      1007.0     2        91         3        73        8.19     269      -66.7
   06/22/2017 04:10      65.4      65.2       75     57.1      0.00     18.28      83.6     0.36      1007.0     2        97         3        95        8.19     269      -66.8
   06/22/2017 04:00      65.7      65.3       74     57.1      0.00     18.28      83.6     0.36      1007.0     1        84         2        80        8.19     269      -66.7
   06/22/2017 03:50      65.9      65.7       74     57.2      0.00     18.28      84.0     0.36      1007.0     2        87         3        70        8.19     269      -67.2
   06/22/2017 03:40      66.0      65.7       73     57.1      0.00     18.28      83.8     0.36      1007.0     2        73         3        66        8.20     269      -67.9
   06/22/2017 03:30      66.3      66.0       72     57.0      0.00     18.28      83.9     0.36      1007.0     2        92         2        72        8.20     269      -67.6
   06/22/2017 03:20      67.0      66.5       71     57.0      0.00     18.28      84.0     0.36      1007.0     1        62         2        87        8.20     269      -68.7
   06/22/2017 03:10      67.5      67.2       70     57.2      0.00     18.28      83.9     0.37      1007.0     1        66         2        82        8.20     269      -69.0
   06/22/2017 03:00      67.7      67.5       69     57.3      0.00     18.28      84.2     0.37      1007.0     2        66         3        77        8.20     269      -69.3
   06/22/2017 02:50      68.2      67.8       69     57.3      0.00     18.28      83.8     0.37      1007.0     2        57         3        55        8.20     269      -69.0
   06/22/2017 02:40      68.3      68.1       68     57.4      0.00     18.28      84.1     0.37      1007.0     2        64         3        61        8.20     269      -69.1
   06/22/2017 02:30      68.6      68.4       68     57.5      0.00     18.28      84.2     0.37      1007.0     2        92         4        68        8.20     269      -68.7
   06/22/2017 02:20      68.8      68.6       68     57.5      0.00     18.28      84.1     0.37      1007.0     2        90         4       100        8.21     269      -68.3
   06/22/2017 02:10      68.9      68.6       67     57.4      0.00     18.28      84.1     0.37      1007.0     2       101         3        73        8.21     269      -68.1
   06/22/2017 02:00      68.9      68.6       66     57.0      0.00     18.28      84.1     0.37      1007.0     1        80         2       104        8.21     268      -67.6
   06/22/2017 01:50      68.9      68.6       65     56.7      0.00     18.28      84.3     0.37      1007.0     1        68         3        72        8.21     268      -66.9
   06/22/2017 01:40      68.9      68.7       64     56.2      0.00     18.28      84.3     0.37      1007.0     1        83         2        71        8.22     268      -66.1
   06/22/2017 01:30      69.1      68.9       63     55.8      0.00     18.28      84.1     0.37      1007.0     1        69         1       135        8.23     268      -64.6
   06/22/2017 01:20      69.6      69.1       62     55.6      0.00     18.28      84.2     0.37      1007.0     1        38         1       352        8.23     268      -64.7
   06/22/2017 01:10      70.1      69.5       61     55.8      0.00     18.28      84.3     0.37      1007.0     1       110         1       124        8.24     268      -65.4
   06/22/2017 01:00      70.5      70.2       61     56.4      0.00     18.28      84.5     0.37      1007.0     1       130         1       126        8.24     268      -65.4
   06/22/2017 00:50      71.8      70.7       60     56.4      0.00     18.28      84.4     0.37      1007.0     1        95         1       104        8.24     268      -66.8
   06/22/2017 00:40      71.9      71.5       59     56.9      0.00     18.28      84.4     0.37      1007.0     2        82         3        79        8.24     268      -69.1
   06/22/2017 00:30      71.8      71.5       58     56.1      0.00     18.28      84.4     0.37      1007.0     2        95         3        79        8.25     267      -68.5
   06/22/2017 00:20      71.9      71.5       57     55.7      0.00     18.28      84.4     0.37      1007.0     2       113         3        92        8.25     267      -68.6
   06/22/2017 00:10      71.8      71.5       55     54.6      0.00     18.28      84.2     0.37      1007.0     2       120         2       125        8.25     267      -68.8
   06/22/2017 00:00      71.7      71.3       54     53.9      0.00     18.28      84.5     0.37      1007.0     1       115         2       120        8.25     267      -69.0
   06/21/2017 23:50      72.5      71.7       51     53.2      0.00     18.28      84.4     0.37      1007.0     1       110         2       102        8.26     267      -68.3
   06/21/2017 23:40      73.0      72.8       50     53.3      0.00     18.28      84.5     0.37      1007.0     1        83         1       100        8.26     267      -69.0
   06/21/2017 23:30      73.3      73.2       49     53.2      0.00     18.28      84.5     0.37      1007.0     1        54         2        38        8.26     267      -69.7
   06/21/2017 23:20      73.5      73.2       49     53.2      0.00     18.28      84.4     0.37      1007.0     0        77         1       113        8.27     267      -70.5
   06/21/2017 23:10      73.6      73.5       49     53.0      0.00     18.28      84.5     0.37      1007.0     2       105         3        70        8.27     267      -72.4
   06/21/2017 23:00      73.7      73.5       48     52.9      0.00     18.28      84.4     0.37      1007.0     1        95         2       104        8.27     267      -72.7
   06/21/2017 22:50      74.2      73.8       47     52.6      0.00     18.28      84.5     0.37      1007.0     1       103         2       115        8.27     267      -74.2
   06/21/2017 22:40      74.9      74.1       46     52.4      0.00     18.28      84.4     0.36      1007.0     1       103         2       113        8.28     267      -74.4
   06/21/2017 22:30      75.8      75.2       45     52.3      0.00     18.28      84.5     0.36      1007.0     1        96         1        65        8.28     266      -75.3
   06/21/2017 22:20      76.4      76.0       44     52.5      0.00     18.28      84.5     0.37      1007.0     1       120         2        96        8.28     267      -78.1
   06/21/2017 22:10      76.7      76.5       43     52.4      0.00     18.28      84.5     0.36      1007.0     2        91         2       112        8.28     266      -79.3
   06/21/2017 22:00      77.4      76.8       42     52.0      0.00     18.28      84.5     0.36      1007.0     2       102         3        77        8.28     266      -80.1
   06/21/2017 21:50      78.0      77.3       41     51.8      0.00     18.28      84.5     0.37      1007.0     2        88         3        64        8.29     266      -81.3
   06/21/2017 21:40      78.6      78.2       39     51.8      0.00     18.28      84.4     0.37      1006.0     3        87         4       100        8.29     266      -81.7
   06/21/2017 21:30      79.4      78.9       38     51.6      0.00     18.28      84.4     0.37      1006.0     2        92         4        73        8.29     266      -82.7
   06/21/2017 21:20      80.0      79.5       38     51.7      0.00     18.28      84.4     0.37      1006.0     2        88         3        75        8.29     266      -83.5
   06/21/2017 21:10      81.1      80.2       36     51.4      0.00     18.28      84.4     0.37      1006.0     2        87         3        71        8.29     266      -84.3
   06/21/2017 21:00      81.7      81.1       34     50.7      0.00     18.28      84.4     0.37      1006.0     2        81         3        75        8.30     266      -85.7
   06/21/2017 20:50      82.6      81.9       33     50.2      0.00     18.28      84.3     0.36      1006.0     2        77         3        77        8.30     266      -87.5
   06/21/2017 20:40      84.6      82.9       31     49.9      0.00     18.28      84.4     0.36      1006.0     2        58         3        83        8.30     266      -89.2
   06/21/2017 20:30      85.7      84.8       29     49.8      0.00     18.28      84.4     0.36      1006.0     2        21         2         2        8.31     266      -91.7
   06/21/2017 20:20      86.4      85.8       29     50.0      0.00     18.28      84.2     0.36      1006.0     2        12         4        18        8.31     266      -92.3
   06/21/2017 20:10      87.6      86.6       28     50.0      0.00     18.28      84.4     0.36      1005.0     2        14         3       347        8.32     266      -91.5
   06/21/2017 20:00      88.3      87.6       27     50.0      0.00     18.28      84.3     0.36      1005.0     2        13         3        10        8.33     266      -90.3
   06/21/2017 19:50      89.9      88.5       27     50.5      0.00     18.28      84.3     0.36      1005.0     3        13         4       345        8.33     266      -88.7
   06/21/2017 19:40      91.2      90.2       26     50.9      0.00     18.28      84.4     0.36      1005.0     2         9         4       358        8.34     266      -78.8
   06/21/2017 19:30      91.8      91.2       25     50.9      0.00     18.28      84.2     0.36      1005.0     2        56         3         7        8.35     266      -63.0
   06/21/2017 19:20      92.8      91.7       25     50.9      0.00     18.28      84.1     0.36      1005.0     2        41         3        32        8.36     266      -45.9
   06/21/2017 19:10      93.5      92.8       24     51.1      0.00     18.28      84.0     0.36      1005.0     2        50         4        73        8.37     265      -25.1
   06/21/2017 19:00      93.3      92.7       24     51.1      0.00     18.28      84.1     0.36      1005.0     2        37         4        19        8.39     266       -0.6
   06/21/2017 18:50      94.3      93.4       24     51.4      0.00     18.28      83.9     0.36      1005.0     3        57         6        61        8.40     266       22.4
   06/21/2017 18:40      95.2      94.6       24     52.0      0.00     18.28      84.0     0.36      1005.0     3        39         5        62        8.40     266       47.2
   06/21/2017 18:30      95.9      95.3       23     52.1      0.00     18.28      83.8     0.36      1005.0     3        23         5         3        8.41     266       70.1
   06/21/2017 18:20      97.2      96.1       23     52.5      0.00     18.28      83.8     0.36      1005.0     3        31         4        16        8.41     266       90.3
   06/21/2017 18:10      98.3      97.1       22     53.0      0.00     18.28      83.7     0.36      1005.0     3        25         5        27        8.42     266      112.0
   06/21/2017 18:00      99.7      98.5       21     53.0      0.00     18.28      83.6     0.36      1004.0     4        29         5        15        8.42     266      134.3
   06/21/2017 17:50     100.6      99.9       21     53.3      0.00     18.28      83.6     0.36      1004.0     4        17         6         4        8.42     266      156.2
   06/21/2017 17:40     100.6     100.3       21     53.1      0.00     18.28      83.3     0.36      1004.0     4         2         8         0        8.43     266      181.3
   06/21/2017 17:30     100.9     100.1       21     53.2      0.00     18.28      83.5     0.36      1004.0     5       356         8       351        8.44     266      203.6
   06/21/2017 17:20     101.2     100.4       20     52.3      0.00     18.28      83.5     0.36      1004.0     5        16         9       333        8.45     266      226.7
   06/21/2017 17:10     101.1     100.2       20     51.6      0.00     18.28      83.4     0.36      1005.0     4       233         7       244        8.46     266      251.3
   06/21/2017 17:00     100.8     100.2       19     51.0      0.00     18.28      83.2     0.36      1005.0     5       206         8       210        8.47     266      274.2
   06/21/2017 16:50     101.0     100.6       19     50.8      0.00     18.28      83.3     0.36      1005.0     5       168         6       152        8.48     266      295.5
   06/21/2017 16:40     101.4     100.3       18     50.3      0.00     18.28      83.2     0.36      1005.0     6       168         9       147        8.48     266      316.8
   06/21/2017 16:30     100.6     100.2       19     50.6      0.00     18.28      83.0     0.36      1005.0     6       163         9       145        8.50     266      337.8
   06/21/2017 16:20     101.2     100.5       19     51.4      0.00     18.28      83.0     0.36      1005.0     6       167         7       166        8.50     266      358.8
   06/21/2017 16:10     100.9     100.5       19     51.5      0.00     18.28      83.0     0.36      1005.0     5       175         7       166        8.51     266      379.8
   06/21/2017 16:00     101.2     100.1       20     51.7      0.00     18.28      82.8     0.36      1005.0     6       166         9       153        8.51     266      399.1
   06/21/2017 15:50     100.8      99.9       20     52.3      0.00     18.28      82.8     0.35      1005.0     7       158        11       155        8.52     266      415.0
   06/21/2017 15:40     100.9     100.0       21     52.7      0.00     18.28      82.6     0.35      1005.0     6       166        10       152        8.53     266      432.7
   06/21/2017 15:30     100.4      99.9       20     52.2      0.00     18.28      82.7     0.35      1005.0     7       166         9       177        8.53     266      445.2
   06/21/2017 15:20     101.0     100.4       20     52.0      0.00     18.28      82.6     0.35      1005.0     6       172         8       168        8.54     267      456.1
   06/21/2017 15:10     102.1     100.6       20     52.7      0.00     18.28      82.5     0.35      1006.0     5       159        10       133        8.54     267      467.0
   06/21/2017 15:00     101.8     100.8       21     54.0      0.00     18.28      82.4     0.35      1006.0     4        80         8       104        8.56     267      483.0
   06/21/2017 14:50     101.6     100.4       20     53.1      0.00     18.28      82.3     0.35      1006.0     5       114         8        71        8.57     267      494.7
   06/21/2017 14:40     101.4     100.2       21     54.1      0.00     18.28      82.4     0.35      1006.0     5        90        11        92        8.58     267      504.4
   06/21/2017 14:30     101.7      99.9       21     53.7      0.00     18.28      82.2     0.35      1006.0     5       130         8       126        8.58     267      513.7
   06/21/2017 14:20     103.1     101.6       22     56.6      0.00     18.28      82.0     0.35      1006.0     3       161         5       124        8.59     267      521.3
   06/21/2017 14:10     102.7     102.0       24     58.9      0.00     18.28      81.9     0.35      1006.0     3        73         5        83        8.59     268      527.1
   06/21/2017 14:00     102.0     100.5       26     59.6      0.00     18.28      81.9     0.35      1006.0     3        15         7         2        8.60     267      536.0
   06/21/2017 13:50     101.1     100.2       27     60.2      0.00     18.28      81.9     0.35      1006.0     4        18         5        44        8.60     268      542.6
   06/21/2017 13:40     101.0      99.6       27     59.8      0.00     18.28      81.9     0.35      1006.0     5        43         6        40        8.61     268      549.2
   06/21/2017 13:30     100.8     100.3       27     60.0      0.00     18.28      81.8     0.35      1006.0     4        45         6        80        8.61     268      555.8
   06/21/2017 13:20     100.0      99.2       27     59.7      0.00     18.28      81.7     0.35      1006.0     4        61         7        71        8.61     268      561.3
   06/21/2017 13:10     100.4      99.8       27     60.2      0.00     18.28      81.8     0.35      1006.0     4        67         9        86        8.61     268      559.5
   06/21/2017 13:00     100.3      98.7       28     60.2      0.00     18.28      81.7     0.35      1007.0     4        42         6        23        8.61     268      562.2
   06/21/2017 12:50      99.3      98.3       28     60.1      0.00     18.28      81.6     0.35      1007.0     4        35         7        32        8.61     268      564.3
   06/21/2017 12:40      99.4      98.3       28     59.9      0.00     18.28      81.6     0.35      1007.0     4        48         7        72        8.62     268      567.7
   06/21/2017 12:30      98.9      98.3       28     59.7      0.00     18.28      81.6     0.35      1007.0     4        48         7        67        8.62     268      563.8
   06/21/2017 12:20      98.9      98.3       28     59.8      0.00     18.28      81.5     0.35      1007.0     3        56         5        10        8.62     269      560.1
   06/21/2017 12:10      98.5      97.9       28     59.8      0.00     18.28      81.6     0.35      1007.0     4        52         7        73        8.62     270      558.4
   06/21/2017 12:00      98.9      97.8       28     59.4      0.00     18.28      81.6     0.35      1007.0     4        66         5        72        8.62     270      552.9
   06/21/2017 11:50      98.6      96.9       28     59.5      0.00     18.28      81.5     0.35      1007.0     3        23         6        70        8.62     270      546.4
   06/21/2017 11:40      97.4      96.1       29     59.5      0.00     18.28      81.6     0.35      1007.0     3        16         6         3        8.62     270      540.4
   06/21/2017 11:30      96.3      95.4       30     59.7      0.00     18.28      81.5     0.35      1007.0     3        30         5        61        8.62     270      533.6
   06/21/2017 11:20      96.1      94.6       31     59.6      0.00     18.28      81.8     0.35      1007.0     4       348         5         2        8.69     270      527.0
   06/21/2017 11:10      95.3      94.4       31     59.3      0.00     18.28      81.6     0.35      1007.0     3        30         5        24        8.69     270      519.2
   06/21/2017 11:00      94.4      93.8       31     59.0      0.00     18.28      81.7     0.35      1008.0     2        12         4        41        8.70     270      510.0
   06/21/2017 10:50      94.3      92.3       31     58.6      0.00     18.28      81.6     0.35      1008.0     2         1         5        11        8.70     271      499.9
   06/21/2017 10:40      92.8      92.0       32     57.9      0.00     18.28      81.4     0.35      1008.0     2         8         3        19        8.70     271      489.3
   06/21/2017 10:30      92.4      91.0       32     57.8      0.00     18.28      81.9     0.35      1008.0     2        45         5        21        8.72     271      478.5
   06/21/2017 10:20      90.8      89.9       33     57.3      0.00     18.28      81.9     0.35      1008.0     3        41         4        71        8.72     272      466.7
   06/21/2017 10:10      89.8      89.1       34     57.3      0.00     18.28      81.7     0.35      1008.0     2       354         3         0        8.73     272      452.1
   06/21/2017 10:00      89.6      87.8       35     57.8      0.00     18.28      81.7     0.35      1008.0     3        23         5         4        8.73     272      438.0
   06/21/2017 09:50      87.6      86.8       37     57.9      0.00     18.28      81.6     0.36      1008.0     2        16         4        16        8.73     272      422.2
   06/21/2017 09:40      87.2      86.3       39     58.6      0.00     18.28      81.8     0.36      1008.0     3        14         4        15        8.73     272      406.8
   06/21/2017 09:30      87.0      85.1       40     58.6      0.00     18.28      81.9     0.36      1008.0     2        32         3        14        8.74     272      390.9
   06/21/2017 09:20      85.2      83.7       42     58.6      0.00     18.28      81.8     0.36      1008.0     2       354         2        19        8.74     272      375.9
   06/21/2017 09:10      83.6      82.0       44     58.5      0.00     18.28      82.0     0.36      1008.0     2       359         3       355        8.74     272      362.9
   06/21/2017 09:00      82.0      80.6       47     58.9      0.00     18.28      81.9     0.36      1008.0     2        20         3         1        8.75     272      361.8
   06/21/2017 08:50      80.6      78.8       49     59.0      0.00     18.28      82.0     0.36      1008.0     2       333         4       341        8.75     272      369.2
   06/21/2017 08:40      78.6      77.7       51     58.4      0.00     18.28      82.2     0.36      1008.0     1       359         3        34        8.75     272       26.0
   06/21/2017 08:30      77.7      76.9       52     58.2      0.00     18.28      82.0     0.36      1008.0     1        13         3         0        8.75     272       -6.8
   06/21/2017 08:20      77.0      76.3       53     58.3      0.00     18.28      82.3     0.36      1008.0     2        37         3        15        8.75     272      -23.2
   06/21/2017 08:10      76.4      75.4       54     58.0      0.00     18.28      82.1     0.36      1009.0     1        54         2         5        8.76     272      -21.8
   06/21/2017 08:00      75.5      74.5       55     57.9      0.00     18.28      81.8     0.36      1009.0     2        89         2        71        8.76     272      -12.7
   06/21/2017 07:50      74.5      73.8       57     57.8      0.00     18.28      82.0     0.36      1008.0     1         6         2         4        8.76     272      -18.1
   06/21/2017 07:40      73.9      73.0       59     58.2      0.00     18.28      82.0     0.36      1008.0     1       149         2       270        8.76     272        8.0
   06/21/2017 07:30      72.9      72.2       62     58.9      0.00     18.28      82.1     0.36      1008.0     1       327         2       321        8.76     272       -8.7
   06/21/2017 07:20      72.2      71.3       64     58.9      0.00     18.28      82.2     0.36      1008.0     1       340         2       322        8.76     272      -29.1
   06/21/2017 07:10      71.4      70.5       65     58.8      0.00     18.28      82.3     0.36      1008.0     0       341         1       336        8.76     272      -30.1
   06/21/2017 07:00      70.4      69.9       68     59.1      0.00     18.28      82.4     0.36      1008.0     0       194         1       150        8.76     272      -33.2
   06/21/2017 06:50      69.9      68.9       71     59.5      0.00     18.28      82.5     0.36      1008.0     0       236         0       249        8.77     272      -34.5
   06/21/2017 06:40      68.8      67.5       74     59.6      0.00     18.28      82.8     0.36      1008.0     0       165         1       163        8.77     271      -35.7
   06/21/2017 06:30      67.4      66.3       77     59.5      0.00     18.28      82.5     0.36      1008.0     1       158         1       148        8.77     271      -40.6
   06/21/2017 06:20      66.5      65.8       78     59.2      0.00     18.28      82.3     0.36      1008.0     1       144         1       137        8.77     271      -41.4
   06/21/2017 06:10      65.9      65.4       79     58.8      0.00     18.28      82.6     0.36      1008.0     1       176         1       191        8.77     271      -43.8
   06/21/2017 06:00      65.9      65.5       78     58.8      0.00     18.28      82.5     0.36      1008.0     1       141         2       138        8.77     271      -48.5
   06/21/2017 05:50      65.8      65.7       78     58.9      0.00     18.28      82.6     0.36      1008.0     1       157         1       177        8.77     271      -51.1
   06/21/2017 05:40      65.8      65.4       79     59.1      0.00     18.28      82.6     0.36      1008.0     1       169         1       135        8.77     271      -53.2
   06/21/2017 05:30      65.7      65.5       80     59.3      0.00     18.28      82.8     0.36      1008.0     1       151         2       145        8.77     271      -54.5
   06/21/2017 05:20      65.8      65.5       79     59.0      0.00     18.28      82.9     0.36      1008.0     1       138         2       140        8.77     271      -55.3
   06/21/2017 05:10      66.3      65.9       78     59.0      0.00     18.28      83.0     0.36      1008.0     1       144         2       139        8.77     271      -55.6
   06/21/2017 05:00      66.7      66.3       77     59.0      0.00     18.28      82.7     0.36      1008.0     1       134         1       142        8.77     271      -56.3
   06/21/2017 04:50      66.6      66.3       77     59.2      0.00     18.28      82.6     0.36      1008.0     1       167         1       186        8.77     271      -56.0
   06/21/2017 04:40      66.4      66.1       77     59.0      0.00     18.28      82.7     0.36      1008.0     2       151         3       153        8.77     271      -56.9
   06/21/2017 04:30      66.7      66.2       76     58.6      0.00     18.28      82.8     0.36      1008.0     2       136         2       145        8.78     271      -57.5
   06/21/2017 04:20      67.2      66.7       75     58.8      0.00     18.28      82.9     0.36      1008.0     1       141         1       137        8.78     271      -57.5
   06/21/2017 04:10      67.5      67.1       74     58.6      0.00     18.28      82.9     0.36      1008.0     1       152         2       166        8.78     271      -58.2
   06/21/2017 04:00      67.7      67.3       73     58.5      0.00     18.28      83.1     0.36      1008.0     2       149         2       167        8.78     271      -58.4
   06/21/2017 03:50      68.2      67.8       72     58.5      0.00     18.28      82.9     0.36      1008.0     1       128         2        85        8.78     271      -58.7
   06/21/2017 03:40      68.2      68.0       71     58.5      0.00     18.28      83.0     0.36      1008.0     1       108         2        98        8.78     271      -59.5
   06/21/2017 03:30      68.3      67.9       71     58.2      0.00     18.28      83.1     0.36      1008.0     1       108         2       126        8.78     270      -59.1
   06/21/2017 03:20      68.5      68.2       71     58.7      0.00     18.28      83.3     0.36      1009.0     1       108         2        93        8.78     270      -58.5
   06/21/2017 03:10      68.4      68.1       71     58.4      0.00     18.28      83.1     0.36      1009.0     1        77         1        45        8.78     270      -58.4
   06/21/2017 03:00      68.8      68.6       70     58.4      0.00     18.28      83.1     0.36      1009.0     1        83         2        78        8.78     270      -59.1
   06/21/2017 02:50      69.3      68.9       69     58.6      0.00     18.28      83.3     0.36      1009.0     1        92         1        85        8.79     270      -59.0
   06/21/2017 02:40      69.8      69.3       68     58.7      0.00     18.28      83.2     0.36      1009.0     0        82         1       108        8.79     270      -59.1
   06/21/2017 02:30      70.3      69.7       67     58.8      0.00     18.28      83.1     0.36      1009.0     1       100         1       111        8.79     270      -59.5
   06/21/2017 02:20      70.6      70.3       66     58.5      0.00     18.28      83.3     0.36      1009.0     1       105         1        77        8.79     270      -60.1
   06/21/2017 02:10      70.9      70.7       65     58.6      0.00     18.28      83.4     0.36      1009.0     2       102         3        72        8.79     270      -61.0
   06/21/2017 02:00      70.9      70.4       65     58.5      0.00     18.28      83.4     0.36      1009.0     1       104         3        99        8.79     270      -61.4
   06/21/2017 01:50      70.9      70.7       65     58.5      0.00     18.28      83.5     0.36      1009.0     2       115         2       106        8.80     270      -61.5
   06/21/2017 01:40      71.3      71.0       64     58.5      0.00     18.28      83.3     0.36      1009.0     1       105         2        88        8.80     270      -61.3
   06/21/2017 01:30      71.8      71.3       63     58.5      0.00     18.28      83.4     0.36      1009.0     1       104         1       117        8.80     270      -62.2
   06/21/2017 01:20      72.1      71.8       63     58.8      0.00     18.28      83.4     0.36      1009.0     1         1         1        24        8.80     270      -61.6
   06/21/2017 01:10      72.3      72.0       63     58.8      0.00     18.28      83.4     0.36      1009.0     1        82         1        93        8.80     270      -63.3
   06/21/2017 01:00      72.7      72.4       62     58.8      0.00     18.28      83.4     0.36      1009.0     1        60         3        79        8.80     270      -62.9
   06/21/2017 00:50      73.7      72.7       61     58.7      0.00     18.28      83.4     0.36      1009.0     1        80         2        76        8.80     270      -62.9
   06/21/2017 00:40      74.3      73.7       60     59.0      0.00     18.28      83.5     0.36      1009.0     1        71         2        54        8.81     270      -64.9
   06/21/2017 00:30      74.6      74.2       59     59.1      0.00     18.28      83.4     0.36      1009.0     2        54         3        75        8.81     270      -65.8
   06/21/2017 00:20      74.7      74.4       59     59.1      0.00     18.28      83.6     0.36      1009.0     2        63         3        55        8.81     270      -64.8
   06/21/2017 00:10      74.6      74.3       59     59.4      0.00     18.28      83.3     0.36      1009.0     1        40         2        51        8.81     270      -62.7
   06/21/2017 00:00      75.0      74.4       60     59.7      0.00     18.28      83.8     0.36      1009.0     1        78         2        75        8.81     269      -61.7
   06/20/2017 23:50      75.4      74.8       59     59.7      0.00     18.28      83.7     0.36      1009.0     1        56         1        67        8.82     269      -62.7
   06/20/2017 23:40      75.6      75.4       59     60.1      0.00     18.28      83.6     0.36      1009.0     1       109         1        71        8.82     269      -63.4
   06/20/2017 23:30      76.2      75.9       57     59.9      0.00     18.28      83.6     0.37      1009.0     0       106         1        97        8.82     269      -64.0
   06/20/2017 23:20      76.6      75.9       57     60.0      0.00     18.28      83.5     0.36      1009.0     1       143         2       154        8.82     269      -65.0
   06/20/2017 23:10      76.9      76.6       56     60.0      0.00     18.28      83.5     0.37      1009.0     1       129         1       157        8.83     269      -66.6
   06/20/2017 23:00      77.4      76.9       54     59.4      0.00     18.28      83.3     0.37      1009.0     1       142         1       140        8.88     269      -67.5
   06/20/2017 22:50      78.1      77.6       53     59.3      0.00     18.28      83.5     0.37      1009.0     0       136         1       135        8.89     269      -69.2
   06/20/2017 22:40      78.3      78.1       52     59.1      0.00     18.28      83.6     0.37      1009.0     1       153         1       163        8.89     269      -68.9
   06/20/2017 22:30      78.4      77.7       52     59.1      0.00     18.28      83.7     0.37      1009.0     1       144         2       160        8.89     269      -69.9
   06/20/2017 22:20      79.3      78.7       50     58.8      0.00     18.28      83.6     0.37      1009.0     1       158         1       126        8.89     268      -70.3
   06/20/2017 22:10      79.9      79.4       49     59.0      0.00     18.28      83.5     0.37      1009.0     0       107         1       133        8.89     268      -71.7
   06/20/2017 22:00      80.5      80.1       48     58.5      0.00     18.28      83.5     0.37      1009.0     1       169         2       153        8.89     268      -72.9
   06/20/2017 21:50      81.4      80.5       46     58.3      0.00     18.28      83.5     0.37      1009.0     1       182         2       197        8.89     268      -73.6
   06/20/2017 21:40      82.0      81.4       45     58.6      0.00     18.28      83.5     0.36      1009.0     1       228         1       188        8.89     268      -73.8
   06/20/2017 21:30      82.5      81.9       45     58.9      0.00     18.28      83.6     0.36      1009.0     1       131         2        95        8.90     268      -76.9
   06/20/2017 21:20      82.9      82.4       45     59.0      0.00     18.28      83.6     0.36      1009.0     2       135         2        59        8.90     268      -78.1
   06/20/2017 21:10      83.8      83.5       44     59.2      0.00     18.28      83.5     0.36      1009.0     1       136         1       278        8.90     268      -79.1
   06/20/2017 21:00      84.6      83.8       43     59.4      0.00     18.28      83.5     0.36      1009.0     1       102         1       127        8.90     268      -79.7
   06/20/2017 20:50      84.8      84.4       43     59.4      0.00     18.28      83.4     0.36      1009.0     1        59         2       103        8.90     268      -81.7
   06/20/2017 20:40      85.7      84.6       41     59.0      0.00     18.28      83.3     0.36      1008.0     1        92         2       104        8.90     268      -81.8
   06/20/2017 20:30      87.4      85.8       38     58.3      0.00     18.28      83.4     0.36      1008.0     1       177         1       200        8.90     268      -82.5
   06/20/2017 20:20      88.7      87.7       37     58.5      0.00     18.28      83.3     0.36      1008.0     1         4         1       326        8.90     268      -83.5
   06/20/2017 20:10      89.5      88.4       36     58.7      0.00     18.28      83.3     0.36      1008.0     1       122         1        90        8.90     268      -84.7
   06/20/2017 20:00      91.4      89.9       34     58.8      0.00     18.28      83.2     0.36      1008.0     1       110         2        80        8.90     268      -85.4
   06/20/2017 19:50      93.4      91.9       32     58.4      0.00     18.28      83.2     0.36      1008.0     2        53         2        48        8.90     268      -83.0
   06/20/2017 19:40      94.6      93.5       30     57.8      0.00     18.28      83.3     0.36      1008.0     2       340         4       343        8.90     268      -71.7
   06/20/2017 19:30      95.2      94.8       29     57.7      0.00     18.28      83.1     0.36      1008.0     3       308         4       293        8.90     267      -52.1
   06/20/2017 19:20      96.3      95.6       28     57.8      0.00     18.28      83.1     0.36      1008.0     3       313         6       303        8.91     267      -34.9
   06/20/2017 19:10      97.4      96.3       28     57.8      0.00     18.28      83.0     0.36      1008.0     4       346         6       320        8.91     267      -14.4
   06/20/2017 19:00      97.4      97.1       27     57.6      0.00     18.28      83.1     0.36      1008.0     3       309         5       316        8.91     267        6.9
   06/20/2017 18:50      99.0      97.5       27     57.8      0.00     18.28      82.9     0.36      1008.0     5       327         7       355        8.92     268       28.9
   06/20/2017 18:40      99.3      98.9       26     58.2      0.00     18.28      82.9     0.36      1008.0     3         2         5       357        8.92     268       52.3
   06/20/2017 18:30      98.9      98.2       26     58.3      0.00     18.28      82.8     0.36      1008.0     3        65         3        16        8.93     268       73.8
   06/20/2017 18:20      99.5      99.0       26     58.4      0.00     18.28      82.8     0.36      1008.0     3        85         5        84        8.93     268       95.8
   06/20/2017 18:10     100.4      99.3       26     58.6      0.00     18.28      82.9     0.36      1008.0     4        54         6        75        8.94     268      118.5
   06/20/2017 18:00     101.2     100.0       25     58.6      0.00     18.28      82.6     0.36      1008.0     3        87         4        94        8.94     267      140.8
   06/20/2017 17:50     101.2     100.5       26     59.4      0.00     18.28      82.6     0.36      1008.0     2        12         4       350        8.95     268      161.9
   06/20/2017 17:40     101.1     100.5       26     59.5      0.00     18.28      82.6     0.36      1008.0     2        36         3       353        8.95     268      186.4
   06/20/2017 17:30     102.2     100.5       25     59.6      0.00     18.28      82.6     0.36      1008.0     2        30         4        16        8.96     268      207.3
   06/20/2017 17:20     103.2     102.0       24     58.9      0.00     18.28      82.5     0.36      1008.0     4       345         6       323        8.96     268      231.1
   06/20/2017 17:10     102.9     101.7       24     58.5      0.00     18.28      82.5     0.36      1008.0     3       306         5       260        8.97     268      254.9
   06/20/2017 17:00     102.6     101.6       24     58.4      0.00     18.28      82.3     0.36      1008.0     5       297         7       247        8.97     268      276.2
   06/20/2017 16:50     102.8     102.0       24     58.8      0.00     18.28      82.4     0.36      1008.0     4       314         8       300        8.98     268      298.4
   06/20/2017 16:40     102.3     101.6       24     58.4      0.00     18.28      82.2     0.36      1008.0     5       261         9       238        8.99     269      320.9
   06/20/2017 16:30     102.5     101.9       24     58.4      0.00     18.28      82.2     0.36      1008.0     6       252         9       256        8.99     269      340.5
   06/20/2017 16:20     104.2     102.9       24     59.8      0.00     18.28      82.1     0.36      1008.0     4       260         8       233        9.00     269      359.7
   06/20/2017 16:10     102.7     101.5       26     60.2      0.00     18.28      82.1     0.35      1008.0     5       260         8       265        9.00     269      382.7
   06/20/2017 16:00     102.7     101.5       25     60.0      0.00     18.28      81.8     0.35      1008.0     5       219         8       197        9.01     269      395.5
   06/20/2017 15:50     102.5     101.0       26     60.2      0.00     18.28      81.7     0.35      1008.0     5       190         9       210        9.01     269      412.3
   06/20/2017 15:40     102.2     101.5       26     60.0      0.00     18.28      81.6     0.35      1008.0     5       179         8       152        9.01     269      428.4
   06/20/2017 15:30     102.5     101.8       25     59.5      0.00     18.28      81.7     0.35      1008.0     5       159         7       130        9.01     269      443.7
   06/20/2017 15:20     103.2     102.1       25     59.7      0.00     18.28      81.5     0.35      1009.0     4        90         7       105        9.01     269      457.1
   06/20/2017 15:10     103.4     102.4       25     60.2      0.00     18.28      81.5     0.35      1009.0     5        28         7        23        9.01     269      465.8
   06/20/2017 15:00     103.5     102.2       25     60.4      0.00     18.28      81.4     0.35      1009.0     4        37         5        21        9.01     269      476.9
   06/20/2017 14:50     102.8     101.8       26     60.3      0.00     18.28      81.2     0.35      1009.0     5        27         6        31        9.01     270      494.1
   06/20/2017 14:40     102.2     101.2       26     59.9      0.00     18.28      81.2     0.35      1009.0     5        48         8        68        9.01     270      506.1
   06/20/2017 14:30     103.3     102.1       25     59.6      0.00     18.28      81.2     0.35      1009.0     5        66         9        72        9.01     271      513.4
   06/20/2017 14:20     103.6     102.7       24     59.4      0.00     18.28      81.1     0.35      1009.0     4        69         7        91        9.01     272      522.2
   06/20/2017 14:10     102.5     101.5       25     59.7      0.00     18.28      81.1     0.35      1009.0     5        43        10        62        9.01     273      533.5
   06/20/2017 14:00     103.3     101.5       25     59.6      0.00     18.28      81.0     0.35      1009.0     5        90        10        90        9.01     273      540.3
   06/20/2017 13:50     103.1     101.7       24     59.0      0.00     18.28      81.0     0.35      1009.0     4        38         5         4        9.01     274      545.9
   06/20/2017 13:40     102.5     101.6       24     59.0      0.00     18.28      81.1     0.35      1009.0     4        57         6        72        9.01     275      553.2
   06/20/2017 13:30     102.1     101.7       24     58.7      0.00     18.28      80.9     0.35      1009.0     3        38         7       335        9.01     276      553.9
   06/20/2017 13:20     101.9      99.3       25     58.1      0.00     18.28      81.0     0.35      1010.0     3       345         6        17        9.01     277      561.7
   06/20/2017 13:10     100.3      99.3       25     57.9      0.00     18.28      80.8     0.35      1010.0     3        75         5       131        9.01     277      564.9
   06/20/2017 13:00     100.0      99.2       25     58.0      0.00     18.28      80.8     0.35      1010.0     3        24         3        20        9.01     278      566.8
   06/20/2017 12:50      99.6      98.8       26     58.1      0.00     18.28      80.7     0.35      1010.0     2        11         4       340        9.01     280      569.0
   06/20/2017 12:40      99.0      97.9       26     57.9      0.00     18.28      80.7     0.35      1010.0     2        27         2       311        9.01     281      571.0
   06/20/2017 12:30      98.1      96.9       27     58.1      0.00     18.28      80.7     0.35      1010.0     3        30         5        36        9.01     282      572.1
   06/20/2017 12:20      97.8      95.4       28     58.3      0.00     18.28      80.7     0.35      1010.0     4         3         5       336        9.01     282      569.8
   06/20/2017 12:10      96.0      95.1       29     58.0      0.00     18.28      80.7     0.35      1010.0     3       340         4        30        9.01     286      564.9
   06/20/2017 12:00      96.1      94.9       29     58.3      0.00     18.28      80.7     0.35      1010.0     3         2         7       357        9.01     290      561.6
   06/20/2017 11:50      95.1      93.7       31     58.8      0.00     18.28      80.7     0.35      1011.0     4        18         5         0        9.01     294      558.0
   06/20/2017 11:40      93.7      92.4       32     58.9      0.00     18.28      80.7     0.35      1011.0     3        17         5        14        9.01     298      553.1
   06/20/2017 11:30      92.9      92.4       34     59.9      0.00     18.28      80.7     0.35      1011.0     4        20         5        15        9.01     304      547.5
   06/20/2017 11:20      92.7      91.9       34     60.1      0.00     18.28      80.8     0.35      1011.0     3        28         5        32        9.02     315      540.6
   06/20/2017 11:10      92.3      90.8       35     59.6      0.00     18.28      80.9     0.35      1011.0     3        21         6       335        9.02     327      532.3
   06/20/2017 11:00      91.9      91.1       35     59.7      0.00     18.28      80.8     0.35      1011.0     4        32         7        17        9.02     345      523.0
   06/20/2017 10:50      91.1      89.5       35     59.3      0.00     18.28      80.7     0.35      1011.0     2        11         5        23        9.01     380      513.6
   06/20/2017 10:40      89.9      89.2       36     59.3      0.00     18.28      80.8     0.35      1011.0     3        20         4       348        9.01     416      504.1
   06/20/2017 10:30      89.4      88.3       38     59.9      0.00     18.28      80.9     0.35      1011.0     3        69         6        34        9.01     451      494.2
   06/20/2017 10:20      88.8      87.8       38     59.3      0.00     18.28      80.8     0.35      1011.0     3        62         5       116        9.02     487      482.2
   06/20/2017 10:10      88.1      87.2       37     57.9      0.00     18.28      80.9     0.35      1011.0     2        47         4        85        9.01     523      469.3
   06/20/2017 10:00      87.2      86.5       37     57.8      0.00     18.28      81.0     0.35      1011.0     3        18         6         0        9.01     545      453.8
   06/20/2017 09:50      86.6      85.4       39     58.6      0.00     18.28      80.8     0.36      1011.0     2         3         3        48        9.02     562      438.1
   06/20/2017 09:40      85.9      84.8       40     58.5      0.00     18.28      80.7     0.36      1011.0     2        40         3       103        9.01     607      424.7
   06/20/2017 09:30      84.9      82.8       43     58.8      0.00     18.28      80.9     0.36      1011.0     2        24         4        65        9.02     659      411.4
   06/20/2017 09:20      82.6      82.0       44     58.5      0.00     18.28      81.1     0.36      1011.0     2       341         3       317        9.01     732      398.6
   06/20/2017 09:10      82.3      80.5       45     58.1      0.00     18.28      80.8     0.35      1011.0     2        51         3        59        9.01     717      387.9
   06/20/2017 09:00      80.8      79.4       45     57.1      0.00     18.28      81.0     0.35      1011.0     2        52         3        80        9.01     656      364.0
   06/20/2017 08:50      79.3      77.3       50     58.5      0.00     18.28      81.0     0.36      1011.0     2        53         3        22        8.54     271      372.5
   06/20/2017 08:40      77.3      75.8       53     57.9      0.00     18.28      81.2     0.36      1011.0     1        20         2       107        8.13     271       30.6
   06/20/2017 08:30      75.9      74.8       55     58.0      0.00     18.28      80.9     0.36      1011.0     2       272         3       246        8.14     271       -8.2
   06/20/2017 08:20      75.0      73.9       58     58.5      0.00     18.28      81.0     0.36      1011.0     1       303         2       244        8.14     271      -24.6
   06/20/2017 08:10      74.0      73.1       61     59.1      0.00     18.28      80.9     0.36      1011.0     2       353         3         6        8.14     271      -22.8
   06/20/2017 08:00      73.0      72.3       62     59.0      0.00     18.28      81.2     0.36      1011.0     2       343         3       343        8.14     271      -13.9
   06/20/2017 07:50      72.4      71.8       64     59.4      0.00     18.28      81.3     0.36      1011.0     2       340         2        32        8.14     271      -20.4
   06/20/2017 07:40      71.9      71.3       65     59.2      0.00     18.28      81.2     0.36      1011.0     2       303         2       316        8.14     271        9.1
   06/20/2017 07:30      71.3      70.6       66     58.9      0.00     18.28      81.3     0.36      1011.0     1       359         2       355        8.15     270       -7.9
   06/20/2017 07:20      70.6      69.9       67     58.7      0.00     18.28      81.3     0.36      1011.0     1        98         2       106        8.15     270      -27.8
   06/20/2017 07:10      69.8      69.1       69     58.7      0.00     18.28      81.3     0.36      1011.0     1        75         1        94        8.15     270      -28.7
   06/20/2017 07:00      69.2      68.3       70     58.6      0.00     18.28      81.2     0.36      1011.0     0       184         1       182        8.16     270      -31.3
   06/20/2017 06:50      68.3      67.0       74     59.0      0.00     18.28      81.3     0.36      1011.0     0         7         1         1        8.16     271      -32.7
   06/20/2017 06:40      66.9      65.7       77     58.9      0.00     18.28      81.5     0.36      1011.0     1       138         1       136        8.17     270      -34.3
   06/20/2017 06:30      65.8      64.9       80     58.9      0.00     18.28      82.0     0.36      1011.0     1       157         1       139        8.17     270      -39.3
   06/20/2017 06:20      65.0      64.3       81     58.5      0.00     18.28      81.6     0.36      1011.0     1       129         1       137        8.17     270      -40.3
   06/20/2017 06:10      64.3      64.0       81     58.2      0.00     18.28      81.7     0.36      1011.0     1       144         2       146        8.18     270      -43.0
   06/20/2017 06:00      64.3      63.8       81     58.1      0.00     18.28      81.7     0.36      1011.0     1       181         2       143        8.18     270      -46.6
   06/20/2017 05:50      63.9      63.7       82     58.2      0.00     18.28      81.7     0.36      1011.0     2       145         2       141        8.18     269      -50.0
   06/20/2017 05:40      63.9      63.7       82     58.3      0.00     18.28      81.3     0.36      1011.0     1       167         1       165        8.18     269      -52.2
   06/20/2017 05:30      63.8      63.5       82     58.0      0.00     18.28      81.6     0.36      1010.0     2       142         2       137        8.18     269      -53.3
   06/20/2017 05:20      64.3      64.0       82     58.4      0.00     18.28      81.6     0.36      1010.0     1       138         2       137        8.18     269      -53.3
   06/20/2017 05:10      64.1      63.8       82     58.4      0.00     18.28      81.7     0.36      1010.0     1       164         2       137        8.18     269      -53.5
   06/20/2017 05:00      64.3      63.8       81     58.1      0.00     18.28      81.9     0.36      1010.0     1       140         2       147        8.19     269      -55.3
   06/20/2017 04:50      64.5      64.0       80     58.1      0.00     18.28      81.9     0.36      1010.0     1       168         2       148        8.19     269      -56.2
   06/20/2017 04:40      64.9      64.5       79     58.2      0.00     18.28      82.0     0.36      1010.0     1       161         1       143        8.19     269      -56.5
   06/20/2017 04:30      64.9      64.5       80     58.5      0.00     18.28      81.8     0.36      1010.0     1       204         1       186        8.19     269      -56.1
   06/20/2017 04:20      64.9      64.5       79     58.1      0.00     18.28      81.9     0.36      1010.0     1        90         2       128        8.19     269      -58.0
   06/20/2017 04:10      65.1      64.8       79     58.2      0.00     18.28      81.8     0.36      1010.0     1       190         2       162        8.19     269      -58.2
   06/20/2017 04:00      65.2      64.8       78     58.2      0.00     18.28      82.3     0.36      1010.0     2       168         3       161        8.19     269      -58.9
   06/20/2017 03:50      65.2      64.8       79     58.3      0.00     18.28      82.1     0.36      1010.0     2       157         3       155        8.19     269      -59.1
   06/20/2017 03:40      65.3      65.1       78     58.3      0.00     18.28      82.1     0.36      1010.0     1       143         2       141        8.19     269      -58.9
   06/20/2017 03:30      65.7      65.2       77     58.1      0.00     18.28      82.4     0.36      1010.0     2       133         2       131        8.19     269      -60.0
   06/20/2017 03:20      66.3      65.9       77     58.5      0.00     18.28      82.1     0.36      1010.0     1       174         1       174        8.19     269      -59.5
   06/20/2017 03:10      66.6      66.2       75     58.2      0.00     18.28      82.4     0.36      1010.0     0       174         1       163        8.19     269      -58.8
   06/20/2017 03:00      66.6      66.5       76     58.6      0.00     18.28      82.2     0.36      1010.0     0       176         1       184        8.19     269      -59.3
   06/20/2017 02:50      66.7      66.5       75     58.5      0.00     18.28      82.4     0.36      1010.0     0       242         1       337        8.20     269      -60.3
   06/20/2017 02:40      66.9      66.7       75     58.4      0.00     18.28      82.5     0.36      1011.0     0        80         1       106        8.20     269      -61.5
   06/20/2017 02:30      67.2      66.8       73     58.1      0.00     18.28      82.4     0.36      1011.0     1        88         1        78        8.20     269      -62.3
   06/20/2017 02:20      67.3      67.1       73     58.4      0.00     18.28      82.3     0.36      1010.0     0       123         1       113        8.20     268      -61.3
   06/20/2017 02:10      67.5      67.2       72     58.1      0.00     18.28      82.5     0.36      1010.0     0        21         1        14        8.20     268      -61.4
   06/20/2017 02:00      67.8      67.5       71     58.2      0.00     18.28      82.3     0.36      1011.0     1        82         2        96        8.20     268      -62.6
   06/20/2017 01:50      68.0      67.8       72     58.5      0.00     18.28      82.4     0.36      1011.0     1       125         2       134        8.20     268      -62.6
   06/20/2017 01:40      68.5      67.9       71     58.4      0.00     18.28      82.7     0.36      1011.0     1       105         2        96        8.21     268      -62.8
   06/20/2017 01:30      68.8      68.4       70     58.4      0.00     18.28      82.3     0.36      1011.0     1       100         1        60        8.21     268      -63.0
   06/20/2017 01:20      68.9      68.1       70     58.5      0.00     18.28      82.3     0.36      1011.0     1       140         1       127        8.21     268      -62.9
   06/20/2017 01:10      69.0      68.1       68     57.9      0.00     18.28      82.6     0.36      1011.0     1       118         2        98        8.21     268      -63.7
   06/20/2017 01:00      69.2      68.7       69     58.5      0.00     18.28      82.4     0.36      1011.0     1       167         1       172        8.21     268      -62.9
   06/20/2017 00:50      69.2      68.9       68     58.2      0.00     18.28      82.6     0.36      1011.0     1        92         1        84        8.22     268      -64.2
   06/20/2017 00:40      69.8      69.3       67     58.2      0.00     18.28      82.6     0.36      1011.0     1        96         1       122        8.22     268      -65.1
   06/20/2017 00:30      70.4      70.0       66     58.2      0.00     18.28      82.5     0.36      1011.0     1       154         2       155        8.23     268      -66.3
   06/20/2017 00:20      70.6      70.0       66     58.5      0.00     18.28      82.5     0.36      1011.0     2       153         2       165        8.24     268      -67.7
   06/20/2017 00:10      71.0      70.2       65     58.0      0.00     18.28      82.5     0.36      1011.0     1       128         2       133        8.25     268      -69.0
   06/20/2017 00:00      71.4      71.2       64     58.4      0.00     18.28      82.7     0.36      1011.0     1       113         1       124        8.25     268      -70.3
   06/19/2017 23:50      71.5      71.3       63     58.3      0.00     18.28      82.7     0.36      1011.0     1        82         1        72        8.25     268      -72.0
   06/19/2017 23:40      71.6      71.3       63     58.4      0.00     18.28      82.7     0.36      1011.0     1        69         2        64        8.25     268      -71.8
   06/19/2017 23:30      72.4      71.8       62     58.4      0.00     18.28      82.7     0.36      1011.0     1        69         2        78        8.25     268      -71.7
   06/19/2017 23:20      73.0      72.5       61     58.5      0.00     18.28      82.7     0.36      1011.0     1        45         1        37        8.25     267      -71.2
   06/19/2017 23:10      74.1      73.2       59     58.3      0.00     18.28      82.5     0.36      1011.0     1        74         2        75        8.26     268      -72.7
   06/19/2017 23:00      74.8      74.2       58     58.6      0.00     18.28      82.6     0.36      1011.0     1        70         2        65        8.26     267      -76.0
   06/19/2017 22:50      75.8      74.9       56     58.8      0.00     18.28      82.6     0.36      1011.0     2        83         2        64        8.26     268      -77.8
   06/19/2017 22:40      76.6      75.9       55     58.8      0.00     18.28      82.5     0.36      1011.0     2        45         2        41        8.26     267      -79.3
   06/19/2017 22:30      77.1      76.8       54     58.9      0.00     18.28      82.6     0.36      1010.0     2        29         3        23        8.26     267      -79.3
   06/19/2017 22:20      77.8      77.3       50     57.4      0.00     18.28      82.7     0.36      1010.0     2        35         2        13        8.26     267      -79.2
   06/19/2017 22:10      79.5      78.0       44     54.9      0.00     18.28      82.7     0.36      1010.0     1        80         2        66        8.26     267      -79.2
   06/19/2017 22:00      79.9      79.4       42     54.8      0.00     18.28      82.7     0.36      1010.0     1        87         2        51        8.26     266      -81.2
   06/19/2017 21:50      80.6      80.0       41     54.7      0.00     18.28      82.4     0.36      1010.0     2       182         4       218        8.26     267      -82.1
   06/19/2017 21:40      80.6      80.5       41     54.6      0.00     18.28      82.5     0.36      1010.0     2       206         5       202        8.26     267      -81.8
   06/19/2017 21:30      81.2      80.5       40     54.7      0.00     18.28      82.5     0.36      1010.0     1       164         2       243        8.26     266      -81.8
   06/19/2017 21:20      81.9      81.4       40     54.7      0.00     18.28      82.5     0.36      1010.0     1       216         2       185        8.27     266      -83.5
   06/19/2017 21:10      82.3      82.0       39     54.8      0.00     18.28      82.5     0.36      1010.0     4       238         5       241        8.27     266      -84.8
   06/19/2017 21:00      82.4      82.3       39     55.1      0.00     18.28      82.5     0.36      1010.0     3       211         4       203        8.27     266      -85.6
   06/19/2017 20:50      82.9      82.5       39     55.2      0.00     18.28      82.5     0.36      1009.0     4       197         6       201        8.27     266      -86.4
   06/19/2017 20:40      83.5      82.9       39     55.4      0.00     18.28      82.3     0.36      1009.0     3       209         6       226        8.28     266      -88.3
   06/19/2017 20:30      83.6      83.5       38     55.6      0.00     18.28      82.4     0.36      1009.0     5       203         6       203        8.28     266      -89.6
   06/19/2017 20:20      84.2      83.7       38     55.9      0.00     18.28      82.4     0.36      1009.0     4       216         5       193        8.28     266      -90.0
   06/19/2017 20:10      85.1      84.4       38     56.3      0.00     18.28      82.3     0.36      1009.0     5       213         8       223        8.29     266      -88.6
   06/19/2017 20:00      85.7      85.3       37     56.4      0.00     18.28      82.2     0.36      1009.0     4       219         6       232        8.29     266      -86.0
   06/19/2017 19:50      87.0      86.0       36     56.1      0.00     18.28      82.2     0.36      1009.0     5       214         7       221        8.29     266      -83.2
   06/19/2017 19:40      88.1      87.0       34     55.8      0.00     18.28      82.0     0.36      1009.0     4       211         7       192        8.30     266      -72.8
   06/19/2017 19:30      89.2      88.3       33     56.0      0.00     18.28      82.1     0.36      1009.0     4       214         6       204        8.32     266      -53.7
   06/19/2017 19:20      90.3      89.4       32     56.2      0.00     18.28      82.3     0.36      1009.0     4       200         6       196        8.33     266      -36.9
   06/19/2017 19:10      91.0      90.3       31     56.2      0.00     18.28      82.0     0.36      1008.0     4       221         5       193        8.34     266      -16.1
   06/19/2017 19:00      91.8      90.8       31     56.3      0.00     18.28      82.0     0.36      1008.0     4       220         7       232        8.35     266        6.5
   06/19/2017 18:50      93.2      91.9       30     56.2      0.00     18.28      82.0     0.36      1008.0     5       220         6       244        8.36     266       28.5
   06/19/2017 18:40      93.4      92.9       29     56.5      0.00     18.28      82.0     0.36      1008.0     4       244         6       249        8.37     266       52.2
   06/19/2017 18:30      94.2      93.7       29     56.5      0.00     18.28      82.0     0.36      1008.0     6       262         8       282        8.39     266       74.3
   06/19/2017 18:20      94.7      94.3       28     56.4      0.00     18.28      81.9     0.36      1008.0     5       256         8       274        8.40     266       96.6
   06/19/2017 18:10      95.4      94.4       27     56.2      0.00     18.28      81.9     0.36      1008.0     5       303         7       302        8.41     266      118.0
   06/19/2017 18:00      96.0      95.6       27     56.6      0.00     18.28      81.6     0.36      1008.0     5       319         7       325        8.41     267      141.6
   06/19/2017 17:50      96.1      95.5       27     56.7      0.00     18.28      81.6     0.36      1008.0     5       303         8       331        8.42     266      163.6
   06/19/2017 17:40      96.3      96.0       27     56.5      0.00     18.28      81.6     0.36      1008.0     5       316         7       313        8.42     266      186.3
   06/19/2017 17:30      98.1      96.1       27     56.9      0.00     18.28      81.6     0.36      1008.0     7       312        11       314        8.43     266      207.9
   06/19/2017 17:20      99.5      98.0       26     58.6      0.00     18.28      81.5     0.36      1008.0     5       342         9       320        8.43     267      229.7
   06/19/2017 17:10      99.7      99.1       27     59.5      0.00     18.28      81.3     0.35      1008.0     3        15         4        37        8.43     267      251.2
   06/19/2017 17:00      99.2      98.9       27     59.4      0.00     18.28      81.1     0.35      1008.0     3        50         5        75        8.44     267      270.1
   06/19/2017 16:50     100.2      98.7       27     59.4      0.00     18.28      81.2     0.35      1008.0     3        34         4        38        8.43     267      290.2
   06/19/2017 16:40      99.8      99.0       26     59.0      0.00     18.28      81.1     0.35      1008.0     3        27         5         1        8.44     267      311.5
   06/19/2017 16:30      99.4      99.0       27     58.9      0.00     18.28      81.0     0.35      1008.0     3         2         6       341        8.47     267      330.3
   06/19/2017 16:20      99.4      98.3       27     59.2      0.00     18.28      81.1     0.35      1008.0     3        26         5        17        8.48     267      350.4
   06/19/2017 16:10      99.4      98.3       27     59.0      0.00     18.28      80.9     0.35      1008.0     4       353         8       320        8.49     267      370.5
   06/19/2017 16:00      99.8      98.6       27     59.3      0.00     18.28      80.7     0.35      1008.0     4         5         6        14        8.49     267      388.4
   06/19/2017 15:50      98.5      97.7       28     59.1      0.00     18.28      80.7     0.35      1008.0     4        25         5       353        8.50     267      407.3
   06/19/2017 15:40      99.1      98.1       27     59.2      0.00     18.28      80.5     0.35      1008.0     4        29         6        32        8.50     267      422.2
   06/19/2017 15:30      99.1      98.5       27     59.3      0.00     18.28      80.7     0.35      1008.0     4        39         6        99        8.50     267      437.8
   06/19/2017 15:20      98.3      97.2       28     58.8      0.00     18.28      80.5     0.35      1009.0     4        26         6       357        8.51     267      452.3
   06/19/2017 15:10      98.8      97.1       27     58.6      0.00     18.28      80.4     0.35      1009.0     4        28         6        31        8.51     267      466.4
   06/19/2017 15:00      98.8      97.6       27     58.6      0.00     18.28      80.4     0.35      1009.0     3        46         5        42        8.51     267      479.7
   06/19/2017 14:50      97.6      96.6       28     58.1      0.00     18.28      80.2     0.35      1009.0     4        40         5        76        8.52     267      492.8
   06/19/2017 14:40      97.4      96.8       28     58.2      0.00     18.28      80.3     0.35      1009.0     4        33         7        62        8.53     267      503.0
   06/19/2017 14:30      98.0      96.6       28     58.2      0.00     18.28      80.2     0.35      1009.0     4        31         7       356        8.54     267      513.8
   06/19/2017 14:20      97.4      96.3       28     58.2      0.00     18.28      80.0     0.35      1009.0     4        29         6        85        8.54     267      524.9
   06/19/2017 14:10      97.1      96.1       28     58.1      0.00     18.28      80.0     0.35      1009.0     4        46         6        56        8.56     267      533.9
   06/19/2017 14:00      97.5      96.8       28     58.2      0.00     18.28      80.0     0.35      1009.0     4        44         7        25        8.57     267      540.9
   06/19/2017 13:50      97.9      96.3       27     58.2      0.00     18.28      79.9     0.35      1009.0     4        32         6        28        8.57     267      547.1
   06/19/2017 13:40      97.8      96.0       28     57.9      0.00     18.28      79.7     0.35      1009.0     4        54         5        78        8.58     267      555.2
   06/19/2017 13:30      96.6      96.3       28     57.5      0.00     18.28      79.8     0.35      1009.0     4        65         6       130        8.58     267      557.7
   06/19/2017 13:20      97.1      96.1       28     57.7      0.00     18.28      79.8     0.35      1009.0     4        67         9        90        8.58     267      559.9
   06/19/2017 13:10      97.1      95.9       28     58.2      0.00     18.28      79.8     0.35      1009.0     4        40         7        21        8.58     267      565.2
   06/19/2017 13:00      96.9      96.2       28     58.1      0.00     18.28      79.7     0.35      1009.0     4        51         9        80        8.58     267      567.6
   06/19/2017 12:50      97.0      95.5       28     57.7      0.00     18.28      79.6     0.35      1009.0     3        36         5        13        8.59     268      567.6
   06/19/2017 12:40      95.9      94.8       28     57.2      0.00     18.28      79.6     0.35      1009.0     3        61         5        78        8.59     267      569.4
   06/19/2017 12:30      95.5      94.9       28     57.1      0.00     18.28      79.5     0.35      1010.0     4        46         7        69        8.59     267      567.4
   06/19/2017 12:20      95.1      94.1       29     57.4      0.00     18.28      79.5     0.35      1010.0     4        43         6         9        8.59     268      564.2
   06/19/2017 12:10      94.6      93.9       29     57.2      0.00     18.28      79.6     0.35      1010.0     4        33         6        11        8.59     268      560.8
   06/19/2017 12:00      94.6      94.3       28     56.0      0.00     18.28      79.3     0.35      1010.0     3        83         5        43        8.59     268      557.1
   06/19/2017 11:50      94.4      92.6       27     55.0      0.00     18.28      79.6     0.35      1010.0     4        74         5        69        8.59     269      551.7
   06/19/2017 11:40      93.0      92.3       28     54.4      0.00     18.28      79.6     0.35      1010.0     2       121         5       104        8.60     268      544.7
   06/19/2017 11:30      93.7      92.3       28     54.7      0.00     18.28      79.5     0.35      1010.0     3         4         5       346        8.60     268      532.1
   06/19/2017 11:20      93.4      92.3       27     54.3      0.00     18.28      79.5     0.35      1010.0     2        48         4         6        8.60     269      524.9
   06/19/2017 11:10      92.5      91.3       28     54.6      0.00     18.28      79.5     0.35      1010.0     2         5         5         8        8.60     269      515.9
   06/19/2017 11:00      91.4      90.2       29     54.2      0.00     18.28      79.6     0.35      1010.0     1        48         3        90        8.60     269      507.3
   06/19/2017 10:50      90.8      89.6       30     54.8      0.00     18.28      79.5     0.35      1010.0     3        31         4        69        8.60     270      497.1
   06/19/2017 10:40      89.4      87.7       32     54.8      0.00     18.28      79.3     0.35      1010.0     2       336         4       349        8.60     270      485.8
   06/19/2017 10:30      87.8      86.6       34     55.2      0.00     18.28      79.6     0.35      1010.0     2        29         4        24        8.60     270      475.0
   06/19/2017 10:20      86.7      85.9       35     55.4      0.00     18.28      79.8     0.35      1010.0     2         5         3       354        8.60     270      462.9
   06/19/2017 10:10      85.6      84.7       36     55.2      0.00     18.28      79.7     0.35      1010.0     2       342         3       359        8.60     270      450.2
   06/19/2017 10:00      85.5      84.7       36     55.3      0.00     18.28      79.5     0.35      1010.0     3        12         4       353        8.60     270      435.4
   06/19/2017 09:50      85.5      83.9       37     55.5      0.00     18.28      79.8     0.35      1010.0     2        16         3        90        8.60     270      420.0
   06/19/2017 09:40      83.6      82.7       38     55.1      0.00     18.28      79.8     0.35      1010.0     2       355         4        21        8.60     270      403.5
   06/19/2017 09:30      82.6      81.3       39     54.6      0.00     18.28      79.6     0.35      1010.0     1        71         3       128        8.60     270      388.2
   06/19/2017 09:20      81.1      79.8       41     54.4      0.00     18.28      79.8     0.35      1010.0     3        44         3        84        8.60     271      371.7
   06/19/2017 09:10      80.2      79.2       42     54.3      0.00     18.28      80.0     0.36      1010.0     2       348         4        25        8.60     271      358.1
   06/19/2017 09:00      79.4      77.3       43     54.4      0.00     18.28      80.1     0.36      1010.0     2        16         3        29        8.60     271      354.0
   06/19/2017 08:50      77.3      75.6       46     54.3      0.00     18.28      79.9     0.36      1010.0     2        46         3         2        8.60     271      365.4
   06/19/2017 08:40      75.5      74.6       48     54.1      0.00     18.28      79.9     0.36      1010.0     1       326         3       332        8.60     271       38.9
   06/19/2017 08:30      74.6      73.7       48     53.2      0.00     18.28      80.0     0.36      1010.0     1        18         3       342        8.60     271       -4.6
   06/19/2017 08:20      73.7      72.8       50     53.3      0.00     18.28      80.1     0.36      1010.0     2       331         3       320        8.60     270      -22.6
   06/19/2017 08:10      72.8      72.0       52     53.6      0.00     18.28      80.2     0.36      1010.0     2       325         3       347        8.60     270      -22.8
   06/19/2017 08:00      72.0      71.1       54     54.1      0.00     18.28      80.0     0.36      1010.0     2       295         3       252        8.60     270      -13.8
   06/19/2017 07:50      71.3      70.7       56     54.6      0.00     18.28      80.1     0.36      1010.0     2       348         3       342        8.60     270      -21.8
   06/19/2017 07:40      70.7      69.9       57     54.6      0.00     18.28      80.3     0.36      1010.0     2       311         3       353        8.60     271        6.7
   06/19/2017 07:30      69.9      68.5       60     54.8      0.00     18.28      80.3     0.36      1010.0     1        32         2        71        8.71     270       -9.3
   06/19/2017 07:20      68.7      67.7       63     54.9      0.00     18.28      80.0     0.36      1010.0     1       206         2       112        8.71     270      -30.2
   06/19/2017 07:10      67.8      66.9       64     54.8      0.00     18.28      80.1     0.36      1010.0     0       147         1       110        8.72     270      -31.0
   06/19/2017 07:00      66.8      65.9       67     55.1      0.00     18.28      80.2     0.36      1010.0     0       128         1       110        8.72     270      -34.6
   06/19/2017 06:50      66.0      65.0       69     55.2      0.00     18.28      80.3     0.36      1010.0     0       182         1       116        8.72     270      -36.9
   06/19/2017 06:40      65.0      63.8       72     55.1      0.00     18.28      80.2     0.36      1010.0     1       150         1       163        8.72     270      -38.4
   06/19/2017 06:30      63.8      62.7       75     55.1      0.00     18.28      80.3     0.36      1010.0     1       131         1       103        8.73     270      -43.4
   06/19/2017 06:20      62.7      62.0       76     54.8      0.00     18.28      80.5     0.36      1010.0     1       151         1       144        8.73     269      -44.8
   06/19/2017 06:10      62.2      61.9       77     54.6      0.00     18.28      80.5     0.36      1010.0     1       129         2       144        8.73     269      -47.5
   06/19/2017 06:00      62.5      62.0       76     54.7      0.00     18.28      80.7     0.36      1010.0     1       102         1       128        8.73     269      -52.2
   06/19/2017 05:50      62.6      62.2       76     54.8      0.00     18.28      80.7     0.36      1010.0     1       137         2       129        8.73     269      -55.4
   06/19/2017 05:40      62.6      62.4       76     54.8      0.00     18.28      80.4     0.36      1010.0     0       110         1       118        8.73     269      -57.4
   06/19/2017 05:30      63.0      62.4       75     54.5      0.00     18.28      80.8     0.36      1010.0     1       166         2       161        8.73     269      -59.7
   06/19/2017 05:20      63.3      62.8       74     54.7      0.00     18.28      80.8     0.36      1009.0     1       178         2       131        8.73     269      -58.9
   06/19/2017 05:10      63.0      62.7       75     54.8      0.00     18.28      81.0     0.36      1009.0     1       154         1       168        8.73     269      -59.1
   06/19/2017 05:00      63.1      62.8       74     54.5      0.00     18.28      80.8     0.36      1009.0     1       130         2       144        8.73     269      -59.9
   06/19/2017 04:50      63.1      62.8       74     54.5      0.00     18.28      80.8     0.36      1009.0     1       178         2       145        8.73     269      -60.6
   06/19/2017 04:40      63.4      63.1       73     54.5      0.00     18.28      80.8     0.36      1009.0     2       138         3       134        8.74     269      -61.0
   06/19/2017 04:30      63.6      63.3       72     54.1      0.00     18.28      80.8     0.36      1009.0     1       175         2       141        8.74     269      -60.8
   06/19/2017 04:20      63.3      62.9       72     54.0      0.00     18.28      81.1     0.36      1009.0     1       151         2       125        8.74     269      -61.1
   06/19/2017 04:10      63.5      63.3       71     53.9      0.00     18.28      80.9     0.36      1009.0     2       147         2       142        8.74     269      -61.5
   06/19/2017 04:00      64.2      63.4       70     53.6      0.00     18.28      81.2     0.36      1009.0     2       160         2       159        8.74     269      -61.8
   06/19/2017 03:50      64.7      64.2       69     54.0      0.00     18.28      81.0     0.36      1009.0     1       139         2       138        8.74     269      -60.9
   06/19/2017 03:40      65.1      64.7       67     53.9      0.00     18.28      81.0     0.36      1009.0     1       148         1       140        8.75     269      -61.3
   06/19/2017 03:30      65.1      64.8       67     53.9      0.00     18.28      81.1     0.36      1009.0     1       188         2       193        8.76     269      -60.7
   06/19/2017 03:20      64.6      64.0       69     54.0      0.00     18.28      81.1     0.36      1009.0     1       147         2       151        8.77     269      -61.5
   06/19/2017 03:10      65.1      64.3       67     53.6      0.00     18.28      81.2     0.36      1009.0     2       143         2       149        8.78     269      -61.5
   06/19/2017 03:00      65.8      65.4       66     53.6      0.00     18.28      81.0     0.36      1009.0     1       134         1       143        8.79     269      -61.3
   06/19/2017 02:50      66.1      65.7       63     52.8      0.00     18.28      81.0     0.36      1009.0     1       210         1       122        8.79     269      -61.2
   06/19/2017 02:40      65.8      65.4       66     54.0      0.00     18.28      81.4     0.36      1009.0     1       152         2       129        8.79     269      -61.5
   06/19/2017 02:30      65.8      65.4       66     53.9      0.00     18.28      81.2     0.36      1009.0     1       139         2       145        8.79     268      -62.4
   06/19/2017 02:20      66.2      65.8       64     53.7      0.00     18.28      81.4     0.36      1009.0     1       160         2       145        8.80     269      -63.2
   06/19/2017 02:10      66.0      65.7       66     54.1      0.00     18.28      81.0     0.36      1009.0     1       148         2       146        8.80     268      -63.3
   06/19/2017 02:00      66.6      65.7       65     54.0      0.00     18.28      81.2     0.36      1009.0     2       141         2       136        8.80     268      -63.8
   06/19/2017 01:50      67.3      66.7       64     54.3      0.00     18.28      81.3     0.36      1009.0     1       137         2       137        8.80     268      -64.6
   06/19/2017 01:40      67.4      67.2       63     54.4      0.00     18.28      81.6     0.36      1009.0     1       159         1       162        8.80     268      -64.7
   06/19/2017 01:30      67.4      67.2       63     54.3      0.00     18.28      81.4     0.36      1009.0     1       161         2       145        8.80     268      -65.3
   06/19/2017 01:20      67.9      67.3       62     54.1      0.00     18.28      81.4     0.36      1009.0     2       140         3       143        8.80     268      -65.6
   06/19/2017 01:10      68.0      67.4       61     53.9      0.00     18.28      81.6     0.36      1009.0     1       200         1       143        8.80     268      -65.2
   06/19/2017 01:00      67.9      67.3       61     53.7      0.00     18.28      81.4     0.36      1009.0     1       132         2       140        8.80     268      -66.1
   06/19/2017 00:50      68.3      67.9       60     53.8      0.00     18.28      81.5     0.36      1009.0     1       140         2       140        8.80     268      -65.3
   06/19/2017 00:40      68.9      68.4       58     53.5      0.00     18.28      81.3     0.36      1009.0     1       122         1       115        8.81     268      -66.2
   06/19/2017 00:30      69.1      68.4       59     53.8      0.00     18.28      81.4     0.36      1009.0     1       159         2       142        8.81     268      -66.0
   06/19/2017 00:20      69.1      68.5       59     53.7      0.00     18.28      81.5     0.36      1009.0     1       142         1       143        8.81     268      -66.7
   06/19/2017 00:10      69.7      68.6       57     53.3      0.00     18.28      81.4     0.36      1009.0     1       128         2       132        8.81     268      -68.1
   06/19/2017 00:00      70.6      69.7       56     53.4      0.00     18.28      81.4     0.36      1009.0     1       143         2       135        8.81     268      -69.4
   06/18/2017 23:50      70.8      70.4       54     53.0      0.00     18.28      81.6     0.36      1009.0     1       156         1       177        8.81     268      -69.4
   06/18/2017 23:40      70.6      70.4       53     52.6      0.00     18.28      81.8     0.36      1009.0     1       159         2       160        8.81     268      -70.1
   06/18/2017 23:30      71.2      70.6       53     52.7      0.00     18.28      81.7     0.36      1009.0     1       156         2       170        8.81     268      -70.1
   06/18/2017 23:20      71.9      71.2       52     53.0      0.00     18.28      81.6     0.36      1009.0     1       141         2       131        8.81     268      -70.3
   06/18/2017 23:10      72.1      71.7       52     53.3      0.00     18.28      81.5     0.36      1009.0     1       156         1       122        8.81     267      -70.2
   06/18/2017 23:00      72.9      72.3       51     53.4      0.00     18.28      81.5     0.36      1009.0     1       118         1       125        8.81     268      -70.5
   06/18/2017 22:50      73.5      72.9       50     53.5      0.00     18.28      81.5     0.36      1009.0     0        66         1        55        8.81     268      -71.2
   06/18/2017 22:40      74.0      73.3       49     53.4      0.00     18.28      81.6     0.36      1009.0     1       106         2        71        8.81     267      -71.4
   06/18/2017 22:30      74.1      73.6       49     53.7      0.00     18.28      81.5     0.36      1009.0     1        53         1       149        8.81     267      -72.0
   06/18/2017 22:20      74.4      74.2       49     53.8      0.00     18.28      81.7     0.36      1009.0     1        73         2        74        8.81     267      -72.5
   06/18/2017 22:10      74.9      74.4       48     53.7      0.00     18.28      81.5     0.36      1009.0     2        95         2       109        8.81     267      -73.9
   06/18/2017 22:00      75.6      75.2       47     53.8      0.00     18.28      81.6     0.36      1009.0     1       101         2       101        8.81     267      -74.8
   06/18/2017 21:50      76.3      75.7       46     53.9      0.00     18.28      81.5     0.36      1009.0     1       130         1       121        8.81     267      -74.6
   06/18/2017 21:40      76.7      76.3       46     54.0      0.00     18.28      81.5     0.36      1009.0     0       121         1       112        8.81     267      -75.6
   06/18/2017 21:30      77.8      76.8       45     54.2      0.00     18.28      81.6     0.36      1009.0     1        88         2        78        8.81     267      -77.7
   06/18/2017 21:20      78.7      78.0       43     54.2      0.00     18.28      81.5     0.36      1008.0     1        49         1        74        8.81     267      -79.1
   06/18/2017 21:10      79.5      78.8       42     54.2      0.00     18.28      81.5     0.36      1008.0     2       110         2        93        8.81     267      -81.2
   06/18/2017 21:00      80.2      79.6       42     54.4      0.00     18.28      81.5     0.36      1008.0     2        97         3        81        8.81     267      -83.8
   06/18/2017 20:50      81.4      80.3       40     54.5      0.00     18.28      81.4     0.36      1008.0     2        76         2        64        8.82     267      -85.4
   06/18/2017 20:40      82.1      81.4       40     54.9      0.00     18.28      81.4     0.36      1008.0     2        69         3        78        8.81     267      -88.2
   06/18/2017 20:30      83.6      82.3       39     55.4      0.00     18.28      81.3     0.36      1008.0     2        89         3        74        8.82     267      -89.3
   06/18/2017 20:20      84.9      83.6       38     55.7      0.00     18.28      81.4     0.36      1008.0     2        94         4        74        8.82     267      -89.6
   06/18/2017 20:10      86.2      85.3       36     55.3      0.00     18.28      81.3     0.36      1008.0     2        62         4        69        8.82     267      -88.8
   06/18/2017 20:00      87.7      86.4       35     56.0      0.00     18.28      81.3     0.36      1008.0     2        81         2        55        8.82     267      -85.9
   06/18/2017 19:50      89.3      88.0       32     55.4      0.00     18.28      81.3     0.36      1008.0     1        69         2         2        8.82     267      -83.4
   06/18/2017 19:40      90.5      89.4       31     54.9      0.00     18.28      81.2     0.36      1008.0     3       346         4       351        8.82     267      -73.5
   06/18/2017 19:30      91.2      90.7       30     55.3      0.00     18.28      81.3     0.36      1007.0     3       338         5         4        8.82     267      -54.5
   06/18/2017 19:20      91.8      91.1       30     55.2      0.00     18.28      81.1     0.36      1007.0     3       319         4       318        8.82     267      -38.3
   06/18/2017 19:10      92.3      91.7       29     55.4      0.00     18.28      81.1     0.36      1007.0     3       314         5       344        8.82     267      -18.7
   06/18/2017 19:00      92.9      92.0       29     55.7      0.00     18.28      81.0     0.36      1007.0     4       324         5       336        8.83     267        2.7
   06/18/2017 18:50      93.2      92.6       29     55.9      0.00     18.28      81.0     0.36      1007.0     4       311         6       305        8.83     267       25.0
   06/18/2017 18:40      94.3      93.7       28     56.2      0.00     18.28      80.8     0.36      1007.0     3       306         6       313        8.83     266       47.6
   06/18/2017 18:30      94.3      94.0       29     56.7      0.00     18.28      81.0     0.36      1007.0     4       326         6       321        8.83     267       70.7
   06/18/2017 18:20      95.3      94.4       27     55.9      0.00     18.28      80.9     0.36      1007.0     3       343         5       305        8.83     267       92.2
   06/18/2017 18:10      95.5      95.0       26     54.6      0.00     18.28      80.7     0.36      1007.0     1        13         2        51        8.83     267      114.2
   06/18/2017 18:00      95.3      94.5       26     54.4      0.00     18.28      80.6     0.36      1007.0     2        30         5        11        8.84     267      137.0
   06/18/2017 17:50      95.6      95.0       25     54.4      0.00     18.28      80.9     0.36      1007.0     4       346         6       347        8.84     267      159.2
   06/18/2017 17:40      95.8      95.0       25     54.2      0.00     18.28      80.6     0.36      1007.0     2        41         4        61        8.84     267      181.9
   06/18/2017 17:30      96.1      95.3       25     54.4      0.00     18.28      80.7     0.36      1007.0     4        25         7       357        8.84     267      205.4
   06/18/2017 17:20      96.2      95.1       26     55.2      0.00     18.28      80.4     0.36      1007.0     4       132         6       182        8.85     267      231.5
   06/18/2017 17:10      96.1      95.5       26     55.4      0.00     18.28      80.4     0.35      1007.0     3       143         7       136        8.85     267      252.5
   06/18/2017 17:00      96.2      95.3       26     55.1      0.00     18.28      80.4     0.35      1007.0     4       134         6       189        8.85     267      275.2
   06/18/2017 16:50      96.8      95.7       25     55.0      0.00     18.28      80.2     0.35      1007.0     5       142         7       194        8.86     267      293.0
   06/18/2017 16:40      97.5      95.9       25     54.9      0.00     18.28      80.2     0.35      1007.0     3       121         5       120        8.86     267      313.3
   06/18/2017 16:30      97.8      96.4       24     54.7      0.00     18.28      80.2     0.35      1007.0     4       109         6        80        8.87     267      333.4
   06/18/2017 16:20      98.5      97.9       23     54.5      0.00     18.28      80.1     0.35      1007.0     4        30         6       139        8.87     267      350.1
   06/18/2017 16:10      98.3      97.6       23     54.3      0.00     18.28      79.9     0.35      1007.0     4        35         5       336        8.87     267      369.8
   06/18/2017 16:00      97.7      97.5       23     54.0      0.00     18.28      79.9     0.35      1007.0     4        36         8        60        8.88     267      389.2
   06/18/2017 15:50      98.0      97.1       23     54.0      0.00     18.28      79.7     0.35      1007.0     6        59        10        80        8.88     267      407.4
   06/18/2017 15:40      98.5      97.8       23     54.2      0.00     18.28      79.8     0.35      1007.0     4        44         6        36        8.89     267      421.1
   06/18/2017 15:30      98.3      97.4       23     54.4      0.00     18.28      79.7     0.35      1007.0     5        23         8       357        8.89     267      436.3
   06/18/2017 15:20      98.5      96.6       24     54.3      0.00     18.28      79.5     0.35      1007.0     5        51         7        57        8.90     267      451.3
   06/18/2017 15:10      97.5      96.6       23     53.7      0.00     18.28      79.6     0.35      1008.0     4        63         7        60        8.90     267      465.4
   06/18/2017 15:00      98.3      97.7       23     54.0      0.00     18.28      79.5     0.35      1008.0     3        58         5       111        8.90     267      477.4
   06/18/2017 14:50      98.2      96.3       23     53.5      0.00     18.28      79.6     0.35      1008.0     5        35         7        84        8.91     267      489.2
   06/18/2017 14:40      97.3      96.1       23     52.8      0.00     18.28      79.4     0.35      1008.0     5        40         6        37        8.91     267      502.4
   06/18/2017 14:30      97.4      95.6       23     52.3      0.00     18.28      79.3     0.35      1008.0     4        49         7        70        8.91     267      513.4
   06/18/2017 14:20      98.2      96.8       22     52.3      0.00     18.28      79.3     0.35      1008.0     4        38         6        33        8.91     267      520.9
   06/18/2017 14:10      98.2      95.5       23     52.4      0.00     18.28      79.2     0.35      1008.0     4        34         7         5        8.92     268      530.1
   06/18/2017 14:00      97.2      95.7       23     52.2      0.00     18.28      79.1     0.35      1008.0     4        34         6        34        8.92     268      537.3
   06/18/2017 13:50      97.3      96.3       23     52.4      0.00     18.28      79.1     0.35      1008.0     6        14         7         8        8.92     268      543.9
   06/18/2017 13:40      97.1      95.7       23     52.0      0.00     18.28      79.0     0.35      1008.0     4        35         5       355        8.92     268      551.2
   06/18/2017 13:30      96.0      94.4       23     51.7      0.00     18.28      78.9     0.35      1008.0     4        32         6        25        8.92     269      557.4
   06/18/2017 13:20      95.4      94.6       23     51.6      0.00     18.28      78.9     0.35      1008.0     4        10         6       357        8.92     269      561.0
   06/18/2017 13:10      95.4      93.8       24     52.0      0.00     18.28      78.9     0.35      1009.0     3        26         6        73        8.93     269      566.7
   06/18/2017 13:00      94.5      92.8       25     52.1      0.00     18.28      79.0     0.35      1009.0     3        73         4       124        8.93     269      568.9
   06/18/2017 12:50      93.4      92.8       25     52.5      0.00     18.28      78.8     0.35      1009.0     3        21         6        85        8.93     269      571.2
   06/18/2017 12:40      92.8      91.8       26     52.7      0.00     18.28      78.7     0.35      1009.0     4        66         7        71        8.93     269      573.4
   06/18/2017 12:30      92.4      91.7       27     53.4      0.00     18.28      78.7     0.35      1009.0     4        65         6        75        8.93     270      572.6
   06/18/2017 12:20      92.0      90.2       28     53.3      0.00     18.28      78.9     0.35      1009.0     5        81         9       141        8.93     270      572.3
   06/18/2017 12:10      92.0      90.8       28     53.7      0.00     18.28      79.0     0.35      1009.0     3        38         6        29        8.93     271      564.7
   06/18/2017 12:00      91.7      90.3       29     53.9      0.00     18.28      78.8     0.35      1009.0     3        31         5        28        8.93     271      561.8
   06/18/2017 11:50      90.8      90.5       30     54.8      0.00     18.28      78.9     0.35      1009.0     4        11         7       356        8.93     271      555.2
   06/18/2017 11:40      91.4      90.0       30     54.9      0.00     18.28      78.7     0.35      1009.0     3        39         4       351        8.93     271      549.3
   06/18/2017 11:30      90.0      89.7       30     53.9      0.00     18.28      78.8     0.35      1009.0     3        39         4        87        8.93     271      543.1
   06/18/2017 11:20      90.3      88.0       28     52.6      0.00     18.28      78.9     0.35      1009.0     3       359         4         1        8.93     271      536.2
   06/18/2017 11:10      88.0      87.2       28     51.0      0.00     18.28      78.9     0.35      1009.0     3        44         4        97        8.93     272      528.4
   06/18/2017 11:00      87.7      87.1       29     50.9      0.00     18.28      78.8     0.35      1010.0     3       343         4       347        8.93     272      518.2
   06/18/2017 10:50      87.3      86.1       28     50.1      0.00     18.28      78.8     0.35      1010.0     2        41         6        70        8.93     272      508.5
   06/18/2017 10:40      86.2      85.2       28     49.2      0.00     18.28      79.0     0.35      1010.0     2        23         3        66        8.93     273      497.3
   06/18/2017 10:30      85.2      83.5       31     50.1      0.00     18.28      79.0     0.35      1010.0     2        42         4        24        8.93     274      485.7
   06/18/2017 10:20      84.5      83.1       32     50.8      0.00     18.28      78.9     0.35      1010.0     2        25         3         9        8.93     274      473.3
   06/18/2017 10:10      83.2      81.9       33     50.9      0.00     18.28      78.9     0.35      1010.0     2        38         4        60        8.93     275      459.5
   06/18/2017 10:00      81.9      81.2       35     51.7      0.00     18.28      78.8     0.35      1010.0     3       359         5       345        8.93     275      443.7
   06/18/2017 09:50      81.2      79.9       37     51.6      0.00     18.28      79.1     0.35      1010.0     2         7         4       332        8.93     275      427.3
   06/18/2017 09:40      80.3      78.7       39     52.4      0.00     18.28      79.1     0.35      1010.0     2        33         4        30        8.93     276      411.3
   06/18/2017 09:30      78.9      78.5       40     52.5      0.00     18.28      79.0     0.36      1010.0     2       141         4       134        8.93     276      393.9
   06/18/2017 09:20      78.9      77.8       43     53.9      0.00     18.28      79.4     0.36      1010.0     2        50         3        79        8.93     276      378.1
   06/18/2017 09:10      77.7      76.3       46     54.3      0.00     18.28      79.0     0.36      1010.0     2        20         4        11        8.93     276      363.8
   06/18/2017 09:00      76.2      74.2       48     54.4      0.00     18.28      78.9     0.36      1010.0     2        22         2       343        8.93     277      358.9
   06/18/2017 08:50      73.8      72.3       52     54.4      0.00     18.28      79.6     0.36      1010.0     2        58         3       120        8.93     277      368.9
   06/18/2017 08:40      72.3      71.2       54     54.3      0.00     18.28      79.5     0.36      1011.0     2        62         3        67        8.93     277       39.9
   06/18/2017 08:30      71.3      70.3       58     55.1      0.00     18.28      79.5     0.36      1011.0     2       358         2       315        8.93     277       -3.7
   06/18/2017 08:20      70.3      69.6       59     55.1      0.00     18.28      79.2     0.36      1011.0     1       346         2         3        8.93     277      -24.9
   06/18/2017 08:10      69.6      68.9       62     55.6      0.00     18.28      79.1     0.36      1011.0     1        16         3         6        8.93     277      -23.6
   06/18/2017 08:00      69.0      68.3       63     55.6      0.00     18.28      79.6     0.36      1011.0     1       139         3         5        8.93     277      -15.1
   06/18/2017 07:50      68.4      67.7       64     55.5      0.00     18.28      79.3     0.36      1011.0     1       160         3       109        8.93     277      -21.9
   06/18/2017 07:40      67.8      67.2       65     55.4      0.00     18.28      79.5     0.36      1011.0     2       114         3       155        8.93     277        5.7
   06/18/2017 07:30      67.3      66.5       66     55.1      0.00     18.28      79.8     0.36      1011.0     1        79         2       113        8.93     277       -9.1
   06/18/2017 07:20      66.7      66.2       66     54.9      0.00     18.28      79.4     0.36      1011.0     2        60         3        82        8.93     277      -29.5
   06/18/2017 07:10      66.4      65.8       67     54.6      0.00     18.28      79.6     0.36      1011.0     2        67         4        85        8.93     277      -31.2
   06/18/2017 07:00      65.8      64.9       66     53.7      0.00     18.28      79.7     0.36      1011.0     2        63         3        80        8.93     277      -33.9
   06/18/2017 06:50      65.0      64.0       66     52.8      0.00     18.28      79.8     0.36      1010.0     1       133         2        67        8.93     278      -35.9
   06/18/2017 06:40      63.9      62.6       69     52.8      0.00     18.28      79.7     0.36      1010.0     0       171         0       128        8.93     277      -37.5
   06/18/2017 06:30      62.5      62.1       70     52.5      0.00     18.28      79.5     0.36      1010.0     1       113         1       107        8.93     277      -42.6
   06/18/2017 06:20      62.3      61.6       71     52.4      0.00     18.28      79.8     0.36      1010.0     1       151         1       120        8.93     277      -42.3
   06/18/2017 06:10      61.6      61.3       72     52.4      0.00     18.28      79.8     0.36      1010.0     1       156         1       136        8.93     277      -44.8
   06/18/2017 06:00      61.4      61.0       72     52.1      0.00     18.28      79.9     0.36      1010.0     1       136         1       137        8.93     277      -49.9
   06/18/2017 05:50      61.3      60.7       71     51.7      0.00     18.28      79.9     0.36      1010.0     1       158         1       174        8.93     277      -53.0
   06/18/2017 05:40      60.8      60.5       72     51.7      0.00     18.28      80.0     0.36      1010.0     1       122         1       126        8.93     277      -55.8
   06/18/2017 05:30      61.6      60.8       70     51.3      0.00     18.28      79.9     0.36      1010.0     1       134         2       134        8.93     277      -57.1
   06/18/2017 05:20      61.6      61.1       71     51.9      0.00     18.28      80.0     0.36      1010.0     1       165         1       145        8.93     278      -56.1
   06/18/2017 05:10      61.6      61.4       70     51.7      0.00     18.28      80.3     0.36      1010.0     1       114         1       128        8.93     277      -56.9
   06/18/2017 05:00      61.7      61.4       70     51.7      0.00     18.28      80.2     0.36      1010.0     2       133         2       139        8.93     278      -57.2
   06/18/2017 04:50      61.8      61.4       70     51.8      0.00     18.28      80.6     0.36      1010.0     1       137         2       133        8.93     278      -57.5
   06/18/2017 04:40      62.5      61.7       69     51.8      0.00     18.28      80.3     0.36      1010.0     2       141         2       146        8.93     278      -57.4
   06/18/2017 04:30      63.0      62.5       67     51.9      0.00     18.28      80.4     0.36      1010.0     1       140         2       129        8.93     278      -57.1
   06/18/2017 04:20      63.1      62.8       66     51.6      0.00     18.28      80.4     0.36      1010.0     1       173         1       191        8.93     278      -56.7
   06/18/2017 04:10      63.0      62.5       67     51.8      0.00     18.28      80.5     0.36      1010.0     0       194         1       103        8.93     277      -56.9
   06/18/2017 04:00      62.6      61.9       69     52.0      0.00     18.28      80.7     0.36      1010.0     1       181         2       143        8.93     278      -57.5
   06/18/2017 03:50      62.6      61.7       66     50.8      0.00     18.28      80.5     0.36      1010.0     2       137         2       136        8.93     277      -58.9
   06/18/2017 03:40      62.9      62.7       67     51.6      0.00     18.28      80.7     0.36      1010.0     2       144         2       135        8.93     278      -59.1
   06/18/2017 03:30      63.4      62.6       65     51.0      0.00     18.28      80.6     0.36      1010.0     2       147         2       143        8.93     278      -58.9
   06/18/2017 03:20      63.5      63.3       64     51.0      0.00     18.28      80.7     0.36      1010.0     2       143         2       144        8.93     278      -59.7
   06/18/2017 03:10      63.7      63.3       63     50.7      0.00     18.28      81.0     0.36      1010.0     1       145         2       147        8.93     278      -60.1
   06/18/2017 03:00      64.0      63.4       62     50.5      0.00     18.28      80.6     0.36      1010.0     2       143         2       120        8.93     278      -60.8
   06/18/2017 02:50      64.2      63.9       61     50.5      0.00     18.28      80.8     0.36      1010.0     1       157         2       135        8.93     278      -60.4
   06/18/2017 02:40      64.8      64.3       60     50.4      0.00     18.28      80.9     0.36      1010.0     2       142         3       142        8.93     278      -60.3
   06/18/2017 02:30      64.9      64.7       60     50.4      0.00     18.28      80.6     0.36      1010.0     1       180         1       189        8.93     278      -60.0
   06/18/2017 02:20      65.2      64.6       59     50.1      0.00     18.28      81.0     0.36      1010.0     1       153         2       146        8.93     277      -60.5
   06/18/2017 02:10      65.5      65.2       57     49.9      0.00     18.28      80.8     0.36      1010.0     1       171         1       129        8.93     278      -60.2
   06/18/2017 02:00      65.7      65.2       59     50.7      0.00     18.28      80.8     0.36      1010.0     1       143         1       144        8.93     277      -60.5
   06/18/2017 01:50      65.9      65.7       56     49.6      0.00     18.28      81.0     0.36      1010.0     1       138         1       266        8.93     277      -61.2
   06/18/2017 01:40      65.8      65.6       58     50.6      0.00     18.28      80.8     0.36      1010.0     1       156         2       144        8.93     278      -61.2
   06/18/2017 01:30      66.0      65.7       60     51.6      0.00     18.28      81.3     0.36      1010.0     1       167         1       142        8.93     278      -61.4
   06/18/2017 01:20      66.2      65.8       60     51.8      0.00     18.28      81.0     0.36      1010.0     2       149         2       140        8.93     278      -63.1
   06/18/2017 01:10      66.8      66.2       57     50.8      0.00     18.28      81.1     0.36      1010.0     1       144         1       131        8.93     278      -63.9
   06/18/2017 01:00      67.0      66.8       57     51.2      0.00     18.28      81.1     0.36      1010.0     1       177         1       150        8.93     278      -63.9
   06/18/2017 00:50      67.2      66.9       57     51.4      0.00     18.28      81.2     0.36      1010.0     1       133         1       150        8.93     278      -64.3
   06/18/2017 00:40      67.8      67.2       55     51.0      0.00     18.28      81.2     0.36      1010.0     1       152         1       184        8.93     278      -63.6
   06/18/2017 00:30      68.0      67.7       56     51.4      0.00     18.28      81.2     0.36      1010.0     1       133         1       129        8.93     278      -63.8
   06/18/2017 00:20      68.7      68.0       54     51.3      0.00     18.28      81.4     0.36      1011.0     1       120         2       103        8.93     279      -64.5
   06/18/2017 00:10      69.1      68.6       53     51.2      0.00     18.28      81.0     0.36      1011.0     1       122         1       165        8.93     279      -64.3
   06/18/2017 00:00      69.6      69.0       52     51.0      0.00     18.28      81.4     0.36      1011.0     1       122         2       127        8.93     279      -65.5
   06/17/2017 23:50      70.3      69.7       51     51.0      0.00     18.28      81.3     0.36      1011.0     1       104         2        82        8.93     279      -67.0
   06/17/2017 23:40      70.7      70.3       50     51.2      0.00     18.28      81.4     0.36      1011.0     2        98         2        95        8.93     279      -68.6
   06/17/2017 23:30      71.0      70.6       50     51.0      0.00     18.28      81.5     0.36      1011.0     2        78         3        79        8.93     279      -68.9
   06/17/2017 23:20      71.5      71.0       49     51.0      0.00     18.28      81.2     0.36      1011.0     1        61         1       154        8.93     279      -68.5
   06/17/2017 23:10      72.3      71.7       47     50.8      0.00     18.28      81.5     0.36      1011.0     1        86         2        88        8.93     279      -68.2
   06/17/2017 23:00      72.9      72.4       46     50.7      0.00     18.28      81.6     0.36      1011.0     1        82         3        80        8.93     279      -69.5
   06/17/2017 22:50      73.3      73.0       45     50.5      0.00     18.28      81.6     0.36      1011.0     2        88         3        67        8.93     279      -69.5
   06/17/2017 22:40      73.8      73.5       44     50.2      0.00     18.28      81.6     0.36      1011.0     2        81         3        94        8.93     279      -69.8
   06/17/2017 22:30      74.3      74.0       43     50.1      0.00     18.28      81.6     0.36      1011.0     2        78         4        80        8.93     279      -70.0
   06/17/2017 22:20      74.4      74.3       42     49.9      0.00     18.28      81.5     0.36      1011.0     2        84         3        78        8.93     279      -70.2
   06/17/2017 22:10      74.5      73.6       43     50.0      0.00     18.28      81.6     0.36      1010.0     2        92         3        76        8.93     279      -69.5
   06/17/2017 22:00      74.6      73.7       42     49.9      0.00     18.28      81.3     0.36      1010.0     2        84         4        73        8.93     280      -68.8
   06/17/2017 21:50      75.2      74.8       41     49.9      0.00     18.28      81.5     0.36      1010.0     1        90         2        70        8.93     280      -69.7
   06/17/2017 21:40      76.0      75.4       40     49.6      0.00     18.28      81.3     0.36      1010.0     1       103         2        95        8.93     280      -71.5
   06/17/2017 21:30      76.5      76.2       39     49.5      0.00     18.28      81.4     0.36      1010.0     1        89         2        78        8.93     280      -72.8
   06/17/2017 21:20      76.8      76.5       39     49.8      0.00     18.28      81.5     0.36      1010.0     1        92         2       105        8.93     280      -74.1
   06/17/2017 21:10      77.9      77.0       38     49.9      0.00     18.28      81.4     0.36      1010.0     1        98         2        80        8.93     280      -75.1
   06/17/2017 21:00      78.3      78.1       38     50.4      0.00     18.28      81.2     0.36      1010.0     1        91         1       115        8.93     281      -77.0
   06/17/2017 20:50      79.0      78.4       39     51.7      0.00     18.28      81.4     0.36      1010.0     1       128         2        58        8.93     281      -78.2
   06/17/2017 20:40      79.6      79.2       40     53.2      0.00     18.28      81.5     0.36      1010.0     1        71         3        58        8.93     281      -80.1
   06/17/2017 20:30      81.0      79.9       39     53.6      0.00     18.28      81.4     0.36      1009.0     1       110         2       162        8.93     281      -81.9
   06/17/2017 20:20      82.2      81.0       38     53.7      0.00     18.28      81.0     0.36      1009.0     1       112         2        62        8.93     281      -83.7
   06/17/2017 20:10      83.5      82.4       37     53.9      0.00     18.28      81.3     0.36      1009.0     2        82         3        94        8.93     280      -84.9
   06/17/2017 20:00      84.9      83.7       36     54.5      0.00     18.28      81.4     0.36      1009.0     2        91         2        78        8.93     280      -83.0
   06/17/2017 19:50      86.6      85.2       35     55.1      0.00     18.28      81.4     0.36      1009.0     2        81         3        86        8.93     280      -81.0
   06/17/2017 19:40      87.9      87.0       34     55.2      0.00     18.28      81.0     0.36      1009.0     2        72         4        84        8.93     281      -74.4
   06/17/2017 19:30      88.8      88.2       33     55.4      0.00     18.28      80.9     0.36      1009.0     2        60         3        69        8.93     282      -56.9
   06/17/2017 19:20      89.8      88.9       32     55.7      0.00     18.28      81.2     0.36      1009.0     2        71         3        69        8.93     284      -40.0
   06/17/2017 19:10      90.3      89.9       31     55.6      0.00     18.28      81.2     0.36      1009.0     2        41         3        31        8.93     287      -12.4
   06/17/2017 19:00      90.9      90.5       31     55.9      0.00     18.28      81.1     0.36      1008.0     2        31         4        56        8.93     293       11.3
   06/17/2017 18:50      91.5      90.9       31     56.0      0.00     18.28      80.9     0.36      1008.0     3        38         4        69        8.93     301       35.6
   06/17/2017 18:40      92.6      91.2       30     55.9      0.00     18.28      80.6     0.36      1008.0     3        45         4        32        8.93     311       59.5
   06/17/2017 18:30      94.0      93.0       29     56.4      0.00     18.28      80.6     0.36      1008.0     3        24         4        39        8.93     332       84.9
   06/17/2017 18:20      95.2      93.8       25     52.9      0.00     18.28      81.0     0.36      1008.0     4        15         7       344        8.93     355      109.5
   06/17/2017 18:10      95.5      94.8       21     49.4      0.00     18.28      80.5     0.36      1008.0     5       341         6         0        8.93     385      136.0
   06/17/2017 18:00      95.8      95.1       21     49.1      0.00     18.28      80.7     0.36      1008.0     3       321         6       333        8.93     410      164.5
   06/17/2017 17:50      95.8      95.0       21     49.3      0.00     18.28      80.6     0.36      1008.0     5       310         8       318        8.93     432      196.4
   06/17/2017 17:40      95.9      95.5       21     49.7      0.00     18.28      80.4     0.36      1008.0     5       317         8       322        8.93     474      229.1
   06/17/2017 17:30      96.4      95.7       21     50.2      0.00     18.28      80.5     0.35      1008.0     5       325         7       325        8.93     720      216.1
   06/17/2017 17:20      96.3      95.5       22     50.6      0.00     18.28      80.4     0.35      1008.0     5       318         8       308        7.94     265      229.1
   06/17/2017 17:10      96.8      95.6       21     50.2      0.00     18.28      80.3     0.35      1008.0     5       319         8       310        7.21     265      250.5
   06/17/2017 17:00      96.4      95.9       22     50.6      0.00     18.28      80.2     0.35      1008.0     5       320         7       327        7.22     266      271.8
   06/17/2017 16:50      96.8      95.5       22     50.8      0.00     18.28      80.2     0.35      1008.0     5       318        11       304        7.22     266      293.1
   06/17/2017 16:40      96.8      96.0       22     51.2      0.00     18.28      80.0     0.35      1009.0     4       320         7       314        7.23     266      314.2
   06/17/2017 16:30      97.0      95.9       22     51.0      0.00     18.28      80.0     0.35      1009.0     6       315         8       295        7.23     266      335.0
   06/17/2017 16:20      96.8      95.5       22     51.3      0.00     18.28      80.1     0.35      1009.0     6       313        10       323        7.24     265      354.4
   06/17/2017 16:10      97.1      96.3       22     52.0      0.00     18.28      79.9     0.35      1009.0     5       304         9       315        7.25     266      374.6
   06/17/2017 16:00      98.0      96.5       22     52.3      0.00     18.28      79.9     0.35      1009.0     6       298        10       259        7.25     266      391.3
   06/17/2017 15:50      97.4      96.1       23     52.4      0.00     18.28      79.6     0.35      1009.0     4       285         7       289        7.26     266      406.9
   06/17/2017 15:40      97.1      96.3       23     53.2      0.00     18.28      79.6     0.35      1009.0     5       300         7       302        7.26     266      424.2
   06/17/2017 15:30      98.3      97.5       23     54.4      0.00     18.28      79.3     0.35      1009.0     5       311         7       325        7.27     266      437.0
   06/17/2017 15:20      99.3      98.1       25     56.9      0.00     18.28      79.3     0.35      1009.0     4        36         8        81        7.28     266      448.9
   06/17/2017 15:10      99.4      97.7       25     57.0      0.00     18.28      79.4     0.35      1009.0     3        20         5        13        7.29     266      462.1
   06/17/2017 15:00      99.0      97.8       26     57.5      0.00     18.28      79.3     0.35      1009.0     4        10         5        23        7.29     266      475.9
   06/17/2017 14:50      98.2      96.9       26     56.7      0.00     18.28      79.1     0.35      1009.0     3        46         6        36        7.29     266      490.5
   06/17/2017 14:40      96.9      95.9       27     56.6      0.00     18.28      79.1     0.35      1009.0     3        55         7        78        7.30     267      503.0
   06/17/2017 14:30      97.4      95.7       27     57.1      0.00     18.28      79.1     0.35      1009.0     5        21         6        24        7.30     266      512.1
   06/17/2017 14:20      96.8      94.6       28     57.1      0.00     18.28      79.0     0.35      1009.0     4        42         6        29        7.31     266      524.4
   06/17/2017 14:10      96.6      95.7       28     57.3      0.00     18.28      78.9     0.35      1009.0     4        66         7       128        7.35     267      532.7
   06/17/2017 14:00      96.2      95.1       28     57.5      0.00     18.28      78.9     0.35      1009.0     4        62         9        77        7.37     266      539.7
   06/17/2017 13:50      96.8      95.9       28     57.8      0.00     18.28      78.8     0.35      1009.0     3        60         6        50        7.38     267      545.2
   06/17/2017 13:40      96.3      95.2       29     58.3      0.00     18.28      78.9     0.35      1009.0     4        61         6        63        7.38     267      553.3
   06/17/2017 13:30      95.4      95.0       29     57.9      0.00     18.28      78.7     0.34      1010.0     3        57         7        73        7.38     267      558.3
   06/17/2017 13:20      95.2      93.7       30     57.9      0.00     18.28      78.6     0.34      1010.0     5        64         8        74        7.39     267      564.4
   06/17/2017 13:10      95.0      94.2       28     56.8      0.00     18.28      78.6     0.34      1010.0     4        56         6        61        7.39     267      566.6
   06/17/2017 13:00      95.4      94.5       28     56.5      0.00     18.28      78.6     0.34      1010.0     4        35         9       107        7.39     267      564.4
   06/17/2017 12:50      95.0      93.7       27     55.7      0.00     18.28      78.5     0.34      1010.0     4        18         6        12        7.39     268      564.8
   06/17/2017 12:40      94.2      92.8       28     55.4      0.00     18.28      78.5     0.34      1010.0     2        43         4        16        7.39     267      568.1
   06/17/2017 12:30      93.2      92.2       28     55.0      0.00     18.28      78.3     0.34      1010.0     3        19         4        12        7.39     267      566.7
   06/17/2017 12:20      92.5      91.9       28     54.9      0.00     18.28      78.5     0.35      1010.0     4        47         7        75        7.39     267      565.6
   06/17/2017 12:10      92.5      91.7       28     54.6      0.00     18.28      78.6     0.34      1010.0     3        70         4       127        7.39     268      563.3
   06/17/2017 12:00      92.5      90.7       28     54.3      0.00     18.28      78.4     0.35      1011.0     4        23         6       353        7.40     268      558.4
   06/17/2017 11:50      90.8      89.9       29     53.4      0.00     18.28      78.4     0.35      1011.0     3        40         6        71        7.40     268      553.3
   06/17/2017 11:40      90.3      89.7       28     52.7      0.00     18.28      78.4     0.35      1011.0     2        12         3       104        7.40     268      549.0
   06/17/2017 11:30      89.7      88.8       28     52.2      0.00     18.28      78.4     0.35      1011.0     2         9         3        32        7.40     268      541.9
   06/17/2017 11:20      88.9      88.4       29     52.0      0.00     18.28      78.4     0.35      1011.0     2         6         4       332        7.40     268      533.8
   06/17/2017 11:10      89.4      87.4       30     52.8      0.00     18.28      78.5     0.35      1011.0     3        16         5         1        7.40     268      526.7
   06/17/2017 11:00      87.7      86.5       30     52.4      0.00     18.28      78.5     0.35      1011.0     3         5         5         8        7.40     268      518.1
   06/17/2017 10:50      86.2      85.4       31     52.1      0.00     18.28      78.4     0.35      1011.0     2       357         4        22        7.41     269      508.3
   06/17/2017 10:40      85.8      84.6       32     51.9      0.00     18.28      78.7     0.35      1011.0     3         1         4       342        7.41     269      497.2
   06/17/2017 10:30      85.4      83.8       32     51.7      0.00     18.28      78.4     0.35      1011.0     2        33         4         6        7.41     269      486.1
   06/17/2017 10:20      84.1      82.5       34     52.1      0.00     18.28      78.6     0.35      1011.0     2        14         3         5        7.41     269      472.5
   06/17/2017 10:10      82.6      81.8       36     52.8      0.00     18.28      78.5     0.35      1012.0     2       359         3       355        7.41     270      459.6
   06/17/2017 10:00      82.1      80.8       39     54.5      0.00     18.28      78.7     0.35      1012.0     2        49         4        54        7.41     270      443.4
   06/17/2017 09:50      80.8      79.2       42     54.7      0.00     18.28      78.8     0.35      1012.0     2       348         4       323        7.41     270      426.8
   06/17/2017 09:40      79.0      78.4       44     54.9      0.00     18.28      78.6     0.35      1012.0     3        17         4        22        7.42     269      411.1
   06/17/2017 09:30      78.7      77.7       46     55.5      0.00     18.28      78.9     0.35      1012.0     2        48         4       109        7.42     270      396.2
   06/17/2017 09:20      77.7      76.3       48     55.7      0.00     18.28      78.5     0.35      1012.0     2        14         3        19        7.42     270      380.9
   06/17/2017 09:10      76.4      74.7       50     55.2      0.00     18.28      78.9     0.35      1012.0     3         6         5        14        7.42     270      367.3
   06/17/2017 09:00      74.8      73.4       52     55.2      0.00     18.28      78.8     0.36      1012.0     2       355         3       354        7.42     270      362.7
   06/17/2017 08:50      73.6      71.7       55     55.5      0.00     18.28      78.8     0.36      1012.0     2        12         3         4        7.42     270      376.3
   06/17/2017 08:40      71.6      70.5       58     55.6      0.00     18.28      79.1     0.36      1012.0     1       315         3        14        7.42     270       36.7
   06/17/2017 08:30      70.5      69.7       61     56.0      0.00     18.28      79.0     0.36      1012.0     2        15         3         3        7.42     269       -9.1
   06/17/2017 08:20      69.9      69.1       62     55.9      0.00     18.28      79.2     0.36      1012.0     2        10         3       356        7.42     269      -32.3
   06/17/2017 08:10      69.1      68.2       65     56.6      0.00     18.28      79.1     0.36      1012.0     2        31         4       344        7.42     269      -30.4
   06/17/2017 08:00      68.3      67.6       68     57.0      0.00     18.28      78.7     0.36      1012.0     1       124         2       136        7.42     269      -22.4
   06/17/2017 07:50      67.7      67.2       69     56.9      0.00     18.28      79.0     0.36      1012.0     1        87         2       126        7.43     269      -26.4
   06/17/2017 07:40      67.3      66.5       69     56.6      0.00     18.28      79.2     0.36      1012.0     2        39         2       104        7.43     269        2.3
   06/17/2017 07:30      66.7      65.8       70     56.3      0.00     18.28      79.2     0.36      1012.0     1       347         2        32        7.43     269      -14.0
   06/17/2017 07:20      65.9      65.3       72     56.2      0.00     18.28      79.1     0.36      1012.0     1       129         2       101        7.43     269      -35.7
   06/17/2017 07:10      65.3      64.5       71     55.4      0.00     18.28      79.1     0.36      1012.0     1       179         2       124        7.43     269      -37.3
   06/17/2017 07:00      64.6      63.6       71     54.5      0.00     18.28      79.3     0.36      1012.0     0       186         1       146        7.43     269      -40.2
   06/17/2017 06:50      63.6      62.5       72     54.0      0.00     18.28      79.3     0.36      1012.0     0        11         1       347        7.43     269      -42.7
   06/17/2017 06:40      62.5      61.1       76     54.2      0.00     18.28      79.6     0.36      1012.0     1       286         1       253        7.43     269      -42.6
   06/17/2017 06:30      61.1      60.5       79     54.2      0.00     18.28      79.1     0.36      1012.0     0        35         1        43        7.43     268      -42.9
   06/17/2017 06:20      60.4      59.6       81     54.2      0.00     18.28      79.1     0.36      1012.0     0       176         1       167        7.43     268      -39.2
   06/17/2017 06:10      59.6      59.4       82     54.1      0.00     18.28      79.4     0.36      1012.0     0       179         1       139        7.43     268      -40.0
   06/17/2017 06:00      59.4      59.0       83     54.2      0.00     18.28      79.3     0.36      1012.0     1       153         1       142        7.43     268      -47.1
   06/17/2017 05:50      59.1      58.8       82     53.6      0.00     18.28      79.4     0.36      1012.0     1       158         2       170        7.43     268      -53.6
   06/17/2017 05:40      59.7      59.3       81     53.7      0.00     18.28      79.6     0.36      1012.0     1       149         2       144        7.43     268      -55.1
   06/17/2017 05:30      59.9      59.6       82     54.3      0.00     18.28      79.6     0.36      1012.0     0       181         0         9        7.43     268      -56.0
   06/17/2017 05:20      59.9      59.6       82     54.1      0.00     18.28      79.6     0.36      1012.0     1       174         1       139        7.43     268      -58.8
   06/17/2017 05:10      59.9      59.5       82     54.1      0.00     18.28      79.9     0.36      1012.0     1       146         1       143        7.43     268      -59.0
   06/17/2017 05:00      60.2      59.7       81     54.0      0.00     18.28      79.7     0.36      1012.0     1       121         2       125        7.43     268      -61.6
   06/17/2017 04:50      60.6      60.3       80     54.3      0.00     18.28      79.8     0.36      1012.0     1       148         2       178        7.43     268      -60.9
   06/17/2017 04:40      60.6      60.1       80     54.3      0.00     18.28      79.7     0.36      1012.0     1       144         2       133        7.43     268      -61.9
   06/17/2017 04:30      60.5      60.2       80     54.2      0.00     18.28      79.7     0.36      1012.0     1       161         2       149        7.43     268      -62.3
   06/17/2017 04:20      61.3      60.5       78     54.1      0.00     18.28      80.0     0.36      1012.0     2       136         2       132        7.43     268      -63.4
   06/17/2017 04:10      61.5      61.3       79     54.7      0.00     18.28      80.0     0.36      1012.0     1       138         1       127        7.43     267      -63.1
   06/17/2017 04:00      61.5      61.3       78     54.5      0.00     18.28      79.8     0.36      1012.0     1       151         2       146        7.43     267      -64.4
   06/17/2017 03:50      62.2      61.4       77     54.4      0.00     18.28      79.8     0.36      1012.0     1       144         2       141        7.43     267      -64.8
   06/17/2017 03:40      62.2      61.7       77     54.7      0.00     18.28      79.8     0.36      1012.0     1       144         1       136        7.43     267      -64.0
   06/17/2017 03:30      62.4      61.7       77     54.8      0.00     18.28      79.9     0.36      1012.0     1       143         2       130        7.43     267      -64.7
   06/17/2017 03:20      62.4      61.9       76     54.5      0.00     18.28      80.1     0.36      1012.0     1       136         2       131        7.43     267      -66.8
   06/17/2017 03:10      62.8      62.5       76     54.9      0.00     18.28      80.2     0.36      1012.0     1       146         3       133        7.43     267      -66.9
   06/17/2017 03:00      62.8      62.6       75     54.9      0.00     18.28      80.2     0.36      1012.0     1       175         3       156        7.43     267      -66.7
   06/17/2017 02:50      63.3      63.0       75     55.1      0.00     18.28      80.1     0.36      1012.0     1       148         2       148        7.43     267      -66.8
   06/17/2017 02:40      63.8      63.4       74     55.1      0.00     18.28      80.2     0.36      1012.0     1       159         1       160        7.43     267      -68.6
   06/17/2017 02:30      64.4      64.0       73     55.4      0.00     18.28      80.3     0.36      1012.0     1       147         1       146        7.43     267      -68.7
   06/17/2017 02:20      64.8      64.3       72     55.4      0.00     18.28      80.0     0.36      1012.0     1       147         1       146        7.43     267      -69.2
   06/17/2017 02:10      65.1      64.8       72     55.5      0.00     18.28      80.3     0.36      1012.0     1       154         1       140        7.43     267      -69.5
   06/17/2017 02:00      65.5      65.2       70     55.4      0.00     18.28      80.3     0.36      1012.0     1       141         2       142        7.43     267      -70.5
   06/17/2017 01:50      65.0      64.7       71     55.2      0.00     18.28      80.3     0.36      1012.0     2       138         2       127        7.43     267      -70.4
   06/17/2017 01:40      65.4      64.9       70     55.3      0.00     18.28      80.4     0.36      1012.0     2       127         2        93        7.43     267      -69.7
   06/17/2017 01:30      65.4      65.2       72     55.9      0.00     18.28      80.3     0.36      1012.0     1       146         2       140        7.43     267      -69.7
   06/17/2017 01:20      65.2      64.9       71     55.4      0.00     18.28      80.4     0.36      1012.0     1       128         2       128        7.43     267      -71.0
   06/17/2017 01:10      65.4      65.1       71     55.5      0.00     18.28      80.5     0.36      1012.0     1       144         2       136        7.43     267      -70.9
   06/17/2017 01:00      66.3      65.7       69     55.5      0.00     18.28      80.5     0.36      1012.0     2       140         2       136        7.43     267      -72.0
   06/17/2017 00:50      66.3      65.9       67     54.7      0.00     18.28      80.5     0.36      1012.0     2       142         2       134        7.43     266      -72.4
   06/17/2017 00:40      67.1      66.3       65     54.6      0.00     18.28      80.4     0.36      1012.0     2       149         2       155        7.43     266      -72.3
   06/17/2017 00:30      67.7      67.3       62     54.0      0.00     18.28      80.5     0.36      1012.0     1       165         2       147        7.43     266      -72.2
   06/17/2017 00:20      68.0      67.3       60     53.2      0.00     18.28      80.5     0.36      1012.0     0       271         0       194        7.43     266      -73.2
   06/17/2017 00:10      68.2      68.1       59     53.3      0.00     18.28      80.5     0.36      1012.0     1       266         1       258        7.43     266      -73.1
   06/17/2017 00:00      68.3      68.1       60     53.6      0.00     18.28      80.5     0.36      1012.0     1       166         1       144        7.43     266      -73.2
   06/16/2017 23:50      68.9      68.2       57     52.5      0.00     18.28      80.6     0.36      1012.0     2       142         2       143        7.43     266      -73.4
   06/16/2017 23:40      69.2      68.9       54     51.7      0.00     18.28      80.6     0.36      1012.0     1       146         2       136        7.43     266      -73.3
   06/16/2017 23:30      69.9      69.4       50     50.3      0.00     18.28      80.6     0.36      1012.0     1       111         1       140        7.43     266      -74.0
   06/16/2017 23:20      69.7      69.3       47     48.4      0.00     18.28      80.5     0.36      1012.0     1       139         2       150        7.43     265      -74.4
   06/16/2017 23:10      69.6      68.9       46     47.7      0.00     18.28      80.6     0.36      1012.0     2       145         3       141        7.43     265      -74.0
   06/16/2017 23:00      70.8      69.7       41     45.7      0.00     18.28      80.6     0.36      1012.0     2       140         2       139        7.44     265      -74.1
   06/16/2017 22:50      71.7      70.7       40     45.7      0.00     18.28      80.5     0.36      1012.0     2       130         2       143        7.44     265      -75.9
   06/16/2017 22:40      72.5      71.8       41     47.3      0.00     18.28      80.6     0.36      1012.0     1       153         2       148        7.44     265      -76.5
   06/16/2017 22:30      72.8      72.4       36     44.2      0.00     18.28      80.6     0.36      1012.0     1       142         2       131        7.44     265      -76.6
   06/16/2017 22:20      73.9      72.6       33     42.7      0.00     18.28      80.6     0.36      1011.0     1       140         2       130        7.44     265      -79.1
   06/16/2017 22:10      74.3      73.6       32     42.7      0.00     18.28      80.5     0.36      1011.0     1       190         2       214        7.44     265      -77.8
   06/16/2017 22:00      74.3      73.3       33     43.1      0.00     18.28      80.5     0.36      1011.0     1        85         2        37        7.44     265      -79.7
   06/16/2017 21:50      74.5      73.8       34     43.7      0.00     18.28      80.5     0.36      1011.0     1        64         2       126        7.44     265      -80.3
   06/16/2017 21:40      76.7      74.7       32     44.0      0.00     18.28      80.6     0.36      1011.0     1       118         2       124        7.44     265      -82.5
   06/16/2017 21:30      78.9      77.1       29     43.0      0.00     18.28      80.5     0.36      1011.0     2       167         3       199        7.44     264      -83.9
   06/16/2017 21:20      79.1      77.9       29     43.5      0.00     18.28      80.4     0.36      1011.0     3       179         4       173        7.44     265      -85.2
   06/16/2017 21:10      79.3      78.2       30     44.5      0.00     18.28      80.5     0.36      1011.0     1       177         3       177        7.44     264      -86.4
   06/16/2017 21:00      80.5      79.3       30     45.2      0.00     18.28      80.3     0.36      1011.0     2       170         3       183        7.44     264      -89.3
   06/16/2017 20:50      81.8      80.8       28     45.3      0.00     18.28      80.5     0.36      1011.0     2       189         2       220        7.44     265      -93.7
   06/16/2017 20:40      82.4      82.0       26     44.3      0.00     18.28      80.5     0.36      1010.0     3       209         4       224        7.44     265      -97.9
   06/16/2017 20:30      84.0      82.6       24     42.3      0.00     18.28      80.5     0.36      1010.0     2       212         4       219        7.44     264      -98.8
   06/16/2017 20:20      85.2      84.1       21     40.9      0.00     18.28      80.3     0.36      1010.0     3       234         5       241        7.44     264     -100.5
   06/16/2017 20:10      86.4      85.5       21     41.0      0.00     18.28      80.3     0.36      1010.0     3       230         4       228        7.45     264      -99.8
   06/16/2017 20:00      87.4      86.7       20     40.8      0.00     18.28      80.3     0.36      1010.0     3       255         5       229        7.44     264      -98.3
   06/16/2017 19:50      88.7      87.6       19     40.2      0.00     18.28      80.3     0.36      1010.0     4       251         6       261        7.44     264      -96.4
   06/16/2017 19:40      90.8      88.8       18     40.3      0.00     18.28      80.3     0.36      1010.0     5       266         9       270        7.45     264      -87.8
   06/16/2017 19:30      91.3      90.9       18     41.3      0.00     18.28      80.3     0.36      1010.0     3       277         5       267        7.45     264      -64.8
   06/16/2017 19:20      91.9      91.2       18     42.1      0.00     18.28      80.1     0.36      1010.0     4       257         6       250        7.45     265      -47.6
   06/16/2017 19:10      92.4      91.7       17     41.6      0.00     18.28      80.0     0.36      1010.0     4       279         6       235        7.45     265      -27.6
   06/16/2017 19:00      92.4      91.9       17     41.6      0.00     18.28      80.0     0.36      1010.0     4       272         7       316        7.46     265       -4.6
   06/16/2017 18:50      92.3      91.7       18     41.9      0.00     18.28      80.1     0.36      1010.0     5       293         8       301        7.46     265       20.1
   06/16/2017 18:40      92.0      91.8       18     42.2      0.00     18.28      80.1     0.36      1010.0     5       303         8       294        7.46     265       44.7
   06/16/2017 18:30      92.3      91.7       18     42.0      0.00     18.28      79.8     0.36      1010.0     6       309         9       336        7.46     265       67.5
   06/16/2017 18:20      92.6      92.2       17     41.7      0.00     18.28      79.7     0.36      1010.0     5       285         8       302        7.47     265       90.6
   06/16/2017 18:10      92.6      92.3       17     41.9      0.00     18.28      79.9     0.35      1010.0     5       296        10       317        7.47     265      113.8
   06/16/2017 18:00      93.1      92.6       17     42.5      0.00     18.28      79.7     0.35      1010.0     5       292         7       265        7.48     265      136.2
   06/16/2017 17:50      94.3      93.1       18     43.3      0.00     18.28      79.7     0.35      1009.0     6       305        10       307        7.48     265      158.7
   06/16/2017 17:40      94.5      94.0       17     43.3      0.00     18.28      79.6     0.35      1009.0     5       297         8       303        7.49     265      183.4
   06/16/2017 17:30      94.9      94.4       17     43.2      0.00     18.28      79.4     0.35      1009.0     6       305         8       305        7.50     265      208.2
   06/16/2017 17:20      95.4      94.4       17     42.5      0.00     18.28      79.5     0.35      1009.0     8       299        15       316        7.51     265      231.6
   06/16/2017 17:10      95.7      95.1       17     42.9      0.00     18.28      79.3     0.35      1009.0     6       299         9       290        7.52     265      254.1
   06/16/2017 17:00      96.0      95.1       17     43.6      0.00     18.28      79.3     0.35      1009.0     6       288         9       293        7.53     265      278.3
   06/16/2017 16:50      96.1      95.5       17     43.6      0.00     18.28      79.2     0.35      1009.0     6       295         8       261        7.53     265      301.3
   06/16/2017 16:40      96.2      95.7       16     43.1      0.00     18.28      79.1     0.35      1010.0     7       305        11       301        7.54     265      320.0
   06/16/2017 16:30      96.6      96.1       16     42.8      0.00     18.28      79.2     0.35      1010.0     6       298        11       297        7.54     265      337.6
   06/16/2017 16:20      96.6      96.0       17     43.8      0.00     18.28      78.8     0.35      1010.0     7       297        10       286        7.55     265      358.8
   06/16/2017 16:10      97.0      96.3       17     44.3      0.00     18.28      79.0     0.35      1010.0     5       312         9       294        7.56     265      378.0
   06/16/2017 16:00      97.4      96.7       17     45.3      0.00     18.28      78.9     0.35      1010.0     6       308        10       318        7.57     265      395.8
   06/16/2017 15:50      97.7      96.9       18     46.3      0.00     18.28      78.8     0.35      1010.0     5       313        10       285        7.57     265      412.1
   06/16/2017 15:40      97.8      96.9       18     47.2      0.00     18.28      78.7     0.35      1010.0     7       294        10       318        7.58     265      427.3
   06/16/2017 15:30      98.6      97.9       18     48.1      0.00     18.28      78.5     0.35      1010.0     7       278         8       240        7.58     266      440.6
   06/16/2017 15:20      98.8      97.3       19     48.4      0.00     18.28      78.5     0.35      1010.0     6       298        10       271        7.59     265      451.9
   06/16/2017 15:10     100.3      98.7       20     51.2      0.00     18.28      78.3     0.35      1010.0     5       301         9       302        7.60     266      462.5
   06/16/2017 15:00      99.2      98.4       22     52.7      0.00     18.28      78.1     0.35      1010.0     2       338         4         4        7.61     266      471.5
   06/16/2017 14:50      99.5      97.5       22     53.1      0.00     18.28      78.2     0.35      1010.0     3         5         5        43        7.61     266      488.6
   06/16/2017 14:40      97.5      96.6       22     52.2      0.00     18.28      78.3     0.35      1010.0     3        68         5       100        7.62     266      505.5
   06/16/2017 14:30      98.1      96.7       22     53.0      0.00     18.28      77.9     0.35      1010.0     3        63         6        53        7.62     266      516.0
   06/16/2017 14:20      96.6      95.5       23     52.7      0.00     18.28      78.0     0.34      1010.0     4        84         7        96        7.63     266      529.8
   06/16/2017 14:10      97.7      96.3       23     53.3      0.00     18.28      77.9     0.34      1011.0     3        72         4        97        7.63     266      534.2
   06/16/2017 14:00      97.4      96.3       24     53.6      0.00     18.28      77.8     0.34      1011.0     3        49         5        90        7.63     266      541.4
   06/16/2017 13:50      97.9      96.8       24     54.3      0.00     18.28      77.8     0.34      1011.0     3        55         5        34        7.64     266      546.0
   06/16/2017 13:40      96.9      96.0       25     54.7      0.00     18.28      77.7     0.34      1011.0     3        36         4        20        7.64     266      553.0
   06/16/2017 13:30      97.1      95.8       25     55.5      0.00     18.28      77.6     0.34      1011.0     3        35         4        41        7.64     267      560.1
   06/16/2017 13:20      96.4      95.4       26     55.6      0.00     18.28      77.6     0.34      1011.0     4        45         5        84        7.64     267      564.4
   06/16/2017 13:10      96.0      94.9       27     55.7      0.00     18.28      77.6     0.34      1011.0     4        46         6        59        7.65     267      568.6
   06/16/2017 13:00      95.5      95.2       26     54.8      0.00     18.28      77.5     0.34      1011.0     4        33         8        75        7.65     267      570.2
   06/16/2017 12:50      95.5      95.1       25     53.4      0.00     18.28      77.4     0.34      1011.0     3        61         5        65        7.65     267      573.3
   06/16/2017 12:40      95.8      94.8       23     51.9      0.00     18.28      77.5     0.34      1011.0     4        52         5        14        7.65     267      573.8
   06/16/2017 12:30      95.2      94.6       23     51.8      0.00     18.28      77.4     0.34      1011.0     4        32         6         2        7.66     267      569.8
   06/16/2017 12:20      94.8      93.7       23     50.4      0.00     18.28      77.4     0.34      1011.0     4        72         6        65        7.65     267      570.7
   06/16/2017 12:10      94.3      93.8       22     49.9      0.00     18.28      77.5     0.34      1011.0     3        74         6        63        7.65     267      564.7
   06/16/2017 12:00      94.4      93.7       22     50.0      0.00     18.28      77.4     0.34      1011.0     3        18         5        16        7.65     267      557.6
   06/16/2017 11:50      93.6      93.0       23     49.6      0.00     18.28      77.3     0.34      1012.0     4        31         5        46        7.65     268      553.8
   06/16/2017 11:40      93.4      92.4       23     49.9      0.00     18.28      77.3     0.34      1012.0     4        27         5        15        7.65     267      548.9
   06/16/2017 11:30      92.9      91.7       24     50.0      0.00     18.28      77.4     0.34      1012.0     3        23         5         9        7.65     268      542.4
   06/16/2017 11:20      91.3      90.7       25     49.9      0.00     18.28      77.3     0.34      1012.0     3        28         6        37        7.66     268      537.0
   06/16/2017 11:10      91.4      90.2       26     50.8      0.00     18.28      77.4     0.34      1012.0     3        53         4        43        7.65     268      529.5
   06/16/2017 11:00      90.2      89.2       27     51.1      0.00     18.28      77.3     0.35      1012.0     3        62         4        56        7.66     268      520.1
   06/16/2017 10:50      88.9      87.9       28     50.9      0.00     18.28      77.3     0.35      1012.0     3        36         5        73        7.66     269      511.1
   06/16/2017 10:40      88.0      87.2       29     51.1      0.00     18.28      77.3     0.35      1012.0     4        61         7        73        7.66     269      499.9
   06/16/2017 10:30      87.6      86.4       29     51.0      0.00     18.28      77.2     0.35      1012.0     2        58         3        62        7.66     269      486.7
   06/16/2017 10:20      86.3      84.8       31     51.7      0.00     18.28      77.5     0.35      1012.0     3         2         5       354        7.66     269      474.3
   06/16/2017 10:10      85.0      84.1       33     52.3      0.00     18.28      77.5     0.35      1012.0     3        20         5       102        7.66     269      460.7
   06/16/2017 10:00      84.1      82.8       34     52.2      0.00     18.28      77.4     0.35      1012.0     3        13         4         4        7.66     269      444.4
   06/16/2017 09:50      82.6      81.7       36     52.3      0.00     18.28      77.5     0.35      1012.0     2       357         3       341        7.66     269      429.1
   06/16/2017 09:40      81.5      81.2       37     52.4      0.00     18.28      77.6     0.35      1012.0     2       359         3       359        7.66     269      411.4
   06/16/2017 09:30      81.2      79.7       38     52.3      0.00     18.28      77.6     0.35      1013.0     1       337         3       337        7.66     269      395.6
   06/16/2017 09:20      79.7      79.2       39     52.6      0.00     18.28      77.6     0.35      1013.0     2       358         3       337        7.66     269      380.9
   06/16/2017 09:10      79.1      77.6       41     52.8      0.00     18.28      77.6     0.35      1013.0     2         2         3       351        7.67     269      367.7
   06/16/2017 09:00      77.5      75.2       44     53.0      0.00     18.28      77.7     0.35      1013.0     2         8         3        56        7.67     269      363.6
   06/16/2017 08:50      75.1      73.0       48     53.0      0.00     18.28      77.6     0.35      1013.0     2       353         2       354        7.68     269      376.9
   06/16/2017 08:40      73.0      71.8       50     52.7      0.00     18.28      77.8     0.35      1013.0     2       329         2         0        7.68     269       51.1
   06/16/2017 08:30      72.0      71.1       51     52.6      0.00     18.28      77.8     0.35      1013.0     2        22         2       359        7.68     269       -6.9
   06/16/2017 08:20      71.1      70.1       53     52.4      0.00     18.28      77.8     0.35      1013.0     1       341         2       345        7.69     269      -31.9
   06/16/2017 08:10      69.9      69.2       54     52.1      0.00     18.28      78.1     0.36      1013.0     2        12         2        30        7.69     269      -29.4
   06/16/2017 08:00      69.1      68.4       55     51.8      0.00     18.28      77.8     0.36      1013.0     1       285         2       340        7.69     269      -22.1
   06/16/2017 07:50      68.4      67.7       56     51.6      0.00     18.28      77.9     0.36      1013.0     1        29         2        14        7.70     269      -26.3
   06/16/2017 07:40      67.8      67.0       57     51.7      0.00     18.28      78.0     0.36      1013.0     1       320         1       350        7.70     269        1.1
   06/16/2017 07:30      66.8      66.0       59     51.7      0.00     18.28      78.0     0.36      1013.0     0       242         1       317        7.70     269      -12.9
   06/16/2017 07:20      66.0      65.4       60     51.6      0.00     18.28      78.2     0.36      1013.0     1       274         1       316        7.70     269      -34.9
   06/16/2017 07:10      65.5      64.8       62     51.9      0.00     18.28      78.1     0.36      1013.0     1       340         2       346        7.71     269      -37.4
   06/16/2017 07:00      64.8      63.9       64     52.0      0.00     18.28      78.0     0.36      1013.0     1       312         2       293        7.71     269      -40.5
   06/16/2017 06:50      63.8      62.3       68     52.2      0.00     18.28      78.3     0.36      1013.0     1       305         2       322        7.71     268      -40.8
   06/16/2017 06:40      62.0      60.7       73     52.5      0.00     18.28      78.2     0.36      1013.0     1       304         1       307        7.71     268      -41.5
   06/16/2017 06:30      60.5      59.6       75     52.1      0.00     18.28      78.5     0.36      1013.0     1       107         1       145        7.71     268      -47.3
   06/16/2017 06:20      59.6      58.8       77     52.0      0.00     18.28      78.3     0.36      1013.0     1       129         1       124        7.71     268      -47.4
   06/16/2017 06:10      58.8      58.4       77     51.5      0.00     18.28      78.4     0.36      1013.0     2       133         2       145        7.71     268      -50.0
   06/16/2017 06:00      59.0      58.8       76     51.5      0.00     18.28      78.5     0.36      1013.0     1       158         2       142        7.71     268      -55.5
   06/16/2017 05:50      58.9      58.5       78     51.9      0.00     18.28      78.3     0.36      1012.0     1       160         2       141        7.71     268      -57.6
   06/16/2017 05:40      59.1      58.5       76     51.2      0.00     18.28      78.5     0.36      1012.0     2       137         2       138        7.71     268      -60.5
   06/16/2017 05:30      59.2      59.0       75     51.3      0.00     18.28      78.5     0.36      1012.0     1       145         2       152        7.71     268      -61.3
   06/16/2017 05:20      59.0      58.7       75     50.9      0.00     18.28      78.4     0.36      1012.0     2       149         2       141        7.71     267      -61.8
   06/16/2017 05:10      60.0      58.8       70     49.8      0.00     18.28      78.6     0.36      1012.0     2       132         2       136        7.71     267      -62.5
   06/16/2017 05:00      60.3      59.7       70     50.2      0.00     18.28      78.5     0.36      1012.0     1       188         1       116        7.72     267      -62.4
   06/16/2017 04:50      59.8      59.5       70     49.9      0.00     18.28      78.5     0.36      1012.0     1       318         1       300        7.72     267      -62.4
   06/16/2017 04:40      60.8      59.9       69     50.0      0.00     18.28      78.7     0.36      1012.0     1        87         2       150        7.72     267      -62.6
   06/16/2017 04:30      61.1      60.9       67     49.9      0.00     18.28      78.7     0.36      1012.0     1       157         1       118        7.72     267      -62.1
   06/16/2017 04:20      61.5      61.1       66     49.7      0.00     18.28      78.8     0.36      1012.0     0       156         1        81        7.72     267      -61.9
   06/16/2017 04:10      61.9      61.6       64     49.5      0.00     18.28      78.7     0.36      1012.0     1       167         1       203        7.72     267      -62.3
   06/16/2017 04:00      61.9      61.2       64     49.1      0.00     18.28      78.7     0.36      1012.0     0       177         1       172        7.72     267      -62.4
   06/16/2017 03:50      61.3      60.9       65     49.0      0.00     18.28      78.8     0.36      1012.0     1       171         2       161        7.72     267      -63.7
   06/16/2017 03:40      61.3      60.8       65     49.3      0.00     18.28      78.8     0.36      1012.0     2       144         2       146        7.72     267      -64.5
   06/16/2017 03:30      61.8      61.1       66     49.9      0.00     18.28      78.8     0.36      1012.0     2       149         2       163        7.72     267      -64.7
   06/16/2017 03:20      62.0      61.9       67     51.0      0.00     18.28      78.8     0.36      1012.0     1       166         2       129        7.72     267      -64.4
   06/16/2017 03:10      62.4      62.2       69     52.1      0.00     18.28      78.9     0.36      1012.0     1       155         2       168        7.72     267      -64.5
   06/16/2017 03:00      62.6      62.2       70     52.4      0.00     18.28      78.9     0.36      1012.0     1       168         1       132        7.72     267      -64.8
   06/16/2017 02:50      63.0      62.5       68     52.2      0.00     18.28      79.0     0.36      1012.0     1       166         2       160        7.72     267      -65.3
   06/16/2017 02:40      63.2      62.6       68     52.0      0.00     18.28      79.0     0.36      1012.0     1       171         3       149        7.72     267      -64.6
   06/16/2017 02:30      63.8      63.1       66     51.8      0.00     18.28      79.1     0.36      1012.0     2       150         3       143        7.72     267      -64.7
   06/16/2017 02:20      63.9      63.6       65     51.6      0.00     18.28      79.1     0.36      1012.0     1       167         2       161        7.72     267      -64.0
   06/16/2017 02:10      64.2      63.8       62     50.9      0.00     18.28      79.1     0.36      1012.0     1       163         1       134        7.72     267      -64.3
   06/16/2017 02:00      64.8      64.3       61     50.8      0.00     18.28      79.2     0.36      1012.0     1       173         1       173        7.72     267      -65.2
   06/16/2017 01:50      64.9      64.5       60     50.3      0.00     18.28      79.2     0.36      1012.0     1       210         2       205        7.72     267      -64.7
   06/16/2017 01:40      64.5      64.2       59     49.7      0.00     18.28      79.3     0.36      1012.0     1       145         2       177        7.72     267      -65.0
   06/16/2017 01:30      65.4      64.5       57     49.1      0.00     18.28      79.2     0.36      1012.0     1       127         1       110        7.72     267      -65.8
   06/16/2017 01:20      65.4      65.0       56     49.1      0.00     18.28      79.0     0.36      1012.0     1       189         2       208        7.73     267      -65.3
   06/16/2017 01:10      65.1      64.8       55     48.5      0.00     18.28      79.1     0.36      1012.0     1       155         2       140        7.73     267      -65.4
   06/16/2017 01:00      65.5      65.1       54     48.4      0.00     18.28      79.1     0.36      1012.0     1       131         2       157        7.73     267      -66.0
   06/16/2017 00:50      66.3      65.7       53     48.4      0.00     18.28      79.3     0.36      1012.0     1       135         2       135        7.73     267      -66.5
   06/16/2017 00:40      66.6      66.1       53     48.6      0.00     18.28      79.3     0.36      1012.0     1       119         1       142        7.73     267      -67.8
   06/16/2017 00:30      67.0      66.7       50     47.9      0.00     18.28      79.3     0.36      1012.0     1       147         2       129        7.73     267      -68.3
   06/16/2017 00:20      67.2      66.9       52     48.7      0.00     18.28      79.5     0.36      1012.0     2       148         3       150        7.73     267      -68.8
   06/16/2017 00:10      67.7      67.0       51     48.9      0.00     18.28      79.2     0.36      1012.0     2       136         3       137        7.73     266      -68.5
   06/16/2017 00:00      67.8      67.3       51     48.6      0.00     18.28      79.3     0.36      1012.0     2       179         2       207        7.73     266      -68.1
   06/15/2017 23:50      68.6      67.7       52     49.5      0.00     18.28      79.4     0.36      1012.0     2       146         3       130        7.73     266      -68.4
   06/15/2017 23:40      69.1      68.8       52     50.5      0.00     18.28      79.2     0.36      1012.0     1       182         2       190        7.73     266      -68.4
   06/15/2017 23:30      69.4      68.9       55     52.4      0.00     18.28      79.3     0.36      1012.0     1       156         2       155        7.73     266      -69.9
   06/15/2017 23:20      70.0      69.4       54     52.3      0.00     18.28      79.4     0.36      1012.0     1       166         2       200        7.73     266      -70.3
   06/15/2017 23:10      70.8      70.0       54     52.6      0.00     18.28      79.3     0.36      1012.0     1       169         1       171        7.73     266      -70.3
   06/15/2017 23:00      71.0      70.3       53     52.5      0.00     18.28      79.4     0.36      1012.0     1       161         1       213        7.73     266      -71.9
   06/15/2017 22:50      70.7      70.3       52     51.9      0.00     18.28      79.3     0.36      1012.0     1       154         2       164        7.73     266      -72.9
   06/15/2017 22:40      70.8      70.4       50     51.0      0.00     18.28      79.3     0.36      1012.0     2       148         2       160        7.73     266      -74.0
   06/15/2017 22:30      72.0      70.7       49     50.9      0.00     18.28      79.2     0.36      1013.0     2       130         2       129        7.73     266      -76.0
   06/15/2017 22:20      73.0      72.5       47     51.5      0.00     18.28      79.3     0.36      1012.0     2       166         3       175        7.73     266      -74.8
   06/15/2017 22:10      73.2      72.4       47     51.6      0.00     18.28      79.3     0.36      1012.0     1       135         2       139        7.74     266      -76.6
   06/15/2017 22:00      73.7      73.3       46     51.7      0.00     18.28      79.2     0.36      1012.0     1       155         2       167        7.74     266      -76.5
   06/15/2017 21:50      74.4      73.8       44     50.5      0.00     18.28      79.3     0.36      1012.0     0       108         1       139        7.74     265      -78.4
   06/15/2017 21:40      75.0      74.4       39     48.1      0.00     18.28      79.4     0.36      1012.0     1        83         2        89        7.74     265      -80.0
   06/15/2017 21:30      75.4      74.9       36     46.5      0.00     18.28      79.2     0.36      1012.0     0        82         1        66        7.74     265      -82.3
   06/15/2017 21:20      76.3      75.0       35     46.1      0.00     18.28      79.2     0.36      1012.0     1        73         1        49        7.74     265      -84.4
   06/15/2017 21:10      77.7      76.2       33     45.8      0.00     18.28      79.2     0.36      1012.0     1        74         2        42        7.75     265      -86.4
   06/15/2017 21:00      79.9      78.2       31     45.7      0.00     18.28      79.2     0.36      1012.0     1       155         2        53        7.75     265      -88.4
   06/15/2017 20:50      80.8      80.2       29     45.6      0.00     18.28      79.2     0.36      1011.0     1       210         2       225        7.77     265      -91.1
   06/15/2017 20:40      81.6      80.8       28     45.0      0.00     18.28      79.0     0.36      1011.0     2       213         5       195        7.77     265      -91.8
   06/15/2017 20:30      81.8      81.3       27     44.0      0.00     18.28      79.1     0.36      1011.0     3       212         3       206        7.78     265      -91.9
   06/15/2017 20:20      83.7      82.0       25     43.9      0.00     18.28      79.0     0.36      1011.0     2       230         4       210        7.78     265      -94.5
   06/15/2017 20:10      84.8      84.0       25     44.5      0.00     18.28      79.0     0.36      1011.0     2       264         3       254        7.78     265      -97.8
   06/15/2017 20:00      85.7      85.0       24     44.4      0.00     18.28      79.0     0.36      1011.0     3       302         5       327        7.78     265      -96.9
   06/15/2017 19:50      86.6      85.7       23     43.5      0.00     18.28      78.9     0.36      1011.0     3       308         5       316        7.79     265      -94.6
   06/15/2017 19:40      87.7      86.8       22     43.9      0.00     18.28      79.0     0.36      1011.0     3       313         5       328        7.79     265      -87.1
   06/15/2017 19:30      88.0      87.7       22     44.4      0.00     18.28      78.8     0.36      1011.0     3       309         5       310        7.79     265      -64.5
   06/15/2017 19:20      89.0      88.0       22     44.3      0.00     18.28      78.8     0.36      1011.0     5       316         7       308        7.79     265      -47.4
   06/15/2017 19:10      89.1      88.6       21     43.7      0.00     18.28      78.9     0.35      1011.0     4       304         6       285        7.80     265      -25.1
   06/15/2017 19:00      89.6      89.1       20     43.2      0.00     18.28      78.7     0.35      1011.0     4       302         8       294        7.80     265       -1.4
   06/15/2017 18:50      89.6      89.2       20     43.3      0.00     18.28      78.7     0.35      1011.0     5       300         7       309        7.81     265       22.1
   06/15/2017 18:40      89.9      89.7       20     43.7      0.00     18.28      78.6     0.35      1011.0     5       293         8       292        7.81     265       46.1
   06/15/2017 18:30      90.5      89.9       20     43.8      0.00     18.28      78.6     0.35      1011.0     6       308        10       311        7.82     265       70.1
   06/15/2017 18:20      91.9      90.8       20     44.4      0.00     18.28      78.5     0.35      1010.0     6       300        11       302        7.82     266       91.2
   06/15/2017 18:10      92.1      91.3       20     44.5      0.00     18.28      78.5     0.35      1010.0     4       302         5       285        7.82     265      115.4
   06/15/2017 18:00      91.9      91.4       19     44.0      0.00     18.28      78.5     0.35      1010.0     6       321        10       317        7.83     265      139.0
   06/15/2017 17:50      91.9      91.3       19     43.9      0.00     18.28      78.4     0.35      1010.0     7       325        10       314        7.84     265      161.9
   06/15/2017 17:40      92.5      91.4       19     43.5      0.00     18.28      78.4     0.35      1010.0     7       324        11       330        7.85     265      185.5
   06/15/2017 17:30      92.8      92.3       19     44.5      0.00     18.28      78.3     0.35      1010.0     6       314         9       320        7.85     265      208.5
   06/15/2017 17:20      93.5      92.4       19     45.1      0.00     18.28      78.1     0.35      1010.0     6       290         8       307        7.85     265      233.1
   06/15/2017 17:10      93.5      92.7       20     45.6      0.00     18.28      78.0     0.35      1011.0     6       301         9       287        7.86     265      256.0
   06/15/2017 17:00      93.8      93.4       20     46.1      0.00     18.28      77.9     0.35      1011.0     7       305        10       318        7.87     265      276.2
   06/15/2017 16:50      94.4      93.9       20     46.3      0.00     18.28      77.9     0.35      1011.0     7       308         9       320        7.88     265      297.0
   06/15/2017 16:40      94.8      94.0       20     46.5      0.00     18.28      77.8     0.35      1011.0     6       312         9       306        7.90     265      318.3
   06/15/2017 16:30      95.3      94.9       19     46.8      0.00     18.28      77.6     0.35      1011.0     6       300         8       309        7.92     266      337.4
   06/15/2017 16:20      96.2      95.3       19     46.9      0.00     18.28      77.7     0.35      1011.0     7       287         9       309        7.94     265      357.0
   06/15/2017 16:10      96.7      96.0       19     46.8      0.00     18.28      77.5     0.35      1011.0     5       298         8       302        7.94     266      374.2
   06/15/2017 16:00      98.0      96.1       18     47.1      0.00     18.28      77.3     0.35      1011.0     6       281        11       269        7.95     266      390.1
   06/15/2017 15:50      97.4      96.6       19     47.7      0.00     18.28      77.3     0.35      1011.0     4       323         7       343        7.95     266      407.5
   06/15/2017 15:40      99.2      97.2       20     50.3      0.00     18.28      77.3     0.35      1011.0     4        13         7        11        7.95     265      422.0
   06/15/2017 15:30      99.1      98.3       22     53.6      0.00     18.28      77.2     0.35      1011.0     2        35         3       344        7.96     266      434.6
   06/15/2017 15:20      99.1      98.0       22     53.0      0.00     18.28      77.0     0.35      1011.0     4        30         6        14        7.96     266      445.7
   06/15/2017 15:10      98.5      97.1       22     52.7      0.00     18.28      77.1     0.35      1011.0     3        49         7        67        7.96     266      460.7
   06/15/2017 15:00      97.1      96.6       22     52.2      0.00     18.28      77.0     0.35      1011.0     4        78         6        58        7.97     266      476.3
   06/15/2017 14:50      96.9      95.5       23     52.1      0.00     18.28      76.9     0.35      1011.0     4        56         8        72        7.97     266      490.3
   06/15/2017 14:40      96.1      95.6       23     51.6      0.00     18.28      76.8     0.34      1011.0     3        85         7        78        7.97     266      505.2
   06/15/2017 14:30      96.3      95.2       23     51.5      0.00     18.28      76.7     0.34      1011.0     4        72         6        65        7.98     266      514.0
   06/15/2017 14:20      96.0      95.2       23     51.3      0.00     18.28      76.7     0.34      1011.0     4        51         8        69        7.99     266      524.8
   06/15/2017 14:10      95.2      94.1       24     51.8      0.00     18.28      76.6     0.34      1011.0     4        37         6        26        7.99     266      536.5
   06/15/2017 14:00      95.4      94.2       24     52.1      0.00     18.28      76.4     0.34      1011.0     5        58         7        59        8.00     266      543.5
   06/15/2017 13:50      94.7      94.1       24     52.5      0.00     18.28      76.5     0.34      1012.0     4        54         6        30        8.00     266      549.9
   06/15/2017 13:40      94.5      93.7       24     52.2      0.00     18.28      76.4     0.34      1012.0     5        40         8         4        8.00     267      554.8
   06/15/2017 13:30      94.4      93.6       25     52.5      0.00     18.28      76.3     0.34      1012.0     4        61         8        81        8.01     267      559.2
   06/15/2017 13:20      94.6      93.1       25     52.5      0.00     18.28      76.4     0.34      1012.0     3        41         5        70        8.01     267      563.4
   06/15/2017 13:10      93.7      92.9       26     53.0      0.00     18.28      76.2     0.34      1012.0     4        63         5        56        8.01     267      569.5
   06/15/2017 13:00      93.1      92.1       26     52.7      0.00     18.28      76.1     0.34      1012.0     3        49         6        77        8.02     267      568.4
   06/15/2017 12:50      93.8      93.1       23     49.7      0.00     18.28      76.1     0.34      1012.0     3        36         4        52        8.02     267      568.2
   06/15/2017 12:40      93.5      91.6       24     50.1      0.00     18.28      76.1     0.34      1012.0     3       347         4       354        8.02     267      572.3
   06/15/2017 12:30      91.7      91.3       24     49.8      0.00     18.28      76.0     0.34      1012.0     3       333         5       303        8.02     267      573.8
   06/15/2017 12:20      91.9      90.2       25     50.5      0.00     18.28      76.1     0.34      1012.0     3        37         6        14        8.02     267      570.9
   06/15/2017 12:10      90.8      89.7       26     50.6      0.00     18.28      76.0     0.34      1012.0     3       113         6        55        8.03     268      569.6
   06/15/2017 12:00      90.6      89.1       26     50.2      0.00     18.28      76.0     0.34      1013.0     2       150         6        97        8.03     268      563.1
   06/15/2017 11:50      90.2      89.5       26     50.7      0.00     18.28      76.0     0.34      1013.0     3        59         5        90        8.03     268      559.9
   06/15/2017 11:40      89.6      87.9       28     50.9      0.00     18.28      76.0     0.34      1013.0     3        80         5        96        8.03     268      555.0
   06/15/2017 11:30      87.7      86.2       29     51.1      0.00     18.28      76.0     0.34      1013.0     3        30         5         6        8.04     268      547.1
   06/15/2017 11:20      86.0      85.0       31     51.0      0.00     18.28      75.9     0.34      1013.0     4       309         5       295        8.04     268      540.6
   06/15/2017 11:10      85.6      85.0       31     51.2      0.00     18.28      76.0     0.34      1013.0     3       325         5       354        8.04     268      530.2
   06/15/2017 11:00      85.9      84.7       32     51.7      0.00     18.28      76.1     0.34      1013.0     3       333         4       314        8.04     268      521.1
   06/15/2017 10:50      85.1      83.4       33     51.9      0.00     18.28      76.0     0.34      1013.0     3         3         5        17        8.04     269      513.5
   06/15/2017 10:40      83.6      82.4       34     51.7      0.00     18.28      75.9     0.34      1013.0     3       326         4       314        8.05     269      500.1
   06/15/2017 10:30      82.5      82.1       35     51.8      0.00     18.28      76.3     0.35      1013.0     2        11         4         7        8.04     268      489.2
   06/15/2017 10:20      82.9      81.4       35     51.7      0.00     18.28      76.0     0.35      1013.0     2        37         3        36        8.05     269      475.9
   06/15/2017 10:10      81.5      79.5       37     51.5      0.00     18.28      76.1     0.35      1013.0     2       346         3       335        8.05     269      461.8
   06/15/2017 10:00      79.8      79.4       37     51.1      0.00     18.28      76.3     0.35      1013.0     3         7         4        60        8.05     269      444.7
   06/15/2017 09:50      79.3      78.4       38     50.8      0.00     18.28      76.4     0.35      1013.0     2        19         4        14        8.05     269      429.6
   06/15/2017 09:40      78.3      77.3       39     50.6      0.00     18.28      76.2     0.35      1013.0     2        29         3        74        8.05     269      413.4
   06/15/2017 09:30      77.6      76.9       39     50.5      0.00     18.28      76.3     0.35      1013.0     2       350         4        19        8.05     269      396.0
   06/15/2017 09:20      77.0      75.9       41     50.9      0.00     18.28      76.2     0.35      1013.0     2        26         4        82        8.06     269      381.8
   06/15/2017 09:10      75.8      73.8       44     51.2      0.00     18.28      76.4     0.35      1013.0     1       125         3        70        8.06     269      366.1
   06/15/2017 09:00      73.6      72.2       46     50.8      0.00     18.28      76.3     0.35      1013.0     2        10         2       340        8.07     269      361.9
   06/15/2017 08:50      71.9      70.4       48     50.9      0.00     18.28      76.4     0.35      1013.0     2         8         3       357        8.07     269      374.3
   06/15/2017 08:40      70.5      69.4       51     51.0      0.00     18.28      76.3     0.35      1013.0     2        81         3        32        8.07     269       56.7
   06/15/2017 08:30      69.4      68.5       52     50.7      0.00     18.28      76.2     0.35      1013.0     1        71         2       102        8.08     269       -5.6
   06/15/2017 08:20      68.6      67.8       54     51.0      0.00     18.28      76.4     0.35      1013.0     1        53         2        88        8.08     269      -31.4
   06/15/2017 08:10      67.8      67.3       56     51.2      0.00     18.28      76.3     0.35      1013.0     1         5         2         2        8.08     269      -28.5
   06/15/2017 08:00      67.4      66.4       58     51.7      0.00     18.28      76.7     0.35      1013.0     1        43         2         2        8.08     269      -24.9
   06/15/2017 07:50      66.5      65.8       59     51.5      0.00     18.28      76.6     0.35      1013.0     2        43         3        71        8.08     269      -26.3
   06/15/2017 07:40      66.0      65.3       60     51.5      0.00     18.28      76.5     0.35      1013.0     2        63         3        71        8.08     269        2.8
   06/15/2017 07:30      65.4      64.4       61     51.2      0.00     18.28      76.6     0.35      1013.0     2        64         3        89        8.08     269      -12.5
   06/15/2017 07:20      64.4      63.3       63     50.9      0.00     18.28      76.7     0.35      1013.0     1        24         2       355        8.09     269      -34.0
   06/15/2017 07:10      63.5      62.4       64     50.2      0.00     18.28      76.7     0.35      1013.0     1        83         1        69        8.09     269      -35.3
   06/15/2017 07:00      62.4      61.6       64     49.9      0.00     18.28      76.8     0.35      1013.0     1        71         1        85        8.09     268      -37.8
   06/15/2017 06:50      61.6      60.5       66     49.6      0.00     18.28      76.8     0.35      1013.0     1       106         1       118        8.09     268      -40.1
   06/15/2017 06:40      60.7      59.4       68     49.7      0.00     18.28      76.8     0.36      1012.0     1       132         1       133        8.09     268      -40.8
   06/15/2017 06:30      59.4      58.5       71     49.5      0.00     18.28      77.1     0.36      1012.0     1       345         1         1        8.09     268      -43.0
   06/15/2017 06:20      58.6      57.7       73     49.6      0.00     18.28      76.9     0.36      1012.0     1       122         2       129        8.09     268      -44.7
   06/15/2017 06:10      57.7      57.4       73     49.0      0.00     18.28      77.0     0.36      1012.0     2       146         2       121        8.09     268      -47.6
   06/15/2017 06:00      57.4      57.2       73     48.9      0.00     18.28      77.1     0.36      1012.0     1       150         1       201        8.09     267      -52.2
   06/15/2017 05:50      57.6      57.2       74     49.3      0.00     18.28      76.9     0.36      1012.0     0       129         1       114        8.10     267      -55.1
   06/15/2017 05:40      57.6      57.4       74     49.4      0.00     18.28      77.0     0.36      1012.0     1       146         1       161        8.10     268      -58.0
   06/15/2017 05:30      58.0      57.5       74     49.5      0.00     18.28      77.0     0.36      1012.0     1       161         2       158        8.10     267      -59.4
   06/15/2017 05:20      58.0      57.4       75     49.8      0.00     18.28      77.1     0.36      1012.0     1       179         2       167        8.10     267      -60.4
   06/15/2017 05:10      58.0      57.6       74     49.7      0.00     18.28      77.3     0.36      1012.0     1       159         2       163        8.10     267      -59.5
   06/15/2017 05:00      58.2      58.0       74     49.9      0.00     18.28      77.3     0.36      1012.0     1       171         1       139        8.10     267      -59.8
   06/15/2017 04:50      58.5      58.2       73     49.8      0.00     18.28      77.3     0.36      1012.0     1       180         1       197        8.10     267      -60.3
   06/15/2017 04:40      58.5      58.1       72     49.4      0.00     18.28      77.2     0.36      1012.0     2       151         2       147        8.10     267      -60.5
   06/15/2017 04:30      58.8      58.6       72     49.8      0.00     18.28      77.2     0.36      1012.0     1       147         2       156        8.10     267      -60.1
   06/15/2017 04:20      59.1      58.8       71     49.7      0.00     18.28      77.3     0.36      1012.0     0       123         1       127        8.10     267      -60.2
   06/15/2017 04:10      59.1      58.9       70     49.1      0.00     18.28      77.5     0.36      1012.0     1       304         1       290        8.11     267      -60.3
   06/15/2017 04:00      59.1      58.8       72     49.8      0.00     18.28      77.4     0.36      1012.0     0       157         1       136        8.11     267      -60.7
   06/15/2017 03:50      59.1      58.8       71     49.7      0.00     18.28      77.2     0.36      1012.0     1       142         2       128        8.11     267      -62.2
   06/15/2017 03:40      59.5      59.2       70     49.6      0.00     18.28      77.5     0.36      1012.0     2       151         2       147        8.11     267      -62.6
   06/15/2017 03:30      59.7      59.4       70     49.7      0.00     18.28      77.4     0.36      1012.0     1       174         1       131        8.11     267      -62.9
   06/15/2017 03:20      59.6      59.1       70     49.5      0.00     18.28      77.4     0.36      1012.0     1       151         1       143        8.11     267      -63.2
   06/15/2017 03:10      59.4      59.1       68     48.5      0.00     18.28      77.3     0.36      1012.0     2       135         2       125        8.11     267      -64.1
   06/15/2017 03:00      60.2      59.5       66     48.5      0.00     18.28      77.7     0.36      1012.0     2       133         2       133        8.11     267      -65.4
   06/15/2017 02:50      61.3      60.2       63     48.1      0.00     18.28      77.6     0.36      1012.0     1       132         2       141        8.11     267      -64.3
   06/15/2017 02:40      61.4      61.3       61     47.8      0.00     18.28      77.4     0.36      1012.0     0       333         1       328        8.11     267      -63.1
   06/15/2017 02:30      61.5      61.3       61     47.7      0.00     18.28      77.5     0.36      1012.0     1       320         1       322        8.11     267      -63.5
   06/15/2017 02:20      61.4      61.0       63     48.6      0.00     18.28      77.7     0.36      1012.0     1       176         2       144        8.11     267      -63.4
   06/15/2017 02:10      61.3      60.9       63     48.5      0.00     18.28      77.8     0.36      1012.0     1       147         2       136        8.11     267      -65.2
   06/15/2017 02:00      61.9      61.2       65     49.8      0.00     18.28      77.8     0.36      1012.0     2       157         2       163        8.11     267      -66.1
   06/15/2017 01:50      62.5      62.0       69     52.0      0.00     18.28      77.8     0.36      1012.0     1       155         2       156        8.11     267      -65.9
   06/15/2017 01:40      62.4      61.9       70     52.3      0.00     18.28      77.6     0.36      1012.0     1       187         1       140        8.11     267      -66.7
   06/15/2017 01:30      62.4      62.2       69     52.1      0.00     18.28      77.7     0.36      1012.0     1       161         1       172        8.11     267      -67.2
   06/15/2017 01:20      63.0      62.4       67     51.6      0.00     18.28      77.9     0.36      1012.0     2       157         3       143        8.11     267      -67.4
   06/15/2017 01:10      63.6      63.0       65     51.3      0.00     18.28      77.8     0.36      1012.0     1       175         2       154        8.11     266      -66.8
   06/15/2017 01:00      63.7      63.6       63     51.0      0.00     18.28      77.8     0.36      1012.0     1       170         1       150        8.11     266      -66.2
   06/15/2017 00:50      64.0      63.5       63     50.8      0.00     18.28      77.7     0.36      1012.0     1       145         2       143        8.11     266      -67.5
   06/15/2017 00:40      64.1      63.9       62     50.5      0.00     18.28      77.9     0.36      1012.0     1       174         1       152        8.11     266      -68.5
   06/15/2017 00:30      64.5      63.9       60     50.1      0.00     18.28      77.8     0.36      1012.0     1       162         2       135        8.11     266      -69.2
   06/15/2017 00:20      64.9      64.2       59     49.9      0.00     18.28      77.7     0.36      1012.0     1       161         1       131        8.12     266      -68.9
   06/15/2017 00:10      64.3      64.2       57     48.7      0.00     18.28      77.9     0.36      1012.0     1       142         2       138        8.12     266      -69.2
   06/15/2017 00:00      65.5      64.4       53     47.4      0.00     18.28      77.8     0.36      1012.0     1       131         2       126        8.12     266      -70.5
   06/14/2017 23:50      65.7      65.5       53     47.8      0.00     18.28      78.0     0.36      1012.0     1       148         2       134        8.12     266      -70.9
   06/14/2017 23:40      66.3      65.5       55     49.5      0.00     18.28      77.9     0.36      1012.0     2       155         2       164        8.12     266      -70.9
   06/14/2017 23:30      66.7      66.5       53     49.0      0.00     18.28      78.0     0.36      1012.0     1       144         2       140        8.12     265      -70.9
   06/14/2017 23:20      66.9      66.7       47     46.1      0.00     18.28      77.9     0.36      1012.0     1       151         1       144        8.12     266      -70.9
   06/14/2017 23:10      66.9      66.4       46     45.0      0.00     18.28      77.8     0.36      1012.0     1       150         2       148        8.12     265      -72.5
   06/14/2017 23:00      67.7      67.2       43     44.2      0.00     18.28      77.8     0.36      1012.0     1       163         2       146        8.12     265      -72.6
   06/14/2017 22:50      68.4      67.7       43     44.5      0.00     18.28      77.9     0.36      1012.0     1       152         2       147        8.12     265      -73.0
   06/14/2017 22:40      68.9      68.6       41     44.3      0.00     18.28      77.9     0.36      1012.0     1       146         2       182        8.12     265      -75.1
   06/14/2017 22:30      69.2      68.6       41     44.2      0.00     18.28      78.0     0.36      1012.0     1       155         2       131        8.12     265      -74.9
   06/14/2017 22:20      70.3      69.3       39     43.4      0.00     18.28      77.8     0.36      1012.0     1       144         2       142        8.13     265      -76.5
   06/14/2017 22:10      71.0      70.7       37     43.4      0.00     18.28      77.8     0.36      1012.0     1       153         1       140        8.13     265      -77.0
   06/14/2017 22:00      71.0      70.4       38     43.7      0.00     18.28      77.8     0.36      1012.0     1       206         2       170        8.13     265      -78.4
   06/14/2017 21:50      71.3      70.7       38     43.8      0.00     18.28      77.8     0.36      1012.0     1       126         2       108        8.13     265      -78.8
   06/14/2017 21:40      73.3      71.5       36     43.6      0.00     18.28      77.8     0.36      1012.0     1        89         2        86        8.13     265      -81.7
   06/14/2017 21:30      74.8      73.6       33     43.3      0.00     18.28      77.9     0.36      1012.0     1       145         2       184        8.13     265      -84.2
   06/14/2017 21:20      75.8      74.9       32     43.5      0.00     18.28      77.7     0.36      1012.0     2       162         3       181        8.13     265      -86.0
   06/14/2017 21:10      76.5      76.0       32     43.9      0.00     18.28      77.8     0.36      1011.0     3       187         4       187        8.14     265      -88.0
   06/14/2017 21:00      77.4      76.5       31     44.0      0.00     18.28      77.6     0.36      1011.0     3       189         4       203        8.14     265      -89.8
   06/14/2017 20:50      77.9      77.4       30     44.1      0.00     18.28      77.6     0.36      1011.0     2       203         3       223        8.14     265      -90.9
   06/14/2017 20:40      78.7      78.1       30     44.1      0.00     18.28      77.7     0.36      1011.0     2       209         4       244        8.14     264      -93.1
   06/14/2017 20:30      79.6      79.0       29     43.9      0.00     18.28      77.6     0.36      1011.0     4       234         6       250        8.15     265      -94.1
   06/14/2017 20:20      80.2      79.7       28     43.6      0.00     18.28      77.5     0.36      1011.0     3       229         5       223        8.16     265      -94.5
   06/14/2017 20:10      81.1      80.3       27     43.5      0.00     18.28      77.6     0.36      1011.0     2       226         4       248        8.17     265      -93.3
   06/14/2017 20:00      82.4      81.3       26     43.8      0.00     18.28      77.7     0.35      1011.0     3       221         4       220        8.18     265      -91.4
   06/14/2017 19:50      84.0      82.6       24     43.0      0.00     18.28      77.7     0.35      1011.0     3       245         5       242        8.19     264      -88.6
   06/14/2017 19:40      85.2      84.3       22     41.4      0.00     18.28      77.4     0.35      1011.0     3       284         4       269        8.19     264      -81.8
   06/14/2017 19:30      86.1      85.7       21     41.5      0.00     18.28      77.4     0.35      1011.0     3       282         6       264        8.19     264      -59.8
   06/14/2017 19:20      86.4      85.9       20     41.0      0.00     18.28      77.4     0.35      1010.0     4       293         5       274        8.20     264      -44.1
   06/14/2017 19:10      86.7      86.2       20     40.0      0.00     18.28      77.3     0.35      1010.0     4       278         7       300        8.20     265      -24.2
   06/14/2017 19:00      86.9      86.6       19     39.5      0.00     18.28      77.2     0.35      1010.0     4       300         5       320        8.20     264       -1.5
   06/14/2017 18:50      87.3      87.0       18     39.1      0.00     18.28      77.2     0.35      1010.0     5       293         7       257        8.21     264       21.4
   06/14/2017 18:40      87.3      87.0       19     39.3      0.00     18.28      77.1     0.35      1010.0     5       297         7       315        8.21     264       45.0
   06/14/2017 18:30      87.7      87.0       18     39.3      0.00     18.28      77.1     0.35      1010.0     6       294        11       303        8.22     265       68.2
   06/14/2017 18:20      87.5      87.1       18     39.0      0.00     18.28      77.0     0.35      1010.0     5       305        10       316        8.23     265       92.0
   06/14/2017 18:10      87.9      87.5       18     38.5      0.00     18.28      76.7     0.35      1010.0     5       298        11       305        8.24     264      115.5
   06/14/2017 18:00      88.2      87.4       18     38.5      0.00     18.28      76.9     0.35      1010.0     8       308        11       309        8.25     265      139.0
   06/14/2017 17:50      89.4      88.5       17     39.1      0.00     18.28      76.8     0.35      1010.0     7       302        10       315        8.26     265      161.5
   06/14/2017 17:40      89.4      88.7       17     39.2      0.00     18.28      76.6     0.35      1010.0     6       296         8       309        8.26     265      185.7
   06/14/2017 17:30      89.8      88.9       17     39.5      0.00     18.28      76.7     0.35      1010.0     6       303         9       315        8.27     265      208.3
   06/14/2017 17:20      90.8      89.5       18     40.8      0.00     18.28      76.7     0.35      1010.0     6       306         9       286        8.28     265      230.6
   06/14/2017 17:10      90.3      89.2       19     41.8      0.00     18.28      76.6     0.35      1010.0     7       311        10       304        8.28     265      253.7
   06/14/2017 17:00      90.1      89.8       19     42.4      0.00     18.28      76.4     0.35      1010.0     7       310        10       290        8.29     265      276.9
   06/14/2017 16:50      90.8      90.3       19     43.2      0.00     18.28      76.4     0.35      1010.0     6       308        10       324        8.29     265      296.7
   06/14/2017 16:40      91.5      90.7       19     43.3      0.00     18.28      76.5     0.35      1010.0     7       311        12       325        8.29     265      318.1
   06/14/2017 16:30      91.7      90.8       19     43.9      0.00     18.28      76.3     0.35      1010.0     7       308         9       321        8.30     265      337.7
   06/14/2017 16:20      92.4      91.7       19     43.9      0.00     18.28      76.1     0.35      1010.0     6       307        12       324        8.31     265      356.4
   06/14/2017 16:10      92.4      91.8       19     44.4      0.00     18.28      76.1     0.35      1010.0     6       304        10       303        8.32     265      375.9
   06/14/2017 16:00      93.5      92.1       20     45.3      0.00     18.28      76.0     0.35      1010.0     7       303        10       283        8.33     265      393.1
   06/14/2017 15:50      93.5      93.0       20     45.8      0.00     18.28      75.8     0.35      1010.0     4       277         6       319        8.33     265      408.6
   06/14/2017 15:40      93.7      93.0       20     45.8      0.00     18.28      75.8     0.35      1010.0     4       253         6       274        8.34     265      424.5
   06/14/2017 15:30      94.2      92.9       20     45.8      0.00     18.28      75.7     0.35      1010.0     5       275         6       244        8.34     265      440.5
   06/14/2017 15:20      94.5      93.7       21     47.9      0.00     18.28      75.6     0.34      1010.0     5       331         9       303        8.35     265      452.8
   06/14/2017 15:10      94.3      92.9       22     49.5      0.00     18.28      75.6     0.34      1010.0     3        65         8       356        8.35     265      468.3
   06/14/2017 15:00      93.7      92.9       22     49.1      0.00     18.28      75.5     0.34      1010.0     3       174         5       132        8.36     265      482.5
   06/14/2017 14:50      94.0      93.1       22     49.2      0.00     18.28      75.4     0.34      1010.0     3       175         6       171        8.37     265      496.0
   06/14/2017 14:40      94.3      90.8       23     49.3      0.00     18.28      75.3     0.34      1010.0     4        49         7       140        8.38     266      509.1
   06/14/2017 14:30      91.6      91.0       24     49.2      0.00     18.28      75.2     0.34      1010.0     4       113         7       127        8.38     266      523.4
   06/14/2017 14:20      93.7      91.6       23     49.6      0.00     18.28      75.0     0.34      1010.0     4        90         8       139        8.39     266      526.1
   06/14/2017 14:10      92.2      91.5       23     49.0      0.00     18.28      75.1     0.34      1010.0     4       110         7       134        8.40     266      535.7
   06/14/2017 14:00      93.1      92.0       22     48.6      0.00     18.28      75.0     0.34      1010.0     4        61         6        48        8.41     266      540.7
   06/14/2017 13:50      92.8      91.8       22     47.5      0.00     18.28      75.0     0.34      1010.0     4        55         6        51        8.41     266      547.9
   06/14/2017 13:40      92.5      91.7       21     46.6      0.00     18.28      74.8     0.34      1010.0     3        58         7        67        8.42     266      553.7
   06/14/2017 13:30      92.7      90.8       21     46.7      0.00     18.28      74.7     0.34      1010.0     4        23         6       355        8.42     266      562.4
   06/14/2017 13:20      91.8      91.1       22     47.5      0.00     18.28      74.7     0.34      1011.0     4        71         5        43        8.42     266      566.8
   06/14/2017 13:10      91.8      91.0       21     46.6      0.00     18.28      74.8     0.34      1011.0     3        54         6        71        8.44     266      568.3
   06/14/2017 13:00      91.7      90.1       19     42.7      0.00     18.28      74.5     0.34      1011.0     3        59         6       110        8.46     266      573.6
   06/14/2017 12:50      91.3      90.2       19     42.4      0.00     18.28      74.7     0.34      1011.0     3        57         5        75        8.46     266      573.5
   06/14/2017 12:40      90.2      89.6       19     42.5      0.00     18.28      74.6     0.34      1011.0     4       359         5        10        8.46     266      573.9
   06/14/2017 12:30      90.7      90.0       19     43.1      0.00     18.28      74.5     0.34      1011.0     4        31         6        13        8.46     266      574.6
   06/14/2017 12:20      89.9      88.8       20     43.5      0.00     18.28      74.5     0.34      1011.0     3        34         4       125        8.46     266      572.5
   06/14/2017 12:10      88.4      87.5       21     42.8      0.00     18.28      74.5     0.34      1011.0     4        18         5        72        8.46     267      571.4
   06/14/2017 12:00      88.5      87.6       21     43.0      0.00     18.28      74.4     0.34      1011.0     3        94         6       113        8.46     267      568.6
   06/14/2017 11:50      88.2      86.2       22     43.4      0.00     18.28      74.5     0.34      1011.0     3        69         6        79        8.46     268      562.7
   06/14/2017 11:40      87.1      86.5       22     43.7      0.00     18.28      74.5     0.34      1011.0     4       109         6       149        8.46     267      557.1
   06/14/2017 11:30      87.3      86.1       23     44.1      0.00     18.28      74.5     0.34      1011.0     3        21         6        13        8.46     268      549.5
   06/14/2017 11:20      85.7      84.2       24     43.9      0.00     18.28      74.5     0.34      1011.0     2        95         4        85        8.46     268      544.3
   06/14/2017 11:10      84.8      84.0       24     44.2      0.00     18.28      74.5     0.34      1011.0     3       113         6        72        8.46     267      536.1
   06/14/2017 11:00      84.0      83.2       26     44.7      0.00     18.28      74.5     0.34      1011.0     3       347         6         1        8.46     268      523.5
   06/14/2017 10:50      83.5      82.1       26     44.5      0.00     18.28      74.6     0.34      1011.0     3       323         4       346        8.46     268      513.6
   06/14/2017 10:40      82.4      81.9       26     44.3      0.00     18.28      74.5     0.34      1011.0     3       324         4       328        8.46     269      502.9
   06/14/2017 10:30      82.4      81.3       27     44.3      0.00     18.28      74.4     0.34      1011.0     3       350         5         6        8.46     268      492.0
   06/14/2017 10:20      81.2      80.3       28     45.0      0.00     18.28      74.4     0.34      1011.0     3         7         4       330        8.46     269      478.9
   06/14/2017 10:10      80.2      79.5       29     45.0      0.00     18.28      74.7     0.35      1011.0     2        27         4       355        8.46     269      465.1
   06/14/2017 10:00      79.3      77.9       31     45.4      0.00     18.28      74.3     0.35      1012.0     3       359         5       356        8.47     269      450.3
   06/14/2017 09:50      78.0      76.9       32     45.3      0.00     18.28      74.6     0.35      1012.0     2         8         3       358        8.47     270      432.8
   06/14/2017 09:40      76.8      76.0       33     44.8      0.00     18.28      74.9     0.35      1012.0     2       351         4       356        8.47     270      415.9
   06/14/2017 09:30      76.3      74.7       35     45.9      0.00     18.28      74.8     0.35      1012.0     2         9         3        10        8.47     270      400.5
   06/14/2017 09:20      74.9      73.4       37     46.1      0.00     18.28      74.7     0.35      1012.0     2        13         3       326        8.47     270      385.5
   06/14/2017 09:10      73.9      72.6       39     46.6      0.00     18.28      75.1     0.35      1012.0     2        21         3       343        8.47     270      370.8
   06/14/2017 09:00      72.9      72.0       41     47.3      0.00     18.28      74.9     0.35      1012.0     3         4         5       356        8.47     270      365.5
   06/14/2017 08:50      71.8      69.1       44     47.4      0.00     18.28      75.0     0.35      1012.0     1        15         3       353        8.48     270      378.6
   06/14/2017 08:40      69.2      67.8       49     48.2      0.00     18.28      74.8     0.35      1012.0     2        12         3        26        8.48     270       57.1
   06/14/2017 08:30      67.8      67.0       50     47.9      0.00     18.28      74.9     0.35      1012.0     1        20         2        85        8.48     270      -10.5
   06/14/2017 08:20      67.0      66.0       51     47.8      0.00     18.28      74.9     0.35      1012.0     1       265         3       249        8.48     270      -36.0
   06/14/2017 08:10      66.0      65.3       53     47.8      0.00     18.28      74.8     0.35      1012.0     1       327         3       326        8.48     270      -30.2
   06/14/2017 08:00      65.4      64.7       54     48.2      0.00     18.28      75.0     0.35      1012.0     2       326         2       331        8.48     270      -28.0
   06/14/2017 07:50      64.8      64.1       56     48.3      0.00     18.28      75.0     0.35      1012.0     2       327         3       299        8.48     270      -26.0
   06/14/2017 07:40      64.1      63.3       57     48.3      0.00     18.28      75.0     0.35      1012.0     2       339         3       354        8.48     270        1.7
   06/14/2017 07:30      63.3      62.3       59     48.4      0.00     18.28      75.2     0.35      1012.0     2       336         3       357        8.48     270      -11.2
   06/14/2017 07:20      62.4      61.5       62     48.6      0.00     18.28      75.2     0.35      1012.0     1        47         1       350        8.49     270      -34.9
   06/14/2017 07:10      61.4      60.3       64     48.6      0.00     18.28      75.2     0.35      1012.0     1         1         1        13        8.49     270      -37.0
   06/14/2017 07:00      60.3      59.3       66     48.4      0.00     18.28      75.2     0.35      1012.0     1       355         1        25        8.49     270      -38.7
   06/14/2017 06:50      59.4      57.8       68     48.2      0.00     18.28      75.1     0.35      1012.0     1       112         2       120        8.49     270      -40.8
   06/14/2017 06:40      57.6      56.2       70     47.4      0.00     18.28      75.5     0.35      1012.0     1       145         2       140        8.49     269      -42.7
   06/14/2017 06:30      56.0      55.3       72     46.8      0.00     18.28      75.2     0.35      1012.0     0       127         1        85        8.49     269      -47.3
   06/14/2017 06:20      55.4      55.0       74     46.9      0.00     18.28      75.3     0.35      1012.0     1        10         1        38        8.49     269      -46.7
   06/14/2017 06:10      55.0      54.7       73     46.5      0.00     18.28      75.4     0.35      1012.0     0       317         1       328        8.50     269      -46.8
   06/14/2017 06:00      54.8      54.4       74     46.6      0.00     18.28      75.5     0.35      1012.0     0       200         1       207        8.50     269      -52.3
   06/14/2017 05:50      54.5      54.5       76     47.2      0.00     18.28      75.3     0.35      1012.0     0       153         1       153        8.50     268      -54.8
   06/14/2017 05:40      54.7      54.0       76     47.0      0.00     18.28      75.6     0.35      1012.0     1       157         2       141        8.50     269      -56.8
   06/14/2017 05:30      54.6      54.3       75     46.7      0.00     18.28      75.5     0.35      1012.0     1       145         2       138        8.50     269      -58.3
   06/14/2017 05:20      55.3      54.8       73     46.6      0.00     18.28      75.4     0.35      1012.0     1       143         1       125        8.50     268      -59.1
   06/14/2017 05:10      55.4      54.8       74     46.9      0.00     18.28      75.5     0.35      1012.0     0       184         1       144        8.50     268      -58.8
   06/14/2017 05:00      55.2      54.7       73     46.5      0.00     18.28      75.7     0.35      1011.0     1       151         2       133        8.50     269      -60.3
   06/14/2017 04:50      55.3      55.1       71     45.8      0.00     18.28      75.7     0.35      1011.0     1       190         2       205        8.50     268      -60.4
   06/14/2017 04:40      55.5      55.1       72     46.4      0.00     18.28      75.9     0.35      1011.0     1       144         1       142        8.50     269      -60.5
   06/14/2017 04:30      55.7      55.1       72     46.5      0.00     18.28      75.8     0.35      1011.0     1       129         1       127        8.50     268      -60.5
   06/14/2017 04:20      55.7      55.4       73     47.0      0.00     18.28      75.8     0.35      1011.0     1       144         1       140        8.50     268      -60.6
   06/14/2017 04:10      56.1      55.5       72     46.8      0.00     18.28      75.8     0.36      1011.0     1       128         1       124        8.50     268      -61.0
   06/14/2017 04:00      56.4      56.1       72     47.4      0.00     18.28      76.0     0.35      1011.0     1       138         1       127        8.51     268      -61.1
   06/14/2017 03:50      57.0      56.4       71     47.5      0.00     18.28      76.1     0.36      1011.0     1       152         2       138        8.51     268      -62.1
   06/14/2017 03:40      57.1      56.6       69     46.8      0.00     18.28      76.0     0.35      1011.0     1       152         1       142        8.51     268      -61.7
   06/14/2017 03:30      57.0      56.6       70     47.3      0.00     18.28      75.9     0.35      1011.0     0       201         1       124        8.51     268      -62.3
   06/14/2017 03:20      57.2      56.8       70     47.4      0.00     18.28      75.8     0.36      1011.0     1       180         1       179        8.51     268      -63.0
   06/14/2017 03:10      57.1      56.7       71     47.5      0.00     18.28      76.2     0.36      1011.0     2       155         2       128        8.51     268      -64.1
   06/14/2017 03:00      57.5      57.0       69     47.1      0.00     18.28      76.2     0.36      1011.0     1       152         2       141        8.51     268      -63.4
   06/14/2017 02:50      57.7      57.4       69     47.2      0.00     18.28      75.9     0.36      1011.0     1       149         1       135        8.51     268      -63.3
   06/14/2017 02:40      57.7      57.5       69     47.3      0.00     18.28      76.1     0.36      1011.0     1       172         1       124        8.51     268      -63.9
   06/14/2017 02:30      58.0      57.5       68     47.4      0.00     18.28      76.2     0.36      1012.0     1       140         2       136        8.51     268      -63.9
   06/14/2017 02:20      58.5      58.0       68     47.8      0.00     18.28      76.0     0.36      1012.0     1       145         2       137        8.51     268      -64.7
   06/14/2017 02:10      58.9      58.4       67     47.7      0.00     18.28      76.3     0.36      1012.0     1       176         2       136        8.52     268      -65.4
   06/14/2017 02:00      59.1      58.8       66     47.8      0.00     18.28      76.3     0.36      1012.0     1       159         2       139        8.52     268      -65.1
   06/14/2017 01:50      59.0      58.9       66     47.7      0.00     18.28      76.2     0.36      1012.0     1       157         1       133        8.52     268      -65.3
   06/14/2017 01:40      59.9      59.3       65     47.7      0.00     18.28      76.2     0.36      1011.0     1       151         2       133        8.52     268      -66.4
   06/14/2017 01:30      60.1      59.7       64     47.6      0.00     18.28      76.2     0.36      1011.0     1       188         1       185        8.52     268      -66.3
   06/14/2017 01:20      60.3      60.1       63     47.5      0.00     18.28      76.4     0.36      1012.0     1       163         1       176        8.52     267      -66.8
   06/14/2017 01:10      60.9      60.3       62     47.4      0.00     18.28      76.1     0.36      1012.0     1       154         2       141        8.52     267      -66.9
   06/14/2017 01:00      61.3      60.9       60     47.1      0.00     18.28      76.5     0.36      1012.0     1       141         2       140        8.52     267      -67.2
   06/14/2017 00:50      61.4      61.0       59     46.7      0.00     18.28      76.5     0.36      1012.0     1       153         2       138        8.52     267      -66.6
   06/14/2017 00:40      61.7      61.4       58     46.4      0.00     18.28      76.2     0.36      1012.0     1       180         2       148        8.52     267      -67.7
   06/14/2017 00:30      62.2      61.3       57     46.1      0.00     18.28      76.4     0.36      1012.0     1       166         2       135        8.53     267      -67.9
   06/14/2017 00:20      62.7      62.3       55     46.0      0.00     18.28      76.4     0.36      1012.0     1       160         2       131        8.53     267      -67.9
   06/14/2017 00:10      62.6      62.3       55     46.0      0.00     18.28      76.4     0.36      1012.0     1       142         1       151        8.53     267      -68.4
   06/14/2017 00:00      63.0      62.8       53     45.7      0.00     18.28      76.3     0.36      1012.0     1       116         1       133        8.53     267      -69.7
   06/13/2017 23:50      63.5      63.0       51     45.0      0.00     18.28      76.5     0.36      1012.0     1       145         2       131        8.53     267      -70.1
   06/13/2017 23:40      63.5      62.9       51     44.8      0.00     18.28      76.5     0.36      1012.0     2       157         2       171        8.53     267      -69.4
   06/13/2017 23:30      63.8      63.4       50     44.6      0.00     18.28      76.6     0.36      1012.0     1       155         2       142        8.53     267      -69.8
   06/13/2017 23:20      64.3      63.7       49     44.4      0.00     18.28      76.5     0.36      1011.0     1       117         2       142        8.53     267      -71.2
   06/13/2017 23:10      64.6      64.3       48     44.3      0.00     18.28      76.4     0.36      1011.0     1       133         1       155        8.53     267      -71.2
   06/13/2017 23:00      65.3      64.5       47     44.1      0.00     18.28      76.6     0.36      1012.0     1        82         1       162        8.53     267      -72.0
   06/13/2017 22:50      65.5      65.2       46     44.1      0.00     18.28      76.6     0.36      1012.0     1        75         2       167        8.53     267      -73.2
   06/13/2017 22:40      66.0      65.3       45     43.9      0.00     18.28      76.6     0.36      1012.0     1       111         2       177        8.54     267      -74.0
   06/13/2017 22:30      67.2      66.4       44     43.8      0.00     18.28      76.5     0.35      1012.0     1       106         1       149        8.54     267      -74.7
   06/13/2017 22:20      69.1      67.6       41     43.6      0.00     18.28      76.3     0.36      1012.0     1        90         1       188        8.54     267      -78.5
   06/13/2017 22:10      69.5      69.1       39     43.4      0.00     18.28      76.5     0.36      1011.0     3       181         4       208        8.54     267      -79.9
   06/13/2017 22:00      69.5      69.1       39     43.0      0.00     18.28      76.3     0.36      1011.0     2       217         3       204        8.54     267      -79.1
   06/13/2017 21:50      69.3      68.6       38     42.6      0.00     18.28      76.5     0.36      1011.0     2       202         3       213        8.55     266      -78.7
   06/13/2017 21:40      70.6      69.6       37     42.4      0.00     18.28      76.5     0.35      1011.0     1       188         2       217        8.55     267      -82.4
   06/13/2017 21:30      71.0      70.5       36     42.4      0.00     18.28      76.3     0.35      1011.0     2       251         3       231        8.55     267      -84.6
   06/13/2017 21:20      71.3      71.1       35     42.1      0.00     18.28      76.5     0.35      1011.0     2       212         4       207        8.55     266      -85.8
   06/13/2017 21:10      71.7      71.3       34     41.7      0.00     18.28      76.3     0.35      1011.0     3       192         4       202        8.55     266      -85.9
   06/13/2017 21:00      72.3      71.6       33     41.6      0.00     18.28      76.3     0.35      1011.0     2       199         3       216        8.56     266      -86.6
   06/13/2017 20:50      73.0      72.6       32     41.5      0.00     18.28      76.2     0.35      1011.0     2       217         5       230        8.56     266      -88.4
   06/13/2017 20:40      73.8      73.1       31     41.4      0.00     18.28      76.4     0.35      1011.0     3       217         4       233        8.56     266      -89.7
   06/13/2017 20:30      74.3      73.9       31     41.4      0.00     18.28      76.3     0.35      1011.0     3       245         4       237        8.56     266      -90.9
   06/13/2017 20:20      74.8      74.2       29     40.6      0.00     18.28      76.3     0.35      1011.0     4       236         6       233        8.56     266      -91.2
   06/13/2017 20:10      75.5      74.8       27     39.2      0.00     18.28      76.3     0.35      1011.0     4       227         6       232        8.56     266      -90.4
   06/13/2017 20:00      76.4      75.6       27     39.3      0.00     18.28      76.2     0.35      1011.0     2       243         5       250        8.57     266      -88.2
   06/13/2017 19:50      76.9      76.4       26     39.3      0.00     18.28      76.3     0.35      1011.0     3       262         5       296        8.57     266      -85.7
   06/13/2017 19:40      78.4      77.1       25     39.2      0.00     18.28      76.2     0.35      1011.0     4       282         9       304        8.57     266      -78.9
   06/13/2017 19:30      78.7      78.3       25     39.6      0.00     18.28      76.1     0.35      1011.0     4       281         7       263        8.57     266      -57.6
   06/13/2017 19:20      79.0      78.5       25     40.0      0.00     18.28      76.2     0.35      1011.0     4       282         8       259        8.57     266      -41.3
   06/13/2017 19:10      79.0      78.7       26     41.0      0.00     18.28      76.0     0.35      1011.0     5       285         7       254        8.57     266      -20.9
   06/13/2017 19:00      79.3      79.2       26     41.9      0.00     18.28      76.0     0.35      1011.0     4       280         6       292        8.57     266        1.3
   06/13/2017 18:50      79.5      79.2       27     42.4      0.00     18.28      76.0     0.35      1011.0     5       299         6       328        8.57     266       24.5
   06/13/2017 18:40      80.4      79.8       27     42.7      0.00     18.28      76.0     0.35      1011.0     6       314         9       327        8.57     266       47.1
   06/13/2017 18:30      81.2      80.7       26     43.1      0.00     18.28      75.9     0.35      1011.0     5       296         8       309        8.57     266       70.0
   06/13/2017 18:20      81.4      81.1       26     42.9      0.00     18.28      75.7     0.35      1010.0     6       297         9       276        8.57     266       93.2
   06/13/2017 18:10      81.8      81.4       25     42.2      0.00     18.28      75.7     0.35      1010.0     6       308         8       310        8.57     266      116.2
   06/13/2017 18:00      83.1      81.7       24     41.9      0.00     18.28      75.8     0.35      1010.0     7       317         9       325        8.57     266      139.1
   06/13/2017 17:50      83.5      82.6       24     42.1      0.00     18.28      75.7     0.35      1010.0     6       314         9       306        8.57     267      162.7
   06/13/2017 17:40      84.2      83.4       23     42.5      0.00     18.28      75.6     0.35      1010.0     6       322         8       322        8.57     267      185.6
   06/13/2017 17:30      84.5      84.0       23     42.8      0.00     18.28      75.4     0.35      1010.0     5       339        10       323        8.57     267      209.1
   06/13/2017 17:20      85.0      84.2       23     42.5      0.00     18.28      75.5     0.35      1010.0     5       332         8       348        8.57     266      231.8
   06/13/2017 17:10      85.5      84.5       22     42.4      0.00     18.28      75.2     0.35      1010.0     4       316         7       332        8.57     267      255.1
   06/13/2017 17:00      84.8      84.3       23     42.3      0.00     18.28      75.3     0.35      1010.0     6       327        10       325        8.57     266      278.8
   06/13/2017 16:50      84.8      84.3       23     42.3      0.00     18.28      75.2     0.35      1010.0     6       299        10       257        8.57     267      301.1
   06/13/2017 16:40      85.6      84.6       23     42.7      0.00     18.28      75.3     0.35      1011.0     6       315         9       291        8.57     267      321.4
   06/13/2017 16:30      85.6      84.5       23     42.9      0.00     18.28      75.1     0.35      1011.0     7       317         9       333        8.57     267      342.6
   06/13/2017 16:20      85.7      84.9       22     42.7      0.00     18.28      75.0     0.35      1011.0     6       298        12       245        8.57     267      361.4
   06/13/2017 16:10      85.1      84.7       22     42.4      0.00     18.28      74.9     0.35      1011.0     3       287         7       231        8.57     267      381.8
   06/13/2017 16:00      85.9      85.0       22     42.6      0.00     18.28      74.8     0.35      1011.0     4       226         6       264        8.57     267      401.1
   06/13/2017 15:50      86.0      84.6       23     43.3      0.00     18.28      74.7     0.35      1011.0     3       322         9       269        8.57     267      419.6
   06/13/2017 15:40      85.3      84.5       24     43.8      0.00     18.28      74.6     0.35      1011.0     5       241         8       277        8.57     267      437.5
   06/13/2017 15:30      85.3      84.3       24     43.9      0.00     18.28      74.5     0.35      1011.0     4       201         8       294        8.57     267      454.0
   06/13/2017 15:20      85.3      84.5       24     44.3      0.00     18.28      74.5     0.35      1011.0     4       272         6       314        8.57     267      470.4
   06/13/2017 15:10      84.3      83.5       28     47.1      0.00     18.28      74.5     0.35      1011.0     4       185         5       310        8.57     268      486.1
   06/13/2017 15:00      83.9      82.7       29     47.8      0.00     18.28      74.3     0.35      1011.0     5       146         9       157        8.57     268      501.4
   06/13/2017 14:50      83.1      82.4       30     48.4      0.00     18.28      74.3     0.34      1011.0     6       163        11       168        8.57     268      514.0
   06/13/2017 14:40      82.5      81.8       31     48.6      0.00     18.28      74.2     0.34      1012.0     6       175         8       131        8.57     268      525.1
   06/13/2017 14:30      83.5      82.5       31     49.0      0.00     18.28      74.2     0.34      1012.0     5       161         8       191        8.57     268      531.8
   06/13/2017 14:20      85.5      83.1       29     48.6      0.00     18.28      74.0     0.34      1012.0     5       130        11       141        8.57     268      534.8
   06/13/2017 14:10      86.2      85.3       22     42.4      0.00     18.28      74.1     0.34      1012.0     3        78         4        60        8.57     268      543.2
   06/13/2017 14:00      85.0      83.7       23     42.4      0.00     18.28      73.9     0.34      1012.0     3        74         5       116        8.57     268      554.8
   06/13/2017 13:50      84.7      83.6       22     41.8      0.00     18.28      73.9     0.34      1012.0     4       218         6       135        8.57     268      561.2
   06/13/2017 13:40      84.6      83.8       23     42.1      0.00     18.28      73.8     0.34      1012.0     3       346         5       311        8.57     268      565.2
   06/13/2017 13:30      84.9      84.4       23     42.7      0.00     18.28      73.8     0.34      1012.0     4        19         8         4        8.57     269      569.2
   06/13/2017 13:20      84.1      82.5       24     42.5      0.00     18.28      73.8     0.34      1012.0     3        45         6        84        8.57     269      575.6
   06/13/2017 13:10      83.2      81.6       25     42.7      0.00     18.28      73.8     0.34      1013.0     3        90         6       162        8.57     269      581.4
   06/13/2017 13:00      83.9      81.8       24     42.8      0.00     18.28      73.7     0.34      1013.0     3        61         6        19        8.57     270      583.2
   06/13/2017 12:50      83.2      82.4       25     43.0      0.00     18.28      73.5     0.34      1013.0     3        84         5        22        8.57     270      584.2
   06/13/2017 12:40      83.4      82.7       25     43.1      0.00     18.28      73.7     0.34      1013.0     2        57         5       349        8.57     270      584.6
   06/13/2017 12:30      82.7      81.3       24     42.1      0.00     18.28      73.5     0.34      1013.0     3       273         4       128        8.57     270      584.6
   06/13/2017 12:20      81.8      81.1       24     41.6      0.00     18.28      73.6     0.34      1013.0     4       316         6       297        8.57     271      579.3
   06/13/2017 12:10      81.9      80.5       25     41.5      0.00     18.28      73.6     0.34      1013.0     3        15         5         1        8.57     272      576.9
   06/13/2017 12:00      80.9      79.3       24     40.4      0.00     18.28      73.5     0.34      1013.0     2        82         3        62        8.57     272      575.1
   06/13/2017 11:50      79.5      78.7       25     40.6      0.00     18.28      73.5     0.34      1013.0     2        41         4        37        8.57     272      570.5
   06/13/2017 11:40      79.3      78.7       25     40.8      0.00     18.28      73.6     0.34      1013.0     3        56         5       101        8.57     273      563.9
   06/13/2017 11:30      79.0      76.8       27     41.2      0.00     18.28      73.5     0.34      1013.0     3        25         6        13        8.57     276      558.1
   06/13/2017 11:20      77.6      76.8       27     41.1      0.00     18.28      73.7     0.34      1013.0     3         0         4        38        8.57     278      548.9
   06/13/2017 11:10      77.8      76.7       27     41.1      0.00     18.28      73.5     0.34      1013.0     3        19         5        36        8.57     282      540.2
   06/13/2017 11:00      76.8      75.9       27     40.0      0.00     18.28      73.7     0.34      1013.0     3       348         6       349        8.57     288      533.3
   06/13/2017 10:50      77.3      75.9       28     41.1      0.00     18.28      73.5     0.34      1013.0     4        17         5         5        8.57     297      522.8
   06/13/2017 10:40      76.2      74.4       29     41.0      0.00     18.28      73.7     0.34      1013.0     3        22         4         1        8.57     314      513.0
   06/13/2017 10:30      74.6      74.3       30     41.1      0.00     18.28      73.7     0.34      1014.0     3        53         4        66        8.57     343      500.6
   06/13/2017 10:20      74.1      73.0       31     41.3      0.00     18.28      73.7     0.34      1014.0     3        42         4       168        8.56     377      488.1
   06/13/2017 10:10      73.2      72.3       32     40.8      0.00     18.28      73.9     0.35      1014.0     2       117         4        80        8.56     406      474.6
   06/13/2017 10:00      72.5      71.8       34     42.0      0.00     18.28      73.8     0.35      1014.0     2        43         4        58        8.56     422      459.8
   06/13/2017 09:50      72.2      71.4       35     42.6      0.00     18.28      73.9     0.35      1014.0     2        95         4        77        8.56     437      445.2
   06/13/2017 09:40      71.5      71.0       36     42.7      0.00     18.28      73.8     0.35      1014.0     2       122         4        81        8.56     448      432.2
   06/13/2017 09:30      71.5      70.2       37     43.5      0.00     18.28      73.9     0.35      1014.0     3        79         4       109        8.56     447      406.7
   06/13/2017 09:20      70.3      68.6       40     43.6      0.00     18.28      74.1     0.35      1014.0     3        75         5        76        8.11     268      385.7
   06/13/2017 09:10      69.2      68.7       41     44.4      0.00     18.28      74.0     0.35      1014.0     3        97         6        66        8.11     269      370.0
   06/13/2017 09:00      68.7      67.6       42     43.9      0.00     18.28      74.0     0.35      1014.0     2        28         4         0        8.11     269      363.8
   06/13/2017 08:50      67.7      65.6       44     43.5      0.00     18.28      74.2     0.35      1014.0     2        58         4        73        8.11     269      377.4
   06/13/2017 08:40      65.6      64.8       45     43.4      0.00     18.28      74.0     0.35      1014.0     3        62         4        87        8.11     269       49.9
   06/13/2017 08:30      65.0      63.6       47     43.7      0.00     18.28      74.2     0.35      1014.0     3        89         4       120        8.12     269      -19.9
   06/13/2017 08:20      63.5      62.9       49     43.9      0.00     18.28      73.8     0.35      1014.0     3        60         4        68        8.12     268      -38.5
   06/13/2017 08:10      63.0      62.0       50     43.8      0.00     18.28      74.0     0.35      1014.0     2        68         4        84        8.12     269      -32.1
   06/13/2017 08:00      62.0      61.4       52     43.7      0.00     18.28      74.2     0.35      1014.0     2        37         3       331        8.12     269      -31.9
   06/13/2017 07:50      61.4      60.7       54     44.1      0.00     18.28      74.5     0.35      1014.0     2        26         3         4        8.12     269      -25.9
   06/13/2017 07:40      60.9      59.6       54     43.6      0.00     18.28      74.1     0.35      1014.0     1        32         2         1        8.12     269       -1.7
   06/13/2017 07:30      59.6      58.4       55     43.0      0.00     18.28      74.2     0.35      1014.0     1       330         1       289        8.12     269      -13.7
   06/13/2017 07:20      58.6      56.9       57     42.8      0.00     18.28      74.3     0.35      1014.0     2        30         3        58        8.12     269      -37.7
   06/13/2017 07:10      56.8      55.9       61     42.9      0.00     18.28      74.0     0.35      1014.0     0       331         2         5        8.12     269      -39.1
   06/13/2017 07:00      56.1      55.1       64     43.4      0.00     18.28      74.3     0.35      1014.0     1        96         1        73        8.18     268      -41.7
   06/13/2017 06:50      55.3      54.1       68     44.3      0.00     18.28      74.3     0.35      1014.0     1        54         2        26        8.19     268      -43.8
   06/13/2017 06:40      54.2      52.9       71     44.5      0.00     18.28      74.7     0.35      1014.0     1        35         1         3        8.19     268      -45.8
   06/13/2017 06:30      52.7      51.7       74     44.1      0.00     18.28      74.4     0.35      1014.0     1       168         2       127        8.19     268      -50.3
   06/13/2017 06:20      51.8      51.3       72     43.1      0.00     18.28      74.6     0.35      1014.0     1       112         2       157        8.19     268      -50.6
   06/13/2017 06:10      51.3      50.1       76     43.3      0.00     18.28      74.6     0.35      1014.0     1       187         3       250        8.19     268      -50.0
   06/13/2017 06:00      50.6      50.2       77     43.4      0.00     18.28      74.7     0.35      1014.0     1       322         1        98        8.19     268      -55.7
   06/13/2017 05:50      50.7      49.7       74     42.5      0.00     18.28      74.8     0.35      1014.0     2       174         2       218        8.19     268      -59.4
   06/13/2017 05:40      50.3      49.7       75     42.4      0.00     18.28      74.8     0.35      1014.0     2       164         2       131        8.19     268      -61.9
   06/13/2017 05:30      50.4      49.9       74     42.3      0.00     18.28      74.7     0.35      1014.0     1       133         2        67        8.19     268      -63.0
   06/13/2017 05:20      50.3      49.8       73     41.9      0.00     18.28      74.8     0.35      1014.0     1       157         2       137        8.19     268      -63.7
   06/13/2017 05:10      50.8      50.3       70     41.2      0.00     18.28      74.8     0.35      1014.0     1       137         2       131        8.19     268      -64.2
   06/13/2017 05:00      51.1      50.7       69     41.2      0.00     18.28      74.9     0.35      1014.0     1       320         1       307        8.19     268      -63.9
   06/13/2017 04:50      51.0      50.7       69     41.1      0.00     18.28      74.9     0.35      1014.0     1       129         1       235        8.19     268      -64.0
   06/13/2017 04:40      51.3      50.8       69     41.0      0.00     18.28      74.7     0.35      1014.0     1       108         2       127        8.19     268      -65.1
   06/13/2017 04:30      51.7      51.4       67     40.9      0.00     18.28      74.9     0.35      1014.0     1        63         3       142        8.19     268      -64.9
   06/13/2017 04:20      52.1      51.7       65     40.5      0.00     18.28      75.1     0.35      1014.0     1       262         1       194        8.19     267      -64.5
   06/13/2017 04:10      52.0      50.7       66     40.3      0.00     18.28      75.2     0.35      1014.0     1       221         1       233        8.19     268      -64.0
   06/13/2017 04:00      51.5      50.8       68     40.8      0.00     18.28      75.1     0.35      1014.0     1       154         2       125        8.19     267      -65.3
   06/13/2017 03:50      51.7      50.8       69     41.5      0.00     18.28      75.0     0.35      1014.0     1       197         2       240        8.19     268      -65.6
   06/13/2017 03:40      51.8      50.8       68     41.3      0.00     18.28      75.0     0.35      1014.0     2       145         3       137        8.19     267      -66.4
   06/13/2017 03:30      52.0      51.5       67     41.4      0.00     18.28      75.3     0.35      1014.0     1       236         2       224        8.19     267      -66.3
   06/13/2017 03:20      52.0      51.5       68     41.5      0.00     18.28      75.5     0.35      1014.0     1       129         2       200        8.19     267      -67.4
   06/13/2017 03:10      52.5      52.2       66     41.4      0.00     18.28      75.5     0.35      1014.0     1       178         2       133        8.19     267      -68.0
   06/13/2017 03:00      52.6      51.8       68     42.0      0.00     18.28      75.3     0.35      1014.0     1       193         2       259        8.19     267      -66.9
   06/13/2017 02:50      52.4      51.7       69     42.0      0.00     18.28      75.2     0.36      1014.0     2        78         2       101        8.19     267      -69.2
   06/13/2017 02:40      53.0      52.6       69     42.7      0.00     18.28      75.4     0.36      1014.0     1       164         2       152        8.19     267      -67.9
   06/13/2017 02:30      53.6      53.0       67     42.7      0.00     18.28      75.4     0.36      1014.0     1       117         2       126        8.19     267      -69.6
   06/13/2017 02:20      53.9      53.6       68     43.2      0.00     18.28      75.4     0.36      1014.0     1       191         2       181        8.20     267      -68.9
   06/13/2017 02:10      54.0      53.5       68     43.6      0.00     18.28      75.6     0.36      1014.0     1       163         1       125        8.19     267      -69.5
   06/13/2017 02:00      54.1      53.9       68     43.6      0.00     18.28      75.5     0.36      1014.0     1       214         2       218        8.20     267      -69.2
   06/13/2017 01:50      54.0      53.6       69     44.0      0.00     18.28      75.5     0.36      1014.0     1       123         1       143        8.20     267      -70.4
   06/13/2017 01:40      54.2      53.6       68     43.6      0.00     18.28      75.6     0.35      1014.0     1        70         2        71        8.20     267      -70.8
   06/13/2017 01:30      54.7      54.4       69     44.5      0.00     18.28      75.8     0.36      1014.0     1       139         2       135        8.20     267      -71.1
   06/13/2017 01:20      55.5      54.8       66     44.4      0.00     18.28      75.7     0.35      1014.0     1       138         2       150        8.20     267      -72.8
   06/13/2017 01:10      55.9      55.5       66     44.4      0.00     18.28      75.4     0.35      1014.0     1       160         2       153        8.20     267      -73.1
   06/13/2017 01:00      55.8      55.4       66     44.4      0.00     18.28      75.8     0.35      1014.0     1       169         3       165        8.20     267      -72.1
   06/13/2017 00:50      56.3      55.8       65     44.4      0.00     18.28      75.9     0.35      1014.0     1       169         2       148        8.20     267      -71.5
   06/13/2017 00:40      56.5      56.3       64     44.5      0.00     18.28      75.6     0.36      1014.0     1       191         1       209        8.20     267      -72.5
   06/13/2017 00:30      56.6      56.3       65     44.7      0.00     18.28      75.8     0.35      1014.0     1       184         2       217        8.20     267      -72.2
   06/13/2017 00:20      58.2      57.1       62     44.7      0.00     18.28      75.8     0.35      1014.0     1       181         2       119        8.20     267      -72.9
   06/13/2017 00:10      58.2      57.7       61     44.6      0.00     18.28      75.8     0.35      1014.0     2       215         2       218        8.20     266      -72.5
   06/13/2017 00:00      57.9      57.5       63     45.0      0.00     18.28      75.8     0.35      1014.0     1       224         2       221        8.20     266      -71.8
   06/12/2017 23:50      58.3      57.9       62     45.2      0.00     18.28      75.7     0.36      1014.0     1       238         1       213        8.20     267      -71.2
   06/12/2017 23:40      58.5      58.0       62     45.4      0.00     18.28      75.6     0.36      1014.0     1        48         1        51        8.20     266      -71.0
   06/12/2017 23:30      58.7      58.4       62     45.6      0.00     18.28      75.7     0.36      1014.0     0        46         1       166        8.20     266      -71.4
   06/12/2017 23:20      59.3      58.9       61     45.5      0.00     18.28      75.8     0.36      1014.0     1        88         1        53        8.20     266      -72.3
   06/12/2017 23:10      59.4      58.9       61     45.7      0.00     18.28      75.6     0.35      1014.0     1       178         1       187        8.20     266      -71.3
   06/12/2017 23:00      59.7      59.2       60     45.4      0.00     18.28      75.8     0.35      1014.0     1       122         1        85        8.20     266      -71.9
   06/12/2017 22:50      60.6      59.9       58     45.4      0.00     18.28      76.0     0.35      1014.0     1       136         1       138        8.20     266      -73.5
   06/12/2017 22:40      61.5      60.9       56     45.5      0.00     18.28      75.7     0.35      1014.0     1       168         2       199        8.20     266      -73.4
   06/12/2017 22:30      61.7      61.4       56     45.6      0.00     18.28      75.7     0.35      1014.0     1       191         2       215        8.21     266      -74.2
   06/12/2017 22:20      62.0      61.4       55     45.4      0.00     18.28      75.8     0.35      1014.0     1        99         2       161        8.22     266      -75.6
   06/12/2017 22:10      62.8      62.3       54     45.7      0.00     18.28      75.9     0.35      1014.0     1       123         1       139        8.23     266      -77.9
   06/12/2017 22:00      63.5      62.9       53     45.6      0.00     18.28      75.9     0.35      1014.0     2       188         3       181        8.23     266      -77.7
   06/12/2017 21:50      63.9      63.4       51     45.2      0.00     18.28      75.9     0.35      1014.0     2       209         3       210        8.23     266      -79.2
   06/12/2017 21:40      64.7      64.1       50     45.4      0.00     18.28      75.8     0.35      1014.0     2       247         4       229        8.23     266      -82.0
   06/12/2017 21:30      65.0      64.9       49     45.2      0.00     18.28      75.8     0.35      1014.0     2       261         3       265        8.24     266      -83.8
   06/12/2017 21:20      65.3      65.0       48     44.9      0.00     18.28      75.7     0.35      1014.0     4       242         5       236        8.24     266      -84.9
   06/12/2017 21:10      65.7      65.3       47     44.6      0.00     18.28      75.9     0.35      1014.0     5       236         6       239        8.24     266      -85.7
   06/12/2017 21:00      65.9      65.6       45     44.0      0.00     18.28      75.8     0.35      1014.0     4       232         5       233        8.24     265      -85.8
   06/12/2017 20:50      66.5      66.0       43     43.3      0.00     18.28      75.8     0.35      1014.0     3       219         4       229        8.24     265      -85.9
   06/12/2017 20:40      67.1      66.4       42     43.0      0.00     18.28      75.7     0.35      1014.0     2       218         3       224        8.24     265      -88.8
   06/12/2017 20:30      67.7      67.2       41     42.9      0.00     18.28      75.7     0.35      1014.0     4       225         6       225        8.25     265      -90.6
   06/12/2017 20:20      68.8      67.9       39     42.4      0.00     18.28      75.7     0.35      1014.0     4       236         7       258        8.25     265      -90.9
   06/12/2017 20:10      68.8      68.5       37     41.6      0.00     18.28      75.9     0.35      1014.0     5       252         7       258        8.25     265      -89.5
   06/12/2017 20:00      69.5      68.9       37     41.6      0.00     18.28      75.7     0.35      1014.0     5       239         6       239        8.25     264      -86.8
   06/12/2017 19:50      70.3      69.7       35     40.8      0.00     18.28      75.7     0.35      1014.0     5       260         8       260        8.25     264      -83.8
   06/12/2017 19:40      71.1      70.4       34     40.7      0.00     18.28      75.5     0.35      1014.0     4       259         6       253        8.25     264      -78.2
   06/12/2017 19:30      71.7      70.9       33     40.6      0.00     18.28      75.5     0.35      1014.0     4       300         6       302        8.25     264      -56.5
   06/12/2017 19:20      71.8      71.7       33     40.9      0.00     18.28      75.5     0.35      1014.0     4       286         8       276        8.26     264      -40.5
   06/12/2017 19:10      72.4      71.7       33     41.6      0.00     18.28      75.4     0.35      1014.0     6       298         8       314        8.26     264      -20.1
   06/12/2017 19:00      73.3      72.5       32     41.5      0.00     18.28      75.6     0.35      1014.0     5       295         7       289        8.26     264        2.5
   06/12/2017 18:50      73.4      73.3       32     41.3      0.00     18.28      75.4     0.35      1014.0     4       280         5       257        8.26     264       25.8
   06/12/2017 18:40      73.7      73.3       31     41.0      0.00     18.28      75.5     0.35      1014.0     4       296         9       306        8.26     265       49.4
   06/12/2017 18:30      73.4      73.2       31     40.8      0.00     18.28      75.4     0.35      1014.0     5       290         8       295        8.26     264       73.8
   06/12/2017 18:20      73.8      73.2       30     40.6      0.00     18.28      75.2     0.35      1014.0     6       293         8       275        8.27     264       97.6
   06/12/2017 18:10      73.5      73.2       31     40.7      0.00     18.28      75.2     0.35      1014.0     7       307        11       294        8.27     265      123.1
   06/12/2017 18:00      74.5      73.9       30     41.2      0.00     18.28      75.1     0.35      1014.0     6       301        10       304        8.28     264      146.1
   06/12/2017 17:50      74.6      73.7       30     40.9      0.00     18.28      75.1     0.35      1014.0     7       299        11       311        8.28     264      170.6
   06/12/2017 17:40      75.3      74.6       30     41.4      0.00     18.28      75.0     0.35      1014.0     6       300         9       319        8.29     264      193.7
   06/12/2017 17:30      76.0      75.1       30     42.0      0.00     18.28      75.0     0.35      1014.0     6       288        12       305        8.30     265      217.8
   06/12/2017 17:20      76.2      75.6       29     41.1      0.00     18.28      75.0     0.35      1014.0     7       288        12       293        8.31     265      240.7
   06/12/2017 17:10      76.4      75.2       27     39.3      0.00     18.28      74.9     0.35      1014.0     5       234         8       217        8.32     265      263.4
   06/12/2017 17:00      76.4      75.6       26     38.9      0.00     18.28      74.8     0.35      1014.0     4       274         6       258        8.33     264      284.3
   06/12/2017 16:50      76.4      75.3       26     38.6      0.00     18.28      74.8     0.35      1014.0     5       254        10       260        8.33     265      309.5
   06/12/2017 16:40      76.8      75.5       26     38.6      0.00     18.28      74.6     0.35      1014.0     6       251         8       247        8.34     265      332.1
   06/12/2017 16:30      76.3      75.0       26     38.1      0.00     18.28      74.6     0.35      1015.0     6       216        11       191        8.34     265      352.5
   06/12/2017 16:20      76.8      75.7       25     37.9      0.00     18.28      74.5     0.35      1015.0     4       248         7       232        8.34     265      371.4
   06/12/2017 16:10      76.0      74.5       26     37.6      0.00     18.28      74.5     0.35      1015.0     4       212         9       197        8.35     265      393.7
   06/12/2017 16:00      76.7      74.8       25     37.7      0.00     18.28      74.2     0.35      1015.0     6       209         9       221        8.35     265      412.7
   06/12/2017 15:50      75.9      75.2       26     38.0      0.00     18.28      74.1     0.35      1015.0     3       254         8       232        8.35     265      430.3
   06/12/2017 15:40      76.7      75.3       26     38.6      0.00     18.28      74.1     0.35      1015.0     5       230         9       242        8.35     265      446.5
   06/12/2017 15:30      76.5      75.3       27     39.6      0.00     18.28      74.2     0.35      1015.0     5       244         9       194        8.35     265      462.6
   06/12/2017 15:20      76.8      75.0       29     41.0      0.00     18.28      73.9     0.35      1015.0     3       213         5       205        8.35     265      479.0
   06/12/2017 15:10      75.8      75.0       29     40.9      0.00     18.28      74.0     0.35      1015.0     4       206         6       183        8.35     265      493.5
   06/12/2017 15:00      75.8      75.2       29     41.0      0.00     18.28      73.8     0.35      1015.0     4       186         7       188        8.35     265      506.0
   06/12/2017 14:50      76.0      74.4       29     40.9      0.00     18.28      73.7     0.35      1015.0     3       279         6       279        8.35     265      517.6
   06/12/2017 14:40      75.5      74.6       29     41.0      0.00     18.28      73.8     0.34      1016.0     5       240         7       264        8.35     265      531.2
   06/12/2017 14:30      75.0      73.0       31     41.6      0.00     18.28      73.5     0.34      1015.0     4       201         6       189        8.35     266      545.4
   06/12/2017 14:20      73.8      72.9       32     41.7      0.00     18.28      73.6     0.34      1016.0     5       198         8       215        8.35     266      557.8
   06/12/2017 14:10      73.9      72.9       32     41.8      0.00     18.28      73.6     0.34      1016.0     5       214         9       230        8.35     266      569.4
   06/12/2017 14:00      74.2      73.3       31     41.5      0.00     18.28      73.5     0.34      1016.0     6       239         9       237        8.36     266      575.7
   06/12/2017 13:50      73.5      72.4       32     41.5      0.00     18.28      73.3     0.34      1016.0     7       230        11       236        8.36     266      583.9
   06/12/2017 13:40      73.9      72.6       33     42.3      0.00     18.28      73.2     0.34      1016.0     5       231         8       236        8.36     265      588.8
   06/12/2017 13:30      73.9      72.7       34     43.1      0.00     18.28      73.3     0.34      1016.0     6       196        10       207        8.36     266      595.2
   06/12/2017 13:20      73.3      72.4       34     43.1      0.00     18.28      73.2     0.34      1016.0     8       149        11       176        8.36     266      598.8
   06/12/2017 13:10      73.3      72.0       34     42.7      0.00     18.28      73.2     0.34      1016.0     7       168        11       152        8.36     266      596.4
   06/12/2017 13:00      72.4      71.3       35     43.0      0.00     18.28      73.3     0.34      1016.0     5       181        10       181        8.36     266      600.3
   06/12/2017 12:50      72.1      71.2       36     43.1      0.00     18.28      73.2     0.34      1016.0     6       160         9       172        8.36     266      604.5
   06/12/2017 12:40      72.7      71.5       36     43.6      0.00     18.28      72.9     0.34      1016.0     6       203         8       199        8.36     266      601.8
   06/12/2017 12:30      73.0      72.1       35     43.1      0.00     18.28      73.1     0.34      1016.0     6       183         9       190        8.36     266      595.9
   06/12/2017 12:20      73.3      72.2       27     37.2      0.00     18.28      72.9     0.34      1016.0     3       170         8       133        8.36     266      593.3
   06/12/2017 12:10      73.4      71.8       27     36.8      0.00     18.28      73.1     0.34      1016.0     4       227         8       241        8.36     266      590.0
   06/12/2017 12:00      73.2      72.1       27     36.5      0.00     18.28      72.9     0.34      1016.0     3       319         6       329        8.36     267      581.2
   06/12/2017 11:50      72.9      71.9       26     35.6      0.00     18.28      73.3     0.34      1016.0     3        27         5        35        8.36     267      576.2
   06/12/2017 11:40      73.1      72.1       26     35.4      0.00     18.28      73.3     0.34      1016.0     4         6         6       332        8.36     267      572.2
   06/12/2017 11:30      72.0      70.4       26     34.2      0.00     18.28      72.9     0.34      1016.0     2        28         4       341        8.36     267      567.0
   06/12/2017 11:20      70.7      69.3       28     35.0      0.00     18.28      73.0     0.34      1016.0     3       261         6       313        8.36     267      560.5
   06/12/2017 11:10      69.9      69.3       28     34.9      0.00     18.28      73.1     0.34      1016.0     3       193         5       251        8.36     267      552.2
   06/12/2017 11:00      70.4      69.0       28     34.8      0.00     18.28      73.2     0.34      1016.0     4       280         6       301        8.36     267      538.4
   06/12/2017 10:50      70.1      69.0       28     35.1      0.00     18.28      73.4     0.34      1016.0     3       299         6       259        8.36     268      529.2
   06/12/2017 10:40      69.3      68.2       29     35.3      0.00     18.28      72.9     0.34      1016.0     3       276         6       249        8.36     268      517.7
   06/12/2017 10:30      68.5      67.5       31     36.5      0.00     18.28      73.3     0.34      1016.0     3       331         6       304        8.36     268      504.7
   06/12/2017 10:20      67.8      67.3       31     35.9      0.00     18.28      73.2     0.34      1016.0     4       273         6       230        8.36     268      489.9
   06/12/2017 10:10      68.3      67.3       29     34.7      0.00     18.28      73.4     0.34      1016.0     4       345         6        42        8.36     268      474.5
   06/12/2017 10:00      68.6      67.0       30     35.5      0.00     18.28      73.3     0.35      1016.0     2       269         3       269        8.36     269      457.0
   06/12/2017 09:50      66.9      65.3       32     35.6      0.00     18.28      73.0     0.35      1016.0     2       198         4       149        8.36     269      441.2
   06/12/2017 09:40      66.2      65.5       33     35.5      0.00     18.28      73.3     0.35      1016.0     2       304         5       288        8.36     269      423.9
   06/12/2017 09:30      66.8      65.7       33     35.9      0.00     18.28      73.2     0.35      1016.0     2       331         3       326        8.36     269      406.2
   06/12/2017 09:20      65.5      64.0       34     35.8      0.00     18.28      73.4     0.35      1017.0     2       228         3       241        8.36     269      391.0
   06/12/2017 09:10      63.9      63.2       35     35.8      0.00     18.28      73.3     0.35      1017.0     2       316         4       358        8.43     269      376.6
   06/12/2017 09:00      63.2      62.2       37     36.1      0.00     18.28      73.3     0.35      1016.0     3       343         5       348        8.44     269      370.5
   06/12/2017 08:50      62.3      60.7       39     36.0      0.00     18.28      73.5     0.35      1016.0     2       324         3       335        8.46     270      385.1
   06/12/2017 08:40      60.7      59.9       42     37.2      0.00     18.28      73.6     0.35      1016.0     2       338         3        34        8.46     270       39.2
   06/12/2017 08:30      60.1      59.5       44     37.6      0.00     18.28      73.3     0.35      1016.0     2        50         4       122        8.46     270      -30.9
   06/12/2017 08:20      59.6      58.9       48     39.5      0.00     18.28      74.0     0.35      1016.0     2       116         4       125        8.46     270      -44.7
   06/12/2017 08:10      58.7      57.8       52     40.8      0.00     18.28      73.9     0.35      1017.0     1       118         2        90        8.46     270      -37.1
   06/12/2017 08:00      57.8      57.0       56     41.9      0.00     18.28      73.5     0.35      1017.0     1       253         2       325        8.47     270      -37.0
   06/12/2017 07:50      57.2      56.4       57     41.9      0.00     18.28      73.8     0.35      1017.0     1        97         2       338        8.48     270      -30.6
   06/12/2017 07:40      56.5      55.8       61     42.9      0.00     18.28      73.7     0.35      1016.0     2        98         3       104        8.48     270       -8.9
   06/12/2017 07:30      55.6      54.7       65     43.5      0.00     18.28      73.5     0.35      1016.0     1        83         2        80        8.48     270      -12.3
   06/12/2017 07:20      54.7      53.8       68     43.8      0.00     18.28      73.8     0.35      1016.0     1       121         2       118        8.48     270      -27.6
   06/12/2017 07:10      53.8      53.0       74     45.2      0.00     18.28      73.9     0.35      1016.0     1       203         1       228        8.48     270      -20.4
   06/12/2017 07:00      52.9      52.4       78     45.9      0.00     18.28      74.1     0.35      1016.0     1       178         1       155        8.48     270      -16.5
   06/12/2017 06:50      52.4      51.6       80     46.2      0.00     18.28      74.3     0.35      1016.0     1        44         2       315        8.48     270      -16.3
   06/12/2017 06:40      51.5      50.1       85     46.4      0.00     18.28      74.0     0.35      1016.0     1       351         2       358        8.48     270      -16.9
   06/12/2017 06:30      50.1      49.3       86     45.5      0.00     18.28      73.7     0.35      1016.0     1       165         2       147        8.48     270      -22.5
   06/12/2017 06:20      49.3      48.5       87     45.2      0.00     18.28      74.0     0.35      1016.0     1       163         1       149        8.48     270      -23.0
   06/12/2017 06:10      48.5      47.7       88     44.8      0.00     18.28      74.4     0.35      1016.0     1       187         2       145        8.48     270      -24.2
   06/12/2017 06:00      48.4      47.8       88     44.8      0.00     18.28      73.8     0.35      1016.0     1        16         2       358        8.48     269      -31.3
   06/12/2017 05:50      48.4      48.0       88     44.8      0.00     18.28      74.2     0.35      1016.0     1       149         1       128        8.48     269      -36.7
   06/12/2017 05:40      48.5      48.1       87     44.5      0.00     18.28      74.1     0.35      1016.0     1       163         2       129        8.48     269      -42.0
   06/12/2017 05:30      48.5      48.0       86     44.4      0.00     18.28      74.6     0.35      1016.0     2       183         3       128        8.49     270      -43.8
   06/12/2017 05:20      48.8      48.3       85     44.3      0.00     18.28      74.7     0.35      1016.0     1        85         1       283        8.49     270      -46.0
   06/12/2017 05:10      49.4      48.8       85     44.6      0.00     18.28      74.3     0.35      1016.0     1       188         2       250        8.49     269      -45.4
   06/12/2017 05:00      49.6      49.4       85     45.2      0.00     18.28      74.4     0.35      1016.0     1       177         2       217        8.50     269      -46.8
   06/12/2017 04:50      49.4      48.8       84     44.4      0.00     18.28      74.7     0.35      1015.0     2       148         3       188        8.50     269      -49.1
   06/12/2017 04:40      49.6      49.0       85     44.9      0.00     18.28      74.4     0.35      1015.0     1       203         2       167        8.50     269      -46.6
   06/12/2017 04:30      49.3      48.8       86     45.0      0.00     18.28      74.5     0.35      1015.0     1        44         2       127        8.50     269      -39.5
   06/12/2017 04:20      49.3      48.5       86     44.9      0.00     18.28      74.6     0.35      1015.0     1        82         1       269        8.50     269      -36.5
   06/12/2017 04:10      49.3      49.1       86     45.3      0.00     18.28      74.5     0.35      1015.0     0        78         1       120        8.50     269      -45.1
   06/12/2017 04:00      49.6      49.2       86     45.2      0.00     18.28      74.9     0.35      1015.0     1       164         2       149        8.50     269      -49.3
   06/12/2017 03:50      49.6      49.3       85     45.1      0.00     18.28      74.3     0.35      1015.0     1       169         2       171        8.50     269      -52.4
   06/12/2017 03:40      49.4      48.4       85     44.5      0.00     18.28      74.5     0.35      1015.0     2       155         3       154        8.50     269      -55.9
   06/12/2017 03:30      49.6      49.0       83     44.4      0.00     18.28      74.6     0.35      1015.0     3       158         4       163        8.50     269      -56.9
   06/12/2017 03:20      49.9      49.4       82     44.4      0.00     18.28      74.8     0.35      1015.0     2       155         4       161        8.51     269      -56.5
   06/12/2017 03:10      50.1      49.9       82     44.7      0.00     18.28      74.8     0.35      1015.0     1       158         2       135        8.51     269      -54.6
   06/12/2017 03:00      50.2      49.9       82     44.6      0.00     18.28      74.5     0.35      1015.0     0       279         1       235        8.51     269      -56.6
   06/12/2017 02:50      50.1      49.9       82     44.8      0.00     18.28      74.6     0.35      1015.0     0       165         1       183        8.51     269      -57.6
   06/12/2017 02:40      50.2      50.0       82     44.8      0.00     18.28      74.9     0.35      1015.0     0        65         1       159        8.51     269      -59.2
   06/12/2017 02:30      50.8      50.1       81     44.9      0.00     18.28      75.3     0.35      1015.0     1       136         2       138        8.51     269      -61.1
   06/12/2017 02:20      50.9      50.7       80     45.0      0.00     18.28      75.0     0.35      1015.0     1       161         1       154        8.51     269      -60.4
   06/12/2017 02:10      50.8      50.7       81     45.2      0.00     18.28      74.9     0.35      1015.0     1       227         1       216        8.51     269      -61.8
   06/12/2017 02:00      50.8      50.5       81     45.0      0.00     18.28      74.7     0.35      1015.0     1       160         2       138        8.51     269      -63.2
   06/12/2017 01:50      50.9      50.6       80     44.7      0.00     18.28      75.0     0.35      1015.0     2       168         3       187        8.51     269      -63.1
   06/12/2017 01:40      51.4      51.2       80     45.3      0.00     18.28      74.8     0.36      1015.0     2       153         2       170        8.51     269      -62.6
   06/12/2017 01:30      51.6      51.2       79     45.1      0.00     18.28      74.9     0.35      1015.0     1       180         2       138        8.51     269      -62.8
   06/12/2017 01:20      51.7      51.4       79     45.3      0.00     18.28      75.1     0.35      1015.0     1       139         1       154        8.51     269      -63.8
   06/12/2017 01:10      52.3      51.7       76     44.7      0.00     18.28      75.4     0.36      1015.0     1       182         2       142        8.51     269      -64.3
   06/12/2017 01:00      52.6      52.2       78     45.7      0.00     18.28      75.1     0.35      1015.0     1       186         1       208        8.51     268      -63.4
   06/12/2017 00:50      52.4      52.2       76     45.1      0.00     18.28      75.4     0.35      1015.0     1       160         2       141        8.51     268      -64.5
   06/12/2017 00:40      53.1      52.8       75     45.4      0.00     18.28      75.3     0.36      1015.0     1       157         2       129        8.51     269      -64.3
   06/12/2017 00:30      53.0      52.6       76     45.5      0.00     18.28      75.5     0.36      1015.0     1       168         1       150        8.51     268      -63.9
   06/12/2017 00:20      52.9      52.5       75     45.0      0.00     18.28      75.3     0.36      1015.0     1       147         2       131        8.51     268      -65.3
   06/12/2017 00:10      53.4      53.0       72     44.5      0.00     18.28      75.2     0.36      1015.0     2       192         2       195        8.51     268      -65.2
   06/12/2017 00:00      53.7      53.0       71     44.3      0.00     18.28      75.3     0.36      1015.0     2       227         2       231        8.51     268      -64.8
   06/11/2017 23:50      54.3      53.4       70     44.4      0.00     18.28      75.4     0.36      1014.0     1       230         1       221        8.52     268      -65.9
   06/11/2017 23:40      54.3      54.0       71     45.0      0.00     18.28      75.5     0.36      1014.0     1        57         1       221        8.52     268      -65.7
   06/11/2017 23:30      54.6      54.3       70     45.0      0.00     18.28      75.4     0.36      1014.0     1        36         2        26        8.52     268      -66.4
   06/11/2017 23:20      55.1      54.6       69     45.0      0.00     18.28      75.4     0.36      1014.0     1        91         1        82        8.52     268      -67.8
   06/11/2017 23:10      56.4      55.2       67     45.0      0.00     18.28      75.2     0.36      1014.0     1       126         2        91        8.52     268      -67.6
   06/11/2017 23:00      56.8      56.3       66     45.3      0.00     18.28      75.7     0.36      1015.0     2       158         3       157        8.52     268      -68.3
   06/11/2017 22:50      57.0      56.7       65     45.1      0.00     18.28      75.5     0.36      1015.0     2       176         3       143        8.52     268      -68.3
   06/11/2017 22:40      57.3      57.0       63     44.8      0.00     18.28      75.5     0.36      1015.0     1       215         2       213        8.52     268      -68.0
   06/11/2017 22:30      57.6      57.4       63     44.8      0.00     18.28      75.3     0.36      1014.0     1       265         2       231        8.52     268      -68.1
   06/11/2017 22:20      57.9      57.5       62     45.0      0.00     18.28      75.7     0.36      1014.0     2       193         2       152        8.52     268      -70.7
   06/11/2017 22:10      58.3      58.0       62     45.0      0.00     18.28      75.3     0.36      1014.0     2       183         2       203        8.52     268      -72.9
   06/11/2017 22:00      58.6      58.3       61     44.9      0.00     18.28      75.3     0.36      1014.0     3       194         4       203        8.52     268      -74.0
   06/11/2017 21:50      58.6      58.4       60     44.8      0.00     18.28      75.6     0.36      1014.0     2       186         3       179        8.52     268      -75.1
   06/11/2017 21:40      59.1      58.7       60     45.0      0.00     18.28      75.5     0.35      1014.0     3       178         4       187        8.52     268      -76.1
   06/11/2017 21:30      59.4      59.1       59     44.9      0.00     18.28      75.5     0.36      1014.0     3       204         4       213        8.52     268      -76.8
   06/11/2017 21:20      59.8      59.4       59     45.1      0.00     18.28      75.5     0.35      1014.0     3       209         4       254        8.52     268      -77.2
   06/11/2017 21:10      60.4      59.9       58     45.4      0.00     18.28      75.5     0.35      1014.0     3       203         4       230        8.52     268      -74.1
   06/11/2017 21:00      61.0      60.4       58     45.6      0.00     18.28      75.5     0.35      1013.0     3       216         5       224        8.52     268      -65.2
   06/11/2017 20:50      61.6      61.0       57     45.8      0.00     18.28      75.4     0.35      1013.0     4       222         8       249        8.52     268      -56.4
   06/11/2017 20:40      62.3      61.8       56     46.1      0.00     18.28      75.7     0.35      1013.0     4       224         7       240        8.52     268      -45.6
   06/11/2017 20:30      62.5      62.4       55     46.1      0.00     18.28      75.3     0.35      1013.0     4       236         5       233        8.52     268      -42.3
   06/11/2017 20:20      63.4      62.6       55     46.8      0.00     18.28      75.3     0.35      1013.0     5       233         8       224        8.52     268      -38.0
   06/11/2017 20:10      63.8      63.3       55     47.2      0.00     18.28      75.5     0.35      1013.0     5       248         7       280        8.52     268      -32.9
   06/11/2017 20:00      63.9      63.7       55     47.4      0.00     18.28      75.4     0.35      1013.0     4       226         8       235        8.52     268      -32.2
   06/11/2017 19:50      64.3      63.9       54     47.2      0.00     18.28      75.3     0.35      1013.0     5       238         7       225        8.52     268      -30.2
   06/11/2017 19:40      65.1      64.5       53     47.2      0.00     18.28      75.1     0.35      1013.0     5       229         9       233        8.52     268      -28.2
   06/11/2017 19:30      66.2      65.2       51     47.2      0.00     18.28      75.4     0.35      1013.0     4       234         7       248        8.53     267      -20.6
   06/11/2017 19:20      66.8      66.4       50     47.3      0.00     18.28      75.2     0.35      1012.0     3       251         5       268        8.53     267       22.5
   06/11/2017 19:10      66.7      65.3       51     47.3      0.00     18.28      75.3     0.35      1012.0     3       262         6       239        8.53     268       42.2
   06/11/2017 19:00      65.9      65.5       52     47.3      0.00     18.28      75.5     0.35      1012.0     3       219         5       212        8.53     268       29.4
   06/11/2017 18:50      65.9      65.3       52     47.6      0.00     18.28      75.3     0.35      1012.0     3       202         4       151        8.53     268       71.9
   06/11/2017 18:40      65.5      65.1       53     47.9      0.00     18.28      75.3     0.35      1012.0     3       157         5       137        8.53     268       51.8
   06/11/2017 18:30      65.6      65.2       53     47.9      0.00     18.28      75.3     0.35      1012.0     4       138         6       178        8.53     268       50.3
   06/11/2017 18:20      64.9      64.7       55     48.3      0.00     18.28      75.4     0.35      1012.0     4       146         6       149        8.53     268       70.2
   06/11/2017 18:10      64.7      64.2       56     48.4      0.00     18.28      75.4     0.35      1012.0     4       163         7       194        8.53     268       21.6
   06/11/2017 18:00      64.7      64.2       56     48.7      0.00     18.28      75.3     0.35      1012.0     5       162         7       172        8.53     268       14.8
   06/11/2017 17:50      64.6      64.2       57     49.1      0.00     18.28      75.3     0.35      1012.0     5       175         9       183        8.53     268       16.0
   06/11/2017 17:40      64.9      64.3       57     49.2      0.00     18.28      75.5     0.35      1012.0     6       167         9       138        8.53     267       34.5
   06/11/2017 17:30      65.0      64.6       57     49.4      0.00     18.28      75.3     0.35      1012.0     6       168        10       153        8.53     267       56.8
   06/11/2017 17:20      65.0      64.4       58     49.4      0.00     18.28      75.4     0.35      1012.0     7       166        10       170        8.53     267       75.4
   06/11/2017 17:10      65.5      64.9       57     49.6      0.00     18.28      75.3     0.35      1012.0     8       176        13       168        8.53     267      127.9
   06/11/2017 17:00      66.5      65.5       57     50.0      0.00     18.28      75.3     0.35      1012.0     9       174        12       164        8.72     267      197.9
   06/11/2017 16:50      68.2      66.6       54     50.2      0.00     18.28      75.4     0.35      1012.0     7       196         9       157        8.72     267      316.2
   06/11/2017 16:40      67.4      66.7       55     50.3      0.00     18.28      75.2     0.35      1012.0     9       155        13       131        8.73     268      418.3
   06/11/2017 16:30      67.5      67.3       54     50.2      0.00     18.28      75.1     0.35      1012.0     9       162        14       176        8.73     268      423.7
   06/11/2017 16:20      67.4      66.6       54     50.1      0.00     18.28      75.4     0.35      1012.0     9       146        12       147        8.73     268      421.4
   06/11/2017 16:10      67.7      66.4       54     50.0      0.00     18.28      75.0     0.35      1012.0    10       155        14       144        8.73     268      459.5
   06/11/2017 16:00      67.8      67.0       53     50.0      0.00     18.28      75.3     0.35      1012.0     8       153        14       145        8.74     268      410.6
   06/11/2017 15:50      68.3      67.4       53     50.3      0.00     18.28      75.1     0.35      1012.0     7       156         9       149        8.74     268      469.4
   06/11/2017 15:40      68.4      67.4       53     50.1      0.00     18.28      75.0     0.35      1012.0     8       171        11       127        8.74     268      523.5
   06/11/2017 15:30      67.7      66.4       55     50.3      0.00     18.28      75.3     0.35      1012.0     8       162        13       160        8.74     268      437.7
   06/11/2017 15:20      66.8      66.4       56     50.6      0.00     18.28      74.8     0.35      1012.0     8       165        12       195        8.74     268      194.8
   06/11/2017 15:10      66.8      66.1       57     50.9      0.00     18.28      75.2     0.35      1012.0     8       163        11       163        8.74     269      364.5
   06/11/2017 15:00      67.1      66.1       56     50.7      0.00     18.28      75.0     0.35      1012.0     9       148        11       152        8.75     268      263.6
   06/11/2017 14:50      68.0      67.2       55     50.8      0.00     18.28      75.0     0.35      1012.0     8       145        13       145        8.75     268      246.4
   06/11/2017 14:40      68.6      67.2       54     50.8      0.00     18.28      74.9     0.35      1012.0     7       142         8       161        8.75     269      263.1
   06/11/2017 14:30      68.6      68.0       53     50.5      0.00     18.28      74.9     0.35      1012.0     9       154        14       162        8.75     269      663.9
   06/11/2017 14:20      68.1      67.2       54     50.5      0.00     18.28      75.0     0.35      1012.0     9       150        13       121        8.75     269      519.1
   06/11/2017 14:10      68.3      67.3       55     51.0      0.00     18.28      74.8     0.35      1012.0     7       164         9       174        8.75     269      271.0
   06/11/2017 14:00      68.0      66.4       56     50.6      0.00     18.28      74.8     0.35      1012.0     9       143        13       143        8.75     269      389.0
   06/11/2017 13:50      67.2      66.1       57     51.0      0.00     18.28      74.9     0.35      1012.0     8       145        12       143        8.75     269      381.5
   06/11/2017 13:40      67.1      66.2       57     51.0      0.00     18.28      74.8     0.35      1012.0     8       154        10       124        8.75     269      156.5
   06/11/2017 13:30      67.5      67.0       56     51.0      0.00     18.28      74.9     0.35      1012.0     9       157        14       121        8.75     269      367.1
   06/11/2017 13:20      67.2      66.4       58     51.3      0.00     18.28      74.8     0.35      1012.0     8       161        12       139        8.75     269      420.0
   06/11/2017 13:10      67.2      65.8       58     51.4      0.00     18.28      74.8     0.35      1012.0     7       161        12       139        8.75     269      396.3
   06/11/2017 13:00      66.1      65.7       59     51.1      0.00     18.28      74.9     0.35      1012.0     8       151         9       174        8.75     269      201.0
   06/11/2017 12:50      68.6      66.4       56     51.3      0.00     18.28      75.2     0.35      1012.0     8       156        10       141        8.75     269      231.0
   06/11/2017 12:40      67.7      66.5       57     51.2      0.00     18.28      74.6     0.35      1013.0     7       136        10       105        8.75     269      562.2
   06/11/2017 12:30      66.9      66.6       56     50.5      0.00     18.28      74.8     0.35      1012.0     6       166         9       154        8.75     269      280.2
   06/11/2017 12:20      67.3      66.5       55     50.1      0.00     18.28      74.5     0.35      1012.0     6       178        11       168        8.75     269      215.1
   06/11/2017 12:10      68.5      67.3       53     50.2      0.00     18.28      75.0     0.35      1012.0     5       155         7       157        8.76     269      188.4
   06/11/2017 12:00      68.4      66.8       54     50.4      0.00     18.28      75.0     0.35      1012.0     6       187         9       172        8.76     270      380.0
   06/11/2017 11:50      68.1      67.2       53     50.1      0.00     18.28      75.0     0.35      1012.0     5       187         7       175        8.76     269      395.9
   06/11/2017 11:40      67.4      66.2       58     51.3      0.00     18.28      75.3     0.35      1012.0     5       129         7       126        8.76     270      257.4
   06/11/2017 11:30      66.4      65.7       57     50.2      0.00     18.28      74.8     0.35      1012.0     3       179         5       163        8.76     270      143.3
   06/11/2017 11:20      65.7      65.4       59     50.7      0.00     18.28      74.9     0.35      1012.0     5       163         7       195        8.76     269      166.0
   06/11/2017 11:10      65.9      64.4       61     51.3      0.00     18.28      75.1     0.35      1012.0     4       148         6       183        8.76     270      336.9
   06/11/2017 11:00      64.4      63.9       63     51.2      0.00     18.28      75.0     0.35      1012.0     4       171         6       170        8.76     270      116.3
   06/11/2017 10:50      64.2      63.7       64     51.5      0.00     18.28      75.0     0.35      1012.0     4       170         7       173        8.76     270      142.5
   06/11/2017 10:40      63.8      63.6       65     51.8      0.00     18.28      75.1     0.35      1012.0     5       158         7       144        8.76     270      174.3
   06/11/2017 10:30      63.8      62.9       65     51.4      0.00     18.28      74.8     0.35      1012.0     4       125         7       120        8.76     270      138.7
   06/11/2017 10:20      63.0      62.5       66     51.1      0.00     18.28      75.4     0.35      1013.0     4       114         9        79        8.76     270      135.3
   06/11/2017 10:10      62.5      62.2       65     50.6      0.00     18.28      75.1     0.35      1013.0     4       109         6       115        8.76     270      115.4
   06/11/2017 10:00      62.2      61.8       66     50.5      0.00     18.28      75.4     0.35      1013.0     5       107         7       123        8.76     270       74.2
   06/11/2017 09:50      61.9      61.7       67     50.6      0.00     18.28      75.3     0.35      1012.0     5       117         7       131        8.76     270       68.2
   06/11/2017 09:40      61.8      61.2       68     50.6      0.00     18.28      74.9     0.35      1012.0     5       114         9       128        8.76     270       93.9
   06/11/2017 09:30      61.4      61.2       69     50.9      0.00     18.28      75.0     0.35      1012.0     7       125        10       132        8.76     270       78.5
   06/11/2017 09:20      61.5      61.3       69     51.3      0.00     18.28      75.3     0.35      1012.0     4       136         5        95        8.76     271       81.8
   06/11/2017 09:10      61.5      61.0       70     51.6      0.00     18.28      75.2     0.35      1012.0     5       153         9       116        8.76     270      104.1
   06/11/2017 09:00      61.2      60.7       73     52.0      0.00     18.28      75.2     0.35      1012.0     4       139         6       160        8.76     271      100.6
   06/11/2017 08:50      60.9      60.4       73     52.0      0.00     18.28      75.0     0.35      1012.0     5       120         6       157        8.76     271      133.0
   06/11/2017 08:40      60.5      60.1       75     52.2      0.00     18.28      75.0     0.35      1012.0     5       134         7       138        8.76     271      103.3
   06/11/2017 08:30      60.7      60.3       74     52.3      0.00     18.28      75.3     0.36      1012.0     4       135         7       131        8.76     271       80.2
   06/11/2017 08:20      60.4      59.9       75     52.2      0.00     18.28      75.2     0.36      1012.0     3       118         5       106        8.76     271       73.0
   06/11/2017 08:10      60.1      59.8       76     52.4      0.00     18.28      75.4     0.36      1012.0     4       132         5       115        8.76     271       39.5
   06/11/2017 08:00      60.1      59.5       77     52.7      0.00     18.28      75.7     0.36      1012.0     2       106         4        68        8.76     271       43.6
   06/11/2017 07:50      59.5      59.3       78     52.8      0.00     18.28      75.5     0.36      1012.0     3       116         5       122        8.76     271       44.4
   06/11/2017 07:40      59.5      59.1       79     52.8      0.00     18.28      75.7     0.36      1012.0     2       117         4        93        8.76     271       22.8
   06/11/2017 07:30      59.2      58.8       80     52.7      0.00     18.28      75.4     0.36      1012.0     2       108         3        57        8.76     271        5.9
   06/11/2017 07:20      58.7      58.6       80     52.6      0.00     18.28      75.7     0.36      1012.0     3        95         5        85        8.76     271       -0.7
   06/11/2017 07:10      58.9      58.6       81     53.0      0.00     18.28      75.2     0.36      1011.0     4        82         6        89        8.76     271       -2.1
   06/11/2017 07:00      59.2      58.9       81     53.3      0.00     18.28      75.7     0.36      1011.0     3        78         6        68        8.76     271       -1.5
   06/11/2017 06:50      59.4      59.1       81     53.3      0.00     18.28      75.3     0.36      1011.0     3        65         4        75        8.76     271       -3.4
   06/11/2017 06:40      59.4      59.0       81     53.3      0.00     18.28      75.3     0.36      1011.0     2       100         3       105        8.76     271       -4.9
   06/11/2017 06:30      59.4      59.2       80     53.2      0.00     18.28      75.3     0.36      1011.0     4        84         5       118        8.76     271       -6.4
   06/11/2017 06:20      59.5      59.3       79     52.9      0.00     18.28      75.5     0.36      1011.0     3       101         7       127        8.76     271       -6.7
   06/11/2017 06:10      59.4      59.2       79     52.7      0.00     18.28      75.5     0.36      1011.0     4       131         6       157        8.76     271       -9.4
   06/11/2017 06:00      59.5      59.4       78     52.7      0.00     18.28      75.6     0.36      1011.0     4       138         6       128        8.76     271      -12.1
   06/11/2017 05:50      59.5      59.2       78     52.6      0.00     18.28      76.0     0.36      1011.0     4       142         6       135        8.76     271      -14.1
   06/11/2017 05:40      59.6      59.4       78     52.6      0.00     18.28      75.9     0.36      1011.0     3       159         4       161        8.76     271      -16.2
   06/11/2017 05:30      59.6      59.4       78     52.6      0.00     18.28      75.8     0.36      1011.0     2       180         3       192        8.76     271      -15.6
   06/11/2017 05:20      59.6      59.4       77     52.5      0.00     18.28      75.9     0.36      1011.0     2       130         3        95        8.76     271      -15.8
   06/11/2017 05:10      59.7      59.5       77     52.5      0.00     18.28      75.9     0.36      1011.0     2       113         3       105        8.76     271      -26.2
   06/11/2017 05:00      59.6      59.4       77     52.5      0.00     18.28      75.3     0.36      1011.0     1       155         2       145        8.76     271      -29.6
   06/11/2017 04:50      59.7      59.5       77     52.6      0.00     18.28      75.9     0.36      1011.0     3       151         5       139        8.76     271      -23.2
   06/11/2017 04:40      59.8      59.6       78     52.7      0.00     18.28      75.7     0.36      1011.0     3       127         4       170        8.76     270      -25.1
   06/11/2017 04:30      59.9      59.8       77     52.7      0.00     18.28      75.7     0.36      1011.0     3       128         5       112        8.76     271      -22.3
   06/11/2017 04:20      60.0      59.9       76     52.5      0.00     18.28      75.8     0.36      1011.0     3       136         6       140        8.76     270      -18.7
   06/11/2017 04:10      60.1      59.9       75     52.2      0.00     18.28      75.9     0.36      1011.0     3       124         4       122        8.76     270      -18.1
   06/11/2017 04:00      60.0      59.8       76     52.3      0.00     18.28      76.0     0.36      1011.0     2       146         3       108        8.77     270      -18.3
   06/11/2017 03:50      60.1      60.0       75     52.3      0.00     18.28      76.1     0.36      1011.0     1       169         2       122        8.77     270      -18.6
   06/11/2017 03:40      60.1      59.9       75     52.1      0.00     18.28      76.0     0.36      1011.0     1       186         2       183        8.77     270      -18.5
   06/11/2017 03:30      60.1      59.8       76     52.2      0.00     18.28      76.1     0.36      1011.0     2       141         3       158        8.77     270      -18.5
   06/11/2017 03:20      60.0      59.8       76     52.3      0.00     18.28      75.9     0.36      1011.0     3       154         5       168        8.77     270      -18.4
   06/11/2017 03:10      60.1      59.8       76     52.4      0.00     18.28      75.6     0.36      1011.0     3       133         4       133        8.77     270      -18.5
   06/11/2017 03:00      60.1      59.9       76     52.3      0.00     18.28      75.7     0.36      1011.0     3       130         5       136        8.77     270      -19.0
   06/11/2017 02:50      60.3      60.0       74     51.9      0.00     18.28      76.0     0.36      1011.0     3       132         6       130        8.77     270      -19.3
   06/11/2017 02:40      60.5      60.3       73     51.7      0.00     18.28      76.2     0.36      1011.0     3       104         5       133        8.77     270      -19.4
   06/11/2017 02:30      60.6      60.4       73     51.8      0.00     18.28      76.4     0.36      1011.0     2       101         3       131        8.77     270      -19.9
   06/11/2017 02:20      60.6      60.4       74     52.0      0.00     18.28      75.9     0.36      1011.0     3        86         3       108        8.76     270      -20.1
   06/11/2017 02:10      60.5      60.4       75     52.4      0.00     18.28      76.3     0.36      1011.0     2       111         3       110        8.77     270      -19.7
   06/11/2017 02:00      60.5      60.3       76     52.6      0.00     18.28      76.1     0.36      1011.0     1       155         2       153        8.77     270      -21.8
   06/11/2017 01:50      60.4      60.3       76     52.7      0.00     18.28      76.2     0.36      1011.0     3       153         5       144        8.77     270      -23.0
   06/11/2017 01:40      60.4      60.2       76     52.6      0.00     18.28      76.1     0.36      1011.0     3       153         4       165        8.77     270      -21.8
   06/11/2017 01:30      60.4      60.2       75     52.3      0.00     18.28      75.9     0.36      1011.0     3       147         5       157        8.77     270      -22.4
   06/11/2017 01:20      61.0      60.5       73     52.0      0.00     18.28      75.8     0.36      1011.0     3       148         6       132        8.77     270      -24.4
   06/11/2017 01:10      61.3      60.9       72     52.1      0.00     18.28      76.2     0.36      1011.0     3       162         5       159        8.77     270      -25.9
   06/11/2017 01:00      61.4      61.2       72     52.3      0.00     18.28      76.0     0.36      1011.0     3       109         4        92        8.77     270      -24.7
   06/11/2017 00:50      61.5      61.3       73     52.5      0.00     18.28      76.7     0.36      1011.0     2       105         3       129        8.77     270      -20.9
   06/11/2017 00:40      61.6      61.4       73     52.8      0.00     18.28      76.6     0.36      1011.0     2       130         3        98        8.77     270      -17.9
   06/11/2017 00:30      61.5      61.2       73     52.8      0.00     18.28      76.5     0.36      1011.0     2       151         4       151        8.77     270      -17.6
   06/11/2017 00:20      61.4      61.1       74     52.9      0.00     18.28      76.1     0.36      1011.0     3       148         4       147        8.77     270      -16.6
   06/11/2017 00:10      61.5      61.2       74     52.8      0.00     18.28      76.5     0.36      1011.0     4       150         5       126        8.77     270      -16.2
   06/11/2017 00:00      61.4      61.1       73     52.6      0.00     18.28      76.5     0.36      1011.0     3       137         5       166        8.77     270      -16.2
   06/10/2017 23:50      61.2      61.0       73     52.5      0.00     18.28      76.6     0.36      1011.0     4       155         5       171        8.77     270      -17.0
   06/10/2017 23:40      61.5      61.3       73     52.6      0.00     18.28      76.4     0.36      1011.0     3       146         5       148        8.77     270      -17.7
   06/10/2017 23:30      61.5      61.3       73     52.6      0.00     18.28      76.4     0.36      1011.0     3       141         4       138        8.77     270      -18.8
   06/10/2017 23:20      61.4      61.1       73     52.7      0.00     18.28      76.8     0.36      1011.0     1       171         2       167        8.77     270      -20.4
   06/10/2017 23:10      61.3      60.8       74     52.6      0.00     18.28      76.5     0.36      1011.0     2       162         3       175        8.77     270      -21.3
   06/10/2017 23:00      60.9      60.3       75     52.6      0.00     18.28      76.5     0.36      1011.0     2       188         2       188        8.77     270      -19.0
   06/10/2017 22:50      60.5      59.9       76     52.5      0.00     18.28      76.0     0.36      1011.0     2       169         2       155        8.77     270      -27.7
   06/10/2017 22:40      60.6      59.9       75     52.2      0.00     18.28      76.4     0.36      1011.0     2       160         2       151        8.77     269      -44.1
   06/10/2017 22:30      61.0      60.6       74     52.3      0.00     18.28      76.4     0.36      1011.0     1       125         2       130        8.77     269      -63.5
   06/10/2017 22:20      61.3      61.0       73     52.5      0.00     18.28      76.2     0.36      1011.0     2       144         3       154        8.77     269      -67.5
   06/10/2017 22:10      61.4      61.0       73     52.4      0.00     18.28      76.8     0.36      1011.0     3       167         4       201        8.77     269      -67.4
   06/10/2017 22:00      61.6      61.4       72     52.4      0.00     18.28      76.5     0.36      1011.0     2       181         2       180        8.77     269      -67.6
   06/10/2017 21:50      61.9      61.5       72     52.6      0.00     18.28      76.4     0.36      1011.0     2       218         3       221        8.77     269      -68.2
   06/10/2017 21:40      62.0      61.8       72     52.6      0.00     18.28      76.5     0.36      1011.0     2       222         3       275        8.77     269      -69.5
   06/10/2017 21:30      62.3      62.0       71     52.8      0.00     18.28      76.8     0.36      1011.0     2       228         4       261        8.77     269      -69.4
   06/10/2017 21:20      62.4      62.3       71     52.9      0.00     18.28      76.6     0.36      1011.0     2       222         4       237        8.77     269      -68.5
   06/10/2017 21:10      62.9      62.4       70     52.9      0.00     18.28      76.3     0.36      1011.0     2       207         3       232        8.77     269      -68.7
   06/10/2017 21:00      63.4      62.9       70     53.2      0.00     18.28      76.1     0.36      1011.0     2       210         3       245        8.77     269      -68.8
   06/10/2017 20:50      63.8      63.4       69     53.3      0.00     18.28      76.5     0.36      1011.0     3       206         4       201        8.77     269      -66.3
   06/10/2017 20:40      64.2      63.7       68     53.3      0.00     18.28      76.3     0.36      1010.0     2       200         4       254        8.77     269      -67.1
   06/10/2017 20:30      64.8      64.2       67     53.4      0.00     18.28      76.7     0.36      1010.0     2       221         4       236        8.77     269      -68.5
   06/10/2017 20:20      65.3      65.0       66     53.4      0.00     18.28      76.4     0.36      1010.0     3       228         4       232        8.77     269      -62.6
   06/10/2017 20:10      65.9      65.4       65     53.5      0.00     18.28      76.4     0.36      1010.0     3       242         4       257        8.77     269      -61.3
   06/10/2017 20:00      66.3      65.8       64     53.7      0.00     18.28      76.6     0.36      1010.0     3       300         5       313        8.77     269      -63.9
   06/10/2017 19:50      67.1      66.4       63     53.6      0.00     18.28      76.5     0.36      1010.0     4       273         6       276        8.77     269      -53.0
   06/10/2017 19:40      68.2      67.2       61     53.8      0.00     18.28      76.4     0.36      1010.0     3       294         6       315        8.77     269      -34.0
   06/10/2017 19:30      69.2      68.2       59     53.6      0.00     18.28      76.3     0.36      1010.0     3       266         5       291        8.77     269       -3.2
   06/10/2017 19:20      69.2      68.3       59     53.9      0.00     18.28      76.3     0.36      1010.0     3       279         6       274        8.77     269       22.9
   06/10/2017 19:10      68.7      68.3       60     53.9      0.00     18.28      76.6     0.36      1010.0     3       292         5       312        8.77     269       19.9
   06/10/2017 19:00      68.8      68.4       59     53.9      0.00     18.28      76.1     0.36      1010.0     3       296         5       262        8.77     269       16.6
   06/10/2017 18:50      68.9      68.6       60     54.1      0.00     18.28      76.1     0.36      1010.0     2       283         4       321        8.77     269       20.1
   06/10/2017 18:40      68.7      68.2       60     54.1      0.00     18.28      76.4     0.36      1010.0     3       294         5       342        8.77     269       19.8
   06/10/2017 18:30      68.7      68.2       60     54.0      0.00     18.28      76.4     0.36      1010.0     3       281         5       295        8.77     269       25.4
   06/10/2017 18:20      69.2      68.7       59     54.2      0.00     18.28      76.5     0.36      1010.0     3       302         5       328        8.77     269       27.3
   06/10/2017 18:10      68.8      68.3       60     54.2      0.00     18.28      76.3     0.36      1010.0     4       300         6       304        8.77     269       49.4
   06/10/2017 18:00      68.8      68.5       60     54.2      0.00     18.28      76.0     0.36      1010.0     4       302         5       307        8.77     269       44.1
   06/10/2017 17:50      68.9      68.5       60     54.3      0.00     18.28      76.1     0.36      1010.0     3       279         5       277        8.77     269       18.9
   06/10/2017 17:40      69.9      69.0       59     54.2      0.00     18.28      76.3     0.36      1011.0     4       263         6       306        8.77     268       51.9
   06/10/2017 17:30      69.9      69.4       58     54.4      0.00     18.28      76.3     0.36      1011.0     4       288         7       282        8.77     269       71.9
   06/10/2017 17:20      70.0      69.2       59     54.3      0.00     18.28      76.2     0.36      1010.0     5       267         7       289        8.77     268      160.2
   06/10/2017 17:10      69.4      68.8       59     54.3      0.00     18.28      76.3     0.36      1010.0     5       250         7       258        8.77     268      163.5
   06/10/2017 17:00      71.4      69.3       57     54.3      0.00     18.28      76.2     0.36      1010.0     6       260         8       249        8.77     268       85.3
   06/10/2017 16:50      72.1      71.5       52     53.6      0.00     18.28      76.2     0.36      1010.0     4       304         7       299        8.77     268      184.4
   06/10/2017 16:40      71.7      70.3       52     52.5      0.00     18.28      76.2     0.36      1011.0     2       274         3       311        8.77     268      107.3
   06/10/2017 16:30      71.0      70.3       53     52.5      0.00     18.28      76.0     0.36      1011.0     3       176         6       149        8.77     268       64.8
   06/10/2017 16:20      71.1      70.6       53     53.0      0.00     18.28      76.2     0.36      1011.0     4       124         7       140        8.77     268      116.2
   06/10/2017 16:10      71.0      70.1       54     52.8      0.00     18.28      76.3     0.36      1011.0     3       149         6       119        8.77     268      124.9
   06/10/2017 16:00      72.0      71.0       53     53.2      0.00     18.28      76.0     0.36      1011.0     4       144         8       150        8.77     268      137.7
   06/10/2017 15:50      72.6      71.4       52     53.5      0.00     18.28      76.1     0.36      1011.0     6       130         7        84        8.77     268      503.7
   06/10/2017 15:40      71.9      71.3       53     53.6      0.00     18.28      75.9     0.36      1011.0     5       144         7        71        8.77     268      511.8
   06/10/2017 15:30      71.7      70.6       54     53.7      0.00     18.28      76.2     0.36      1011.0     6       142         9       152        8.77     268      443.6
   06/10/2017 15:20      72.1      70.3       54     53.5      0.00     18.28      76.2     0.36      1011.0     6       130         9       122        8.78     268      219.1
   06/10/2017 15:10      72.6      70.8       53     53.5      0.00     18.28      75.9     0.36      1011.0     5        88        11        91        8.78     269      479.7
   06/10/2017 15:00      72.0      70.4       55     54.0      0.00     18.28      75.8     0.36      1011.0     5       120         7        64        8.78     268      328.4
   06/10/2017 14:50      73.0      71.6       52     53.8      0.00     18.28      75.8     0.36      1011.0     5        94         9       138        8.78     268      380.6
   06/10/2017 14:40      72.8      70.9       51     52.8      0.00     18.28      76.1     0.35      1011.0     3        98         9       114        8.78     269      499.2
   06/10/2017 14:30      71.8      70.8       52     52.8      0.00     18.28      76.0     0.35      1011.0     5       106         7       119        8.78     269      488.8
   06/10/2017 14:20      70.8      70.2       53     52.7      0.00     18.28      75.7     0.36      1011.0     5       103         7       123        8.78     269      439.4
   06/10/2017 14:10      70.7      69.8       54     52.8      0.00     18.28      75.9     0.36      1011.0     5       114         9        97        8.78     269      285.4
   06/10/2017 14:00      70.8      70.3       54     53.1      0.00     18.28      76.1     0.36      1012.0     5        97         7        85        8.78     269      354.9
   06/10/2017 13:50      70.4      68.6       56     52.9      0.00     18.28      75.6     0.36      1012.0     3       119         7       133        8.78     270      471.2
   06/10/2017 13:40      69.8      69.1       57     53.7      0.00     18.28      75.8     0.36      1012.0     4        86         8       103        8.78     269      258.9
   06/10/2017 13:30      69.3      68.1       60     54.1      0.00     18.28      76.0     0.36      1012.0     4       132         5       143        8.78     270      268.4
   06/10/2017 13:20      68.6      68.0       60     53.9      0.00     18.28      75.6     0.36      1012.0     5       149         6       120        8.78     270      141.8
   06/10/2017 13:10      68.3      67.8       60     53.5      0.00     18.28      75.9     0.36      1012.0     4        81         6        66        8.78     269      137.5
   06/10/2017 13:00      68.5      68.1       60     53.7      0.00     18.28      75.9     0.36      1012.0     5        76         6       105        8.78     269      122.3
   06/10/2017 12:50      68.9      68.3       58     53.0      0.00     18.28      76.1     0.36      1012.0     3       141         4       145        8.78     269      164.6
   06/10/2017 12:40      69.3      67.9       57     52.9      0.00     18.28      75.8     0.36      1012.0     3        74         6        59        8.78     269      239.9
   06/10/2017 12:30      68.3      67.6       58     52.9      0.00     18.28      75.7     0.36      1012.0     6        86         9        66        8.78     269      233.2
   06/10/2017 12:20      68.7      67.8       58     52.9      0.00     18.28      76.2     0.36      1012.0     5        87         8        94        8.79     269      224.5
   06/10/2017 12:10      69.1      68.3       58     53.5      0.00     18.28      76.0     0.36      1012.0     4       113         7       126        8.79     269      192.5
   06/10/2017 12:00      69.5      68.9       57     53.5      0.00     18.28      75.8     0.36      1012.0     5       121         7        99        8.79     270      373.9
   06/10/2017 11:50      69.2      68.2       57     52.9      0.00     18.28      75.9     0.36      1012.0     5       111         8       142        8.79     270      398.8
   06/10/2017 11:40      68.7      68.3       57     52.8      0.00     18.28      76.0     0.36      1012.0     4       116         7       129        8.79     270      267.3
   06/10/2017 11:30      68.3      66.9       59     52.6      0.00     18.28      76.2     0.36      1012.0     5       145         8       139        8.79     270      648.8
   06/10/2017 11:20      66.8      66.0       62     53.1      0.00     18.28      76.0     0.36      1012.0     4       130         8       147        8.79     271      286.2
   06/10/2017 11:10      66.8      66.0       63     53.3      0.00     18.28      76.1     0.36      1012.0     5        94         7        86        8.79     271      228.5
   06/10/2017 11:00      66.9      65.9       62     53.0      0.00     18.28      75.7     0.36      1012.0     5        95         8        73        8.79     271      285.2
   06/10/2017 10:50      65.9      65.7       62     52.6      0.00     18.28      75.9     0.36      1012.0     4       103         7        85        8.79     271      152.2
   06/10/2017 10:40      66.3      65.8       63     53.2      0.00     18.28      76.0     0.36      1012.0     4        81         7        95        8.79     270      150.2
   06/10/2017 10:30      65.9      65.1       64     53.1      0.00     18.28      76.0     0.36      1012.0     3        83         5        75        8.79     271      189.3
   06/10/2017 10:20      65.5      64.2       66     53.2      0.00     18.28      75.7     0.36      1012.0     3       114         5       113        8.79     271      194.3
   06/10/2017 10:10      64.5      64.2       67     53.2      0.00     18.28      75.8     0.36      1012.0     3       109         5       120        8.79     271       64.7
   06/10/2017 10:00      65.2      64.8       66     53.3      0.00     18.28      76.5     0.36      1012.0     3        80         5       130        8.79     271       57.8
   06/10/2017 09:50      65.3      64.8       65     53.3      0.00     18.28      76.2     0.36      1012.0     3        73         4        74        8.79     271      133.6
   06/10/2017 09:40      65.3      64.2       67     53.4      0.00     18.28      76.2     0.36      1012.0     2        45         4        31        8.79     271      129.4
   06/10/2017 09:30      64.5      63.9       68     53.4      0.00     18.28      76.1     0.36      1012.0     3       112         5       124        8.79     271      141.0
   06/10/2017 09:20      64.9      64.3       67     53.6      0.00     18.28      76.4     0.36      1012.0     2        84         3        71        8.79     271      119.0
   06/10/2017 09:10      64.3      63.2       69     53.5      0.00     18.28      76.0     0.36      1012.0     3       115         4       111        8.79     271      131.4
   06/10/2017 09:00      63.3      62.9       71     53.5      0.00     18.28      76.5     0.36      1012.0     3       122         5       142        8.79     271      107.6
   06/10/2017 08:50      63.2      62.7       71     53.5      0.00     18.28      76.2     0.36      1012.0     4       122         6       131        8.79     271       94.6
   06/10/2017 08:40      63.0      62.4       71     53.4      0.00     18.28      76.2     0.36      1012.0     4       112         6        72        8.80     271      119.6
   06/10/2017 08:30      63.2      62.8       71     53.5      0.00     18.28      76.6     0.36      1012.0     3       123         5       118        8.79     271      133.9
   06/10/2017 08:20      62.7      62.3       73     53.5      0.00     18.28      76.3     0.36      1012.0     3        79         6        85        8.80     271      108.0
   06/10/2017 08:10      62.5      61.8       74     53.8      0.00     18.28      75.9     0.36      1012.0     3        65         5        66        8.80     271      107.8
   06/10/2017 08:00      62.0      61.3       75     53.8      0.00     18.28      76.5     0.36      1012.0     4        99         8        80        8.80     271       94.0
   06/10/2017 07:50      61.5      61.0       77     54.0      0.00     18.28      76.4     0.36      1012.0     3        89         5       117        8.80     271       73.1
   06/10/2017 07:40      61.5      61.0       77     54.0      0.00     18.28      76.0     0.36      1012.0     4       106         6       129        8.80     271       44.2
   06/10/2017 07:30      61.6      61.4       77     54.1      0.00     18.28      76.0     0.36      1012.0     3        92         5       129        8.80     271       46.6
   06/10/2017 07:20      61.4      60.9       77     54.0      0.00     18.28      76.2     0.36      1011.0     3        97         5        78        8.80     271       47.0
   06/10/2017 07:10      61.1      60.5       78     54.0      0.00     18.28      76.3     0.36      1011.0     2       101         4       134        8.80     272       45.6
   06/10/2017 07:00      60.6      60.3       79     54.0      0.00     18.28      76.2     0.36      1011.0     3        93         4        94        8.80     271       27.2
   06/10/2017 06:50      60.4      60.0       81     54.1      0.00     18.28      76.4     0.36      1011.0     2       117         4        71        8.80     271       19.3
   06/10/2017 06:40      60.1      59.9       81     54.1      0.00     18.28      76.6     0.36      1011.0     2       162         3       181        8.80     271        9.3
   06/10/2017 06:30      60.2      59.6       81     54.1      0.00     18.28      76.7     0.36      1011.0     1       115         2       179        8.80     272        2.0
   06/10/2017 06:20      59.8      59.5       82     54.0      0.00     18.28      76.6     0.36      1011.0     2       145         4       151        8.80     272       -3.4
   06/10/2017 06:10      59.8      59.5       82     54.0      0.00     18.28      76.8     0.36      1011.0     2       145         3       157        8.80     272       -8.1
   06/10/2017 06:00      59.6      59.4       82     54.0      0.00     18.28      76.5     0.36      1011.0     3        95         4       121        8.80     272      -12.0
   06/10/2017 05:50      59.6      59.4       82     54.1      0.00     18.28      76.7     0.36      1011.0     3        90         4       106        8.80     271      -15.2
   06/10/2017 05:40      59.8      59.6       82     54.1      0.00     18.28      76.8     0.36      1011.0     3       108         5       108        8.80     272      -17.4
   06/10/2017 05:30      60.0      59.9       81     54.2      0.00     18.28      76.7     0.36      1011.0     2        96         3       131        8.80     271      -19.7
   06/10/2017 05:20      60.1      60.0       81     54.4      0.00     18.28      76.8     0.36      1011.0     3       124         5       140        8.80     271      -16.9
   06/10/2017 05:10      60.5      60.1       81     54.5      0.00     18.28      76.9     0.36      1011.0     4       137         5       139        8.80     272      -14.8
   06/10/2017 05:00      60.5      60.2       81     54.6      0.00     18.28      76.7     0.36      1011.0     3       122         5       114        8.80     272      -13.2
   06/10/2017 04:50      60.6      60.4       81     54.7      0.00     18.28      76.9     0.36      1011.0     3       139         4       131        8.80     272      -12.9
   06/10/2017 04:40      60.6      60.5       82     54.9      0.00     18.28      77.2     0.36      1011.0     2       142         3       164        8.80     272      -12.9
   06/10/2017 04:30      60.8      60.5       82     55.2      0.00     18.28      76.7     0.36      1011.0     2       145         3       162        8.80     272      -13.1
   06/10/2017 04:20      60.8      60.4       83     55.3      0.00     18.28      77.2     0.36      1011.0     1        76         2        98        8.80     272      -13.4
   06/10/2017 04:10      60.6      60.3       84     55.4      0.00     18.28      76.8     0.36      1011.0     1        59         2        68        8.80     272      -20.1
   06/10/2017 04:00      60.5      60.1       84     55.6      0.00     18.28      76.9     0.36      1011.0     1        89         1        70        8.80     272      -22.2
   06/10/2017 03:50      60.3      59.9       85     55.6      0.00     18.28      76.5     0.36      1011.0     1        81         2       131        8.80     272      -21.5
   06/10/2017 03:40      60.0      59.7       86     55.8      0.00     18.28      77.1     0.36      1011.0     2        92         3       116        8.80     271      -23.5
   06/10/2017 03:30      59.9      59.4       87     55.8      0.00     18.28      77.2     0.36      1011.0     2        81         4       105        8.80     271      -22.4
   06/10/2017 03:20      59.5      59.2       88     55.8      0.00     18.28      76.3     0.36      1011.0     2        75         4        95        8.80     271      -15.1
   06/10/2017 03:10      59.3      59.0       88     55.7      0.00     18.28      77.5     0.36      1011.0     3        93         5        87        8.80     271      -11.5
   06/10/2017 03:00      59.4      59.1       89     56.0      0.00     18.28      77.0     0.36      1011.0     3        65         4        66        8.80     271      -10.9
   06/10/2017 02:50      59.5      59.1       89     56.2      0.00     18.28      77.3     0.36      1012.0     4        91         6        97        8.80     271      -10.3
   06/10/2017 02:40      59.5      59.3       89     56.2      0.00     18.28      77.1     0.36      1012.0     2        96         4       138        8.80     271      -11.1
   06/10/2017 02:30      59.5      59.0       89     56.2      0.00     18.28      77.3     0.36      1012.0     2        87         4        75        8.80     272      -10.7
   06/10/2017 02:20      59.2      58.9       89     55.9      0.00     18.28      77.5     0.36      1012.0     2        92         3       122        8.80     272      -10.5
   06/10/2017 02:10      59.4      59.3       89     56.0      0.00     18.28      77.4     0.36      1012.0     3        37         6        79        8.80     272      -10.0
   06/10/2017 02:00      59.6      59.3       89     56.2      0.00     18.28      77.2     0.36      1012.0     2        56         4        79        8.81     272       -7.1
   06/10/2017 01:50      59.4      58.6       90     56.0      0.00     18.28      77.4     0.36      1012.0     2        61         3        23        8.81     271       -5.1
   06/10/2017 01:40      58.6      57.3       89     54.7      0.00     18.28      77.1     0.36      1012.0     2        64         3        84        8.81     271       -9.3
   06/10/2017 01:30      57.4      57.1       88     53.6      0.00     18.28      77.3     0.36      1012.0     1        54         2        16        8.81     271      -43.4
   06/10/2017 01:20      57.6      57.3       87     53.7      0.00     18.28      77.3     0.36      1012.0     0       109         0        16        8.81     271      -49.1
   06/10/2017 01:10      57.7      57.4       86     53.4      0.00     18.28      77.5     0.36      1012.0     1       159         1       159        8.81     270      -54.1
   06/10/2017 01:00      58.0      57.4       85     53.2      0.00     18.28      77.6     0.36      1012.0     1       182         2       194        8.81     270      -57.7
   06/10/2017 00:50      58.1      57.9       86     53.7      0.00     18.28      77.1     0.36      1012.0     1       188         1       164        8.81     270      -56.5
   06/10/2017 00:40      58.3      57.9       85     53.7      0.00     18.28      77.7     0.36      1012.0     0       170         1       165        8.81     270      -60.0
   06/10/2017 00:30      58.6      58.3       85     53.9      0.00     18.28      77.3     0.36      1012.0     0        94         1        71        8.81     270      -61.0
   06/10/2017 00:20      58.9      58.4       84     53.8      0.00     18.28      77.5     0.36      1012.0     1        92         2        84        8.81     270      -64.6
   06/10/2017 00:10      59.4      58.8       83     53.9      0.00     18.28      77.7     0.36      1012.0     1       120         2        76        8.81     270      -66.0
   06/10/2017 00:00      59.9      59.5       82     54.2      0.00     18.28      77.7     0.36      1012.0     1       158         2       166        8.81     270      -69.1
   06/09/2017 23:50      60.0      59.9       82     54.4      0.00     18.28      77.7     0.36      1012.0     3       157         4       166        8.81     270      -70.8
   06/09/2017 23:40      60.0      60.0       82     54.3      0.00     18.28      77.7     0.36      1012.0     3       171         4       178        8.81     270      -70.5
   06/09/2017 23:30      60.3      60.0       81     54.4      0.00     18.28      77.9     0.36      1012.0     2       163         3       158        8.81     270      -71.0
   06/09/2017 23:20      60.6      60.4       81     54.5      0.00     18.28      77.8     0.36      1012.0     2       174         3       190        8.81     270      -72.4
   06/09/2017 23:10      61.2      60.7       80     54.6      0.00     18.28      77.8     0.36      1013.0     3       210         4       219        8.81     270      -73.1
   06/09/2017 23:00      61.9      61.4       77     54.5      0.00     18.28      77.5     0.36      1013.0     4       240         6       232        8.81     269      -73.3
   06/09/2017 22:50      62.3      62.0       76     54.7      0.00     18.28      77.8     0.36      1013.0     4       248         6       250        8.82     270      -73.2
   06/09/2017 22:40      62.3      62.1       76     54.8      0.00     18.28      77.7     0.36      1013.0     4       232         5       249        8.82     269      -73.2
   06/09/2017 22:30      62.3      62.2       76     54.8      0.00     18.28      77.7     0.36      1013.0     3       233         5       242        8.82     269      -73.3
   06/09/2017 22:20      62.9      62.4       75     54.6      0.00     18.28      77.9     0.36      1013.0     3       207         5       194        8.82     269      -73.5
   06/09/2017 22:10      63.0      62.9       74     54.6      0.00     18.28      77.5     0.36      1013.0     5       228         6       241        8.82     269      -73.4
   06/09/2017 22:00      63.1      62.9       74     54.4      0.00     18.28      77.5     0.36      1013.0     4       227         7       236        8.82     269      -73.7
   06/09/2017 21:50      63.9      63.3       72     54.3      0.00     18.28      77.7     0.36      1013.0     4       219         5       221        8.82     269      -73.8
   06/09/2017 21:40      64.4      63.8       70     54.3      0.00     18.28      77.7     0.36      1012.0     5       235         8       242        8.82     269      -73.7
   06/09/2017 21:30      64.9      64.4       68     54.0      0.00     18.28      77.7     0.36      1012.0     5       236         7       219        8.82     269      -73.6
   06/09/2017 21:20      65.1      64.8       66     53.5      0.00     18.28      77.8     0.36      1012.0     6       256         8       259        8.83     269      -73.1
   06/09/2017 21:10      65.3      65.1       65     53.4      0.00     18.28      77.6     0.36      1012.0     5       236         8       232        8.83     269      -73.1
   06/09/2017 21:00      65.5      65.3       65     53.5      0.00     18.28      77.7     0.36      1012.0     3       226         5       229        8.83     269      -73.6
   06/09/2017 20:50      65.8      65.4       66     53.8      0.00     18.28      77.8     0.36      1012.0     3       243         4       256        8.83     269      -73.9
   06/09/2017 20:40      65.9      65.7       66     54.1      0.00     18.28      77.7     0.36      1012.0     4       250         6       258        8.83     269      -74.0
   06/09/2017 20:30      66.4      65.8       65     54.0      0.00     18.28      77.7     0.36      1012.0     4       241         6       276        8.83     269      -74.6
   06/09/2017 20:20      66.7      66.3       64     54.1      0.00     18.28      77.8     0.36      1012.0     4       275         5       290        8.84     269      -74.5
   06/09/2017 20:10      66.8      66.7       64     54.2      0.00     18.28      77.6     0.36      1012.0     4       278         7       292        8.84     268      -73.2
   06/09/2017 20:00      67.0      66.6       64     54.3      0.00     18.28      77.0     0.36      1012.0     4       261         8       248        8.84     268      -72.1
   06/09/2017 19:50      67.4      67.1       63     54.3      0.00     18.28      77.7     0.36      1012.0     4       249         8       284        8.84     268      -69.3
   06/09/2017 19:40      68.6      67.3       61     54.1      0.00     18.28      77.4     0.36      1012.0     8       245        12       231        8.84     268      -57.8
   06/09/2017 19:30      69.2      68.8       61     54.9      0.00     18.28      77.5     0.36      1012.0     5       264         8       282        8.85     268       -1.9
   06/09/2017 19:20      69.3      68.6       61     55.1      0.00     18.28      77.5     0.36      1012.0     6       246        11       267        8.85     268        0.9
   06/09/2017 19:10      69.7      69.1       60     54.9      0.00     18.28      77.5     0.36      1012.0     8       258        13       263        8.85     267        0.3
   06/09/2017 19:00      69.8      69.2       60     55.0      0.00     18.28      77.6     0.36      1012.0    10       257        13       267        8.85     268        9.7
   06/09/2017 18:50      70.7      69.9       58     55.0      0.00     18.28      77.5     0.36      1011.0     9       267        13       255        8.86     267       44.2
   06/09/2017 18:40      70.8      70.5       58     55.1      0.00     18.28      77.2     0.36      1011.0    10       262        12       250        8.86     267       68.6
   06/09/2017 18:30      71.7      70.7       57     55.4      0.00     18.28      77.2     0.36      1011.0    11       259        15       256        8.86     267       93.1
   06/09/2017 18:20      72.3      71.3       56     55.3      0.00     18.28      77.2     0.36      1011.0    11       268        17       252        8.87     267      115.7
   06/09/2017 18:10      72.4      71.7       57     55.9      0.00     18.28      77.2     0.36      1011.0     8       241        11       223        8.87     267      140.4
   06/09/2017 18:00      73.7      72.1       55     55.9      0.00     18.28      77.3     0.36      1011.0     9       245        13       251        8.87     267      163.3
   06/09/2017 17:50      74.1      73.8       53     55.5      0.00     18.28      77.1     0.36      1011.0     7       240        16       265        8.87     267      185.4
   06/09/2017 17:40      74.9      73.9       50     54.8      0.00     18.28      77.2     0.36      1011.0     8       242        11       248        8.87     267      210.5
   06/09/2017 17:30      75.6      75.0       47     54.0      0.00     18.28      77.0     0.36      1011.0     7       260        11       236        8.87     267      233.7
   06/09/2017 17:20      75.8      75.2       47     53.6      0.00     18.28      77.0     0.36      1011.0     7       259        11       246        8.87     267      259.1
   06/09/2017 17:10      76.0      75.0       46     53.6      0.00     18.28      76.8     0.36      1011.0     9       265        13       246        8.87     267      282.0
   06/09/2017 17:00      76.8      76.1       45     53.6      0.00     18.28      76.9     0.36      1011.0    10       250        16       276        8.87     267      304.5
   06/09/2017 16:50      77.3      76.2       45     53.7      0.00     18.28      76.8     0.36      1011.0     9       259        15       268        8.87     267      326.0
   06/09/2017 16:40      77.0      76.3       44     53.4      0.00     18.28      76.8     0.36      1011.0     9       262        12       248        8.87     267      348.5
   06/09/2017 16:30      77.4      76.6       43     53.0      0.00     18.28      76.6     0.36      1011.0     9       261        13       261        8.87     268      370.7
   06/09/2017 16:20      77.8      77.2       43     53.3      0.00     18.28      76.7     0.36      1011.0     9       250        13       231        8.87     268      390.8
   06/09/2017 16:10      79.1      76.9       44     54.2      0.00     18.28      76.6     0.36      1011.0     8       231        13       203        8.87     268      408.5
   06/09/2017 16:00      78.4      77.6       44     54.5      0.00     18.28      76.4     0.36      1011.0     7       249        12       271        8.87     268      426.8
   06/09/2017 15:50      78.5      77.5       45     54.8      0.00     18.28      76.3     0.36      1012.0     7       234        11       228        8.87     268      446.0
   06/09/2017 15:40      78.7      78.1       44     54.8      0.00     18.28      76.3     0.36      1012.0     9       249        12       263        8.87     268      463.2
   06/09/2017 15:30      79.2      78.0       44     54.8      0.00     18.28      76.3     0.36      1012.0     7       260        12       265        8.87     268      481.8
   06/09/2017 15:20      79.5      78.2       43     54.8      0.00     18.28      76.2     0.35      1012.0     7       249        10       237        8.87     268      496.5
   06/09/2017 15:10      79.5      79.0       43     54.8      0.00     18.28      76.0     0.35      1012.0     6       254        10       232        8.87     268      511.0
   06/09/2017 15:00      79.7      78.2       43     54.9      0.00     18.28      75.9     0.35      1012.0     8       280        11       270        8.87     268      526.5
   06/09/2017 14:50      79.5      78.6       43     54.8      0.00     18.28      75.8     0.35      1012.0     9       259        13       289        8.87     268      539.8
   06/09/2017 14:40      80.1      78.7       43     54.8      0.00     18.28      75.8     0.35      1012.0    10       247        15       252        8.87     269      553.8
   06/09/2017 14:30      80.1      79.1       43     54.9      0.00     18.28      75.8     0.35      1012.0     8       233        10       227        8.87     269      562.1
   06/09/2017 14:20      81.0      79.9       40     54.5      0.00     18.28      75.8     0.35      1012.0     7       245        13       230        8.87     269      577.1
   06/09/2017 14:10      81.0      79.8       41     54.4      0.00     18.28      76.0     0.35      1012.0     5       239        10       255        8.87     270      592.8
   06/09/2017 14:00      81.0      79.4       41     54.1      0.00     18.28      75.7     0.35      1012.0     3       145         6       127        8.87     270      547.0
   06/09/2017 13:50      81.3      79.8       40     53.9      0.00     18.28      75.6     0.35      1012.0     2       343         6        59        8.87     270      427.0
   06/09/2017 13:40      81.5      80.2       40     54.1      0.00     18.28      75.6     0.35      1012.0     4        45         4        15        8.87     270      482.3
   06/09/2017 13:30      80.5      78.8       41     53.7      0.00     18.28      75.6     0.35      1012.0     4        81         9       115        8.87     272      554.7
   06/09/2017 13:20      80.4      79.3       40     53.5      0.00     18.28      75.5     0.35      1012.0     4        46         7        73        8.87     273      595.3
   06/09/2017 13:10      80.4      79.5       40     53.8      0.00     18.28      75.3     0.35      1013.0     4        27         6         5        8.85     274      480.6
   06/09/2017 13:00      80.7      79.5       40     53.9      0.00     18.28      75.6     0.35      1013.0     5        63         8        79        8.85     276      596.5
   06/09/2017 12:50      80.3      79.2       41     54.1      0.00     18.28      75.7     0.35      1013.0     4        53         7        18        8.85     279      590.8
   06/09/2017 12:40      79.1      78.0       43     54.4      0.00     18.28      75.3     0.35      1013.0     4        32         4        32        8.85     281      596.1
   06/09/2017 12:30      78.8      77.8       43     54.1      0.00     18.28      75.3     0.35      1013.0     4        42         7        60        8.85     283      600.2
   06/09/2017 12:20      78.7      78.0       43     53.8      0.00     18.28      75.0     0.35      1013.0     4        44         8        66        8.85     288      597.0
   06/09/2017 12:10      78.5      76.5       43     53.5      0.00     18.28      74.9     0.35      1013.0     4        44         8        68        8.85     293      587.1
   06/09/2017 12:00      77.5      76.5       44     53.5      0.00     18.28      74.7     0.35      1013.0     4        99         8       115        8.85     299      586.3
   06/09/2017 11:50      77.8      75.4       44     53.5      0.00     18.28      75.4     0.35      1014.0     3        38         5       103        8.85     321      582.6
   06/09/2017 11:40      76.0      74.8       46     53.1      0.00     18.28      75.5     0.35      1014.0     3       126         5       131        8.84     365      579.5
   06/09/2017 11:30      75.9      74.5       46     53.1      0.00     18.28      75.7     0.35      1014.0     3        38         8       102        8.84     386      576.4
   06/09/2017 11:20      75.3      74.6       46     52.8      0.00     18.28      75.3     0.35      1014.0     4         7         5         0        8.84     402      571.8
   06/09/2017 11:10      75.4      73.4       47     52.8      0.00     18.28      75.8     0.35      1014.0     2       291         4       233        8.84     415      567.8
   06/09/2017 11:00      73.6      73.3       48     52.6      0.00     18.28      75.7     0.35      1014.0     3         6         4        16        7.30     439      566.1
   06/09/2017 10:50      73.6      72.6       49     52.6      0.00     18.28      75.5     0.35      1014.0     3        56         4        64        3.61     457      536.6
   06/09/2017 10:40      73.0      71.7       49     52.3      0.00     18.28      75.3     0.35      1014.0     2         3         5        43        7.59     269      508.0
   06/09/2017 10:30      72.4      71.5       50     52.3      0.00     18.28      75.7     0.35      1014.0     3        23         5         1        7.59     269      495.0
   06/09/2017 10:20      72.0      71.2       50     51.9      0.00     18.28      75.1     0.35      1014.0     3        37         4       110        7.59     269      481.8
   06/09/2017 10:10      71.3      70.8       50     51.5      0.00     18.28      75.4     0.35      1014.0     2        31         4         3        7.59     269      466.3
   06/09/2017 10:00      71.1      69.9       50     51.3      0.00     18.28      75.7     0.35      1014.0     3        59         6        57        7.59     269      451.3
   06/09/2017 09:50      69.9      69.1       52     51.0      0.00     18.28      75.6     0.35      1014.0     3        13         5        18        7.59     269      433.0
   06/09/2017 09:40      69.4      68.7       51     50.3      0.00     18.28      75.5     0.35      1014.0     2       344         5       348        7.59     269      416.1
   06/09/2017 09:30      68.8      68.1       52     50.1      0.00     18.28      75.2     0.35      1014.0     2       338         5        33        7.60     270      399.7
   06/09/2017 09:20      68.3      66.5       53     49.9      0.00     18.28      75.5     0.36      1014.0     2       126         4       241        7.60     270      383.3
   06/09/2017 09:10      66.5      65.7       55     49.5      0.00     18.28      75.3     0.36      1014.0     3       225         4       190        7.60     269      367.9
   06/09/2017 09:00      66.0      64.3       56     49.1      0.00     18.28      76.0     0.36      1014.0     2       118         3       153        7.60     270      359.9
   06/09/2017 08:50      64.2      63.1       61     49.8      0.00     18.28      75.7     0.36      1014.0     2        30         3       127        7.60     269      368.1
   06/09/2017 08:40      63.2      62.6       63     49.9      0.00     18.28      75.8     0.36      1014.0     2        39         4       359        7.60     270       42.9
   06/09/2017 08:30      62.6      61.9       64     50.0      0.00     18.28      75.7     0.36      1014.0     2        37         3       123        7.60     270      -18.1
   06/09/2017 08:20      61.7      61.3       68     50.8      0.00     18.28      75.9     0.36      1014.0     3       346         4         1        7.60     270      -22.3
   06/09/2017 08:10      61.2      60.6       69     50.7      0.00     18.28      75.8     0.36      1014.0     2       323         3         6        7.60     270      -17.7
   06/09/2017 08:00      60.9      60.3       71     51.0      0.00     18.28      75.8     0.36      1014.0     2        66         3        72        7.61     270      -18.7
   06/09/2017 07:50      60.4      59.8       72     51.2      0.00     18.28      75.7     0.36      1014.0     2        22         3        15        7.61     270       -7.4
   06/09/2017 07:40      60.0      59.7       74     51.4      0.00     18.28      75.6     0.36      1014.0     2        30         3        61        7.61     270       -1.1
   06/09/2017 07:30      59.9      59.3       75     51.7      0.00     18.28      76.1     0.36      1014.0     2        43         5       345        7.61     270        1.7
   06/09/2017 07:20      59.4      58.6       77     51.8      0.00     18.28      76.3     0.36      1014.0     1        36         3        42        7.61     270      -18.9
   06/09/2017 07:10      58.7      58.1       79     52.0      0.00     18.28      76.0     0.36      1014.0     1        25         3        60        7.61     270      -16.8
   06/09/2017 07:00      58.4      57.7       81     52.2      0.00     18.28      76.2     0.36      1014.0     1        92         3        72        7.61     270      -12.4
   06/09/2017 06:50      57.9      56.9       83     52.3      0.00     18.28      76.3     0.36      1014.0     1       131         2       134        7.61     270      -12.2
   06/09/2017 06:40      56.8      55.7       87     52.4      0.00     18.28      76.1     0.36      1014.0     2       134         3       137        7.61     270      -11.8
   06/09/2017 06:30      55.8      55.0       89     52.3      0.00     18.28      76.3     0.36      1014.0     1       167         2       145        7.61     270      -14.3
   06/09/2017 06:20      55.1      54.1       90     51.7      0.00     18.28      75.9     0.36      1014.0     2       160         2       169        7.61     270      -17.6
   06/09/2017 06:10      54.5      54.0       90     51.3      0.00     18.28      75.9     0.36      1014.0     2       163         3       167        7.61     270      -20.3
   06/09/2017 06:00      54.1      54.0       89     51.0      0.00     18.28      76.3     0.36      1014.0     2       139         2       143        7.61     270      -27.1
   06/09/2017 05:50      54.7      54.1       89     51.2      0.00     18.28      76.6     0.36      1014.0     2       187         2       190        7.61     270      -30.0
   06/09/2017 05:40      54.6      53.8       89     50.9      0.00     18.28      75.9     0.36      1014.0     2       175         3       165        7.61     270      -35.6
   06/09/2017 05:30      54.7      54.3       88     51.2      0.00     18.28      76.6     0.36      1014.0     2       153         2       159        7.61     270      -37.4
   06/09/2017 05:20      54.8      54.7       88     51.3      0.00     18.28      76.0     0.36      1014.0     0       105         1       164        7.61     270      -39.9
   06/09/2017 05:10      55.2      54.9       87     51.1      0.00     18.28      76.4     0.36      1014.0     1       123         1       159        7.61     270      -42.8
   06/09/2017 05:00      55.8      55.4       86     51.4      0.00     18.28      76.3     0.36      1014.0     0        85         1        99        7.61     270      -45.4
   06/09/2017 04:50      56.0      55.8       85     51.5      0.00     18.28      76.7     0.36      1014.0     0        63         1        80        7.61     270      -47.5
   06/09/2017 04:40      56.6      56.0       84     51.6      0.00     18.28      76.6     0.36      1013.0     1        60         1       355        7.61     270      -49.4
   06/09/2017 04:30      56.6      56.4       85     51.9      0.00     18.28      76.7     0.36      1013.0     1        24         2        13        7.61     270      -50.7
   06/09/2017 04:20      56.5      56.2       85     51.7      0.00     18.28      76.4     0.36      1013.0     1        36         2        44        7.61     270      -51.1
   06/09/2017 04:10      56.3      56.0       84     51.5      0.00     18.28      76.3     0.36      1013.0     1        56         2        55        7.61     270      -52.3
   06/09/2017 04:00      56.3      56.1       84     51.6      0.00     18.28      76.5     0.36      1013.0     1        53         2        67        7.61     270      -52.7
   06/09/2017 03:50      56.2      56.0       85     51.5      0.00     18.28      76.7     0.36      1013.0     1        43         2        43        7.61     270      -52.9
   06/09/2017 03:40      56.5      56.1       84     51.6      0.00     18.28      76.6     0.36      1014.0     1        69         1        57        7.61     270      -54.3
   06/09/2017 03:30      56.8      56.5       83     51.5      0.00     18.28      77.2     0.36      1014.0     1        53         1        57        7.61     270      -55.1
   06/09/2017 03:20      57.1      56.8       82     51.7      0.00     18.28      76.8     0.36      1014.0     1        61         1        57        7.61     270      -56.5
   06/09/2017 03:10      57.4      57.2       82     51.9      0.00     18.28      76.8     0.36      1014.0     1        37         2        34        7.61     269      -57.2
   06/09/2017 03:00      57.4      57.3       82     52.0      0.00     18.28      76.5     0.36      1014.0     2        48         3        75        7.61     270      -58.2
   06/09/2017 02:50      57.6      57.4       82     51.9      0.00     18.28      76.8     0.36      1014.0     2        81         3        71        7.61     270      -58.4
   06/09/2017 02:40      58.0      57.6       80     51.7      0.00     18.28      77.0     0.36      1014.0     2        72         2        69        7.61     269      -59.0
   06/09/2017 02:30      58.3      57.9       79     51.9      0.00     18.28      76.9     0.36      1014.0     2        56         2        61        7.61     269      -58.7
   06/09/2017 02:20      58.4      58.2       79     52.0      0.00     18.28      77.0     0.36      1014.0     1        37         2        44        7.61     269      -58.8
   06/09/2017 02:10      58.4      57.9       80     51.9      0.00     18.28      76.9     0.36      1014.0     2        42         3        39        7.61     269      -59.1
   06/09/2017 02:00      57.7      57.5       80     51.5      0.00     18.28      76.8     0.36      1014.0     2        46         3        39        7.61     269      -59.4
   06/09/2017 01:50      58.2      57.9       79     51.6      0.00     18.28      77.0     0.36      1014.0     1        54         1        57        7.61     269      -60.0
   06/09/2017 01:40      58.5      58.0       79     51.8      0.00     18.28      77.1     0.36      1013.0     1        71         2        65        7.61     269      -61.1
   06/09/2017 01:30      58.7      58.4       78     51.8      0.00     18.28      77.4     0.36      1013.0     2        92         3        66        7.61     269      -61.8
   06/09/2017 01:20      59.0      58.7       78     52.0      0.00     18.28      77.2     0.36      1013.0     2        70         3        57        7.61     269      -61.9
   06/09/2017 01:10      59.0      58.8       78     52.1      0.00     18.28      77.3     0.36      1013.0     1        72         2        40        7.61     269      -61.6
   06/09/2017 01:00      59.2      59.0       78     52.1      0.00     18.28      77.1     0.36      1013.0     2        54         3        57        7.61     269      -61.2
   06/09/2017 00:50      59.0      58.2       78     52.0      0.00     18.28      76.9     0.36      1013.0     2        47         3        41        7.61     269      -60.5
   06/09/2017 00:40      58.1      57.9       78     51.1      0.00     18.28      77.3     0.36      1013.0     1        60         2        31        7.61     268      -60.3
   06/09/2017 00:30      58.0      57.8       77     50.9      0.00     18.28      77.2     0.36      1013.0     1       101         1        71        7.61     268      -59.2
   06/09/2017 00:20      58.2      57.9       78     51.1      0.00     18.28      77.4     0.36      1013.0     1       138         2        79        7.61     268      -59.4
   06/09/2017 00:10      58.3      58.0       78     51.3      0.00     18.28      77.1     0.36      1013.0     1       151         1       141        7.61     268      -59.5
   06/09/2017 00:00      58.5      58.0       77     51.0      0.00     18.28      77.2     0.36      1013.0     1       142         1       129        7.61     268      -59.9
   06/08/2017 23:50      58.8      58.5       76     51.2      0.00     18.28      77.9     0.36      1013.0     1       137         2       140        7.61     268      -60.4
   06/08/2017 23:40      59.5      58.9       77     51.9      0.00     18.28      77.2     0.36      1014.0     2       135         2       132        7.61     268      -60.3
   06/08/2017 23:30      59.9      59.4       75     51.8      0.00     18.28      77.2     0.36      1014.0     1       123         2       135        7.61     268      -60.4
   06/08/2017 23:20      59.9      59.8       74     51.5      0.00     18.28      77.4     0.36      1014.0     1       152         1       126        7.61     268      -60.5
   06/08/2017 23:10      60.2      59.7       72     50.8      0.00     18.28      77.3     0.36      1014.0     0       192         1       170        7.62     268      -60.3
   06/08/2017 23:00      60.1      59.7       72     50.8      0.00     18.28      77.3     0.36      1014.0     0       203         1       188        7.62     268      -60.7
   06/08/2017 22:50      60.2      59.7       73     51.0      0.00     18.28      77.7     0.36      1014.0     1       156         1       156        7.62     268      -61.1
   06/08/2017 22:40      60.5      59.9       72     51.2      0.00     18.28      77.6     0.36      1014.0     1       120         1       108        7.62     268      -62.1
   06/08/2017 22:30      61.4      60.6       71     51.5      0.00     18.28      77.7     0.36      1014.0     1       141         1       126        7.61     268      -62.8
   06/08/2017 22:20      61.9      61.4       70     51.7      0.00     18.28      77.4     0.36      1014.0     1       158         2       143        7.62     268      -63.1
   06/08/2017 22:10      62.3      62.0       69     51.9      0.00     18.28      77.5     0.36      1014.0     2       172         2       170        7.62     267      -64.6
   06/08/2017 22:00      62.3      61.7       70     52.1      0.00     18.28      77.5     0.36      1014.0     2       174         2       175        7.62     268      -64.2
   06/08/2017 21:50      61.8      61.5       70     52.0      0.00     18.28      77.4     0.36      1014.0     1       142         3       162        7.62     267      -64.6
   06/08/2017 21:40      62.2      62.0       70     52.3      0.00     18.28      77.6     0.36      1014.0     1       140         1       110        7.62     267      -65.3
   06/08/2017 21:30      63.4      62.4       68     52.1      0.00     18.28      77.6     0.36      1014.0     1       149         1       164        7.62     267      -66.3
   06/08/2017 21:20      63.6      63.3       67     52.4      0.00     18.28      77.5     0.36      1014.0     1       192         2       194        7.62     267      -68.2
   06/08/2017 21:10      63.7      63.4       67     52.3      0.00     18.28      77.3     0.36      1014.0     2       195         3       206        7.62     267      -69.8
   06/08/2017 21:00      64.1      63.8       66     52.3      0.00     18.28      77.3     0.36      1014.0     2       209         3       235        7.62     267      -70.7
   06/08/2017 20:50      64.4      64.1       65     52.4      0.00     18.28      77.5     0.36      1014.0     3       222         4       212        7.62     267      -71.4
   06/08/2017 20:40      64.6      64.3       65     52.4      0.00     18.28      77.3     0.36      1013.0     4       225         6       232        7.62     267      -72.2
   06/08/2017 20:30      64.8      64.5       65     52.6      0.00     18.28      77.3     0.36      1013.0     4       231         6       230        7.62     267      -73.4
   06/08/2017 20:20      65.2      64.8       65     53.0      0.00     18.28      77.4     0.36      1013.0     2       223         4       258        7.62     267      -74.0
   06/08/2017 20:10      65.5      65.1       65     53.3      0.00     18.28      77.6     0.36      1013.0     3       232         6       196        7.62     267      -72.6
   06/08/2017 20:00      65.7      65.3       65     53.5      0.00     18.28      77.5     0.36      1013.0     5       193         6       172        7.62     267      -69.0
   06/08/2017 19:50      66.3      65.9       65     53.8      0.00     18.28      77.2     0.36      1013.0     5       221         8       221        7.62     267      -64.7
   06/08/2017 19:40      66.8      66.4       64     54.2      0.00     18.28      77.6     0.36      1013.0     5       253         7       234        7.62     267      -60.9
   06/08/2017 19:30      67.4      67.0       63     54.4      0.00     18.28      77.5     0.36      1013.0     5       260         8       271        7.62     267      -47.3
   06/08/2017 19:20      68.6      67.4       62     54.3      0.00     18.28      77.5     0.36      1013.0     5       237         7       244        7.62     266      -35.5
   06/08/2017 19:10      68.7      68.3       60     54.3      0.00     18.28      77.3     0.36      1013.0     3       259         5       223        7.63     266       -9.7
   06/08/2017 19:00      70.0      68.6       59     54.2      0.00     18.28      77.1     0.36      1013.0     6       256         7       266        7.63     266        8.1
   06/08/2017 18:50      69.9      69.1       59     54.4      0.00     18.28      77.1     0.36      1013.0     4       240         5       216        7.63     266       32.4
   06/08/2017 18:40      70.1      69.5       58     54.3      0.00     18.28      77.1     0.36      1013.0     4       248         7       275        7.63     266       57.3
   06/08/2017 18:30      69.9      68.7       59     54.3      0.00     18.28      76.9     0.36      1013.0     4       236         7       209        7.63     266       81.9
   06/08/2017 18:20      69.9      69.0       59     54.2      0.00     18.28      77.3     0.36      1013.0     6       250         9       254        7.63     266      106.8
   06/08/2017 18:10      69.7      69.0       59     54.2      0.00     18.28      77.4     0.36      1013.0     6       269         8       261        7.64     266      131.5
   06/08/2017 18:00      69.9      69.5       58     54.3      0.00     18.28      77.1     0.36      1013.0     6       265         8       267        7.64     266      156.0
   06/08/2017 17:50      70.5      70.0       57     54.2      0.00     18.28      77.2     0.36      1013.0     5       288         9       299        7.64     266      180.4
   06/08/2017 17:40      70.4      69.5       58     54.2      0.00     18.28      77.2     0.36      1013.0     7       258         9       286        7.65     266      210.2
   06/08/2017 17:30      70.8      70.0       57     54.4      0.00     18.28      77.3     0.36      1013.0     7       258        11       264        7.65     266      243.0
   06/08/2017 17:20      70.8      70.3       57     54.5      0.00     18.28      77.1     0.36      1014.0     8       267        11       268        7.66     266      276.0
   06/08/2017 17:10      70.8      70.3       57     54.5      0.00     18.28      76.9     0.36      1014.0     7       276        11       264        7.66     267      235.8
   06/08/2017 17:00      72.1      71.0       55     54.6      0.00     18.28      76.9     0.36      1014.0     7       271        10       306        7.66     266      301.9
   06/08/2017 16:50      71.3      70.7       56     54.6      0.00     18.28      76.5     0.36      1014.0     7       269        10       274        7.67     267      215.2
   06/08/2017 16:40      72.8      70.8       54     54.4      0.00     18.28      77.1     0.36      1014.0     8       259        11       257        7.67     266      181.5
   06/08/2017 16:30      73.3      72.2       52     54.5      0.00     18.28      76.9     0.36      1014.0     6       270        11       256        7.68     266      348.4
   06/08/2017 16:20      73.5      73.2       52     54.6      0.00     18.28      76.7     0.36      1014.0     7       288        11       273        7.68     267      373.5
   06/08/2017 16:10      74.4      73.3       51     54.4      0.00     18.28      76.7     0.36      1014.0     6       266        10       305        7.68     267      423.3
   06/08/2017 16:00      75.2      73.4       50     54.6      0.00     18.28      76.6     0.36      1014.0     7       289         9       297        7.68     267      432.2
   06/08/2017 15:50      75.2      74.0       50     54.8      0.00     18.28      76.6     0.36      1014.0     4       255         7       264        7.68     267      448.0
   06/08/2017 15:40      74.5      73.1       51     54.8      0.00     18.28      76.8     0.36      1014.0     4       215         6       184        7.68     267      459.6
   06/08/2017 15:30      75.0      73.6       51     55.2      0.00     18.28      76.5     0.36      1015.0     6       241        10       255        7.69     267      478.0
   06/08/2017 15:20      74.3      73.4       52     55.4      0.00     18.28      76.6     0.36      1015.0     5       259         8       185        7.69     267      491.3
   06/08/2017 15:10      74.4      73.7       52     55.5      0.00     18.28      76.7     0.36      1015.0     4       263         7       239        7.70     267      500.8
   06/08/2017 15:00      73.8      72.4       54     55.4      0.00     18.28      76.8     0.36      1015.0     5       239        10       268        7.70     267      525.8
   06/08/2017 14:50      73.8      73.2       53     55.2      0.00     18.28      76.3     0.36      1015.0     5       248         9       267        7.70     267      538.7
   06/08/2017 14:40      74.0      73.1       53     55.2      0.00     18.28      76.7     0.36      1015.0     4       238         8       239        7.70     267      549.8
   06/08/2017 14:30      73.8      72.0       54     55.2      0.00     18.28      76.7     0.36      1015.0     5       277         7       309        7.70     268      576.1
   06/08/2017 14:20      73.2      72.1       54     55.3      0.00     18.28      76.5     0.36      1015.0     3       222         5       243        7.70     267      494.5
   06/08/2017 14:10      74.1      72.0       54     55.3      0.00     18.28      76.4     0.36      1015.0     6       272         8       254        7.70     268      619.4
   06/08/2017 14:00      74.4      71.5       55     55.6      0.00     18.28      76.7     0.36      1015.0     3       291         6       254        7.70     268      665.9
   06/08/2017 13:50      71.4      70.0       58     55.3      0.00     18.28      76.7     0.36      1016.0     5       230         8       172        7.71     269      750.4
   06/08/2017 13:40      70.1      69.8       60     55.3      0.00     18.28      76.7     0.36      1016.0     4       159         8       141        7.71     269      341.0
   06/08/2017 13:30      70.0      69.5       60     55.2      0.00     18.28      76.4     0.36      1016.0     4       275         6       251        7.71     269      329.3
   06/08/2017 13:20      69.3      68.1       62     55.2      0.00     18.28      76.3     0.36      1016.0     3       218         6       184        7.71     269      475.8
   06/08/2017 13:10      68.2      67.7       64     55.4      0.00     18.28      76.8     0.36      1016.0     6       220        10       213        7.71     270      411.4
   06/08/2017 13:00      68.0      67.3       65     55.4      0.00     18.28      76.3     0.36      1016.0     6       230         9       237        7.71     270      429.8
   06/08/2017 12:50      68.3      67.1       64     55.3      0.00     18.28      76.7     0.36      1016.0     6       237         9       233        7.71     270      301.8
   06/08/2017 12:40      68.2      67.7       63     55.1      0.00     18.28      76.4     0.36      1016.0     3       276         6       242        7.71     270      284.4
   06/08/2017 12:30      68.6      67.5       64     55.3      0.00     18.28      76.0     0.36      1016.0     4       246         8       248        7.71     270      264.5
   06/08/2017 12:20      68.8      67.5       63     55.4      0.00     18.28      76.5     0.36      1016.0     4       218         8       220        7.71     270      374.7
   06/08/2017 12:10      68.3      66.4       66     55.3      0.00     18.28      76.4     0.36      1016.0     4       201         7       194        7.71     271      428.6
   06/08/2017 12:00      67.3      66.1       68     55.6      0.00     18.28      76.9     0.36      1016.0     5       208         8       222        7.71     271      380.0
   06/08/2017 11:50      66.4      66.2       69     55.7      0.00     18.28      76.9     0.36      1016.0     6       159         8       159        7.71     271      343.4
   06/08/2017 11:40      66.8      66.0       68     55.6      0.00     18.28      76.9     0.36      1016.0     6       129        10       160        7.71     271      290.9
   06/08/2017 11:30      66.3      65.3       68     55.0      0.00     18.28      76.8     0.36      1016.0     3       171         4       164        7.71     271      213.2
   06/08/2017 11:20      65.8      65.4       69     55.0      0.00     18.28      76.3     0.36      1016.0     4       208         5       156        7.71     271      155.2
   06/08/2017 11:10      65.8      65.3       69     54.9      0.00     18.28      77.0     0.36      1016.0     2       205         3       220        7.71     271      139.0
   06/08/2017 11:00      65.6      64.9       70     55.0      0.00     18.28      76.9     0.36      1016.0     3       213         5       194        7.71     271      153.3
   06/08/2017 10:50      65.6      65.1       69     55.0      0.00     18.28      76.6     0.36      1016.0     3       194         4       161        7.71     271      160.6
   06/08/2017 10:40      65.5      64.8       70     55.0      0.00     18.28      76.6     0.36      1016.0     3       152         5       160        7.71     271      163.8
   06/08/2017 10:30      65.0      64.1       72     55.1      0.00     18.28      76.9     0.36      1016.0     3       156         4       184        7.71     271      163.1
   06/08/2017 10:20      64.4      64.1       72     55.2      0.00     18.28      76.7     0.36      1016.0     3       185         6       163        7.71     271      147.9
   06/08/2017 10:10      64.4      64.0       72     55.1      0.00     18.28      76.4     0.36      1016.0     2       158         4       176        7.71     271      114.3
   06/08/2017 10:00      64.6      63.8       72     55.1      0.00     18.28      76.9     0.36      1016.0     2       235         4       212        7.71     271      130.4
   06/08/2017 09:50      63.8      63.4       73     55.0      0.00     18.28      76.9     0.36      1016.0     3       228         4       214        7.71     271      132.1
   06/08/2017 09:40      63.6      63.2       74     55.1      0.00     18.28      77.3     0.36      1016.0     3       211         4       227        7.71     271       90.0
   06/08/2017 09:30      63.4      63.1       75     55.1      0.00     18.28      76.5     0.36      1016.0     4       215         5       236        7.71     271      119.8
   06/08/2017 09:20      63.5      63.0       74     55.0      0.00     18.28      77.2     0.36      1016.0     3       214         5       190        7.71     271      127.1
   06/08/2017 09:10      63.4      62.7       75     55.0      0.00     18.28      76.7     0.36      1016.0     2       227         4       241        7.71     271      127.1
   06/08/2017 09:00      62.7      62.3       76     54.7      0.00     18.28      76.9     0.36      1016.0     2       207         3       217        7.71     272      111.9
   06/08/2017 08:50      62.6      62.3       76     54.7      0.00     18.28      77.0     0.36      1016.0     2       207         3       178        7.71     271      107.5
   06/08/2017 08:40      62.2      61.9       77     54.9      0.00     18.28      76.6     0.36      1016.0     4       269         5       258        7.71     272       80.5
   06/08/2017 08:30      62.0      61.6       79     55.3      0.00     18.28      76.7     0.36      1016.0     2       166         3       132        7.73     272       52.2
   06/08/2017 08:20      61.8      61.4       79     55.1      0.00     18.28      77.1     0.36      1016.0     1       175         1       161        7.73     272       50.2
   06/08/2017 08:10      61.6      60.9       80     55.1      0.00     18.28      77.3     0.36      1015.0     1       197         2       233        7.73     272       54.3
   06/08/2017 08:00      61.1      60.8       81     55.2      0.00     18.28      77.3     0.36      1015.0     2       156         2       136        7.73     272       45.0
   06/08/2017 07:50      60.9      60.8       82     55.2      0.00     18.28      76.9     0.36      1015.0     2       154         3       161        7.73     272       36.9
   06/08/2017 07:40      60.9      60.6       82     55.2      0.00     18.28      76.7     0.36      1015.0     1       198         3       243        7.74     272       29.1
   06/08/2017 07:30      60.6      60.3       82     55.1      0.00     18.28      76.6     0.36      1015.0     2       172         2       211        7.74     272       26.5
   06/08/2017 07:20      60.5      60.3       83     55.0      0.00     18.28      77.5     0.36      1015.0     2       177         3       221        7.74     272       15.9
   06/08/2017 07:10      60.3      60.0       83     55.0      0.00     18.28      77.3     0.36      1015.0     2       159         3       141        7.74     272       11.3
   06/08/2017 07:00      60.1      60.0       83     55.0      0.00     18.28      77.2     0.36      1015.0     2       159         2       170        7.74     272        7.7
   06/08/2017 06:50      60.3      59.8       84     55.1      0.00     18.28      77.1     0.36      1015.0     2       141         3       174        7.74     272        3.5
   06/08/2017 06:40      60.0      59.9       84     55.1      0.00     18.28      77.3     0.36      1015.0     2       159         3       155        7.74     272        1.0
   06/08/2017 06:30      60.0      59.8       85     55.2      0.00     18.28      77.4     0.36      1015.0     3       124         4       130        7.74     272       -0.3
   06/08/2017 06:20      59.9      59.7       85     55.3      0.00     18.28      77.1     0.36      1015.0     3       137         5       127        7.74     272       -4.2
   06/08/2017 06:10      59.7      59.5       86     55.4      0.00     18.28      77.4     0.36      1015.0     2       139         3       147        7.74     272       -5.3
   06/08/2017 06:00      59.7      59.4       86     55.4      0.00     18.28      77.6     0.36      1015.0     3       147         4       168        7.74     272       -6.6
   06/08/2017 05:50      59.7      59.5       86     55.5      0.00     18.28      77.6     0.36      1015.0     3       124         4       125        7.74     272       -7.4
   06/08/2017 05:40      59.7      59.4       87     55.5      0.00     18.28      77.9     0.36      1015.0     3       108         4       125        7.75     272       -8.3
   06/08/2017 05:30      59.6      59.4       87     55.6      0.00     18.28      77.1     0.36      1015.0     2       102         2       110        7.75     272       -9.4
   06/08/2017 05:20      59.7      59.4       87     55.7      0.00     18.28      77.0     0.36      1015.0     2       140         3       126        7.75     272       -9.7
   06/08/2017 05:10      59.7      59.4       88     55.9      0.00     18.28      77.8     0.36      1015.0     1       119         2       165        7.75     272      -10.1
   06/08/2017 05:00      59.5      59.3       88     55.8      0.00     18.28      77.6     0.36      1015.0     1       120         2       141        7.75     272      -10.3
   06/08/2017 04:50      59.5      59.3       88     55.7      0.00     18.28      77.7     0.36      1015.0     1       110         2        58        7.75     272      -10.3
   06/08/2017 04:40      59.5      59.2       88     55.6      0.00     18.28      77.6     0.36      1015.0     2       146         3       121        7.75     272      -10.3
   06/08/2017 04:30      59.3      59.2       87     55.4      0.00     18.28      78.0     0.36      1015.0     2       169         3       172        7.75     272      -10.5
   06/08/2017 04:20      59.5      59.2       87     55.5      0.00     18.28      78.1     0.37      1015.0     3       161         4       151        7.75     272      -11.0
   06/08/2017 04:10      59.6      59.4       87     55.6      0.00     18.28      77.7     0.37      1015.0     2       150         4       165        7.75     272      -11.1
   06/08/2017 04:00      59.5      59.4       87     55.8      0.00     18.28      77.5     0.37      1015.0     2       184         2       188        7.75     272      -10.8
   06/08/2017 03:50      59.6      59.4       88     55.9      0.00     18.28      77.7     0.37      1015.0     2       167         2       133        7.75     272      -10.7
   06/08/2017 03:40      59.7      59.4       88     56.1      0.00     18.28      77.5     0.36      1015.0     3       133         5       140        7.75     272      -10.6
   06/08/2017 03:30      59.8      59.5       89     56.4      0.00     18.28      77.5     0.36      1015.0     2       122         4       131        7.75     272      -10.6
   06/08/2017 03:20      59.6      59.4       89     56.4      0.00     18.28      78.1     0.36      1015.0     2        96         3        61        7.75     272      -11.0
   06/08/2017 03:10      59.6      59.4       90     56.5      0.00     18.28      78.2     0.36      1015.0     2       109         3       107        7.75     272      -11.0
   06/08/2017 03:00      59.9      59.6       90     56.7      0.00     18.28      77.4     0.36      1015.0     2        94         4       121        7.75     271      -10.8
   06/08/2017 02:50      59.9      59.7       90     56.8      0.00     18.28      77.5     0.36      1015.0     2       124         4       122        7.75     272      -11.1
   06/08/2017 02:40      60.1      59.9       89     56.8      0.00     18.28      78.0     0.36      1015.0     2       106         3       113        7.75     271      -11.2
   06/08/2017 02:30      60.4      60.0       89     56.9      0.00     18.28      77.7     0.36      1015.0     2       111         3        87        7.75     272      -11.6
   06/08/2017 02:20      60.5      60.1       88     56.9      0.00     18.28      77.8     0.36      1015.0     2        95         3       116        7.75     272      -11.7
   06/08/2017 02:10      60.8      60.5       88     57.0      0.00     18.28      78.2     0.37      1015.0     1       114         2       103        7.75     272      -12.0
   06/08/2017 02:00      61.0      60.9       87     57.0      0.00     18.28      78.0     0.37      1015.0     1        51         2        68        7.75     271      -12.7
   06/08/2017 01:50      61.2      60.9       86     56.8      0.00     18.28      77.6     0.37      1015.0     2        58         3        77        7.75     271      -13.6
   06/08/2017 01:40      61.2      60.9       86     56.7      0.00     18.28      78.0     0.37      1015.0     3        56         5        72        7.75     271      -14.8
   06/08/2017 01:30      61.4      61.2       85     56.8      0.00     18.28      78.2     0.37      1015.0     3        60         4        59        7.75     271      -14.9
   06/08/2017 01:20      61.5      61.3       84     56.6      0.00     18.28      78.1     0.37      1015.0     2        74         4       108        7.75     271      -15.9
   06/08/2017 01:10      61.5      61.3       84     56.6      0.00     18.28      78.0     0.37      1015.0     2        88         3        86        7.75     270      -16.6
   06/08/2017 01:00      61.6      61.3       84     56.6      0.00     18.28      78.1     0.37      1015.0     1        54         2       356        7.75     270      -15.6
   06/08/2017 00:50      61.3      61.2       84     56.4      0.00     18.28      78.3     0.37      1015.0     1        82         2        88        7.75     270      -16.1
   06/08/2017 00:40      61.2      61.0       84     56.2      0.00     18.28      78.1     0.37      1015.0     2       123         4       118        7.75     270      -15.7
   06/08/2017 00:30      61.3      61.2       83     56.1      0.00     18.28      78.1     0.37      1015.0     3       112         5       115        7.76     270      -16.1
   06/08/2017 00:20      61.5      61.2       83     56.1      0.00     18.28      78.0     0.37      1015.0     2        97         3        95        7.76     270      -16.0
   06/08/2017 00:10      61.5      61.3       82     55.9      0.00     18.28      77.9     0.37      1015.0     3       101         4       103        7.76     270      -16.2
   06/08/2017 00:00      61.3      61.2       82     55.8      0.00     18.28      78.4     0.37      1015.0     3       127         4       126        7.76     270      -16.5
   06/07/2017 23:50      61.5      61.3       82     55.8      0.00     18.28      77.8     0.37      1015.0     4       147         5       144        7.76     270      -16.9
   06/07/2017 23:40      61.7      61.4       81     55.8      0.00     18.28      78.4     0.37      1015.0     3       160         4       166        7.76     270      -17.0
   06/07/2017 23:30      62.0      61.7       81     55.8      0.00     18.28      78.4     0.37      1015.0     3       164         4       153        7.77     270      -17.0
   06/07/2017 23:20      61.8      61.4       81     55.8      0.00     18.28      78.3     0.37      1015.0     3       139         4       138        7.77     269      -17.0
   06/07/2017 23:10      62.0      61.5       81     55.7      0.00     18.28      78.3     0.37      1015.0     3       163         4       175        7.77     269      -17.4
   06/07/2017 23:00      61.8      61.4       81     55.8      0.00     18.28      78.5     0.37      1015.0     3       161         4       148        7.77     270      -17.6
   06/07/2017 22:50      61.6      61.4       81     55.7      0.00     18.28      78.4     0.37      1015.0     4       148         5       129        7.78     269      -17.7
   06/07/2017 22:40      62.0      61.6       81     55.8      0.00     18.28      78.3     0.37      1015.0     3       157         5       135        7.78     269      -17.8
   06/07/2017 22:30      62.3      62.1       80     55.9      0.00     18.28      78.0     0.37      1015.0     3       158         6       137        7.78     269      -18.2
   06/07/2017 22:20      62.3      61.9       80     55.8      0.00     18.28      77.8     0.37      1015.0     2       220         3       230        7.78     269      -18.2
   06/07/2017 22:10      62.1      61.8       80     55.8      0.00     18.28      78.6     0.37      1015.0     2       178         3       217        7.78     269      -18.3
   06/07/2017 22:00      62.0      61.5       81     55.7      0.00     18.28      78.5     0.37      1014.0     2       180         3       194        7.79     269      -18.5
   06/07/2017 21:50      61.6      61.3       81     55.5      0.00     18.28      78.0     0.37      1014.0     2       176         3       185        7.79     269      -18.7
   06/07/2017 21:40      61.7      61.3       80     55.4      0.00     18.28      78.2     0.37      1014.0     3       178         4       171        7.79     269      -18.6
   06/07/2017 21:30      61.9      61.6       80     55.5      0.00     18.28      78.2     0.37      1014.0     2       133         4       112        7.79     269      -19.7
   06/07/2017 21:20      62.0      61.5       81     55.6      0.00     18.28      78.4     0.37      1014.0     2       101         3        93        7.79     269      -23.4
   06/07/2017 21:10      61.5      61.2       82     55.7      0.00     18.28      78.4     0.37      1014.0     3       135         4       129        7.79     269      -32.9
   06/07/2017 21:00      61.4      61.2       82     55.6      0.00     18.28      78.4     0.37      1014.0     3       152         4       163        7.80     269      -43.5
   06/07/2017 20:50      61.6      61.3       81     55.5      0.00     18.28      78.1     0.37      1014.0     4       148         5       119        7.80     269      -68.0
   06/07/2017 20:40      62.2      61.7       79     55.6      0.00     18.28      78.4     0.37      1014.0     4       135         6       138        7.80     269      -76.7
   06/07/2017 20:30      62.8      62.4       78     55.5      0.00     18.28      78.1     0.37      1014.0     4       129         5       134        7.80     269      -79.0
   06/07/2017 20:20      63.4      62.8       76     55.6      0.00     18.28      78.2     0.37      1014.0     4       131         5       134        7.81     268      -80.3
   06/07/2017 20:10      64.0      63.4       74     55.5      0.00     18.28      78.4     0.37      1014.0     2       163         3       160        7.81     268      -80.1
   06/07/2017 20:00      64.9      64.2       73     55.7      0.00     18.28      78.2     0.37      1014.0     2       162         4       164        7.81     268      -78.1
   06/07/2017 19:50      65.8      65.0       71     55.8      0.00     18.28      78.3     0.37      1013.0     3       183         6       148        7.82     268      -76.2
   06/07/2017 19:40      66.1      65.9       70     55.8      0.00     18.28      78.2     0.37      1013.0     3       162         4       166        7.82     268      -73.3
   06/07/2017 19:30      66.9      66.1       69     55.9      0.00     18.28      78.1     0.37      1013.0     4       161         6       157        7.82     268      -67.8
   06/07/2017 19:20      67.7      67.1       67     56.0      0.00     18.28      78.1     0.37      1013.0     5       160         6       160        7.82     267      -41.2
   06/07/2017 19:10      68.2      67.8       66     56.1      0.00     18.28      78.0     0.37      1013.0     5       156         7       154        7.83     267      -34.4
   06/07/2017 19:00      69.3      68.3       64     56.2      0.00     18.28      78.1     0.37      1013.0     5       169         7       168        7.83     267      -27.9
   06/07/2017 18:50      70.2      69.3       63     56.4      0.00     18.28      78.0     0.37      1013.0     6       169         8       168        7.83     267       27.3
   06/07/2017 18:40      70.5      70.0       62     56.5      0.00     18.28      78.0     0.36      1013.0     5       180         7       190        7.84     267       43.5
   06/07/2017 18:30      71.3      70.5       61     56.7      0.00     18.28      78.0     0.36      1013.0     5       179         6       180        7.84     267       80.8
   06/07/2017 18:20      71.5      71.2       60     56.8      0.00     18.28      78.2     0.36      1013.0     5       182         7       179        7.85     267      103.8
   06/07/2017 18:10      72.9      71.7       58     57.0      0.00     18.28      78.0     0.36      1013.0     6       169         9       156        7.85     267      126.5
   06/07/2017 18:00      73.4      72.4       57     57.1      0.00     18.28      78.0     0.36      1012.0     6       156         7       140        7.86     267      150.3
   06/07/2017 17:50      73.6      73.3       56     57.0      0.00     18.28      78.0     0.36      1012.0     6       162         7       168        7.86     267      173.5
   06/07/2017 17:40      75.1      73.8       55     57.1      0.00     18.28      77.8     0.36      1012.0     5       166         8       199        7.87     267      197.0
   06/07/2017 17:30      75.2      74.5       54     57.2      0.00     18.28      77.8     0.36      1012.0     6       157         8       160        7.88     268      220.1
   06/07/2017 17:20      75.6      74.7       54     57.2      0.00     18.28      77.8     0.36      1012.0     6       152         8       136        7.88     268      244.0
   06/07/2017 17:10      76.1      75.3       53     57.3      0.00     18.28      78.0     0.36      1012.0     5       176         7       197        7.89     268      268.9
   06/07/2017 17:00      78.6      76.5       50     57.7      0.00     18.28      77.9     0.36      1012.0     5       192         9       142        7.90     268      288.8
   06/07/2017 16:50      79.1      78.5       49     58.1      0.00     18.28      77.8     0.36      1012.0     4       115         6        78        7.90     268      312.1
   06/07/2017 16:40      79.3      78.5       49     58.3      0.00     18.28      78.0     0.36      1012.0     4        73         9        77        7.90     268      331.5
   06/07/2017 16:30      79.3      78.5       49     58.3      0.00     18.28      77.7     0.36      1012.0     4        51         5        29        7.90     268      349.2
   06/07/2017 16:20      79.6      79.0       49     58.5      0.00     18.28      77.4     0.36      1012.0     4        59         6        73        7.91     268      369.4
   06/07/2017 16:10      79.8      78.8       49     58.5      0.00     18.28      77.6     0.36      1012.0     5        72         7        88        7.91     268      390.2
   06/07/2017 16:00      79.7      78.9       49     58.5      0.00     18.28      77.4     0.36      1012.0     3        47         5        70        7.91     268      410.8
   06/07/2017 15:50      80.7      79.6       48     58.7      0.00     18.28      77.1     0.36      1012.0     4        46         6        95        7.92     268      423.5
   06/07/2017 15:40      80.7      79.8       48     58.8      0.00     18.28      77.5     0.36      1012.0     4        38         5        70        7.92     268      440.8
   06/07/2017 15:30      81.0      79.7       48     58.7      0.00     18.28      77.3     0.36      1013.0     3        38         6         8        7.92     268      460.2
   06/07/2017 15:20      80.4      79.7       48     58.5      0.00     18.28      77.4     0.36      1013.0     4        25         7        60        7.92     268      477.5
   06/07/2017 15:10      79.8      79.3       48     58.5      0.00     18.28      77.1     0.36      1013.0     3        37         5        36        7.92     268      493.8
   06/07/2017 15:00      79.5      79.0       49     58.4      0.00     18.28      77.3     0.36      1013.0     4        43         7        34        7.92     268      506.9
   06/07/2017 14:50      79.0      77.8       50     58.2      0.00     18.28      77.5     0.36      1013.0     3        31         4        48        7.93     268      521.4
   06/07/2017 14:40      78.1      76.6       52     58.0      0.00     18.28      77.4     0.36      1013.0     4        63         7        79        7.93     268      537.2
   06/07/2017 14:30      76.6      75.4       54     58.0      0.00     18.28      77.3     0.36      1013.0     5       197         7       241        7.93     268      553.5
   06/07/2017 14:20      76.5      74.7       54     58.0      0.00     18.28      77.2     0.36      1013.0     3       162         4       118        7.93     269      566.3
   06/07/2017 14:10      74.9      74.4       55     57.5      0.00     18.28      77.4     0.36      1014.0     4       186         7       207        7.93     268      579.3
   06/07/2017 14:00      75.5      74.5       54     57.2      0.00     18.28      77.3     0.36      1014.0     4       196         6       223        7.93     269      563.2
   06/07/2017 13:50      75.4      73.1       55     56.9      0.00     18.28      77.1     0.36      1014.0     2       300         5       310        7.93     269      587.3
   06/07/2017 13:40      76.0      73.2       53     56.8      0.00     18.28      77.4     0.36      1014.0     3       139         6       137        7.93     269      588.1
   06/07/2017 13:30      75.0      73.0       55     56.4      0.00     18.28      77.3     0.36      1014.0     2       322         4       295        7.93     270      586.9
   06/07/2017 13:20      73.5      71.8       57     56.5      0.00     18.28      77.4     0.36      1014.0     3        80         5       115        7.93     270      592.5
   06/07/2017 13:10      71.7      71.1       59     56.4      0.00     18.28      76.9     0.36      1014.0     3       196         5       160        7.93     270      603.1
   06/07/2017 13:00      73.0      71.3       58     56.5      0.00     18.28      77.1     0.36      1014.0     3       136         7       136        7.93     271      607.8
   06/07/2017 12:50      72.4      69.8       60     56.2      0.00     18.28      77.6     0.36      1014.0     2        38         4        28        7.93     271      615.8
   06/07/2017 12:40      70.2      69.7       62     56.2      0.00     18.28      77.5     0.36      1015.0     4        69         6        76        7.93     271      627.0
   06/07/2017 12:30      70.0      68.8       62     56.0      0.00     18.28      77.6     0.36      1015.0     3        77         6        91        7.93     271      609.4
   06/07/2017 12:20      68.9      68.0       64     55.9      0.00     18.28      77.1     0.36      1015.0     3       135         6       114        7.93     272      631.3
   06/07/2017 12:10      68.3      66.9       66     55.8      0.00     18.28      77.3     0.36      1015.0     3       149         5       172        7.93     272      518.8
   06/07/2017 12:00      67.4      66.1       68     55.8      0.00     18.28      77.5     0.36      1015.0     3       169         4       185        7.93     272      319.9
   06/07/2017 11:50      66.2      65.9       69     55.6      0.00     18.28      77.0     0.36      1015.0     4       212         5       278        7.93     272      287.0
   06/07/2017 11:40      66.3      65.9       70     55.9      0.00     18.28      77.0     0.36      1015.0     3       166         4       162        7.96     273      294.4
   06/07/2017 11:30      66.7      65.8       68     55.4      0.00     18.28      77.5     0.36      1015.0     3       141         5       202        7.96     273      248.4
   06/07/2017 11:20      65.8      65.3       69     55.2      0.00     18.28      77.4     0.36      1015.0     3       102         4        74        7.96     273      215.6
   06/07/2017 11:10      65.6      65.3       69     54.9      0.00     18.28      77.5     0.36      1015.0     2       185         3       191        7.97     273      177.1
   06/07/2017 11:00      65.6      64.8       70     55.1      0.00     18.28      77.3     0.37      1015.0     1       293         3       357        7.97     274      155.7
   06/07/2017 10:50      64.8      63.8       72     55.0      0.00     18.28      77.6     0.37      1015.0     2        77         3        89        7.97     274      139.8
   06/07/2017 10:40      63.9      63.3       73     54.9      0.00     18.28      77.2     0.37      1015.0     2       143         3       179        7.97     274      133.9
   06/07/2017 10:30      63.4      62.9       74     54.9      0.00     18.28      77.2     0.37      1014.0     3       200         5       162        7.97     274      128.2
   06/07/2017 10:20      63.3      62.8       75     54.9      0.00     18.28      77.5     0.37      1014.0     3       118         5       138        7.97     274      116.5
   06/07/2017 10:10      63.3      62.8       75     54.9      0.00     18.28      77.7     0.37      1014.0     1       209         1       194        7.97     274      102.5
   06/07/2017 10:00      62.7      62.2       76     54.9      0.00     18.28      77.4     0.37      1014.0     1       147         2       120        7.97     274       97.3
   06/07/2017 09:50      62.4      61.9       77     54.8      0.00     18.28      77.6     0.37      1014.0     2       166         4       137        7.97     274       91.4
   06/07/2017 09:40      62.5      61.8       77     54.9      0.00     18.28      77.8     0.37      1014.0     2       177         3       206        7.97     274       94.3
   06/07/2017 09:30      61.8      61.6       78     54.9      0.00     18.28      77.5     0.37      1014.0     2       152         3       172        7.98     275       91.5
   06/07/2017 09:20      62.0      61.3       79     54.9      0.00     18.28      77.7     0.37      1014.0     3       153         4       131        7.98     275       86.0
   06/07/2017 09:10      61.5      60.9       80     55.0      0.00     18.28      77.8     0.37      1014.0     3       162         5       129        7.98     275       71.1
   06/07/2017 09:00      61.4      61.2       80     55.1      0.00     18.28      77.9     0.37      1014.0     2       155         3       179        7.99     275       70.8
   06/07/2017 08:50      61.5      61.0       81     55.2      0.00     18.28      78.1     0.37      1014.0     3       136         4       135        7.99     275       66.1
   06/07/2017 08:40      61.1      60.9       81     55.0      0.00     18.28      77.8     0.37      1014.0     3       140         4       135        7.99     275       58.9
   06/07/2017 08:30      61.3      61.1       81     55.2      0.00     18.28      77.8     0.37      1014.0     3       103         6       134        7.99     275       50.4
   06/07/2017 08:20      61.1      61.0       81     55.3      0.00     18.28      78.0     0.37      1014.0     2       100         3        56        7.99     275       45.6
   06/07/2017 08:10      61.4      61.0       81     55.3      0.00     18.28      78.0     0.37      1014.0     1       107         3        80        7.99     275       34.9
   06/07/2017 08:00      61.0      60.5       82     55.3      0.00     18.28      77.9     0.37      1014.0     2        93         4        97        7.99     275       37.2
   06/07/2017 07:50      60.8      60.4       84     55.6      0.00     18.28      78.3     0.37      1014.0     2        82         3        51        7.99     275       26.6
   06/07/2017 07:40      60.5      60.1       85     55.7      0.00     18.28      78.2     0.37      1014.0     1       122         3       113        7.99     276       27.6
   06/07/2017 07:30      60.3      59.9       85     55.7      0.00     18.28      77.9     0.37      1014.0     2       165         2       169        7.99     276       16.6
   06/07/2017 07:20      60.0      59.8       86     55.6      0.00     18.28      78.2     0.37      1013.0     2       106         2       114        7.99     276       11.7
   06/07/2017 07:10      59.9      59.8       86     55.5      0.00     18.28      78.3     0.37      1013.0     3        96         4       126        7.99     276       -0.4
   06/07/2017 07:00      60.0      59.8       85     55.5      0.00     18.28      78.3     0.37      1013.0     2       120         4       143        7.99     276        0.7
   06/07/2017 06:50      60.0      59.8       85     55.4      0.00     18.28      78.3     0.37      1013.0     3       132         5       130        7.99     276        1.1
   06/07/2017 06:40      60.0      59.5       86     55.5      0.00     18.28      78.0     0.37      1013.0     2       132         3       125        7.99     276       -3.6
   06/07/2017 06:30      60.0      59.6       86     55.5      0.00     18.28      78.2     0.37      1013.0     3       139         5       141        7.99     276       -3.3
   06/07/2017 06:20      60.0      59.8       86     55.6      0.00     18.28      78.2     0.37      1013.0     2       140         3       151        7.99     276       -7.3
   06/07/2017 06:10      59.9      59.6       85     55.5      0.00     18.28      78.1     0.37      1013.0     3       145         5       146        8.00     276       -9.3
   06/07/2017 06:00      60.0      59.6       86     55.5      0.00     18.28      78.1     0.37      1013.0     3       138         4       123        8.00     276      -11.4
   06/07/2017 05:50      59.9      59.7       86     55.6      0.00     18.28      78.8     0.37      1013.0     2       145         4       139        8.00     276      -12.4
   06/07/2017 05:40      59.9      59.6       86     55.6      0.00     18.28      78.7     0.37      1013.0     3       145         4       136        8.00     276      -13.0
   06/07/2017 05:30      59.8      59.5       86     55.6      0.00     18.28      78.6     0.37      1013.0     2       114         4       128        8.00     276      -13.2
   06/07/2017 05:20      59.9      59.6       86     55.7      0.00     18.28      78.1     0.37      1013.0     3        97         4       132        8.00     276      -13.2
   06/07/2017 05:10      60.0      59.8       86     55.7      0.00     18.28      78.6     0.37      1013.0     3       109         5       140        8.01     276      -13.4
   06/07/2017 05:00      60.2      60.0       86     55.7      0.00     18.28      78.8     0.37      1013.0     3        89         4        63        8.01     276      -13.5
   06/07/2017 04:50      60.3      60.2       85     55.8      0.00     18.28      78.5     0.37      1013.0     3        88         4        95        8.01     276      -13.6
   06/07/2017 04:40      60.4      60.2       85     55.8      0.00     18.28      78.5     0.37      1013.0     2        84         3       110        8.01     276      -13.9
   06/07/2017 04:30      60.5      60.3       84     55.6      0.00     18.28      78.7     0.37      1013.0     3       107         4       124        8.02     276      -14.2
   06/07/2017 04:20      60.5      60.3       84     55.6      0.00     18.28      78.5     0.37      1013.0     3       130         4       131        8.02     276      -14.2
   06/07/2017 04:10      60.9      60.6       83     55.7      0.00     18.28      79.0     0.37      1013.0     4       128         5       125        8.02     276      -14.2
   06/07/2017 04:00      61.0      60.9       83     55.7      0.00     18.28      78.5     0.37      1013.0     2       109         4       115        8.02     276      -14.4
   06/07/2017 03:50      61.0      60.5       83     55.7      0.00     18.28      79.1     0.37      1013.0     2       128         3       138        8.02     276      -14.5
   06/07/2017 03:40      60.8      60.6       83     55.7      0.00     18.28      78.8     0.37      1013.0     3       123         5        97        8.02     276      -14.3
   06/07/2017 03:30      61.0      60.7       83     55.7      0.00     18.28      78.9     0.37      1013.0     4       112         6       122        8.03     276      -14.7
   06/07/2017 03:20      61.4      61.0       83     55.8      0.00     18.28      78.5     0.37      1013.0     3       107         5       120        8.03     276      -15.0
   06/07/2017 03:10      61.7      61.1       82     55.9      0.00     18.28      79.0     0.37      1013.0     3       110         5        73        8.03     276      -14.9
   06/07/2017 03:00      62.0      61.6       81     56.0      0.00     18.28      79.0     0.37      1013.0     2        14         3         1        8.03     276      -15.6
   06/07/2017 02:50      61.8      61.6       82     56.1      0.00     18.28      78.9     0.37      1013.0     2        51         3        97        8.03     276      -15.4
   06/07/2017 02:40      61.9      61.7       82     56.2      0.00     18.28      79.8     0.37      1013.0     2        20         3        48        8.03     276      -15.5
   06/07/2017 02:30      62.0      61.7       82     56.3      0.00     18.28      79.1     0.37      1013.0     1        54         2       131        8.03     276      -15.3
   06/07/2017 02:20      61.8      61.3       83     56.4      0.00     18.28      79.0     0.37      1013.0     2        17         3         7        8.03     276      -15.1
   06/07/2017 02:10      61.9      61.4       83     56.2      0.00     18.28      79.6     0.37      1013.0     3       112         4       135        8.03     276      -15.1
   06/07/2017 02:00      62.0      61.8       82     56.4      0.00     18.28      79.3     0.37      1013.0     2        40         3        53        8.03     276      -15.6
   06/07/2017 01:50      62.1      61.7       82     56.3      0.00     18.28      79.1     0.37      1013.0     2        41         4        80        8.03     276      -15.4
   06/07/2017 01:40      62.3      61.8       81     56.2      0.00     18.28      79.1     0.37      1013.0     3        82         5        75        8.03     276      -15.5
   06/07/2017 01:30      62.4      62.2       81     56.3      0.00     18.28      79.4     0.37      1013.0     2        91         3        92        8.03     276      -15.6
   06/07/2017 01:20      62.4      62.2       81     56.3      0.00     18.28      79.1     0.37      1013.0     2        62         4        93        8.03     276      -15.9
   06/07/2017 01:10      62.4      62.1       81     56.4      0.00     18.28      79.5     0.37      1013.0     2        91         3        86        8.03     277      -15.7
   06/07/2017 01:00      62.3      62.0       81     56.4      0.00     18.28      79.3     0.37      1013.0     2        80         3        87        8.03     276      -15.8
   06/07/2017 00:50      62.2      62.1       81     56.3      0.00     18.28      79.6     0.37      1013.0     2       148         3       136        8.03     277      -16.2
   06/07/2017 00:40      62.7      62.2       80     56.3      0.00     18.28      79.4     0.37      1013.0     3        96         4       141        8.03     276      -16.0
   06/07/2017 00:30      62.7      62.4       80     56.3      0.00     18.28      79.5     0.37      1013.0     2        81         4        80        8.03     276      -16.5
   06/07/2017 00:20      62.6      62.4       80     56.3      0.00     18.28      78.9     0.37      1013.0     1       304         2       298        8.03     277      -16.6
   06/07/2017 00:10      62.7      62.3       80     56.4      0.00     18.28      79.5     0.37      1013.0     3        12         4         6        8.03     277      -16.9
   06/07/2017 00:00      62.3      62.0       81     56.3      0.00     18.28      79.5     0.37      1013.0     2       188         3        65        8.03     277      -16.7
   06/06/2017 23:50      62.4      62.1       81     56.3      0.00     18.28      79.2     0.37      1013.0     2       179         3       159        8.03     277      -16.8
   06/06/2017 23:40      62.8      62.6       80     56.4      0.00     18.28      79.1     0.37      1013.0     1        48         4       127        8.03     277      -17.1
   06/06/2017 23:30      62.7      62.4       80     56.4      0.00     18.28      79.7     0.37      1014.0     2        29         3        26        8.03     277      -17.2
   06/06/2017 23:20      62.6      62.3       80     56.4      0.00     18.28      79.4     0.37      1014.0     2        78         3        94        8.03     277      -16.9
   06/06/2017 23:10      62.5      62.1       81     56.3      0.00     18.28      79.6     0.37      1014.0     2       110         4        76        8.03     277      -16.9
   06/06/2017 23:00      62.4      62.3       80     56.2      0.00     18.28      79.7     0.37      1014.0     2       114         3       125        8.03     277      -17.0
   06/06/2017 22:50      62.4      62.1       80     56.1      0.00     18.28      79.7     0.37      1014.0     2       121         4       125        8.03     277      -17.1
   06/06/2017 22:40      62.2      62.0       81     56.1      0.00     18.28      79.5     0.37      1014.0     3       136         5       148        8.03     277      -17.0
   06/06/2017 22:30      62.3      61.9       81     56.2      0.00     18.28      79.7     0.37      1014.0     3       136         4       145        8.03     277      -17.3
   06/06/2017 22:20      62.0      61.8       81     56.1      0.00     18.28      79.8     0.37      1014.0     4       139         5       153        8.03     277      -17.0
   06/06/2017 22:10      62.1      61.8       81     55.9      0.00     18.28      80.3     0.37      1014.0     4       131         5       136        8.03     277      -17.3
   06/06/2017 22:00      62.1      61.8       81     56.0      0.00     18.28      79.9     0.37      1013.0     2        84         3       110        8.03     277      -17.5
   06/06/2017 21:50      62.0      61.6       82     56.0      0.00     18.28      79.7     0.37      1013.0     3       108         4       129        8.03     277      -17.5
   06/06/2017 21:40      62.1      61.7       81     56.0      0.00     18.28      79.5     0.37      1013.0     3        79         5        77        8.03     277      -18.2
   06/06/2017 21:30      62.1      61.8       81     55.9      0.00     18.28      80.0     0.37      1013.0     2       109         3       157        8.03     278      -19.6
   06/06/2017 21:20      62.2      61.8       80     55.9      0.00     18.28      80.1     0.37      1013.0     3       138         6       132        8.03     278      -24.0
   06/06/2017 21:10      62.4      62.1       80     55.8      0.00     18.28      79.8     0.37      1013.0     2       117         4       127        8.03     278      -24.2
   06/06/2017 21:00      62.2      61.6       80     55.7      0.00     18.28      79.8     0.37      1013.0     2       124         3       128        8.04     278      -36.8
   06/06/2017 20:50      61.7      61.3       81     55.6      0.00     18.28      79.3     0.37      1013.0     1       161         2       174        8.04     278      -54.9
   06/06/2017 20:40      61.9      61.5       80     55.6      0.00     18.28      79.7     0.37      1013.0     3       160         4       162        8.04     278      -75.7
   06/06/2017 20:30      62.4      61.9       79     55.6      0.00     18.28      79.5     0.37      1013.0     4       137         5       129        8.04     278      -79.4
   06/06/2017 20:20      62.8      62.4       78     55.7      0.00     18.28      79.8     0.37      1013.0     4       153         5       149        8.04     278      -79.3
   06/06/2017 20:10      63.2      62.8       77     55.8      0.00     18.28      79.5     0.37      1013.0     4       129         5       134        8.04     278      -77.4
   06/06/2017 20:00      63.5      63.1       77     55.8      0.00     18.28      79.7     0.37      1013.0     4       160         6       148        8.04     278      -74.3
   06/06/2017 19:50      64.0      63.5       75     55.8      0.00     18.28      80.1     0.37      1013.0     5       161         7       158        8.04     278      -67.4
   06/06/2017 19:40      65.2      64.3       73     56.0      0.00     18.28      80.0     0.37      1013.0     4       171         6       172        8.04     278      -59.9
   06/06/2017 19:30      65.8      65.2       71     56.1      0.00     18.28      79.8     0.37      1013.0     5       157         7       155        8.04     278      -46.3
   06/06/2017 19:20      66.3      65.9       70     56.1      0.00     18.28      79.5     0.37      1012.0     5       153         6       134        8.04     279      -30.3
   06/06/2017 19:10      67.2      66.4       69     56.1      0.00     18.28      79.6     0.37      1012.0     5       172         6       159        8.04     279       -9.5
   06/06/2017 19:00      68.7      67.5       66     56.2      0.00     18.28      79.7     0.37      1012.0     6       149         7       149        8.04     280       12.6
   06/06/2017 18:50      69.4      68.7       64     56.4      0.00     18.28      79.3     0.37      1012.0     4       162         6       182        8.04     281       34.3
   06/06/2017 18:40      70.0      69.4       63     56.6      0.00     18.28      80.0     0.37      1012.0     4       159         7       152        8.04     283       57.4
   06/06/2017 18:30      71.8      70.2       61     56.9      0.00     18.28      79.8     0.37      1012.0     5       170         7       166        8.04     284       73.8
   06/06/2017 18:20      71.5      70.9       61     57.0      0.00     18.28      79.9     0.37      1012.0     3       167         5       162        8.04     287       99.5
   06/06/2017 18:10      71.7      71.2       60     57.0      0.00     18.28      79.3     0.37      1012.0     5       169         6       154        8.04     297      127.5
   06/06/2017 18:00      73.0      72.2       58     57.1      0.00     18.28      79.3     0.37      1012.0     4       186         6       183        8.05     320      153.7
   06/06/2017 17:50      73.7      72.6       57     57.1      0.00     18.28      79.9     0.37      1012.0     4       195         6       184        8.04     364      179.1
   06/06/2017 17:40      73.9      73.2       57     57.2      0.00     18.28      79.5     0.37      1012.0     3       142         5       143        8.04     424      203.0
   06/06/2017 17:30      73.6      73.1       57     57.2      0.00     18.28      79.6     0.37      1012.0     4       172         7       156        8.04     478      230.1
   06/06/2017 17:20      73.9      73.3       56     57.2      0.00     18.28      79.0     0.37      1012.0     5       164         7       190        8.05     629      259.3
   06/06/2017 17:10      74.3      73.7       56     57.3      0.00     18.28      79.4     0.36      1012.0     5       157         6       137        8.03     749      270.5
   06/06/2017 17:00      74.3      72.9       57     57.3      0.00     18.28      79.2     0.37      1012.0     5       162         7       148        8.04     266      290.7
   06/06/2017 16:50      74.4      72.9       57     57.4      0.00     18.28      79.3     0.37      1012.0     6       185         8       187        8.04     266      312.4
   06/06/2017 16:40      75.2      74.3       55     57.5      0.00     18.28      79.0     0.37      1012.0     6       173         7       170        8.05     266      329.8
   06/06/2017 16:30      75.3      74.4       55     57.6      0.00     18.28      79.0     0.37      1012.0     6       154         8       179        8.05     266      349.1
   06/06/2017 16:20      75.8      74.7       55     57.8      0.00     18.28      78.9     0.37      1012.0     6       155         8       170        8.05     266      378.1
   06/06/2017 16:10      75.2      74.8       55     57.9      0.00     18.28      78.9     0.37      1012.0     5       177         7       159        8.06     266      378.1
   06/06/2017 16:00      75.6      75.1       55     58.0      0.00     18.28      78.8     0.37      1012.0     4       166         7       179        8.06     266      401.6
   06/06/2017 15:50      77.6      74.8       54     58.0      0.00     18.28      78.8     0.37      1012.0     5       143         7       163        8.06     267      398.4
   06/06/2017 15:40      78.6      77.8       50     58.3      0.00     18.28      78.7     0.37      1012.0     4       109         7       120        8.07     266      444.0
   06/06/2017 15:30      77.9      77.3       51     58.2      0.00     18.28      78.6     0.36      1012.0     5        62         8        80        8.07     267      469.4
   06/06/2017 15:20      79.3      78.0       50     58.4      0.00     18.28      78.7     0.36      1012.0     4        62         7        81        8.08     266      432.9
   06/06/2017 15:10      79.8      79.5       48     58.5      0.00     18.28      78.6     0.36      1012.0     4        50         9        81        8.08     267      449.7
   06/06/2017 15:00      80.3      79.3       48     58.5      0.00     18.28      78.5     0.36      1012.0     4        60         7        60        8.09     266      467.2
   06/06/2017 14:50      79.8      78.6       49     58.4      0.00     18.28      78.5     0.36      1012.0     4        64         6        66        8.09     267      487.2
   06/06/2017 14:40      80.1      79.2       48     58.4      0.00     18.28      78.3     0.36      1012.0     4        67         7        87        8.09     267      511.5
   06/06/2017 14:30      81.0      79.8       47     58.5      0.00     18.28      78.3     0.36      1012.0     4        26         5         6        8.10     267      514.8
   06/06/2017 14:20      80.5      79.9       47     58.4      0.00     18.28      78.2     0.36      1012.0     4        26         7       355        8.10     267      523.9
   06/06/2017 14:10      80.3      78.6       49     58.3      0.00     18.28      78.2     0.36      1012.0     4        22         7       347        8.11     267      540.6
   06/06/2017 14:00      80.1      78.5       48     58.3      0.00     18.28      78.3     0.36      1012.0     4        44         5        71        8.11     267      569.9
   06/06/2017 13:50      79.7      78.0       49     58.2      0.00     18.28      78.3     0.36      1013.0     4         8         7         2        8.12     267      563.1
   06/06/2017 13:40      78.9      77.6       50     58.1      0.00     18.28      78.2     0.36      1013.0     3        17         4        41        8.12     266      585.5
   06/06/2017 13:30      78.4      77.3       51     58.0      0.00     18.28      78.4     0.36      1013.0     3        53         6        67        8.12     267      555.7
   06/06/2017 13:20      77.4      75.7       52     57.9      0.00     18.28      78.3     0.36      1013.0     3        25         7        30        8.13     267      563.1
   06/06/2017 13:10      76.0      75.6       53     57.6      0.00     18.28      78.4     0.36      1013.0     3        40         6        80        8.13     267      554.2
   06/06/2017 13:00      76.1      75.7       53     57.8      0.00     18.28      78.2     0.36      1013.0     4        37         6        62        8.13     267      558.3
   06/06/2017 12:50      76.4      75.3       54     58.0      0.00     18.28      78.4     0.36      1013.0     4        45         7        14        8.14     267      602.9
   06/06/2017 12:40      75.3      74.5       55     57.7      0.00     18.28      78.1     0.36      1013.0     3        34         5         1        8.14     267      601.1
   06/06/2017 12:30      74.6      74.0       56     57.7      0.00     18.28      77.9     0.36      1013.0     3        41         6       347        8.15     267      606.1
   06/06/2017 12:20      74.9      74.2       55     57.7      0.00     18.28      78.2     0.36      1013.0     4        51         6         8        8.15     267      580.9
   06/06/2017 12:10      74.3      73.3       57     57.5      0.00     18.28      78.4     0.36      1014.0     4        20         7         2        8.15     268      590.9
   06/06/2017 12:00      74.0      72.9       57     57.5      0.00     18.28      78.2     0.36      1013.0     4        40         5        25        8.15     268      587.0
   06/06/2017 11:50      74.3      73.0       57     57.4      0.00     18.28      78.2     0.36      1014.0     3        31         5        54        8.15     268      577.7
   06/06/2017 11:40      73.4      72.1       58     57.3      0.00     18.28      78.3     0.36      1013.0     3        42         5        57        8.15     268      572.4
   06/06/2017 11:30      72.1      70.9       60     57.1      0.00     18.28      78.3     0.36      1014.0     3        44         6        84        8.16     268      572.2
   06/06/2017 11:20      71.8      70.6       61     57.0      0.00     18.28      77.9     0.36      1014.0     3        30         8        63        8.16     268      551.0
   06/06/2017 11:10      71.3      70.3       62     56.8      0.00     18.28      78.4     0.36      1014.0     3        45         4        96        8.16     268      545.0
   06/06/2017 11:00      70.8      69.6       63     56.8      0.00     18.28      78.3     0.36      1014.0     3        46         4        12        8.16     268      544.4
   06/06/2017 10:50      69.6      68.2       66     57.0      0.00     18.28      78.3     0.36      1014.0     3        70         5        80        8.17     269      537.6
   06/06/2017 10:40      68.1      67.3       68     56.8      0.00     18.28      78.4     0.36      1014.0     3        88         6        74        8.17     269      564.5
   06/06/2017 10:30      67.4      66.7       69     56.7      0.00     18.28      78.3     0.37      1014.0     3        55         6       128        8.17     269      419.5
   06/06/2017 10:20      67.1      66.1       71     56.6      0.00     18.28      78.3     0.37      1014.0     3        43         4        21        8.18     269      376.6
   06/06/2017 10:10      66.3      65.6       71     56.4      0.00     18.28      78.5     0.37      1014.0     2        51         4        82        8.18     269      185.5
   06/06/2017 10:00      65.9      65.0       72     56.1      0.00     18.28      78.2     0.37      1014.0     2         3         3       354        8.18     269      206.1
   06/06/2017 09:50      65.6      65.1       72     56.1      0.00     18.28      78.2     0.37      1014.0     2         3         3        20        8.18     269      219.2
   06/06/2017 09:40      65.0      64.1       74     56.2      0.00     18.28      78.4     0.37      1014.0     3        20         5        15        8.18     269      227.6
   06/06/2017 09:30      64.1      63.7       76     56.1      0.00     18.28      78.3     0.37      1014.0     3        36         4         8        8.18     269      160.3
   06/06/2017 09:20      64.0      63.3       77     56.1      0.00     18.28      78.5     0.37      1014.0     2        57         3        98        8.19     269      108.0
   06/06/2017 09:10      63.5      63.3       77     55.9      0.00     18.28      78.1     0.37      1014.0     3        41         5        70        8.19     269      124.8
   06/06/2017 09:00      63.6      63.5       77     56.2      0.00     18.28      78.6     0.37      1014.0     2        66         3        91        8.19     269      109.1
   06/06/2017 08:50      63.7      63.2       77     56.2      0.00     18.28      78.6     0.37      1014.0     3        49         4        78        8.19     269       86.4
   06/06/2017 08:40      64.0      63.5       76     56.0      0.00     18.28      78.5     0.37      1014.0     2        42         3        38        8.19     269      106.8
   06/06/2017 08:30      63.6      63.2       76     55.8      0.00     18.28      78.7     0.37      1013.0     2        61         3        14        8.19     269      110.6
   06/06/2017 08:20      63.4      63.0       77     55.8      0.00     18.28      78.5     0.37      1013.0     2        62         4        80        8.19     269      100.6
   06/06/2017 08:10      63.0      62.4       78     55.8      0.00     18.28      78.4     0.37      1013.0     2        50         3        70        8.19     269       86.8
   06/06/2017 08:00      62.6      61.8       80     55.9      0.00     18.28      78.2     0.37      1013.0     2        85         4        92        8.19     269       74.7
   06/06/2017 07:50      62.3      61.9       80     56.0      0.00     18.28      78.3     0.37      1013.0     2       108         5        96        8.20     269       52.0
   06/06/2017 07:40      62.1      61.8       81     56.0      0.00     18.28      78.7     0.37      1013.0     2        96         4        68        8.20     269       44.4
   06/06/2017 07:30      61.8      61.3       82     56.0      0.00     18.28      78.8     0.37      1013.0     2       136         4       127        8.20     269       38.8
   06/06/2017 07:20      61.5      61.2       83     56.0      0.00     18.28      78.7     0.37      1013.0     2        98         4        76        8.20     269       29.0
   06/06/2017 07:10      61.4      61.2       83     56.1      0.00     18.28      78.7     0.37      1013.0     3       109         4        94        8.20     269       16.9
   06/06/2017 07:00      61.3      60.9       83     56.0      0.00     18.28      79.0     0.37      1013.0     2        99         3       135        8.20     269       11.4
   06/06/2017 06:50      61.0      60.7       84     55.9      0.00     18.28      78.6     0.37      1013.0     3        90         4        69        8.21     269        6.1
   06/06/2017 06:40      61.0      60.7       84     56.0      0.00     18.28      78.8     0.37      1013.0     3       128         4       129        8.21     269        0.0
   06/06/2017 06:30      61.0      60.7       85     56.2      0.00     18.28      78.7     0.37      1013.0     2       105         3       129        8.21     269       -2.8
   06/06/2017 06:20      60.9      60.6       85     56.2      0.00     18.28      79.2     0.37      1013.0     2       107         3       126        8.21     269       -6.2
   06/06/2017 06:10      60.8      60.5       85     56.2      0.00     18.28      78.6     0.37      1013.0     3       125         4       124        8.21     269       -8.9
   06/06/2017 06:00      61.1      60.9       85     56.3      0.00     18.28      79.0     0.37      1012.0     3        82         4        73        8.21     269      -11.1
   06/06/2017 05:50      61.1      60.9       85     56.3      0.00     18.28      79.0     0.37      1013.0     2        93         3        67        8.21     269      -12.8
   06/06/2017 05:40      61.1      60.9       84     56.3      0.00     18.28      78.6     0.37      1012.0     2       110         3       129        8.24     269      -13.6
   06/06/2017 05:30      61.2      61.0       84     56.3      0.00     18.28      79.3     0.37      1012.0     1        89         3        97        8.24     269      -14.2
   06/06/2017 05:20      61.0      60.9       85     56.3      0.00     18.28      79.0     0.37      1012.0     2        80         3        71        8.24     269      -14.0
   06/06/2017 05:10      61.2      60.9       84     56.3      0.00     18.28      79.3     0.37      1012.0     2       116         4        92        8.25     269      -14.1
   06/06/2017 05:00      61.1      61.0       85     56.4      0.00     18.28      79.3     0.37      1012.0     2       137         3       112        8.25     269      -14.5
   06/06/2017 04:50      61.1      60.9       85     56.4      0.00     18.28      78.9     0.37      1012.0     2       114         3       121        8.25     269      -14.5
   06/06/2017 04:40      61.3      61.2       84     56.6      0.00     18.28      79.2     0.37      1012.0     2        83         3        65        8.25     269      -14.6
   06/06/2017 04:30      61.4      61.1       85     56.6      0.00     18.28      79.3     0.37      1012.0     2        97         3       109        8.25     269      -14.5
   06/06/2017 04:20      61.3      61.0       85     56.7      0.00     18.28      79.3     0.37      1012.0     2       136         3       122        8.26     269      -14.5
   06/06/2017 04:10      61.2      60.9       85     56.7      0.00     18.28      79.2     0.37      1012.0     2        93         3       146        8.26     269      -14.6
   06/06/2017 04:00      61.2      60.7       85     56.6      0.00     18.28      79.3     0.37      1012.0     2       176         2       136        8.26     269      -14.4
   06/06/2017 03:50      61.3      61.1       85     56.8      0.00     18.28      79.4     0.37      1012.0     1       101         2        69        8.26     269      -14.7
   06/06/2017 03:40      61.3      61.1       85     56.7      0.00     18.28      79.5     0.37      1012.0     2        25         3       121        8.26     269      -14.8
   06/06/2017 03:30      61.1      60.9       86     56.6      0.00     18.28      79.1     0.37      1012.0     1       121         3       158        8.26     269      -14.7
   06/06/2017 03:20      61.2      60.9       85     56.7      0.00     18.28      79.2     0.37      1012.0     2       135         4       136        8.26     269      -15.0
   06/06/2017 03:10      61.3      61.0       85     56.7      0.00     18.28      79.5     0.37      1012.0     2       110         4        79        8.26     269      -14.9
   06/06/2017 03:00      61.2      60.8       86     56.7      0.00     18.28      79.6     0.37      1012.0     1       104         2        84        8.26     269      -15.0
   06/06/2017 02:50      61.0      60.8       86     56.7      0.00     18.28      79.2     0.37      1012.0     2       127         3        63        8.26     269      -14.9
   06/06/2017 02:40      61.0      60.8       86     56.8      0.00     18.28      79.5     0.37      1012.0     1        90         3        65        8.27     269      -14.9
   06/06/2017 02:30      61.1      60.6       87     56.8      0.00     18.28      79.8     0.37      1012.0     1       112         3        78        8.27     269      -14.9
   06/06/2017 02:20      60.7      60.3       87     56.6      0.00     18.28      79.5     0.37      1012.0     1        91         2       127        8.27     269      -15.0
   06/06/2017 02:10      60.7      60.4       87     56.5      0.00     18.28      79.5     0.37      1012.0     2       118         3       136        8.27     268      -15.1
   06/06/2017 02:00      60.7      60.4       87     56.6      0.00     18.28      79.7     0.37      1012.0     1        94         3       122        8.27     269      -15.4
   06/06/2017 01:50      60.6      60.4       86     56.4      0.00     18.28      79.3     0.37      1012.0     2       124         4       126        8.27     269      -15.1
   06/06/2017 01:40      60.6      60.3       86     56.4      0.00     18.28      79.6     0.37      1012.0     2       127         4       124        8.28     269      -15.3
   06/06/2017 01:30      60.5      60.1       87     56.4      0.00     18.28      79.4     0.37      1012.0     2       135         4       140        8.28     269      -15.4
   06/06/2017 01:20      60.6      60.3       86     56.2      0.00     18.28      79.7     0.37      1012.0     3       140         4       125        8.28     268      -15.6
   06/06/2017 01:10      60.6      60.4       86     56.2      0.00     18.28      79.9     0.37      1012.0     2       134         3       136        8.28     268      -15.5
   06/06/2017 01:00      60.6      60.3       87     56.5      0.00     18.28      79.8     0.37      1012.0     2        85         4       119        8.29     268      -15.2
   06/06/2017 00:50      60.6      60.5       87     56.7      0.00     18.28      79.9     0.37      1012.0     2        77         3       121        8.29     269      -15.1
   06/06/2017 00:40      60.9      60.5       87     56.6      0.00     18.28      79.9     0.37      1012.0     2        90         4        81        8.29     268      -14.8
   06/06/2017 00:30      61.1      60.8       86     56.7      0.00     18.28      79.9     0.37      1012.0     2        63         4        32        8.29     268      -15.3
   06/06/2017 00:20      61.0      60.6       86     56.6      0.00     18.28      79.9     0.37      1013.0     2        65         4        76        8.29     268      -14.8
   06/06/2017 00:10      60.9      60.7       86     56.7      0.00     18.28      79.4     0.37      1013.0     3        61         6        67        8.29     268      -15.4
   06/06/2017 00:00      60.9      60.6       87     56.7      0.00     18.28      80.2     0.37      1013.0     2        29         3         7        8.30     268      -20.7
   06/05/2017 23:50      60.8      60.2       87     56.5      0.00     18.28      79.8     0.37      1013.0     3        41         4        19        8.30     268      -30.1
   06/05/2017 23:40      60.6      60.4       86     56.4      0.00     18.28      80.0     0.37      1012.0     2        49         4        61        8.30     268      -65.7
   06/05/2017 23:30      60.9      60.7       85     56.4      0.00     18.28      80.1     0.37      1012.0     3        56         4        60        8.30     268      -71.3
   06/05/2017 23:20      61.5      61.1       84     56.4      0.00     18.28      79.7     0.37      1012.0     3        54         4        77        8.30     268      -73.1
   06/05/2017 23:10      61.6      61.4       83     56.4      0.00     18.28      80.2     0.37      1012.0     2        52         3       103        8.30     268      -73.9
   06/05/2017 23:00      61.7      61.5       83     56.4      0.00     18.28      80.1     0.37      1012.0     3        60         5        75        8.30     267      -74.3
   06/05/2017 22:50      62.0      61.7       82     56.4      0.00     18.28      80.3     0.37      1012.0     2        65         2        64        8.30     268      -74.6
   06/05/2017 22:40      62.3      61.8       81     56.3      0.00     18.28      80.4     0.37      1012.0     2        63         3        84        8.30     267      -76.0
   06/05/2017 22:30      62.4      62.2       81     56.2      0.00     18.28      80.0     0.37      1012.0     2        56         3        76        8.30     267      -76.9
   06/05/2017 22:20      62.6      62.3       80     56.2      0.00     18.28      80.3     0.37      1012.0     2        56         3        58        8.30     267      -77.3
   06/05/2017 22:10      63.0      62.5       79     56.3      0.00     18.28      80.1     0.37      1012.0     2        69         3        59        8.30     267      -77.7
   06/05/2017 22:00      63.3      62.9       78     56.4      0.00     18.28      80.3     0.37      1012.0     2        61         3        73        8.30     267      -78.8
   06/05/2017 21:50      63.8      63.4       78     56.4      0.00     18.28      80.2     0.37      1012.0     2        50         2        83        8.30     267      -79.6
   06/05/2017 21:40      64.4      63.9       76     56.3      0.00     18.28      80.0     0.37      1012.0     1        61         2        34        8.30     267      -80.0
   06/05/2017 21:30      64.6      64.4       75     56.4      0.00     18.28      80.0     0.37      1012.0     1        62         2        71        8.30     267      -80.3
   06/05/2017 21:20      65.3      64.7       74     56.5      0.00     18.28      80.0     0.37      1012.0     2        79         2        76        8.30     267      -81.1
   06/05/2017 21:10      65.7      65.5       73     56.7      0.00     18.28      80.1     0.37      1012.0     2        34         2        25        8.30     267      -82.4
   06/05/2017 21:00      66.6      65.7       72     56.7      0.00     18.28      80.1     0.37      1012.0     2        28         3        67        8.30     267      -83.3
   06/05/2017 20:50      67.2      66.7       70     56.8      0.00     18.28      80.1     0.37      1011.0     2        23         3        31        8.31     267      -84.2
   06/05/2017 20:40      68.2      67.4       68     56.7      0.00     18.28      80.2     0.37      1011.0     2        51         3        76        8.31     267      -84.7
   06/05/2017 20:30      68.9      68.3       66     56.8      0.00     18.28      80.0     0.37      1011.0     2        55         2       104        8.31     267      -85.4
   06/05/2017 20:20      69.5      69.1       65     57.0      0.00     18.28      79.9     0.37      1011.0     2        42         3        15        8.31     266      -86.1
   06/05/2017 20:10      70.0      69.5       64     57.0      0.00     18.28      79.9     0.37      1011.0     3        44         4        32        8.31     266      -85.6
   06/05/2017 20:00      71.0      70.3       62     57.0      0.00     18.28      80.0     0.37      1011.0     2        36         4        33        8.31     266      -83.6
   06/05/2017 19:50      71.8      71.2       61     57.2      0.00     18.28      80.0     0.37      1011.0     3        41         4        31        8.31     266      -80.3
   06/05/2017 19:40      72.8      71.9       59     57.1      0.00     18.28      79.9     0.37      1010.0     3        53         4        61        8.32     266      -77.1
   06/05/2017 19:30      74.9      73.1       56     57.3      0.00     18.28      79.8     0.37      1010.0     3        64         7        72        8.32     266      -58.6
   06/05/2017 19:20      75.8      74.9       54     57.4      0.00     18.28      79.7     0.37      1010.0     4        31         5        34        8.32     266      -43.3
   06/05/2017 19:10      76.2      75.7       53     57.5      0.00     18.28      80.0     0.37      1010.0     3        45         3        18        8.32     266      -24.4
   06/05/2017 19:00      77.1      76.2       52     57.4      0.00     18.28      79.9     0.37      1010.0     4        54         7        64        8.33     266       -2.8
   06/05/2017 18:50      77.9      77.0       50     57.6      0.00     18.28      79.7     0.37      1010.0     4        46         5        76        8.33     266       18.1
   06/05/2017 18:40      78.8      78.2       49     57.7      0.00     18.28      79.8     0.37      1010.0     4        40         6        75        8.33     266       42.0
   06/05/2017 18:30      80.1      78.7       47     57.7      0.00     18.28      79.9     0.37      1010.0     3        37         7        55        8.34     266       65.5
   06/05/2017 18:20      81.5      79.9       46     57.8      0.00     18.28      79.9     0.37      1010.0     4        32         5        42        8.34     266       86.4
   06/05/2017 18:10      81.6      81.4       44     57.7      0.00     18.28      79.8     0.37      1010.0     3        43         7        75        8.35     266      109.1
   06/05/2017 18:00      81.5      81.0       45     57.8      0.00     18.28      79.6     0.37      1009.0     2       137         5        70        8.35     266      127.8
   06/05/2017 17:50      81.5      80.8       46     58.2      0.00     18.28      79.5     0.37      1009.0     4       150         5       143        8.36     266      157.5
   06/05/2017 17:40      81.7      81.1       46     58.4      0.00     18.28      79.6     0.37      1009.0     3       175         5       159        8.36     266      185.2
   06/05/2017 17:30      82.6      81.4       45     58.6      0.00     18.28      79.6     0.37      1009.0     4       153         7       146        8.37     266      210.5
   06/05/2017 17:20      84.3      83.3       42     58.3      0.00     18.28      79.4     0.37      1009.0     3       101         6         6        8.38     266      228.2
   06/05/2017 17:10      83.8      82.6       42     57.8      0.00     18.28      79.3     0.37      1009.0     3        69         6        94        8.38     266      253.7
   06/05/2017 17:00      82.9      82.0       43     57.4      0.00     18.28      79.3     0.37      1009.0     4        37         5        28        8.39     266      275.8
   06/05/2017 16:50      84.0      83.2       41     57.7      0.00     18.28      79.3     0.37      1009.0     4        32         5        44        8.39     266      295.8
   06/05/2017 16:40      84.3      83.4       41     57.6      0.00     18.28      79.1     0.37      1009.0     4        43         7        72        8.39     266      319.2
   06/05/2017 16:30      84.6      83.7       41     57.8      0.00     18.28      79.2     0.37      1009.0     4        54         6        55        8.40     266      340.3
   06/05/2017 16:20      84.8      84.3       40     57.9      0.00     18.28      79.1     0.37      1009.0     5        48         7        65        8.40     266      362.0
   06/05/2017 16:10      85.6      85.0       40     58.3      0.00     18.28      78.9     0.37      1009.0     4        52         5       123        8.40     266      381.2
   06/05/2017 16:00      85.9      84.6       40     58.2      0.00     18.28      78.9     0.36      1009.0     4        72         7       110        8.40     266      399.2
   06/05/2017 15:50      85.6      85.1       40     58.4      0.00     18.28      79.0     0.36      1009.0     4        66         6       103        8.41     266      414.0
   06/05/2017 15:40      86.2      85.7       40     58.8      0.00     18.28      78.9     0.36      1009.0     4        48         6        85        8.41     266      427.8
   06/05/2017 15:30      86.5      86.0       40     58.9      0.00     18.28      78.7     0.36      1010.0     3        37         6        47        8.41     266      443.6
   06/05/2017 15:20      87.1      86.0       40     59.1      0.00     18.28      78.6     0.36      1010.0     4        53         7        82        8.41     266      461.4
   06/05/2017 15:10      87.2      86.1       40     59.3      0.00     18.28      78.5     0.36      1010.0     4        74         5        88        8.41     266      478.0
   06/05/2017 15:00      86.0      85.1       41     59.1      0.00     18.28      78.6     0.36      1010.0     3        64         5        73        8.41     266      492.1
   06/05/2017 14:50      86.0      85.2       41     59.1      0.00     18.28      78.4     0.36      1010.0     5        53         8        74        8.41     266      501.1
   06/05/2017 14:40      86.1      85.0       41     59.1      0.00     18.28      78.3     0.36      1010.0     4        69         7        73        8.41     266      514.1
   06/05/2017 14:30      86.3      85.3       41     59.3      0.00     18.28      78.3     0.36      1010.0     4        39         6        32        8.40     266      523.0
   06/05/2017 14:20      85.4      84.6       42     59.2      0.00     18.28      78.2     0.36      1010.0     4        52         7        83        8.41     266      535.8
   06/05/2017 14:10      84.2      83.7       43     58.9      0.00     18.28      78.3     0.36      1010.0     4        41         9        79        8.41     266      544.6
   06/05/2017 14:00      84.7      83.3       43     59.0      0.00     18.28      78.0     0.36      1010.0     4        39         7        26        8.41     266      551.9
   06/05/2017 13:50      83.5      82.6       43     58.7      0.00     18.28      78.0     0.36      1010.0     4        67         7        83        8.41     267      562.3
   06/05/2017 13:40      84.0      82.9       43     58.6      0.00     18.28      78.0     0.36      1011.0     3        44         4        29        8.41     267      567.7
   06/05/2017 13:30      83.0      81.4       44     58.2      0.00     18.28      78.1     0.36      1011.0     3        39         6        48        8.41     267      573.0
   06/05/2017 13:20      82.1      81.4       44     58.1      0.00     18.28      78.1     0.36      1011.0     3        61         5        92        8.40     267      574.7
   06/05/2017 13:10      81.5      81.0       45     58.2      0.00     18.28      77.9     0.36      1011.0     3        46         6        14        8.40     268      578.7
   06/05/2017 13:00      81.1      80.4       45     57.9      0.00     18.28      77.8     0.36      1011.0     3        68         6        65        8.40     267      583.0
   06/05/2017 12:50      80.9      80.1       46     57.9      0.00     18.28      77.8     0.36      1011.0     3        62         5        34        8.40     267      586.5
   06/05/2017 12:40      80.5      79.4       47     58.0      0.00     18.28      77.9     0.36      1011.0     4        60         7        85        8.40     267      583.8
   06/05/2017 12:30      80.9      79.0       47     57.9      0.00     18.28      77.6     0.36      1011.0     4        29         6        68        8.40     267      580.8
   06/05/2017 12:20      79.6      78.7       49     58.2      0.00     18.28      77.7     0.36      1011.0     4        30         6        29        8.40     268      583.2
   06/05/2017 12:10      79.0      78.5       49     57.9      0.00     18.28      77.7     0.36      1012.0     4        45         6        68        8.40     268      579.9
   06/05/2017 12:00      79.2      77.5       50     57.7      0.00     18.28      77.8     0.36      1012.0     3       104         5        73        8.40     268      576.0
   06/05/2017 11:50      77.5      76.7       51     57.7      0.00     18.28      77.7     0.36      1012.0     4        42         5        79        8.40     268      569.8
   06/05/2017 11:40      77.5      76.5       52     57.7      0.00     18.28      77.7     0.36      1012.0     4        51         6        72        8.40     268      564.6
   06/05/2017 11:30      77.3      75.8       52     57.6      0.00     18.28      77.8     0.36      1012.0     3        29         5        71        8.40     268      555.5
   06/05/2017 11:20      76.3      75.2       53     57.3      0.00     18.28      77.6     0.36      1012.0     3        36         4        56        8.40     268      547.7
   06/05/2017 11:10      75.1      73.9       56     57.3      0.00     18.28      77.8     0.36      1012.0     3        50         4        58        8.40     268      540.2
   06/05/2017 11:00      75.0      74.0       56     57.6      0.00     18.28      77.9     0.36      1012.0     4        39         5        82        8.40     268      529.4
   06/05/2017 10:50      74.6      73.8       56     57.6      0.00     18.28      77.6     0.36      1012.0     3        26         4        68        8.40     269      517.7
   06/05/2017 10:40      73.6      72.1       59     57.6      0.00     18.28      77.6     0.36      1012.0     4        10         6         8        8.41     269      507.8
   06/05/2017 10:30      73.2      72.1       59     57.2      0.00     18.28      77.9     0.36      1012.0     4        28         6       354        8.40     269      492.5
   06/05/2017 10:20      72.2      71.1       60     57.0      0.00     18.28      77.8     0.36      1012.0     3        11         5        14        8.40     269      478.8
   06/05/2017 10:10      71.7      71.3       60     57.1      0.00     18.28      77.7     0.36      1012.0     3        25         5         6        8.40     270      459.4
   06/05/2017 10:00      71.2      70.7       61     56.9      0.00     18.28      77.9     0.36      1012.0     3        35         5        85        8.40     270      441.7
   06/05/2017 09:50      72.1      70.7       60     57.2      0.00     18.28      77.6     0.36      1012.0     2        97         4        57        8.40     270      422.5
   06/05/2017 09:40      70.3      68.8       64     56.7      0.00     18.28      77.9     0.36      1012.0     3        29         7         2        8.40     270      404.3
   06/05/2017 09:30      69.3      67.5       66     56.5      0.00     18.28      78.2     0.37      1012.0     2        33         3        67        8.40     270      387.2
   06/05/2017 09:20      67.4      66.4       68     56.2      0.00     18.28      78.0     0.37      1012.0     3         0         5       344        8.40     270      367.8
   06/05/2017 09:10      66.7      66.2       69     56.1      0.00     18.28      78.0     0.37      1012.0     2         1         4       312        8.40     270      345.3
   06/05/2017 09:00      66.3      65.1       71     56.2      0.00     18.28      77.9     0.37      1012.0     2        15         4        66        8.40     270      331.9
   06/05/2017 08:50      64.8      63.2       76     56.3      0.00     18.28      77.8     0.37      1012.0     2        93         3       112        7.99     270      329.7
   06/05/2017 08:40      63.9      63.4       76     56.1      0.00     18.28      77.9     0.37      1012.0     3       128         4       158        7.63     269      136.5
   06/05/2017 08:30      63.7      63.2       77     56.0      0.00     18.28      77.8     0.37      1012.0     1       328         2       336        7.63     270      126.6
   06/05/2017 08:20      63.4      62.6       78     56.3      0.00     18.28      78.2     0.37      1012.0     2        21         4        18        7.63     270      170.3
   06/05/2017 08:10      62.8      61.6       81     56.3      0.00     18.28      78.1     0.37      1012.0     2        76         3        87        7.63     270      157.3
   06/05/2017 08:00      61.6      60.8       84     56.3      0.00     18.28      78.3     0.37      1012.0     2       106         2        99        7.63     270       99.2
   06/05/2017 07:50      61.0      60.7       84     56.1      0.00     18.28      78.3     0.37      1012.0     2       115         3        93        7.63     270       67.8
   06/05/2017 07:40      61.2      60.3       86     56.5      0.00     18.28      78.6     0.37      1011.0     1       283         2       244        7.63     270       56.5
   06/05/2017 07:30      60.4      59.7       88     56.3      0.00     18.28      78.5     0.37      1011.0     1        48         1       234        7.63     270       43.3
   06/05/2017 07:20      59.8      59.4       88     56.0      0.00     18.28      77.8     0.37      1011.0     1       137         2       114        7.63     270       34.4
   06/05/2017 07:10      60.0      59.5       88     56.2      0.00     18.28      78.1     0.37      1011.0     2        98         3       129        7.63     270       28.1
   06/05/2017 07:00      59.6      59.3       89     56.3      0.00     18.28      78.1     0.37      1011.0     1        80         2       136        7.63     270       16.7
   06/05/2017 06:50      59.4      59.1       89     56.2      0.00     18.28      78.5     0.37      1011.0     2       122         3       105        7.63     270       11.6
   06/05/2017 06:40      59.5      59.2       89     56.3      0.00     18.28      78.3     0.37      1011.0     2        78         3       129        7.63     270        6.7
   06/05/2017 06:30      59.4      58.9       90     56.2      0.00     18.28      78.5     0.37      1011.0     1       135         3       131        7.63     269        1.0
   06/05/2017 06:20      59.0      58.9       90     56.2      0.00     18.28      78.5     0.37      1011.0     2       137         4       121        7.63     270       -3.3
   06/05/2017 06:10      59.0      58.7       91     56.1      0.00     18.28      78.3     0.37      1011.0     2       135         3       139        7.63     269       -6.7
   06/05/2017 06:00      58.9      58.7       91     56.0      0.00     18.28      78.5     0.37      1011.0     2       126         3       127        7.63     269       -9.1
   06/05/2017 05:50      59.0      58.7       90     56.1      0.00     18.28      78.5     0.37      1011.0     2       113         3       141        7.63     270      -10.8
   06/05/2017 05:40      59.1      58.8       90     56.1      0.00     18.28      78.4     0.37      1011.0     2       112         3       109        7.63     269      -11.8
   06/05/2017 05:30      59.3      59.0       90     56.1      0.00     18.28      78.7     0.37      1011.0     2        78         3       111        7.63     269      -12.4
   06/05/2017 05:20      59.3      59.0       90     56.1      0.00     18.28      78.9     0.37      1011.0     1       110         2        97        7.63     269      -12.8
   06/05/2017 05:10      59.2      59.0       90     56.1      0.00     18.28      78.6     0.37      1011.0     2        87         3       134        7.63     269      -12.2
   06/05/2017 05:00      59.3      59.0       90     56.1      0.00     18.28      78.7     0.37      1011.0     2        57         3        74        7.63     269      -12.6
   06/05/2017 04:50      59.3      59.1       90     56.1      0.00     18.28      78.6     0.37      1011.0     2        68         4       107        7.63     269      -12.2
   06/05/2017 04:40      59.3      59.1       90     56.1      0.00     18.28      78.8     0.37      1011.0     1        55         2       109        7.63     269      -12.3
   06/05/2017 04:30      59.2      59.0       90     56.2      0.00     18.28      78.8     0.37      1011.0     2        44         4        51        7.64     269      -12.2
   06/05/2017 04:20      59.1      58.9       90     56.1      0.00     18.28      79.0     0.37      1011.0     2        84         5        70        7.64     269      -12.1
   06/05/2017 04:10      59.1      58.9       90     56.1      0.00     18.28      79.0     0.37      1011.0     2        91         2        65        7.64     269      -12.6
   06/05/2017 04:00      58.9      58.7       90     55.9      0.00     18.28      79.0     0.37      1011.0     2        96         3       124        7.64     269      -14.0
   06/05/2017 03:50      59.1      58.8       90     55.9      0.00     18.28      79.1     0.37      1011.0     2       106         4        71        7.64     269      -15.5
   06/05/2017 03:40      59.1      58.9       89     55.8      0.00     18.28      79.1     0.37      1011.0     2       102         4       122        7.64     269      -18.9
   06/05/2017 03:30      59.3      59.1       89     55.8      0.00     18.28      79.2     0.37      1011.0     2        80         4       100        7.64     269      -23.1
   06/05/2017 03:20      59.3      59.1       89     55.9      0.00     18.28      79.4     0.37      1011.0     2        61         3        92        7.64     269      -20.6
   06/05/2017 03:10      59.2      58.8       89     55.6      0.00     18.28      79.0     0.37      1011.0     1        46         2        20        7.64     269      -29.6
   06/05/2017 03:00      59.1      58.9       88     55.4      0.00     18.28      79.2     0.37      1011.0     2        85         3        75        7.64     269      -46.9
   06/05/2017 02:50      59.4      59.0       88     55.5      0.00     18.28      79.4     0.37      1011.0     2        64         3        74        7.64     269      -55.5
   06/05/2017 02:40      59.5      59.3       87     55.6      0.00     18.28      79.4     0.37      1011.0     2        38         3        41        7.64     269      -60.2
   06/05/2017 02:30      59.5      59.4       86     55.4      0.00     18.28      79.3     0.37      1011.0     2        45         2        31        7.64     269      -63.8
   06/05/2017 02:20      59.6      59.4       86     55.3      0.00     18.28      79.2     0.37      1011.0     1        59         2        91        7.64     269      -65.2
   06/05/2017 02:10      60.0      59.8       85     55.4      0.00     18.28      79.2     0.37      1011.0     1        62         2        32        7.64     269      -66.5
   06/05/2017 02:00      60.1      59.9       84     55.3      0.00     18.28      79.0     0.37      1011.0     2        63         3        96        7.64     269      -67.7
   06/05/2017 01:50      60.4      60.0       84     55.4      0.00     18.28      79.3     0.37      1011.0     2        70         3        80        7.64     269      -67.6
   06/05/2017 01:40      60.6      60.4       83     55.3      0.00     18.28      79.4     0.37      1011.0     2        67         3        80        7.65     268      -67.4
   06/05/2017 01:30      60.9      60.6       83     55.4      0.00     18.28      79.4     0.37      1011.0     2        63         3        43        7.65     268      -68.1
   06/05/2017 01:20      61.0      60.8       82     55.4      0.00     18.28      79.7     0.37      1011.0     2        51         4        64        7.65     268      -68.1
   06/05/2017 01:10      61.2      61.0       82     55.5      0.00     18.28      79.5     0.37      1011.0     1        55         3        61        7.65     268      -68.4
   06/05/2017 01:00      61.5      61.2       81     55.6      0.00     18.28      79.7     0.37      1011.0     2        59         3        71        7.65     268      -68.6
   06/05/2017 00:50      61.7      61.4       81     55.6      0.00     18.28      79.5     0.37      1011.0     2        67         3        74        7.65     268      -68.6
   06/05/2017 00:40      61.8      61.6       80     55.6      0.00     18.28      79.7     0.37      1011.0     2        62         3        65        7.65     268      -68.9
   06/05/2017 00:30      62.0      61.8       80     55.7      0.00     18.28      79.5     0.37      1011.0     2        71         4        69        7.65     268      -68.8
   06/05/2017 00:20      62.3      62.0       79     55.8      0.00     18.28      79.8     0.37      1011.0     2        75         4        73        7.65     268      -68.5
   06/05/2017 00:10      62.5      62.3       79     55.7      0.00     18.28      79.8     0.37      1011.0     2        61         3        75        7.65     268      -68.5
   06/05/2017 00:00      62.6      62.4       78     55.6      0.00     18.28      79.6     0.37      1011.0     2        52         3        64        7.65     268      -68.5
   06/04/2017 23:50      62.9      62.6       78     55.6      0.00     18.28      79.5     0.37      1011.0     2        66         3        61        7.65     268      -68.8
   06/04/2017 23:40      63.2      62.9       77     55.7      0.00     18.28      79.7     0.37      1011.0     2        60         3        71        7.65     268      -68.8
   06/04/2017 23:30      63.4      63.2       76     55.7      0.00     18.28      79.6     0.37      1011.0     2        60         3        73        7.66     268      -69.0
   06/04/2017 23:20      63.5      63.2       76     55.5      0.00     18.28      79.5     0.37      1011.0     2        58         3        81        7.66     267      -69.0
   06/04/2017 23:10      63.5      63.3       75     55.5      0.00     18.28      79.8     0.37      1011.0     1        64         3        77        7.66     267      -68.9
   06/04/2017 23:00      63.8      63.6       74     55.3      0.00     18.28      79.7     0.37      1011.0     2        58         4        66        7.66     267      -69.0
   06/04/2017 22:50      64.0      63.7       73     55.1      0.00     18.28      79.8     0.37      1011.0     2        60         3        32        7.66     267      -69.0
   06/04/2017 22:40      64.1      64.0       72     55.1      0.00     18.28      79.7     0.37      1011.0     2        55         4        66        7.66     267      -70.0
   06/04/2017 22:30      64.4      64.1       72     55.1      0.00     18.28      79.7     0.37      1011.0     2        61         3        67        7.67     267      -70.9
   06/04/2017 22:20      64.5      64.3       72     55.3      0.00     18.28      79.8     0.37      1011.0     2        56         3        71        7.67     267      -71.2
   06/04/2017 22:10      64.6      64.4       73     55.5      0.00     18.28      79.5     0.37      1011.0     2        63         3        65        7.67     267      -72.4
   06/04/2017 22:00      64.9      64.6       72     55.7      0.00     18.28      79.7     0.37      1011.0     2        79         3        73        7.67     267      -73.6
   06/04/2017 21:50      65.3      64.9       72     55.7      0.00     18.28      79.5     0.37      1011.0     2        76         3       105        7.67     267      -75.0
   06/04/2017 21:40      65.5      65.2       71     55.9      0.00     18.28      79.6     0.37      1011.0     3        89         4        89        7.67     267      -76.1
   06/04/2017 21:30      66.1      65.7       70     55.9      0.00     18.28      79.6     0.37      1011.0     3        78         4        81        7.68     267      -76.5
   06/04/2017 21:20      66.8      66.2       69     55.8      0.00     18.28      79.5     0.37      1011.0     2        63         3        75        7.68     267      -78.3
   06/04/2017 21:10      67.3      66.8       67     55.9      0.00     18.28      79.5     0.37      1011.0     2        87         4        73        7.68     267      -79.5
   06/04/2017 21:00      67.9      67.3       66     55.9      0.00     18.28      79.7     0.37      1011.0     3        88         4        89        7.68     267      -81.7
   06/04/2017 20:50      68.9      68.0       64     56.0      0.00     18.28      79.5     0.37      1010.0     2        82         3        64        7.69     266      -83.8
   06/04/2017 20:40      70.0      69.3       63     56.4      0.00     18.28      79.4     0.37      1010.0     3        80         4        74        7.69     266      -86.2
   06/04/2017 20:30      71.2      70.3       60     56.2      0.00     18.28      79.6     0.37      1010.0     2        89         4        71        7.69     266      -88.4
   06/04/2017 20:20      72.3      71.3       58     56.1      0.00     18.28      79.7     0.37      1010.0     2        55         3        76        7.69     266      -90.2
   06/04/2017 20:10      73.3      72.4       56     56.1      0.00     18.28      79.6     0.37      1010.0     2        54         4        46        7.70     266      -90.6
   06/04/2017 20:00      74.6      73.6       54     56.2      0.00     18.28      79.5     0.37      1010.0     2        44         3        75        7.70     266      -89.0
   06/04/2017 19:50      76.2      74.9       51     56.3      0.00     18.28      79.5     0.37      1010.0     3        26         4        21        7.70     266      -86.9
   06/04/2017 19:40      77.3      76.3       48     55.9      0.00     18.28      79.5     0.37      1010.0     2        55         5        72        7.70     266      -85.5
   06/04/2017 19:30      78.3      77.4       46     55.5      0.00     18.28      79.4     0.37      1010.0     3        53         4        59        7.70     266      -66.9
   06/04/2017 19:20      79.7      78.5       44     55.5      0.00     18.28      79.5     0.37      1009.0     3        45         5        54        7.71     265      -51.2
   06/04/2017 19:10      81.0      79.9       42     55.1      0.00     18.28      79.5     0.37      1009.0     3        31         5        28        7.71     265      -31.8
   06/04/2017 19:00      82.9      81.4       40     55.4      0.00     18.28      79.4     0.37      1009.0     3        38         6        29        7.71     265      -11.3
   06/04/2017 18:50      84.5      83.3       39     55.9      0.00     18.28      79.3     0.37      1009.0     4        51         5        75        7.70     266       11.7
   06/04/2017 18:40      85.9      84.7       38     56.8      0.00     18.28      79.1     0.37      1009.0     3        19         4       359        7.71     265       34.8
   06/04/2017 18:30      86.1      85.6       38     57.0      0.00     18.28      79.3     0.37      1009.0     3        34         4        18        7.71     266       59.3
   06/04/2017 18:20      86.6      86.1       37     56.7      0.00     18.28      79.1     0.37      1009.0     3        37         4        71        7.73     266       83.0
   06/04/2017 18:10      87.6      86.8       35     56.6      0.00     18.28      79.1     0.37      1009.0     3        27         5        11        7.74     266      106.2
   06/04/2017 18:00      87.3      86.8       35     56.2      0.00     18.28      79.1     0.37      1009.0     3        53         4        36        7.74     266      130.6
   06/04/2017 17:50      87.1      86.7       35     56.2      0.00     18.28      79.0     0.37      1009.0     3        49         4        58        7.75     266      156.0
   06/04/2017 17:40      87.7      87.1       36     56.9      0.00     18.28      78.9     0.37      1009.0     3        33         6        32        7.76     265      180.1
   06/04/2017 17:30      87.7      87.1       36     56.9      0.00     18.28      78.9     0.37      1009.0     4        46         5        75        7.76     266      203.9
   06/04/2017 17:20      88.0      87.2       35     56.9      0.00     18.28      78.8     0.37      1009.0     4        34         5        41        7.77     266      224.8
   06/04/2017 17:10      88.9      88.1       34     56.8      0.00     18.28      78.7     0.37      1009.0     4        46         7        71        7.77     266      249.3
   06/04/2017 17:00      89.1      88.5       34     56.9      0.00     18.28      78.7     0.37      1009.0     4        55         7        74        7.78     266      271.9
   06/04/2017 16:50      89.6      88.3       34     56.7      0.00     18.28      78.7     0.37      1009.0     4        47         6        64        7.78     266      292.6
   06/04/2017 16:40      90.2      89.4       33     57.3      0.00     18.28      78.7     0.37      1009.0     4        24         5        58        7.78     266      311.2
   06/04/2017 16:30      89.8      89.3       34     57.4      0.00     18.28      78.5     0.37      1009.0     4        40         7        33        7.79     266      334.2
   06/04/2017 16:20      90.2      89.6       33     57.1      0.00     18.28      78.4     0.37      1009.0     3        52         5        70        7.79     266      355.3
   06/04/2017 16:10      90.2      89.4       34     57.4      0.00     18.28      78.6     0.36      1009.0     5        46         6        83        7.79     266      377.8
   06/04/2017 16:00      90.1      89.7       34     57.8      0.00     18.28      78.3     0.36      1010.0     5        52         7        66        7.80     266      396.0
   06/04/2017 15:50      89.7      89.2       34     57.7      0.00     18.28      78.3     0.36      1010.0     4        40         6         4        7.81     266      415.6
   06/04/2017 15:40      89.7      89.1       35     57.9      0.00     18.28      78.1     0.36      1010.0     5        61         8        66        7.81     266      434.4
   06/04/2017 15:30      90.1      89.6       35     58.5      0.00     18.28      78.0     0.36      1010.0     5        65         6        69        7.82     266      448.3
   06/04/2017 15:20      90.0      89.6       35     58.5      0.00     18.28      78.1     0.36      1010.0     4        41         5        32        7.82     267      465.2
   06/04/2017 15:10      89.7      89.2       36     59.3      0.00     18.28      78.0     0.36      1010.0     5        61         9        66        7.83     266      477.7
   06/04/2017 15:00      89.6      89.1       38     60.1      0.00     18.28      77.9     0.36      1010.0     3        44         6        28        7.83     266      488.7
   06/04/2017 14:50      89.9      88.7       38     60.2      0.00     18.28      77.7     0.36      1010.0     4        42         6        21        7.84     266      500.1
   06/04/2017 14:40      89.9      88.9       37     59.7      0.00     18.28      77.6     0.36      1010.0     3        63         5       129        7.84     267      514.9
   06/04/2017 14:30      89.6      89.0       37     59.4      0.00     18.28      77.8     0.36      1010.0     4        68         7       122        7.84     267      525.0
   06/04/2017 14:20      89.9      89.2       36     59.2      0.00     18.28      77.6     0.36      1011.0     3        70         5        97        7.85     267      534.0
   06/04/2017 14:10      89.3      88.1       37     59.5      0.00     18.28      77.6     0.36      1011.0     3         9         5       343        7.85     267      545.1
   06/04/2017 14:00      88.7      87.1       38     59.1      0.00     18.28      77.4     0.36      1011.0     3        61         5        69        7.86     267      555.1
   06/04/2017 13:50      87.1      86.6       39     58.7      0.00     18.28      77.4     0.36      1011.0     3         4         6       330        7.86     267      557.3
   06/04/2017 13:40      87.9      87.0       38     58.9      0.00     18.28      77.5     0.36      1011.0     5       347         8       354        7.86     267      562.9
   06/04/2017 13:30      87.0      86.0       40     59.0      0.00     18.28      77.2     0.36      1011.0     2        65         4         7        7.87     268      498.8
   06/04/2017 13:20      86.9      86.1       39     58.5      0.00     18.28      77.4     0.36      1011.0     4       359         6       353        7.87     268      568.8
   06/04/2017 13:10      87.1      84.9       39     58.8      0.00     18.28      77.1     0.36      1011.0     3        27         4        12        7.87     268      573.5
   06/04/2017 13:00      84.7      83.7       42     58.4      0.00     18.28      77.2     0.36      1011.0     2       330         4        19        7.88     268      580.7
   06/04/2017 12:50      85.8      84.2       42     58.9      0.00     18.28      77.1     0.36      1011.0     3        24         5        63        7.88     268      579.8
   06/04/2017 12:40      84.4      83.2       43     58.7      0.00     18.28      77.1     0.36      1012.0     3        13         4        73        7.88     268      583.6
   06/04/2017 12:30      83.1      81.9       44     58.6      0.00     18.28      77.1     0.36      1012.0     4       358         8       348        7.88     268      579.2
   06/04/2017 12:20      82.4      81.4       45     58.7      0.00     18.28      77.2     0.36      1012.0     2       353         3       337        7.88     268      575.9
   06/04/2017 12:10      81.9      80.8       47     59.3      0.00     18.28      77.0     0.36      1012.0     3        30         4        35        7.88     268      575.4
   06/04/2017 12:00      81.5      80.4       47     59.1      0.00     18.28      77.0     0.36      1012.0     2        39         4        70        7.88     268      575.5
   06/04/2017 11:50      80.4      79.1       50     59.3      0.00     18.28      76.9     0.36      1012.0     3        26         5        26        7.88     269      569.9
   06/04/2017 11:40      79.3      77.8       52     59.4      0.00     18.28      76.8     0.36      1012.0     4        33         6       350        7.89     269      562.6
   06/04/2017 11:30      78.3      77.3       53     59.5      0.00     18.28      77.3     0.36      1012.0     5        36         7        80        7.89     268      554.0
   06/04/2017 11:20      77.8      76.7       54     59.5      0.00     18.28      76.9     0.36      1012.0     4        30         6        80        7.89     269      546.7
   06/04/2017 11:10      77.0      75.8       56     59.4      0.00     18.28      77.0     0.36      1012.0     3        19         5        39        7.89     269      537.3
   06/04/2017 11:00      76.9      75.2       57     59.4      0.00     18.28      77.3     0.36      1012.0     3        31         4        35        7.89     269      527.3
   06/04/2017 10:50      75.4      74.3       58     59.2      0.00     18.28      77.1     0.36      1012.0     5        31         7        62        7.89     269      515.6
   06/04/2017 10:40      74.6      73.2       60     59.0      0.00     18.28      77.1     0.36      1012.0     4         3         6       354        7.89     270      501.1
   06/04/2017 10:30      73.3      72.1       62     58.9      0.00     18.28      77.0     0.36      1012.0     4        42         6        71        7.89     270      489.2
   06/04/2017 10:20      72.7      72.0       62     58.8      0.00     18.28      77.0     0.36      1012.0     3        78         6        69        7.89     269      474.5
   06/04/2017 10:10      72.1      71.1       64     58.8      0.00     18.28      77.2     0.36      1012.0     3        29         5       350        7.89     270      457.4
   06/04/2017 10:00      71.2      69.5       67     58.6      0.00     18.28      77.1     0.36      1012.0     3        15         4       351        7.89     270      438.9
   06/04/2017 09:50      69.9      69.3       68     58.5      0.00     18.28      77.1     0.36      1012.0     4        19         4        12        7.89     270      419.8
   06/04/2017 09:40      69.3      68.1       69     58.4      0.00     18.28      77.2     0.36      1012.0     3        71         4       101        7.89     270      400.3
   06/04/2017 09:30      68.8      68.1       70     58.3      0.00     18.28      77.3     0.37      1012.0     3        52         5        72        7.89     270      379.9
   06/04/2017 09:20      68.5      67.8       71     58.3      0.00     18.28      77.1     0.37      1012.0     3        66         4        57        7.91     270      357.8
   06/04/2017 09:10      67.8      66.8       73     58.2      0.00     18.28      77.0     0.37      1012.0     4        95         6        99        7.91     270      336.1
   06/04/2017 09:00      68.0      66.9       72     58.3      0.00     18.28      77.6     0.37      1012.0     3        62         4        65        7.91     270      310.7
   06/04/2017 08:50      67.0      65.5       76     58.3      0.00     18.28      77.2     0.37      1012.0     3        58         4        78        7.91     270      321.4
   06/04/2017 08:40      65.5      64.5       79     58.3      0.00     18.28      77.2     0.37      1012.0     3        81         4        72        7.92     270      118.0
   06/04/2017 08:30      64.6      63.7       81     58.1      0.00     18.28      77.3     0.37      1012.0     3       104         4        72        7.92     270      123.0
   06/04/2017 08:20      63.9      63.4       81     58.0      0.00     18.28      77.8     0.37      1012.0     4        68         6       102        7.92     270      103.5
   06/04/2017 08:10      63.4      62.1       84     57.9      0.00     18.28      77.7     0.37      1012.0     2        85         3       141        7.92     270      138.0
   06/04/2017 08:00      62.3      61.5       86     57.5      0.00     18.28      77.3     0.37      1012.0     2        99         3       102        7.92     270      109.9
   06/04/2017 07:50      61.6      61.3       86     57.2      0.00     18.28      77.4     0.37      1012.0     4        88         5        76        7.92     270       72.8
   06/04/2017 07:40      62.5      61.8       84     57.3      0.00     18.28      77.4     0.37      1012.0     3       119         4       132        7.92     270       48.2
   06/04/2017 07:30      62.5      61.8       85     57.5      0.00     18.28      77.2     0.37      1012.0     3       113         3       127        7.93     270       49.2
   06/04/2017 07:20      62.0      61.7       85     57.4      0.00     18.28      77.1     0.37      1012.0     2       126         4       144        7.93     270        2.0
   06/04/2017 07:10      61.8      61.4       86     57.3      0.00     18.28      77.6     0.37      1011.0     1       121         2        85        7.93     270       -6.5
   06/04/2017 07:00      61.5      61.0       87     57.2      0.00     18.28      77.7     0.37      1011.0     1       142         2       126        7.93     270      -14.9
   06/04/2017 06:50      61.1      60.9       87     57.0      0.00     18.28      77.6     0.37      1011.0     2       134         2       119        7.93     270      -24.2
   06/04/2017 06:40      61.1      60.9       87     57.1      0.00     18.28      77.6     0.37      1011.0     2       116         3       112        7.93     269      -30.5
   06/04/2017 06:30      61.2      60.9       87     57.2      0.00     18.28      77.6     0.37      1011.0     2       138         3       145        7.93     270      -27.0
   06/04/2017 06:20      61.0      60.7       88     57.2      0.00     18.28      77.9     0.37      1011.0     2       157         2       159        7.93     269      -32.6
   06/04/2017 06:10      60.8      60.5       88     57.2      0.00     18.28      77.6     0.37      1011.0     2       154         2       181        7.93     269      -22.4
   06/04/2017 06:00      60.7      60.3       89     57.1      0.00     18.28      78.1     0.37      1011.0     2        90         2       194        7.93     269      -22.5
   06/04/2017 05:50      60.6      60.3       89     57.1      0.00     18.28      77.6     0.37      1011.0     1       155         2       198        7.93     269      -15.0
   06/04/2017 05:40      60.5      60.3       89     57.1      0.00     18.28      78.1     0.37      1011.0     2       175         2       178        7.94     269      -16.0
   06/04/2017 05:30      60.5      60.4       89     57.3      0.00     18.28      77.6     0.37      1011.0     1       128         2       131        7.94     269      -20.5
   06/04/2017 05:20      60.4      60.1       90     57.2      0.00     18.28      77.8     0.37      1011.0     2       152         2       179        7.94     269      -17.2
   06/04/2017 05:10      60.2      60.0       90     57.2      0.00     18.28      78.0     0.37      1011.0     2       183         3       204        7.94     269      -15.7
   06/04/2017 05:00      60.1      60.0       90     57.1      0.00     18.28      78.0     0.37      1011.0     2       185         3       194        7.94     269      -14.7
   06/04/2017 04:50      60.3      60.0       90     57.2      0.00     18.28      77.8     0.37      1011.0     2       141         3       133        7.94     269      -13.3
   06/04/2017 04:40      60.4      60.1       90     57.3      0.00     18.28      78.0     0.37      1011.0     2       142         3       157        7.94     269      -13.3
   06/04/2017 04:30      60.4      59.9       91     57.3      0.00     18.28      78.2     0.37      1011.0     2       200         3       197        7.94     269      -13.2
   06/04/2017 04:20      60.0      59.8       91     57.2      0.00     18.28      78.1     0.37      1011.0     1       199         2       148        7.94     269      -13.2
   06/04/2017 04:10      60.1      59.8       91     57.2      0.00     18.28      78.0     0.37      1011.0     2       135         3       118        7.94     269      -13.3
   06/04/2017 04:00      60.1      59.8       91     57.2      0.00     18.28      78.0     0.37      1011.0     1       128         2       125        7.94     269      -13.4
   06/04/2017 03:50      60.0      59.8       91     57.1      0.00     18.28      77.9     0.37      1011.0     1       143         2        96        7.94     269      -13.5
   06/04/2017 03:40      59.9      59.6       90     57.0      0.00     18.28      78.3     0.37      1011.0     1       170         2       173        7.95     269      -13.5
   06/04/2017 03:30      60.0      59.8       90     56.9      0.00     18.28      78.1     0.37      1011.0     1       140         2       166        7.95     269      -13.5
   06/04/2017 03:20      60.2      60.0       89     56.9      0.00     18.28      77.9     0.37      1011.0     2        89         3       104        7.95     269      -14.2
   06/04/2017 03:10      60.3      60.0       90     57.1      0.00     18.28      78.2     0.37      1011.0     1       112         3        71        7.95     269      -14.6
   06/04/2017 03:00      60.5      60.1       89     57.2      0.00     18.28      78.6     0.37      1011.0     2        83         3        74        7.95     269      -15.1
   06/04/2017 02:50      60.4      59.9       90     57.2      0.00     18.28      78.3     0.37      1011.0     2        99         2        73        7.95     269      -17.0
   06/04/2017 02:40      60.1      59.8       90     57.2      0.00     18.28      78.4     0.37      1011.0     1       146         2       117        7.95     269      -19.1
   06/04/2017 02:30      60.0      59.7       91     57.1      0.00     18.28      78.2     0.37      1012.0     1       206         2       193        7.95     269      -21.8
   06/04/2017 02:20      59.8      59.6       91     57.1      0.00     18.28      78.3     0.37      1012.0     1       217         2       142        7.95     269      -21.4
   06/04/2017 02:10      60.0      59.4       91     57.1      0.00     18.28      78.3     0.37      1012.0     1        51         2       115        7.95     269      -16.7
   06/04/2017 02:00      59.8      59.4       91     56.9      0.00     18.28      78.2     0.37      1012.0     2       139         3       137        7.95     269      -14.8
   06/04/2017 01:50      60.1      59.8       90     56.9      0.00     18.28      78.6     0.37      1012.0     2       126         2       116        7.95     269      -15.5
   06/04/2017 01:40      60.3      59.9       90     57.0      0.00     18.28      78.4     0.37      1012.0     1        35         2        71        7.95     269      -17.5
   06/04/2017 01:30      60.1      59.9       89     56.9      0.00     18.28      78.4     0.37      1012.0     1       115         2       104        7.96     269      -18.6
   06/04/2017 01:20      60.4      60.1       89     56.9      0.00     18.28      78.4     0.37      1012.0     3        82         4        83        7.96     269      -16.1
   06/04/2017 01:10      60.6      60.3       89     57.2      0.00     18.28      78.3     0.37      1012.0     2        21         3       345        7.96     269      -19.1
   06/04/2017 01:00      60.6      60.3       89     57.1      0.00     18.28      78.5     0.37      1012.0     2       340         3       315        7.96     269      -21.6
   06/04/2017 00:50      60.5      60.1       89     57.0      0.00     18.28      78.7     0.37      1012.0     1        49         2       357        7.96     269      -26.7
   06/04/2017 00:40      60.3      60.0       89     56.9      0.00     18.28      78.5     0.37      1012.0     1        58         3        81        7.96     268      -39.0
   06/04/2017 00:30      60.3      60.0       89     56.9      0.00     18.28      78.8     0.37      1012.0     2        37         3        69        7.96     268      -42.7
   06/04/2017 00:20      60.1      59.9       89     56.8      0.00     18.28      78.7     0.37      1013.0     2        44         3        85        7.96     268      -41.9
   06/04/2017 00:10      60.3      59.9       88     56.7      0.00     18.28      78.7     0.37      1013.0     3        75         4        96        7.96     268      -45.8
   06/04/2017 00:00      60.8      60.4       87     56.7      0.00     18.28      78.6     0.37      1012.0     2        81         3        80        7.96     268      -52.7
   06/03/2017 23:50      61.1      60.9       86     56.8      0.00     18.28      78.5     0.37      1013.0     2        34         3        48        7.97     268      -67.5
   06/03/2017 23:40      61.4      61.1       85     56.8      0.00     18.28      78.7     0.37      1013.0     2        37         3        36        7.97     268      -72.8
   06/03/2017 23:30      61.6      61.3       84     56.7      0.00     18.28      78.7     0.37      1013.0     2        35         3        39        7.97     268      -74.1
   06/03/2017 23:20      61.8      61.6       84     56.8      0.00     18.28      78.8     0.37      1013.0     2        56         3        73        7.97     268      -74.3
   06/03/2017 23:10      62.1      61.8       83     56.8      0.00     18.28      78.7     0.37      1013.0     3        70         5        78        7.97     268      -74.9
   06/03/2017 23:00      62.5      62.2       82     56.9      0.00     18.28      78.8     0.37      1013.0     2        57         4        69        7.97     267      -75.6
   06/03/2017 22:50      62.8      62.4       81     56.9      0.00     18.28      78.7     0.37      1013.0     3        62         4        74        7.98     267      -76.3
   06/03/2017 22:40      63.2      62.7       80     56.9      0.00     18.28      78.5     0.37      1013.0     2        48         3        78        7.98     267      -76.6
   06/03/2017 22:30      63.9      63.4       79     57.0      0.00     18.28      78.6     0.37      1013.0     3        50         5        72        7.98     267      -77.5
   06/03/2017 22:20      64.8      64.3       76     56.9      0.00     18.28      78.8     0.37      1012.0     3        70         4        77        7.98     267      -77.9
   06/03/2017 22:10      65.2      64.7       75     56.9      0.00     18.28      78.5     0.37      1012.0     3        65         4        59        7.99     267      -78.4
   06/03/2017 22:00      65.9      65.3       73     56.8      0.00     18.28      78.6     0.37      1012.0     2        80         3        80        7.99     267      -78.6
   06/03/2017 21:50      66.4      65.9       72     56.9      0.00     18.28      78.7     0.37      1012.0     2        77         3        91        7.99     267      -79.0
   06/03/2017 21:40      67.3      66.7       70     56.9      0.00     18.28      78.8     0.37      1012.0     2        78         3        93        7.99     267      -79.5
   06/03/2017 21:30      67.6      67.4       68     56.9      0.00     18.28      78.7     0.37      1012.0     1        49         2        74        8.00     267      -79.8
   06/03/2017 21:20      68.4      67.8       68     57.0      0.00     18.28      78.6     0.37      1012.0     2        63         3        69        8.00     267      -80.4
   06/03/2017 21:10      69.2      68.5       67     57.3      0.00     18.28      78.6     0.37      1011.0     2        57         4        82        8.00     267      -81.8
   06/03/2017 21:00      70.2      69.3       65     57.5      0.00     18.28      78.4     0.37      1011.0     2        59         4        37        8.01     267      -82.7
   06/03/2017 20:50      70.8      70.4       64     57.7      0.00     18.28      78.6     0.37      1011.0     2        52         3        64        8.01     266      -83.4
   06/03/2017 20:40      71.5      71.0       63     57.9      0.00     18.28      78.4     0.37      1011.0     2        71         4        70        8.02     266      -84.0
   06/03/2017 20:30      72.7      71.4       61     58.1      0.00     18.28      78.5     0.37      1011.0     3        85         5        71        8.02     266      -84.7
   06/03/2017 20:20      73.8      72.9       59     58.2      0.00     18.28      78.6     0.37      1011.0     3        71         4        92        8.02     266      -86.4
   06/03/2017 20:10      74.8      73.9       57     58.2      0.00     18.28      78.3     0.37      1011.0     3        71         5        81        8.03     266      -86.2
   06/03/2017 20:00      75.8      74.8       56     58.3      0.00     18.28      78.5     0.37      1011.0     3        74         4        60        8.03     266      -84.2
   06/03/2017 19:50      76.6      75.9       54     58.3      0.00     18.28      78.4     0.37      1011.0     3        72         4        69        8.03     266      -81.2
   06/03/2017 19:40      78.0      76.9       51     58.2      0.00     18.28      78.4     0.37      1011.0     2        59         4        73        8.04     266      -78.1
   06/03/2017 19:30      79.4      78.2       50     58.7      0.00     18.28      78.3     0.37      1011.0     2        89         4        73        8.04     266      -62.7
   06/03/2017 19:20      80.0      79.3       49     58.7      0.00     18.28      78.4     0.37      1010.0     3        54         3        53        8.04     266      -48.5
   06/03/2017 19:10      80.7      79.9       48     58.7      0.00     18.28      78.3     0.37      1010.0     3        34         3         7        8.05     266      -30.6
   06/03/2017 19:00      81.3      80.5       47     59.0      0.00     18.28      78.3     0.37      1010.0     3        34         4        90        8.05     266       -9.9
   06/03/2017 18:50      82.3      81.4       46     59.2      0.00     18.28      78.0     0.37      1010.0     3        61         5        58        8.05     265       11.9
   06/03/2017 18:40      82.7      82.3       45     59.1      0.00     18.28      78.2     0.37      1010.0     3        38         3        34        8.06     265       35.4
   06/03/2017 18:30      84.3      82.9       44     59.4      0.00     18.28      78.1     0.37      1010.0     3        55         4        34        8.06     266       58.4
   06/03/2017 18:20      84.5      83.8       43     59.4      0.00     18.28      78.0     0.37      1010.0     3        63         6        68        8.07     266       80.8
   06/03/2017 18:10      85.5      84.5       42     59.4      0.00     18.28      77.9     0.37      1010.0     4        54         4        68        8.07     266      103.3
   06/03/2017 18:00      86.2      85.6       41     59.3      0.00     18.28      78.0     0.37      1010.0     4        41         6        66        8.08     266      127.9
   06/03/2017 17:50      87.7      86.6       39     59.4      0.00     18.28      77.9     0.37      1010.0     4        51         7        78        8.08     266      150.5
   06/03/2017 17:40      88.3      87.8       38     59.4      0.00     18.28      77.6     0.37      1010.0     4        52         5        81        8.08     265      174.0
   06/03/2017 17:30      88.3      87.7       38     59.1      0.00     18.28      77.8     0.37      1010.0     3        33         4        73        8.09     265      197.1
   06/03/2017 17:20      89.3      88.5       37     59.4      0.00     18.28      77.7     0.36      1010.0     3        29         5        27        8.09     265      220.4
   06/03/2017 17:10      90.2      89.2       36     59.5      0.00     18.28      77.5     0.36      1010.0     3        26         4        26        8.10     265      241.4
   06/03/2017 17:00      91.2      90.2       36     59.7      0.00     18.28      77.5     0.36      1010.0     3        23         5        38        8.10     265      263.9
   06/03/2017 16:50      91.9      90.3       35     59.8      0.00     18.28      77.5     0.36      1010.0     3        22         5        17        8.10     266      287.5
   06/03/2017 16:40      91.8      91.4       34     59.4      0.00     18.28      77.4     0.36      1010.0     4        19         6         2        8.11     266      308.2
   06/03/2017 16:30      92.5      91.5       35     60.2      0.00     18.28      77.2     0.36      1010.0     3        12         4         1        8.11     266      328.4
   06/03/2017 16:20      92.4      91.3       35     60.1      0.00     18.28      77.3     0.36      1010.0     3        21         4        20        8.11     266      347.9
   06/03/2017 16:10      92.3      91.9       34     60.1      0.00     18.28      77.0     0.36      1010.0     4        30         5        24        8.12     266      367.0
   06/03/2017 16:00      92.7      92.0       34     59.9      0.00     18.28      77.0     0.36      1010.0     4        26         4         5        8.13     266      386.4
   06/03/2017 15:50      92.4      92.0       34     59.8      0.00     18.28      76.9     0.36      1010.0     5        27         6        32        8.13     266      400.3
   06/03/2017 15:40      93.5      92.0       33     59.5      0.00     18.28      76.8     0.36      1010.0     4        36         6        72        8.14     266      415.3
   06/03/2017 15:30      93.8      92.4       33     59.6      0.00     18.28      76.7     0.36      1010.0     4        33         5        41        8.15     265      431.8
   06/03/2017 15:20      94.1      93.2       31     58.7      0.00     18.28      76.6     0.36      1010.0     4        44         7        32        8.15     266      446.7
   06/03/2017 15:10      94.3      93.2       31     58.6      0.00     18.28      76.6     0.36      1010.0     4        53         6        64        8.16     266      461.4
   06/03/2017 15:00      94.5      93.5       31     58.8      0.00     18.28      76.5     0.36      1010.0     4        47         6        77        8.16     266      468.5
   06/03/2017 14:50      93.5      92.5       32     58.6      0.00     18.28      76.4     0.36      1010.0     4        62         6        86        8.16     266      488.8
   06/03/2017 14:40      93.0      91.8       32     58.6      0.00     18.28      76.5     0.36      1010.0     3        43         8        66        8.17     266      507.9
   06/03/2017 14:30      93.3      91.4       32     58.3      0.00     18.28      76.4     0.36      1010.0     5        95         8       132        8.17     266      519.4
   06/03/2017 14:20      93.4      92.2       31     58.0      0.00     18.28      76.3     0.36      1010.0     3        51         6        86        8.17     266      530.0
   06/03/2017 14:10      93.4      92.0       31     57.8      0.00     18.28      76.2     0.36      1010.0     4        52         6        43        8.17     266      540.0
   06/03/2017 14:00      93.3      91.4       31     57.6      0.00     18.28      76.1     0.36      1010.0     3       353         6        29        8.17     266      545.3
   06/03/2017 13:50      92.5      91.0       32     57.4      0.00     18.28      76.0     0.36      1011.0     3        83         4        32        8.17     266      540.8
   06/03/2017 13:40      91.5      90.4       33     57.6      0.00     18.28      76.0     0.36      1011.0     3         2         5       144        8.18     267      562.1
   06/03/2017 13:30      90.5      89.1       34     57.5      0.00     18.28      75.8     0.36      1011.0     4        35         5        25        8.17     267      568.5
   06/03/2017 13:20      89.6      89.0       34     57.4      0.00     18.28      76.0     0.36      1011.0     2       358         3       357        8.17     267      573.8
   06/03/2017 13:10      89.7      88.7       35     58.1      0.00     18.28      75.8     0.36      1011.0     3        65         5       117        8.18     267      574.1
   06/03/2017 13:00      89.6      89.0       36     58.4      0.00     18.28      75.7     0.36      1011.0     3        21         5        17        8.18     267      570.2
   06/03/2017 12:50      89.1      87.4       36     57.7      0.00     18.28      75.7     0.36      1011.0     2         5         4       308        8.18     267      577.7
   06/03/2017 12:40      87.2      86.7       36     57.0      0.00     18.28      75.6     0.36      1011.0     4       356         6       341        8.18     267      578.8
   06/03/2017 12:30      87.3      86.2       37     57.5      0.00     18.28      75.6     0.36      1011.0     3         0         5       359        8.18     267      573.4
   06/03/2017 12:20      86.7      86.2       39     58.5      0.00     18.28      75.6     0.36      1011.0     3        22         5        37        8.18     268      553.2
   06/03/2017 12:10      86.5      85.0       41     59.3      0.00     18.28      75.7     0.36      1012.0     2        27         3        26        8.18     268      562.5
   06/03/2017 12:00      85.4      84.2       42     59.1      0.00     18.28      75.7     0.36      1012.0     3        33         4       345        8.18     268      559.1
   06/03/2017 11:50      84.7      83.6       43     59.0      0.00     18.28      75.4     0.36      1012.0     2       344         3       340        8.18     268      544.2
   06/03/2017 11:40      84.2      83.5       43     59.2      0.00     18.28      75.5     0.36      1012.0     3        33         5         2        8.18     268      548.9
   06/03/2017 11:30      83.8      82.2       45     59.8      0.00     18.28      75.7     0.36      1012.0     2        32         4       158        8.18     268      544.7
   06/03/2017 11:20      82.5      81.4       47     59.9      0.00     18.28      75.5     0.36      1012.0     2        30         4        12        8.18     268      538.2
   06/03/2017 11:10      81.6      80.7       48     59.7      0.00     18.28      75.7     0.36      1012.0     2        25         5        31        8.18     267      517.4
   06/03/2017 11:00      80.8      79.3       49     59.3      0.00     18.28      75.6     0.36      1012.0     3        14         6       348        8.18     268      532.6
   06/03/2017 10:50      79.9      78.7       50     59.0      0.00     18.28      75.9     0.36      1012.0     2        55         3        72        8.18     268      511.1
   06/03/2017 10:40      78.8      77.9       51     58.6      0.00     18.28      75.8     0.36      1012.0     3        52         5        73        8.18     268      501.7
   06/03/2017 10:30      78.2      77.9       51     58.5      0.00     18.28      75.7     0.36      1012.0     3        67         5        94        8.18     268      477.4
   06/03/2017 10:20      78.4      76.8       52     58.4      0.00     18.28      75.7     0.36      1012.0     2        42         4        75        8.18     268      459.1
   06/03/2017 10:10      76.8      75.4       54     58.2      0.00     18.28      75.5     0.36      1012.0     3       359         4        77        8.18     268      433.0
   06/03/2017 10:00      75.4      74.6       55     58.0      0.00     18.28      75.8     0.36      1012.0     2        40         3        99        8.18     268      454.3
   06/03/2017 09:50      74.5      73.7       57     57.8      0.00     18.28      75.7     0.36      1012.0     2        29         4         0        8.18     268      415.1
   06/03/2017 09:40      73.9      73.0       58     57.9      0.00     18.28      76.0     0.36      1012.0     2         9         4       328        8.18     269      392.9
   06/03/2017 09:30      73.2      71.0       61     57.8      0.00     18.28      75.7     0.36      1012.0     2       343         3         4        8.20     269      394.5
   06/03/2017 09:20      71.2      70.2       63     57.7      0.00     18.28      75.7     0.36      1012.0     2       324         3       299        8.21     269      353.3
   06/03/2017 09:10      70.2      68.0       67     57.5      0.00     18.28      76.0     0.36      1012.0     1         9         3         1        8.22     269      348.9
   06/03/2017 09:00      67.7      66.5       71     57.4      0.00     18.28      76.1     0.37      1012.0     2       329         3       326        8.23     269      329.6
   06/03/2017 08:50      66.3      65.5       74     57.2      0.00     18.28      76.3     0.37      1012.0     2       351         4       357        8.24     269      321.3
   06/03/2017 08:40      65.5      64.2       76     57.2      0.00     18.28      76.0     0.37      1012.0     2         6         3         9        8.24     269      112.3
   06/03/2017 08:30      64.3      63.7       78     57.1      0.00     18.28      76.0     0.37      1012.0     2         2         3        42        8.24     269       27.0
   06/03/2017 08:20      63.8      63.0       80     57.0      0.00     18.28      75.9     0.37      1012.0     2        25         3        16        8.25     269       19.9
   06/03/2017 08:10      63.3      62.5       81     56.8      0.00     18.28      75.8     0.37      1012.0     2        31         3       353        8.25     269       19.0
   06/03/2017 08:00      62.8      62.3       82     56.8      0.00     18.28      76.4     0.37      1012.0     2        27         2        25        8.25     269       23.6
   06/03/2017 07:50      62.3      61.5       84     56.8      0.00     18.28      75.8     0.37      1012.0     1        22         2        42        8.25     269       33.6
   06/03/2017 07:40      61.6      61.2       85     57.0      0.00     18.28      75.9     0.37      1012.0     2         5         3        21        8.25     269       26.8
   06/03/2017 07:30      61.1      60.2       88     57.1      0.00     18.28      76.2     0.37      1012.0     1       136         2        23        8.25     269       76.5
   06/03/2017 07:20      60.2      59.4       90     56.9      0.00     18.28      76.0     0.37      1012.0     1       161         2       151        8.25     269       76.2
   06/03/2017 07:10      59.5      59.1       91     56.6      0.00     18.28      76.1     0.37      1012.0     2       154         3       138        8.25     269       36.6
   06/03/2017 07:00      59.2      58.9       91     56.4      0.00     18.28      76.3     0.37      1012.0     3       132         4       136        8.25     269       29.3
   06/03/2017 06:50      59.2      58.9       91     56.4      0.00     18.28      76.2     0.37      1012.0     2       120         3       140        8.26     269       25.0
   06/03/2017 06:40      59.1      58.6       91     56.3      0.00     18.28      76.2     0.37      1012.0     2       109         3       145        8.26     269       19.6
   06/03/2017 06:30      58.7      58.5       91     56.0      0.00     18.28      76.0     0.37      1012.0     2       117         3        83        8.26     269       13.9
   06/03/2017 06:20      58.8      58.6       91     56.0      0.00     18.28      76.3     0.37      1012.0     2        70         4        77        8.26     269        7.4
   06/03/2017 06:10      58.8      58.5       91     55.9      0.00     18.28      76.2     0.37      1012.0     1        62         2       102        8.26     269        0.5
   06/03/2017 06:00      58.8      58.6       90     55.7      0.00     18.28      76.5     0.37      1012.0     2        91         3        93        8.26     268       -8.0
   06/03/2017 05:50      59.0      58.5       90     55.6      0.00     18.28      76.6     0.37      1011.0     2        68         4        71        8.26     268      -15.6
   06/03/2017 05:40      58.6      58.5       89     55.4      0.00     18.28      76.6     0.37      1011.0     2        60         2        56        8.26     268      -23.5
   06/03/2017 05:30      58.7      58.5       89     55.5      0.00     18.28      76.3     0.37      1011.0     1        51         2        41        8.27     268      -27.4
   06/03/2017 05:20      58.5      58.2       89     55.2      0.00     18.28      76.6     0.37      1011.0     1        52         2        69        8.27     268      -29.1
   06/03/2017 05:10      58.5      58.2       89     55.1      0.00     18.28      76.3     0.37      1011.0     1        54         2        29        8.27     268      -30.1
   06/03/2017 05:00      58.6      58.3       88     55.1      0.00     18.28      76.3     0.37      1011.0     1        85         1        99        8.27     268      -31.1
   06/03/2017 04:50      58.7      58.5       88     55.2      0.00     18.28      76.6     0.37      1011.0     1        89         1        70        8.27     268      -31.9
   06/03/2017 04:40      59.0      58.7       88     55.3      0.00     18.28      76.5     0.37      1011.0     0        94         1       120        8.27     268      -33.1
   06/03/2017 04:30      59.0      58.6       87     54.8      0.00     18.28      76.5     0.37      1011.0     1        72         2        20        8.27     267      -35.6
   06/03/2017 04:20      59.3      58.5       86     54.8      0.00     18.28      77.0     0.37      1011.0     1        77         2        97        8.28     268      -36.8
   06/03/2017 04:10      59.3      59.1       87     55.2      0.00     18.28      76.9     0.37      1011.0     0        98         0        40        8.28     267      -36.5
   06/03/2017 04:00      59.4      59.2       87     55.4      0.00     18.28      76.9     0.37      1011.0     1        73         2        75        8.28     267      -39.5
   06/03/2017 03:50      59.3      58.6       88     55.2      0.00     18.28      76.9     0.37      1011.0     1        92         2       115        8.28     267      -41.5
   06/03/2017 03:40      58.8      58.6       87     54.9      0.00     18.28      76.9     0.37      1011.0     1       101         1        89        8.28     267      -44.3
   06/03/2017 03:30      59.1      58.9       87     55.1      0.00     18.28      76.8     0.37      1011.0     1       103         2        81        8.28     267      -45.0
   06/03/2017 03:20      59.7      59.1       87     55.4      0.00     18.28      77.0     0.37      1011.0     1       161         2       131        8.28     267      -44.0
   06/03/2017 03:10      59.8      59.4       87     55.7      0.00     18.28      76.6     0.37      1011.0     1       163         1       169        8.28     267      -46.1
   06/03/2017 03:00      60.1      59.9       86     55.9      0.00     18.28      76.8     0.37      1011.0     1       150         1       144        8.28     267      -47.6
   06/03/2017 02:50      60.4      60.1       86     55.9      0.00     18.28      77.0     0.37      1011.0     1       151         1       146        8.28     267      -49.5
   06/03/2017 02:40      60.8      60.4       84     55.8      0.00     18.28      77.0     0.37      1011.0     1       105         1       109        8.29     267      -53.1
   06/03/2017 02:30      60.9      60.8       84     55.9      0.00     18.28      77.0     0.37      1011.0     1        82         1        90        8.29     267      -55.4
   06/03/2017 02:20      61.1      60.9       83     55.8      0.00     18.28      76.9     0.37      1011.0     1        76         1        85        8.29     267      -57.3
   06/03/2017 02:10      61.3      61.1       83     55.9      0.00     18.28      77.0     0.37      1011.0     1        75         1        87        8.29     267      -59.6
   06/03/2017 02:00      61.4      61.0       82     55.7      0.00     18.28      76.9     0.37      1011.0     1        76         1        93        8.29     267      -61.4
   06/03/2017 01:50      61.6      61.3       81     55.6      0.00     18.28      77.1     0.37      1011.0     1        75         2        80        8.29     267      -62.1
   06/03/2017 01:40      61.6      61.5       81     55.8      0.00     18.28      77.0     0.37      1011.0     1        89         2        99        8.29     267      -62.5
   06/03/2017 01:30      61.8      61.5       81     56.0      0.00     18.28      77.0     0.37      1011.0     1        53         1        70        8.29     267      -62.0
   06/03/2017 01:20      61.6      61.1       82     55.8      0.00     18.28      77.3     0.37      1012.0     2        96         3        88        8.29     267      -62.7
   06/03/2017 01:10      61.7      61.1       80     55.3      0.00     18.28      77.4     0.37      1012.0     1       112         2       119        8.30     267      -62.9
   06/03/2017 01:00      62.2      61.8       80     55.7      0.00     18.28      77.1     0.37      1012.0     1       105         1        66        8.30     267      -63.3
   06/03/2017 00:50      62.3      62.1       79     55.8      0.00     18.28      77.2     0.37      1012.0     1        96         1       111        8.30     267      -64.5
   06/03/2017 00:40      62.7      62.3       79     55.9      0.00     18.28      77.3     0.37      1012.0     1       105         2        90        8.30     267      -65.5
   06/03/2017 00:30      63.0      62.6       78     56.1      0.00     18.28      77.1     0.37      1012.0     1       112         2       130        8.30     267      -66.4
   06/03/2017 00:20      63.6      63.3       78     56.3      0.00     18.28      77.2     0.37      1012.0     1        97         2       110        8.30     267      -67.8
   06/03/2017 00:10      63.9      63.5       77     56.4      0.00     18.28      77.3     0.37      1012.0     1        77         2        66        8.30     267      -68.9
   06/03/2017 00:00      64.3      63.8       77     56.5      0.00     18.28      77.1     0.37      1012.0     1        65         2       109        8.30     267      -69.8
   06/02/2017 23:50      64.4      64.1       76     56.7      0.00     18.28      77.3     0.37      1012.0     2        44         3        66        8.30     267      -70.4
   06/02/2017 23:40      64.9      64.4       75     56.7      0.00     18.28      77.2     0.37      1012.0     2        47         4        61        8.31     267      -70.9
   06/02/2017 23:30      65.0      64.7       75     56.7      0.00     18.28      77.2     0.37      1012.0     2        39         3        47        8.31     267      -71.1
   06/02/2017 23:20      65.0      64.9       74     56.5      0.00     18.28      77.2     0.37      1012.0     2        44         3        22        8.31     266      -71.5
   06/02/2017 23:10      65.3      65.2       73     56.5      0.00     18.28      77.4     0.37      1012.0     2        36         3        26        8.31     266      -72.2
   06/02/2017 23:00      65.6      65.3       73     56.5      0.00     18.28      77.2     0.37      1012.0     2        39         3        23        8.31     266      -73.1
   06/02/2017 22:50      66.1      65.7       72     56.7      0.00     18.28      77.2     0.37      1011.0     3        50         5        75        8.32     266      -73.8
   06/02/2017 22:40      66.8      66.3       71     56.8      0.00     18.28      77.3     0.37      1011.0     2        61         3        76        8.32     266      -74.8
   06/02/2017 22:30      67.3      66.8       70     57.0      0.00     18.28      77.2     0.37      1011.0     3        53         4        68        8.32     266      -75.6
   06/02/2017 22:20      68.1      67.4       69     57.2      0.00     18.28      77.3     0.37      1011.0     2        48         4        61        8.32     266      -76.1
   06/02/2017 22:10      68.7      68.3       68     57.4      0.00     18.28      77.3     0.37      1011.0     3        44         4        75        8.32     266      -77.0
   06/02/2017 22:00      69.3      68.9       66     57.5      0.00     18.28      77.2     0.37      1011.0     2        45         3        35        8.32     266      -77.6
   06/02/2017 21:50      70.3      69.5       65     57.6      0.00     18.28      77.3     0.37      1011.0     2        50         3        77        8.33     265      -78.5
   06/02/2017 21:40      71.3      70.4       63     57.7      0.00     18.28      77.3     0.37      1010.0     2        50         4        48        8.33     265      -79.1
   06/02/2017 21:30      72.0      71.4       62     57.9      0.00     18.28      77.3     0.37      1010.0     2        43         2        28        8.33     265      -79.5
   06/02/2017 21:20      72.8      72.1       60     57.9      0.00     18.28      77.0     0.37      1010.0     1        47         2        66        8.33     265      -80.6
   06/02/2017 21:10      73.6      72.9       59     57.9      0.00     18.28      77.2     0.37      1010.0     2        54         3        91        8.33     264      -81.4
   06/02/2017 21:00      74.7      73.7       54     56.2      0.00     18.28      77.1     0.37      1010.0     2        68         5        74        8.33     264      -81.4
   06/02/2017 20:50      76.2      75.0       43     51.6      0.00     18.28      77.0     0.37      1010.0     1        44         2        37        8.33     264      -81.0
   06/02/2017 20:40      77.3      76.3       38     49.1      0.00     18.28      77.1     0.37      1010.0     1       185         2       199        8.34     264      -82.3
   06/02/2017 20:30      77.6      77.3       37     49.5      0.00     18.28      77.0     0.37      1010.0     1       191         3       152        8.34     264      -84.3
   06/02/2017 20:20      78.0      77.5       38     50.4      0.00     18.28      77.0     0.37      1010.0     3       195         4       195        8.36     264      -84.0
   06/02/2017 20:10      78.7      78.0       38     50.9      0.00     18.28      77.1     0.37      1010.0     2       200         3       204        8.36     264      -84.4
   06/02/2017 20:00      79.5      78.9       37     50.8      0.00     18.28      77.1     0.37      1009.0     2       214         4       208        8.37     264      -84.3
   06/02/2017 19:50      80.4      79.5       36     51.0      0.00     18.28      76.9     0.37      1009.0     2       209         3       216        8.37     264      -81.9
   06/02/2017 19:40      81.6      80.5       35     50.5      0.00     18.28      76.8     0.37      1009.0     4       213         5       179        8.37     264      -78.1
   06/02/2017 19:30      82.9      81.9       33     50.0      0.00     18.28      77.0     0.37      1009.0     4       226         8       243        8.39     264      -63.5
   06/02/2017 19:20      84.7      83.2       31     50.0      0.00     18.28      76.9     0.37      1009.0     4       226         6       198        8.39     264      -48.5
   06/02/2017 19:10      85.6      84.9       30     50.7      0.00     18.28      76.8     0.37      1009.0     4       244         7       252        8.40     264      -30.4
   06/02/2017 19:00      85.6      85.3       30     50.5      0.00     18.28      76.7     0.37      1009.0     4       281         5       309        8.40     264      -11.0
   06/02/2017 18:50      85.9      85.5       30     50.4      0.00     18.28      76.7     0.37      1009.0     4       287         6       284        8.40     264       11.5
   06/02/2017 18:40      86.1      85.7       31     51.6      0.00     18.28      76.7     0.37      1009.0     5       251         9       258        8.40     264       36.0
   06/02/2017 18:30      86.6      86.0       30     51.2      0.00     18.28      76.5     0.37      1009.0     6       274         7       273        8.40     264       60.5
   06/02/2017 18:20      87.0      86.1       29     50.8      0.00     18.28      76.5     0.37      1009.0     5       227         6       238        8.41     264       84.7
   06/02/2017 18:10      86.7      86.3       30     51.3      0.00     18.28      76.5     0.37      1009.0     5       218         9       231        8.41     264      108.0
   06/02/2017 18:00      87.1      86.6       31     52.2      0.00     18.28      76.4     0.37      1009.0     6       231         9       216        8.41     264      132.1
   06/02/2017 17:50      88.2      87.1       31     53.0      0.00     18.28      76.4     0.36      1009.0     6       225         9       247        8.45     264      155.5
   06/02/2017 17:40      88.3      87.7       31     53.2      0.00     18.28      76.3     0.36      1009.0     6       265         8       260        8.45     264      179.1
   06/02/2017 17:30      88.8      87.7       31     54.2      0.00     18.28      76.1     0.36      1009.0     5       254         7       246        8.46     264      202.3
   06/02/2017 17:20      89.1      88.2       31     54.5      0.00     18.28      76.2     0.36      1009.0     6       268         7       274        8.46     264      225.0
   06/02/2017 17:10      89.7      88.8       31     54.7      0.00     18.28      76.1     0.36      1009.0     4       268         7       250        8.47     264      245.6
   06/02/2017 17:00      89.6      88.5       31     54.8      0.00     18.28      75.9     0.36      1009.0     5       280         8       267        8.48     264      268.7
   06/02/2017 16:50      89.2      88.5       32     54.8      0.00     18.28      75.8     0.36      1008.0     6       274         9       251        8.48     264      291.9
   06/02/2017 16:40      89.7      88.9       32     55.7      0.00     18.28      75.7     0.36      1008.0     6       298         8       299        8.49     264      311.8
   06/02/2017 16:30      89.5      89.0       33     56.6      0.00     18.28      75.8     0.36      1008.0     6       295        10       302        8.49     264      333.2
   06/02/2017 16:20      89.9      88.9       34     57.2      0.00     18.28      75.6     0.36      1009.0     6       284         8       304        8.50     264      354.7
   06/02/2017 16:10      90.2      89.5       34     57.5      0.00     18.28      75.7     0.36      1009.0     5       291         8       299        8.51     265      372.8
   06/02/2017 16:00      90.4      89.2       34     57.3      0.00     18.28      75.4     0.36      1009.0     6       294         9       290        8.51     265      392.2
   06/02/2017 15:50      91.2      90.1       34     58.2      0.00     18.28      75.3     0.36      1009.0     6       290         8       308        8.52     265      409.2
   06/02/2017 15:40      91.4      90.2       34     58.7      0.00     18.28      75.3     0.36      1009.0     6       297         8       299        8.52     265      421.7
   06/02/2017 15:30      93.5      91.8       32     58.3      0.00     18.28      75.4     0.36      1009.0     4       339         7       324        8.52     265      430.8
   06/02/2017 15:20      94.3      93.7       30     57.4      0.00     18.28      75.3     0.36      1009.0     3        39         7        73        8.53     265      445.1
   06/02/2017 15:10      93.7      92.9       29     56.1      0.00     18.28      75.0     0.36      1009.0     4        73         5        73        8.53     265      456.4
   06/02/2017 15:00      92.9      91.9       29     55.9      0.00     18.28      75.0     0.36      1009.0     2        50         4        60        8.54     265      469.4
   06/02/2017 14:50      92.0      90.8       30     56.0      0.00     18.28      74.8     0.36      1009.0     3        22         4        40        8.54     265      484.7
   06/02/2017 14:40      92.7      91.3       30     56.4      0.00     18.28      74.8     0.36      1009.0     3        14         6        26        8.56     265      499.0
   06/02/2017 14:30      93.0      91.4       30     56.5      0.00     18.28      74.7     0.36      1009.0     2        21         4        57        8.57     265      510.3
   06/02/2017 14:20      91.6      89.4       32     56.4      0.00     18.28      74.5     0.36      1009.0     3        32         4        44        8.57     265      524.8
   06/02/2017 14:10      90.3      88.4       33     56.1      0.00     18.28      74.5     0.36      1009.0     2       337         4       218        8.57     265      534.2
   06/02/2017 14:00      89.1      88.5       33     56.2      0.00     18.28      74.5     0.36      1010.0     4       334         6        20        8.58     266      541.6
   06/02/2017 13:50      89.1      88.5       33     56.2      0.00     18.28      74.3     0.36      1010.0     3         5         5       301        8.58     266      551.2
   06/02/2017 13:40      89.3      88.0       33     56.2      0.00     18.28      74.4     0.36      1010.0     2        53         4        86        8.58     266      557.5
   06/02/2017 13:30      88.6      86.5       34     56.1      0.00     18.28      74.2     0.36      1010.0     3       338         4       326        8.58     266      564.7
   06/02/2017 13:20      87.3      86.2       35     55.7      0.00     18.28      74.5     0.36      1010.0     3        57         5       111        8.59     266      568.5
   06/02/2017 13:10      87.0      86.2       35     56.0      0.00     18.28      74.1     0.36      1010.0     2        11         3        16        8.59     266      571.8
   06/02/2017 13:00      86.1      85.3       37     56.2      0.00     18.28      74.2     0.36      1010.0     3        30         6       345        8.59     266      576.4
   06/02/2017 12:50      85.3      84.4       38     56.2      0.00     18.28      74.1     0.36      1011.0     2       110         5        40        8.59     266      579.6
   06/02/2017 12:40      84.5      83.3       39     56.4      0.00     18.28      74.0     0.36      1011.0     3        24         5        30        8.59     266      577.9
   06/02/2017 12:30      83.1      82.4       40     56.1      0.00     18.28      74.2     0.36      1011.0     2        70         3        17        8.60     266      577.4
   06/02/2017 12:20      83.1      82.2       40     56.1      0.00     18.28      73.9     0.36      1011.0     3         7         4         4        8.60     266      576.3
   06/02/2017 12:10      82.6      81.3       42     56.2      0.00     18.28      74.0     0.36      1011.0     2        13         4        66        8.60     266      573.6
   06/02/2017 12:00      82.4      81.4       41     56.2      0.00     18.28      74.1     0.36      1011.0     3        56         4         3        8.60     266      561.7
   06/02/2017 11:50      81.6      81.0       42     56.2      0.00     18.28      74.0     0.36      1011.0     3        71         4        63        8.60     267      567.1
   06/02/2017 11:40      80.7      79.5       44     55.9      0.00     18.28      74.0     0.36      1011.0     3         8         4       349        8.60     267      562.0
   06/02/2017 11:30      80.0      78.9       44     55.7      0.00     18.28      74.0     0.36      1011.0     2       337         4       325        8.61     267      549.7
   06/02/2017 11:20      80.4      79.3       44     55.9      0.00     18.28      74.0     0.36      1011.0     3        56         5        96        8.60     267      546.2
   06/02/2017 11:10      79.3      77.9       46     55.9      0.00     18.28      74.0     0.36      1011.0     3        62         6        27        8.61     267      538.3
   06/02/2017 11:00      78.6      77.6       46     55.8      0.00     18.28      73.9     0.36      1011.0     3        46         5        74        8.61     267      526.0
   06/02/2017 10:50      78.4      76.8       47     55.8      0.00     18.28      74.3     0.36      1011.0     3        21         4        43        8.61     268      515.6
   06/02/2017 10:40      77.4      76.8       47     55.6      0.00     18.28      74.2     0.36      1012.0     2        70         5        80        8.61     268      505.3
   06/02/2017 10:30      76.7      74.6       50     55.4      0.00     18.28      74.2     0.36      1012.0     2       351         4       314        8.62     268      487.4
   06/02/2017 10:20      74.8      73.8       51     55.1      0.00     18.28      74.3     0.36      1012.0     3       347         5       336        8.62     268      473.3
   06/02/2017 10:10      74.4      72.6       52     55.0      0.00     18.28      74.5     0.36      1012.0     3       338         4       342        8.63     268      457.5
   06/02/2017 10:00      72.8      72.3       54     54.9      0.00     18.28      74.3     0.36      1012.0     2       338         4       334        8.63     268      442.1
   06/02/2017 09:50      72.3      71.6       55     55.0      0.00     18.28      74.0     0.36      1012.0     3         5         4        19        8.63     268      423.3
   06/02/2017 09:40      71.3      70.4       57     54.8      0.00     18.28      74.5     0.36      1012.0     2       343         3       338        8.63     269      406.9
   06/02/2017 09:30      70.7      69.2       59     54.6      0.00     18.28      74.4     0.36      1012.0     2       347         3       341        8.64     269      388.0
   06/02/2017 09:20      70.0      69.5       59     54.6      0.00     18.28      74.5     0.36      1012.0     3       354         5       319        8.64     269      371.7
   06/02/2017 09:10      69.5      68.8       60     54.4      0.00     18.28      74.3     0.36      1012.0     2       315         3       323        8.65     269      355.7
   06/02/2017 09:00      68.8      68.0       61     54.3      0.00     18.28      74.4     0.36      1012.0     2        55         3        87        8.65     269      344.7
   06/02/2017 08:50      67.8      65.6       64     54.1      0.00     18.28      74.2     0.36      1012.0     2        49         4        86        8.65     269      350.0
   06/02/2017 08:40      65.6      65.0       67     53.9      0.00     18.28      74.5     0.36      1012.0     2       352         3       349        8.66     269      113.5
   06/02/2017 08:30      64.9      63.7       69     53.8      0.00     18.28      74.6     0.37      1012.0     2        36         3        73        8.66     269       -0.9
   06/02/2017 08:20      63.8      63.4       70     53.6      0.00     18.28      74.2     0.37      1012.0     2       334         3       271        8.66     269       -6.5
   06/02/2017 08:10      63.7      62.8       70     53.5      0.00     18.28      74.6     0.37      1012.0     1        30         2        10        8.66     269       -8.4
   06/02/2017 08:00      63.0      62.2       71     53.3      0.00     18.28      74.5     0.37      1012.0     1         5         3        29        8.66     269       -4.3
   06/02/2017 07:50      62.2      61.4       73     53.1      0.00     18.28      74.8     0.37      1012.0     1       199         2        71        8.66     269       14.4
   06/02/2017 07:40      61.6      61.1       74     53.0      0.00     18.28      74.5     0.37      1012.0     2       355         3        78        8.67     269      -11.4
   06/02/2017 07:30      61.0      60.4       75     52.8      0.00     18.28      74.5     0.37      1012.0     1       232         2       255        8.67     269       10.7
   06/02/2017 07:20      60.4      59.7       77     52.7      0.00     18.28      74.7     0.37      1012.0     1       289         2       257        8.67     269       -1.0
   06/02/2017 07:10      59.9      59.2       78     52.6      0.00     18.28      74.7     0.37      1012.0     2       289         2       281        8.67     269        3.5
   06/02/2017 07:00      59.3      58.1       81     52.8      0.00     18.28      74.6     0.37      1012.0     2       273         3       251        8.67     269        7.1
   06/02/2017 06:50      58.1      57.0       85     53.0      0.00     18.28      75.0     0.37      1012.0     0       345         1       356        8.67     268        1.6
   06/02/2017 06:40      57.0      56.0       87     52.7      0.00     18.28      74.8     0.37      1012.0     0       114         1        95        8.67     268        2.3
   06/02/2017 06:30      56.1      55.4       89     52.3      0.00     18.28      74.9     0.37      1012.0     1       159         1       140        8.67     269       -6.4
   06/02/2017 06:20      55.4      54.8       89     51.7      0.00     18.28      74.8     0.37      1012.0     1       148         1       164        8.67     268      -12.0
   06/02/2017 06:10      54.9      54.5       89     51.5      0.00     18.28      75.0     0.37      1012.0     1       185         1       202        8.67     268      -14.2
   06/02/2017 06:00      54.8      54.6       89     51.5      0.00     18.28      74.8     0.37      1012.0     0       115         1       138        8.67     268      -22.3
   06/02/2017 05:50      54.8      54.6       89     51.5      0.00     18.28      74.8     0.37      1012.0     1       167         1       193        8.67     268      -27.4
   06/02/2017 05:40      54.8      54.6       89     51.4      0.00     18.28      75.1     0.37      1012.0     1       168         2       144        8.68     268      -31.7
   06/02/2017 05:30      54.8      54.6       88     51.2      0.00     18.28      75.2     0.37      1012.0     1       140         2       145        8.68     268      -33.9
   06/02/2017 05:20      55.1      54.8       88     51.6      0.00     18.28      75.1     0.37      1012.0     1       147         2       137        8.68     268      -35.9
   06/02/2017 05:10      54.8      54.6       88     51.2      0.00     18.28      75.4     0.37      1012.0     1       161         3       146        8.68     268      -37.7
   06/02/2017 05:00      55.0      54.7       88     51.3      0.00     18.28      75.5     0.37      1012.0     2       166         3       145        8.68     268      -38.1
   06/02/2017 04:50      55.2      54.9       87     51.4      0.00     18.28      75.1     0.37      1012.0     1       162         3       137        8.68     267      -39.2
   06/02/2017 04:40      55.1      54.9       86     51.0      0.00     18.28      75.5     0.37      1012.0     1       144         2       140        8.68     268      -40.8
   06/02/2017 04:30      55.5      55.3       86     51.4      0.00     18.28      75.6     0.37      1012.0     2       195         2       179        8.68     268      -40.2
   06/02/2017 04:20      55.8      55.5       86     51.5      0.00     18.28      75.5     0.37      1012.0     1       161         2       137        8.68     267      -41.3
   06/02/2017 04:10      55.5      54.9       87     51.5      0.00     18.28      75.1     0.37      1011.0     1       201         2       234        8.68     268      -42.1
   06/02/2017 04:00      54.9      54.3       87     50.9      0.00     18.28      75.5     0.37      1011.0     2       127         3       138        8.68     267      -46.4
   06/02/2017 03:50      55.1      54.9       87     51.4      0.00     18.28      75.4     0.37      1011.0     2       144         3       149        8.68     268      -44.6
   06/02/2017 03:40      55.4      54.9       87     51.4      0.00     18.28      75.5     0.37      1011.0     2       137         2       137        8.68     267      -45.7
   06/02/2017 03:30      56.0      55.5       86     51.7      0.00     18.28      75.5     0.37      1011.0     1       153         1       140        8.69     268      -46.1
   06/02/2017 03:20      56.1      55.8       86     51.8      0.00     18.28      75.5     0.37      1011.0     1       163         2       196        8.69     267      -48.0
   06/02/2017 03:10      56.2      55.9       86     51.8      0.00     18.28      75.4     0.37      1012.0     1       207         2       194        8.69     267      -47.0
   06/02/2017 03:00      56.5      56.0       86     52.0      0.00     18.28      75.4     0.37      1012.0     1       181         1       154        8.70     267      -48.1
   06/02/2017 02:50      56.6      56.0       86     52.1      0.00     18.28      75.6     0.37      1012.0     1       190         1       186        8.70     267      -49.8
   06/02/2017 02:40      56.5      55.9       86     52.1      0.00     18.28      75.8     0.37      1012.0     1       240         1       233        8.70     267      -50.0
   06/02/2017 02:30      56.4      56.0       85     51.9      0.00     18.28      75.9     0.37      1011.0     1        84         1        69        8.71     267      -54.3
   06/02/2017 02:20      56.8      56.3       85     52.1      0.00     18.28      76.0     0.37      1012.0     1       113         2       129        8.71     267      -56.8
   06/02/2017 02:10      57.0      56.7       85     52.5      0.00     18.28      76.0     0.37      1012.0     1       161         2       155        8.71     267      -57.1
   06/02/2017 02:00      57.2      56.8       85     52.4      0.00     18.28      75.5     0.37      1012.0     2       163         2       157        8.72     267      -57.3
   06/02/2017 01:50      57.4      57.2       85     52.8      0.00     18.28      76.0     0.37      1012.0     1       141         1       138        8.72     267      -56.9
   06/02/2017 01:40      57.4      57.1       84     52.5      0.00     18.28      75.9     0.37      1012.0     1       101         1       102        8.72     267      -60.0
   06/02/2017 01:30      57.5      57.2       84     52.5      0.00     18.28      75.8     0.37      1012.0     1       133         2       140        8.72     267      -60.7
   06/02/2017 01:20      57.9      57.4       83     52.4      0.00     18.28      75.9     0.37      1012.0     1       142         1       134        8.72     267      -62.4
   06/02/2017 01:10      58.3      57.7       82     52.7      0.00     18.28      75.9     0.37      1012.0     1       152         2       141        8.72     267      -62.0
   06/02/2017 01:00      58.4      58.0       82     52.7      0.00     18.28      76.0     0.37      1012.0     1       134         2       127        8.72     267      -63.2
   06/02/2017 00:50      58.7      58.3       80     52.5      0.00     18.28      76.2     0.37      1012.0     1       130         2       122        8.72     267      -64.3
   06/02/2017 00:40      59.1      58.8       80     52.7      0.00     18.28      76.1     0.37      1012.0     1       111         2        85        8.72     267      -65.4
   06/02/2017 00:30      59.2      58.8       79     52.4      0.00     18.28      75.9     0.37      1012.0     1        94         2        91        8.72     267      -66.1
   06/02/2017 00:20      59.5      59.3       78     52.6      0.00     18.28      76.1     0.37      1012.0     1        73         2        69        8.72     267      -66.5
   06/02/2017 00:10      59.6      59.4       77     52.3      0.00     18.28      75.8     0.37      1012.0     1        72         2        64        8.73     267      -67.1
   06/02/2017 00:00      59.9      59.5       76     52.2      0.00     18.28      76.1     0.37      1012.0     1        55         2        83        8.73     267      -67.3
   06/01/2017 23:50      60.3      59.9       75     52.1      0.00     18.28      76.0     0.37      1012.0     1        56         1        31        8.73     267      -67.6
   06/01/2017 23:40      60.5      60.3       75     52.3      0.00     18.28      76.0     0.37      1012.0     1        31         2        25        8.73     267      -68.2
   06/01/2017 23:30      60.4      60.3       74     52.1      0.00     18.28      76.0     0.37      1012.0     2        74         3        65        8.73     267      -67.5
   06/01/2017 23:20      60.5      60.3       74     52.0      0.00     18.28      76.0     0.37      1012.0     1        66         2        74        8.73     267      -67.8
   06/01/2017 23:10      60.7      60.5       73     52.0      0.00     18.28      76.1     0.37      1012.0     2        91         3        69        8.73     267      -68.5
   06/01/2017 23:00      60.9      60.8       73     52.0      0.00     18.28      76.1     0.37      1012.0     2        78         4        80        8.74     267      -68.9
   06/01/2017 22:50      61.0      60.9       72     51.9      0.00     18.28      76.2     0.37      1012.0     1        82         2        61        8.74     267      -69.6
   06/01/2017 22:40      61.4      61.1       71     51.8      0.00     18.28      76.2     0.37      1012.0     1        66         2        69        8.74     266      -69.6
   06/01/2017 22:30      61.4      61.2       71     51.9      0.00     18.28      76.0     0.37      1012.0     1        20         2        25        8.74     267      -69.7
   06/01/2017 22:20      62.0      61.4       70     51.7      0.00     18.28      76.1     0.37      1011.0     1        84         2       331        8.74     266      -70.2
   06/01/2017 22:10      62.3      62.1       69     52.0      0.00     18.28      76.1     0.37      1011.0     1        71         2        74        8.75     266      -70.9
   06/01/2017 22:00      62.7      62.4       68     52.1      0.00     18.28      76.2     0.37      1011.0     1        55         3        69        8.75     266      -71.8
   06/01/2017 21:50      62.7      62.4       68     52.0      0.00     18.28      76.1     0.37      1011.0     2        56         4        71        8.75     266      -72.1
   06/01/2017 21:40      63.2      62.7       68     52.0      0.00     18.28      75.8     0.37      1011.0     2        75         5        58        8.75     266      -72.9
   06/01/2017 21:30      63.5      63.3       67     52.1      0.00     18.28      76.3     0.37      1011.0     2        57         2        79        8.75     266      -74.3
   06/01/2017 21:20      63.9      63.5       66     52.2      0.00     18.28      76.2     0.37      1011.0     2        54         3        85        8.76     266      -75.8
   06/01/2017 21:10      64.2      63.9       65     52.3      0.00     18.28      76.2     0.37      1011.0     2        47         4        16        8.76     266      -77.4
   06/01/2017 21:00      65.0      64.5       64     52.4      0.00     18.28      76.2     0.37      1011.0     3        50         5        70        8.76     266      -78.8
   06/01/2017 20:50      65.5      65.0       64     52.6      0.00     18.28      76.1     0.37      1011.0     2        46         3        66        8.77     266      -80.5
   06/01/2017 20:40      66.3      65.8       62     52.8      0.00     18.28      76.0     0.37      1011.0     2        46         4        59        8.77     266      -82.3
   06/01/2017 20:30      67.3      66.5       61     53.1      0.00     18.28      76.1     0.37      1010.0     2        53         3        51        8.77     266      -83.9
   06/01/2017 20:20      68.2      67.4       59     53.1      0.00     18.28      75.9     0.37      1010.0     2        80         3        81        8.78     266      -84.5
   06/01/2017 20:10      69.1      68.3       58     53.2      0.00     18.28      76.2     0.37      1010.0     2        77         3        89        8.78     265      -84.6
   06/01/2017 20:00      70.2      69.2       56     53.6      0.00     18.28      75.9     0.37      1010.0     3        71         4        70        8.78     265      -82.8
   06/01/2017 19:50      71.2      70.3       55     54.0      0.00     18.28      76.0     0.37      1010.0     3        38         5        25        8.78     265      -80.0
   06/01/2017 19:40      72.0      71.3       54     54.2      0.00     18.28      76.2     0.37      1010.0     3        31         5        23        8.79     265      -76.6
   06/01/2017 19:30      72.9      71.9       53     54.3      0.00     18.28      75.9     0.37      1010.0     3        34         5        43        8.79     265      -62.3
   06/01/2017 19:20      74.0      72.9       51     54.5      0.00     18.28      76.0     0.37      1010.0     3        65         4        41        8.79     265      -45.8
   06/01/2017 19:10      74.7      74.2       50     54.6      0.00     18.28      75.7     0.37      1009.0     2        47         3        38        8.80     265      -28.3
   06/01/2017 19:00      75.2      74.4       49     54.6      0.00     18.28      75.7     0.37      1009.0     4        62         6        67        8.80     265       -8.4
   06/01/2017 18:50      75.8      75.1       49     54.8      0.00     18.28      75.7     0.37      1009.0     3        35         4        25        8.80     265       13.5
   06/01/2017 18:40      76.7      75.5       48     54.9      0.00     18.28      75.4     0.37      1009.0     3        43         5        23        8.81     265       36.2
   06/01/2017 18:30      77.5      76.7       46     55.1      0.00     18.28      75.7     0.37      1009.0     3        37         4        50        8.81     265       59.8
   06/01/2017 18:20      78.4      77.9       45     55.2      0.00     18.28      75.7     0.37      1009.0     3        43         4        55        8.82     265       83.0
   06/01/2017 18:10      79.2      77.9       45     55.3      0.00     18.28      75.7     0.37      1009.0     3        34         5        32        8.82     265      106.7
   06/01/2017 18:00      80.4      79.0       44     55.5      0.00     18.28      75.8     0.36      1009.0     2        51         4        78        8.82     265      130.6
   06/01/2017 17:50      81.2      80.7       41     55.3      0.00     18.28      75.5     0.36      1009.0     3        18         5       356        8.83     265      154.8
   06/01/2017 17:40      81.1      80.6       39     53.9      0.00     18.28      75.6     0.36      1009.0     3       339         6       313        8.83     264      178.9
   06/01/2017 17:30      80.5      79.5       42     55.0      0.00     18.28      75.2     0.36      1009.0     4         3         6       291        8.84     265      203.2
   06/01/2017 17:20      80.8      79.9       41     54.5      0.00     18.28      75.3     0.36      1009.0     4       293         6       310        8.85     265      227.0
   06/01/2017 17:10      81.5      80.4       42     56.1      0.00     18.28      75.2     0.36      1009.0     3         7         5        19        8.85     265      247.9
   06/01/2017 17:00      82.2      80.9       40     54.8      0.00     18.28      75.2     0.36      1009.0     6       295         8       317        8.87     265      271.4
   06/01/2017 16:50      81.9      81.0       40     54.7      0.00     18.28      75.1     0.36      1009.0     5       286         7       260        8.87     266      293.2
   06/01/2017 16:40      82.3      80.7       42     56.4      0.00     18.28      75.1     0.36      1009.0     4       338         6       299        8.88     266      314.2
   06/01/2017 16:30      82.3      81.3       42     56.4      0.00     18.28      75.0     0.36      1009.0     3        13         6       317        8.88     266      331.3
   06/01/2017 16:20      81.9      80.9       42     56.4      0.00     18.28      74.9     0.36      1009.0     3        36         6        18        8.88     266      351.0
   06/01/2017 16:10      82.8      81.7       42     56.6      0.00     18.28      74.8     0.36      1009.0     4        21         6        22        8.90     266      371.6
   06/01/2017 16:00      81.8      80.4       42     56.4      0.00     18.28      74.8     0.36      1009.0     3       132         7        68        8.91     266      393.6
   06/01/2017 15:50      82.4      80.8       42     56.8      0.00     18.28      74.7     0.36      1009.0     3        62         5       135        8.92     266      408.0
   06/01/2017 15:40      82.7      80.9       42     56.9      0.00     18.28      74.5     0.36      1010.0     3         2         5        30        8.92     266      426.3
   06/01/2017 15:30      81.2      80.4       44     56.8      0.00     18.28      74.6     0.36      1010.0     3        65         4        32        8.92     266      444.9
   06/01/2017 15:20      82.6      80.2       43     56.9      0.00     18.28      74.5     0.36      1010.0     2        50         3       168        8.93     266      460.7
   06/01/2017 15:10      80.4      79.9       44     56.7      0.00     18.28      74.5     0.36      1010.0     3       308         4       298        8.93     266      474.5
   06/01/2017 15:00      81.3      80.4       44     56.9      0.00     18.28      74.3     0.36      1010.0     3        82         7        95        8.94     266      487.3
   06/01/2017 14:50      81.1      78.2       45     56.8      0.00     18.28      74.4     0.36      1010.0     2        60         3        42        8.94     266      502.7
   06/01/2017 14:40      78.5      77.6       47     56.4      0.00     18.28      74.3     0.36      1010.0     3       154         6       144        8.94     266      515.6
   06/01/2017 14:30      80.2      78.1       46     56.5      0.00     18.28      74.2     0.36      1010.0     4       131         7       100        8.95     266      531.1
   06/01/2017 14:20      80.3      78.5       46     56.7      0.00     18.28      74.1     0.36      1010.0     3        45         6        72        8.95     266      539.5
   06/01/2017 14:10      78.7      77.3       48     56.5      0.00     18.28      74.1     0.36      1010.0     3        91         6       137        8.95     266      550.4
   06/01/2017 14:00      77.2      76.0       49     56.2      0.00     18.28      74.0     0.36      1010.0     4       140         7        96        8.95     266      559.7
   06/01/2017 13:50      79.1      77.3       47     56.6      0.00     18.28      73.9     0.36      1010.0     4        65         5        64        8.95     266      565.0
   06/01/2017 13:40      78.0      77.4       48     56.5      0.00     18.28      73.8     0.36      1011.0     3        11         5        19        8.96     266      567.5
   06/01/2017 13:30      78.2      77.4       48     56.5      0.00     18.28      74.1     0.36      1011.0     4        45         7       100        8.99     267      573.2
   06/01/2017 13:20      78.3      75.8       48     56.4      0.00     18.28      73.8     0.36      1011.0     4        32         6        25        8.99     267      581.7
   06/01/2017 13:10      75.9      75.3       51     56.0      0.00     18.28      73.8     0.36      1011.0     3        92         5        80        8.99     267      510.6
   06/01/2017 13:00      76.8      75.0       50     56.1      0.00     18.28      73.7     0.36      1011.0     4        68         7        91        9.00     267      587.3
   06/01/2017 12:50      76.6      75.7       50     56.1      0.00     18.28      73.4     0.36      1011.0     3        63         6        86        9.00     267      587.8
   06/01/2017 12:40      76.5      74.4       51     56.2      0.00     18.28      73.4     0.36      1011.0     3        44         6        76        9.00     267      589.2
   06/01/2017 12:30      74.4      73.5       53     56.0      0.00     18.28      73.7     0.36      1011.0     4        73         6        79        9.00     267      585.9
   06/01/2017 12:20      74.2      73.6       54     56.1      0.00     18.28      73.5     0.36      1011.0     4        85         8        83        9.00     267      591.6
   06/01/2017 12:10      74.7      73.6       53     55.9      0.00     18.28      73.8     0.36      1011.0     5        58         6        69        9.01     267      582.5
   06/01/2017 12:00      74.1      72.4       55     55.7      0.00     18.28      73.6     0.36      1011.0     4       106         8        69        9.01     267      581.2
   06/01/2017 11:50      72.4      72.1       56     55.6      0.00     18.28      73.6     0.36      1011.0     4        98         8       138        9.01     267      573.1
   06/01/2017 11:40      74.0      72.0       55     55.6      0.00     18.28      73.6     0.36      1011.0     5        77         8        82        9.01     267      567.7
   06/01/2017 11:30      74.0      73.1       53     55.5      0.00     18.28      73.4     0.36      1011.0     5        94         7        77        9.01     268      556.1
   06/01/2017 11:20      73.6      72.7       53     55.3      0.00     18.28      73.4     0.36      1011.0     5        38         6        56        9.01     268      545.1
   06/01/2017 11:10      73.3      72.7       54     55.1      0.00     18.28      73.2     0.36      1011.0     3        71         5       101        9.01     268      534.9
   06/01/2017 11:00      73.5      72.6       54     55.2      0.00     18.28      73.4     0.36      1011.0     4        69         6        66        9.01     268      528.8
   06/01/2017 10:50      73.8      72.7       53     54.7      0.00     18.28      73.4     0.36      1011.0     4        66         6        98        9.01     268      515.9
   06/01/2017 10:40      72.9      71.5       53     53.9      0.00     18.28      73.9     0.36      1011.0     3        82         5       150        9.01     268      501.1
   06/01/2017 10:30      72.4      71.3       52     53.5      0.00     18.28      73.5     0.36      1011.0     3        32         4       354        9.01     268      489.7
   06/01/2017 10:20      71.5      70.5       54     53.5      0.00     18.28      73.5     0.36      1011.0     3        52         4        96        9.01     268      477.4
   06/01/2017 10:10      70.3      68.9       56     53.3      0.00     18.28      73.4     0.36      1011.0     2       142         4       123        9.01     268      459.2
   06/01/2017 10:00      69.3      68.6       57     53.2      0.00     18.28      73.6     0.36      1011.0     3       125         6       123        9.01     268      437.1
   06/01/2017 09:50      69.4      68.4       57     53.2      0.00     18.28      73.7     0.36      1011.0     3       162         5       155        9.01     269      425.1
   06/01/2017 09:40      69.3      68.0       58     53.0      0.00     18.28      73.2     0.36      1012.0     3       352         4       348        9.01     269      413.0
   06/01/2017 09:30      67.9      67.5       59     52.9      0.00     18.28      74.0     0.36      1012.0     3       316         4       325        9.02     269      383.4
   06/01/2017 09:20      68.1      66.8       60     52.9      0.00     18.28      73.7     0.36      1012.0     2       297         4       309        9.02     269      361.7
   06/01/2017 09:10      66.8      65.7       62     52.9      0.00     18.28      74.1     0.36      1012.0     2       246         5       240        9.02     269      361.3
   06/01/2017 09:00      66.3      65.7       63     52.8      0.00     18.28      74.1     0.36      1012.0     2       282         5       239        9.02     269      342.4
   06/01/2017 08:50      65.8      64.2       65     53.0      0.00     18.28      73.8     0.36      1012.0     2       336         5       341        9.02     269      347.0
   06/01/2017 08:40      64.3      63.3       67     52.8      0.00     18.28      73.9     0.36      1012.0     2       281         6       284        9.02     269      141.4
   06/01/2017 08:30      63.5      62.9       69     52.7      0.00     18.28      73.9     0.36      1011.0     2       261         4       247        9.02     269       21.4
   06/01/2017 08:20      63.0      62.3       70     52.8      0.00     18.28      73.9     0.36      1011.0     2       325         5       318        9.02     269       20.5
   06/01/2017 08:10      62.5      62.3       70     52.6      0.00     18.28      74.1     0.36      1011.0     3       306         4       288        9.02     269       28.6
   06/01/2017 08:00      62.7      62.2       71     52.9      0.00     18.28      74.2     0.36      1012.0     3       304         6       340        9.02     269       87.0
   06/01/2017 07:50      62.4      61.8       72     53.0      0.00     18.28      74.1     0.36      1012.0     3       301         5       324        9.02     269       69.2
   06/01/2017 07:40      62.1      61.6       73     53.1      0.00     18.28      74.3     0.36      1012.0     2       282         4       284        9.02     269       56.5
   06/01/2017 07:30      61.6      61.2       76     53.7      0.00     18.28      74.2     0.36      1012.0     3       279         4       236        9.02     269       40.0
   06/01/2017 07:20      61.4      61.1       77     53.8      0.00     18.28      74.0     0.36      1011.0     3       230         4       250        9.02     269       39.4
   06/01/2017 07:10      61.2      60.8       77     53.8      0.00     18.28      74.6     0.36      1012.0     3       223         5       220        9.02     269       30.4
   06/01/2017 07:00      61.0      60.8       77     53.7      0.00     18.28      74.1     0.36      1011.0     3       230         5       231        9.02     269       26.3
   06/01/2017 06:50      61.0      60.8       77     53.8      0.00     18.28      73.8     0.37      1011.0     4       243         5       251        9.02     269       17.8
   06/01/2017 06:40      60.9      60.5       78     53.8      0.00     18.28      74.2     0.37      1011.0     3       235         5       233        9.02     269       10.4
   06/01/2017 06:30      60.5      59.9       79     53.8      0.00     18.28      74.2     0.37      1011.0     2       204         3       196        9.02     269        1.6
   06/01/2017 06:20      60.0      59.8       80     53.7      0.00     18.28      74.4     0.37      1011.0     3       202         5       198        9.02     269       -3.1
   06/01/2017 06:10      60.1      59.8       80     53.7      0.00     18.28      74.3     0.37      1011.0     2       196         4       212        9.02     269      -13.7
   06/01/2017 06:00      60.0      59.8       80     53.7      0.00     18.28      74.3     0.37      1011.0     2       188         3       163        9.03     269      -19.6
   06/01/2017 05:50      60.0      59.8       80     53.7      0.00     18.28      74.1     0.37      1011.0     2       183         4       193        9.03     269      -17.5
   06/01/2017 05:40      60.0      59.8       80     53.7      0.00     18.28      74.5     0.37      1011.0     2       181         4       206        9.03     269      -21.0
   06/01/2017 05:30      60.1      59.9       80     53.7      0.00     18.28      74.2     0.37      1011.0     2       164         3       172        9.03     269      -17.5
   06/01/2017 05:20      60.2      59.8       80     53.6      0.00     18.28      74.2     0.37      1011.0     1       171         2       166        9.03     269      -21.9
   06/01/2017 05:10      60.1      59.9       79     53.6      0.00     18.28      74.5     0.37      1011.0     2       182         3       167        9.03     269      -26.9
   06/01/2017 05:00      60.1      59.9       79     53.7      0.00     18.28      74.4     0.37      1011.0     1       210         2       192        9.03     269      -24.4
   06/01/2017 04:50      60.1      59.9       80     53.7      0.00     18.28      74.4     0.37      1011.0     1       205         1       203        9.03     269      -24.5
   06/01/2017 04:40      60.0      59.8       80     53.7      0.00     18.28      74.7     0.37      1011.0     2       190         2       196        9.03     269      -25.6
   06/01/2017 04:30      60.1      59.9       80     53.7      0.00     18.28      74.6     0.37      1011.0     2       188         3       179        9.03     269      -27.9
   06/01/2017 04:20      60.1      60.0       79     53.7      0.00     18.28      74.7     0.37      1011.0     2       162         3       131        9.04     269      -34.1
   06/01/2017 04:10      60.4      60.1       79     53.7      0.00     18.28      74.7     0.37      1011.0     2       170         3       159        9.04     269      -28.5
   06/01/2017 04:00      60.5      60.3       78     53.7      0.00     18.28      74.6     0.37      1011.0     2       161         2       151        9.04     269      -31.2
   06/01/2017 03:50      60.5      60.4       78     53.7      0.00     18.28      74.6     0.37      1011.0     2       193         3       199        9.04     269      -27.0
   06/01/2017 03:40      60.6      60.4       78     53.7      0.00     18.28      74.7     0.37      1011.0     2       203         3       211        9.04     269      -23.7
   06/01/2017 03:30      60.6      60.4       78     53.7      0.00     18.28      74.7     0.37      1011.0     2       177         2       189        9.04     269      -21.9
   06/01/2017 03:20      60.6      60.4       78     53.7      0.00     18.28      74.8     0.37      1011.0     2       184         3       177        9.05     269      -23.0
   06/01/2017 03:10      60.6      60.4       78     53.7      0.00     18.28      74.4     0.37      1011.0     2       195         2       191        9.05     269      -19.5
   06/01/2017 03:00      60.6      60.3       78     53.7      0.00     18.28      74.4     0.37      1011.0     2       184         2       194        9.05     269      -16.6
   06/01/2017 02:50      60.5      60.4       78     53.7      0.00     18.28      74.6     0.37      1011.0     2       183         3       190        9.05     269      -15.7
   06/01/2017 02:40      60.7      60.4       78     53.8      0.00     18.28      75.1     0.37      1011.0     2       201         3       218        9.05     269      -16.6
   06/01/2017 02:30      60.7      60.6       78     53.8      0.00     18.28      75.0     0.37      1011.0     2       220         2       217        9.06     269      -17.0
   06/01/2017 02:20      60.7      60.6       78     53.9      0.00     18.28      74.8     0.37      1011.0     2       167         3       169        9.06     269      -18.9
   06/01/2017 02:10      60.9      60.4       78     53.9      0.00     18.28      74.8     0.37      1011.0     2       165         3       170        9.06     269      -18.4
   06/01/2017 02:00      60.8      60.6       78     53.9      0.00     18.28      74.7     0.37      1011.0     2       172         3       179        9.06     269      -19.6
   06/01/2017 01:50      60.9      60.6       78     54.0      0.00     18.28      74.8     0.37      1011.0     2       170         3       178        9.06     269      -16.9
   06/01/2017 01:40      61.0      60.9       78     54.0      0.00     18.28      75.3     0.37      1011.0     3       163         4       150        9.06     269      -15.9
   06/01/2017 01:30      61.2      61.0       78     54.1      0.00     18.28      75.1     0.37      1011.0     2       173         4       154        9.06     269      -17.7
   06/01/2017 01:20      61.4      61.2       78     54.3      0.00     18.28      75.3     0.37      1011.0     2       182         4       196        9.07     269      -19.1
   06/01/2017 01:10      61.3      61.2       78     54.3      0.00     18.28      75.5     0.37      1011.0     2       184         3       201        9.07     269      -17.0
   06/01/2017 01:00      61.5      61.2       78     54.4      0.00     18.28      75.3     0.37      1011.0     2       168         3       175        9.07     269      -18.6
   06/01/2017 00:50      61.5      61.1       78     54.4      0.00     18.28      75.0     0.37      1011.0     2       170         3       168        9.07     269      -19.8
   06/01/2017 00:40      61.5      61.2       78     54.4      0.00     18.28      75.3     0.37      1011.0     3       162         3       158        9.08     269      -26.8
   06/01/2017 00:30      61.6      61.4       78     54.4      0.00     18.28      75.1     0.37      1011.0     2       159         3       198        9.08     269      -17.1
   06/01/2017 00:20      61.6      61.3       78     54.5      0.00     18.28      75.0     0.37      1011.0     2       156         2       144        9.08     269      -17.4
   06/01/2017 00:10      61.5      61.2       78     54.4      0.00     18.28      75.0     0.37      1011.0     1       161         3       163        9.08     269      -21.3
   06/01/2017 00:00      61.4      61.2       78     54.3      0.00     18.28      75.3     0.37      1011.0     2       151         3       147        9.08     269      -30.2


Back to data home page